<?xml version="1.0" encoding="UTF-8" standalone="no" ?>
<gpx xmlns="http://www.topografix.com/GPX/1/1" xmlns:xsi="http://www.w3.org/2001/XMLSchema-instance" xsi:schemaLocation="http://www.topografix.com/GPX/1/1 http://www.topografix.com/GPX/1/1/gpx.xsd" version="1.1" creator="VisuGPX - https://www.visugpx.com">
  <metadata>
    <name>20220119_La Roche Pauline.gpx</name>
  </metadata>
  <trk>
    <name><![CDATA[20220119_pauline.gpx]]></name>
    <trkseg>
      <trkpt lat="44.60249" lon="3.48623">
        <ele>1148.0087</ele>
        <time>2022-01-19T17:28:53Z</time>
      </trkpt>
      <trkpt lat="44.60249" lon="3.48623">
        <ele>1147.4061</ele>
        <time>2022-01-19T17:28:54Z</time>
      </trkpt>
      <trkpt lat="44.60249" lon="3.48623">
        <ele>1147.9875</ele>
        <time>2022-01-19T17:28:55Z</time>
      </trkpt>
      <trkpt lat="44.60249" lon="3.48623">
        <ele>1147.6704</ele>
        <time>2022-01-19T17:28:56Z</time>
      </trkpt>
      <trkpt lat="44.60249" lon="3.48623">
        <ele>1147.4326</ele>
        <time>2022-01-19T17:28:57Z</time>
      </trkpt>
      <trkpt lat="44.60249" lon="3.48623">
        <ele>1147.3904</ele>
        <time>2022-01-19T17:28:58Z</time>
      </trkpt>
      <trkpt lat="44.60249" lon="3.48623">
        <ele>1147.4326</ele>
        <time>2022-01-19T17:28:59Z</time>
      </trkpt>
      <trkpt lat="44.60249" lon="3.48623">
        <ele>1147.4274</ele>
        <time>2022-01-19T17:29:00Z</time>
      </trkpt>
      <trkpt lat="44.60249" lon="3.48623">
        <ele>1147.57</ele>
        <time>2022-01-19T17:29:01Z</time>
      </trkpt>
      <trkpt lat="44.60249" lon="3.48623">
        <ele>1147.5912</ele>
        <time>2022-01-19T17:29:02Z</time>
      </trkpt>
      <trkpt lat="44.60249" lon="3.48623">
        <ele>1147.4431</ele>
        <time>2022-01-19T17:29:03Z</time>
      </trkpt>
      <trkpt lat="44.60249" lon="3.48623">
        <ele>1147.496</ele>
        <time>2022-01-19T17:29:04Z</time>
      </trkpt>
      <trkpt lat="44.60249" lon="3.48623">
        <ele>1147.496</ele>
        <time>2022-01-19T17:29:04Z</time>
      </trkpt>
      <trkpt lat="44.60249" lon="3.48623">
        <ele>1147.496</ele>
        <time>2022-01-19T17:29:04Z</time>
      </trkpt>
      <trkpt lat="44.60249" lon="3.48623">
        <ele>1147.496</ele>
        <time>2022-01-19T17:29:04Z</time>
      </trkpt>
      <trkpt lat="44.60243" lon="3.48618">
        <ele>1147.6123</ele>
        <time>2022-01-19T17:31:40Z</time>
      </trkpt>
      <trkpt lat="44.60243" lon="3.48618">
        <ele>1147.6176</ele>
        <time>2022-01-19T17:31:41Z</time>
      </trkpt>
      <trkpt lat="44.60243" lon="3.48618">
        <ele>1147.6439</ele>
        <time>2022-01-19T17:31:42Z</time>
      </trkpt>
      <trkpt lat="44.60243" lon="3.48618">
        <ele>1147.6439</ele>
        <time>2022-01-19T17:31:42Z</time>
      </trkpt>
      <trkpt lat="44.60243" lon="3.48618">
        <ele>1147.6439</ele>
        <time>2022-01-19T17:31:42Z</time>
      </trkpt>
      <trkpt lat="44.60243" lon="3.48618">
        <ele>1147.6439</ele>
        <time>2022-01-19T17:31:42Z</time>
      </trkpt>
      <trkpt lat="44.60243" lon="3.48622">
        <ele>1147.961</ele>
        <time>2022-01-19T17:33:17Z</time>
      </trkpt>
      <trkpt lat="44.60244" lon="3.48619">
        <ele>1147.8501</ele>
        <time>2022-01-19T17:33:18Z</time>
      </trkpt>
      <trkpt lat="44.60244" lon="3.48615">
        <ele>1147.7285</ele>
        <time>2022-01-19T17:33:20Z</time>
      </trkpt>
      <trkpt lat="44.60245" lon="3.48612">
        <ele>1147.3956</ele>
        <time>2022-01-19T17:33:22Z</time>
      </trkpt>
      <trkpt lat="44.60246" lon="3.48608">
        <ele>1147.1525</ele>
        <time>2022-01-19T17:33:24Z</time>
      </trkpt>
      <trkpt lat="44.60246" lon="3.48606">
        <ele>1147.2106</ele>
        <time>2022-01-19T17:33:25Z</time>
      </trkpt>
      <trkpt lat="44.60246" lon="3.48605">
        <ele>1147.1948</ele>
        <time>2022-01-19T17:33:26Z</time>
      </trkpt>
      <trkpt lat="44.60246" lon="3.48603">
        <ele>1147.1472</ele>
        <time>2022-01-19T17:33:27Z</time>
      </trkpt>
      <trkpt lat="44.60246" lon="3.48601">
        <ele>1147.179</ele>
        <time>2022-01-19T17:33:28Z</time>
      </trkpt>
      <trkpt lat="44.60246" lon="3.48599">
        <ele>1146.994</ele>
        <time>2022-01-19T17:33:29Z</time>
      </trkpt>
      <trkpt lat="44.60246" lon="3.48598">
        <ele>1147.1631</ele>
        <time>2022-01-19T17:33:30Z</time>
      </trkpt>
      <trkpt lat="44.60245" lon="3.48597">
        <ele>1147.311</ele>
        <time>2022-01-19T17:33:31Z</time>
      </trkpt>
      <trkpt lat="44.60245" lon="3.48597">
        <ele>1147.2952</ele>
        <time>2022-01-19T17:33:32Z</time>
      </trkpt>
      <trkpt lat="44.60245" lon="3.48596">
        <ele>1147.311</ele>
        <time>2022-01-19T17:33:33Z</time>
      </trkpt>
      <trkpt lat="44.60245" lon="3.48596">
        <ele>1147.4431</ele>
        <time>2022-01-19T17:33:34Z</time>
      </trkpt>
      <trkpt lat="44.60245" lon="3.48596">
        <ele>1147.1631</ele>
        <time>2022-01-19T17:33:35Z</time>
      </trkpt>
      <trkpt lat="44.60245" lon="3.48596">
        <ele>1147.1631</ele>
        <time>2022-01-19T17:33:35Z</time>
      </trkpt>
      <trkpt lat="44.60245" lon="3.48596">
        <ele>1147.1631</ele>
        <time>2022-01-19T17:33:35Z</time>
      </trkpt>
      <trkpt lat="44.60245" lon="3.48596">
        <ele>1147.1631</ele>
        <time>2022-01-19T17:33:35Z</time>
      </trkpt>
      <trkpt lat="44.60241" lon="3.48588">
        <ele>1147.4431</ele>
        <time>2022-01-19T17:33:41Z</time>
      </trkpt>
      <trkpt lat="44.6024" lon="3.48586">
        <ele>1147.237</ele>
        <time>2022-01-19T17:33:42Z</time>
      </trkpt>
      <trkpt lat="44.60238" lon="3.48582">
        <ele>1147.3744</ele>
        <time>2022-01-19T17:33:44Z</time>
      </trkpt>
      <trkpt lat="44.60236" lon="3.4858">
        <ele>1147.2635</ele>
        <time>2022-01-19T17:33:46Z</time>
      </trkpt>
      <trkpt lat="44.60236" lon="3.48578">
        <ele>1147.1631</ele>
        <time>2022-01-19T17:33:47Z</time>
      </trkpt>
      <trkpt lat="44.60235" lon="3.48577">
        <ele>1147.0468</ele>
        <time>2022-01-19T17:33:48Z</time>
      </trkpt>
      <trkpt lat="44.60233" lon="3.48576">
        <ele>1147.0626</ele>
        <time>2022-01-19T17:33:49Z</time>
      </trkpt>
      <trkpt lat="44.60233" lon="3.48575">
        <ele>1147.0732</ele>
        <time>2022-01-19T17:33:50Z</time>
      </trkpt>
      <trkpt lat="44.60231" lon="3.48574">
        <ele>1147.0045</ele>
        <time>2022-01-19T17:33:51Z</time>
      </trkpt>
      <trkpt lat="44.6023" lon="3.48572">
        <ele>1147.0415</ele>
        <time>2022-01-19T17:33:52Z</time>
      </trkpt>
      <trkpt lat="44.6023" lon="3.48571">
        <ele>1146.994</ele>
        <time>2022-01-19T17:33:53Z</time>
      </trkpt>
      <trkpt lat="44.60229" lon="3.48569">
        <ele>1146.8566</ele>
        <time>2022-01-19T17:33:54Z</time>
      </trkpt>
      <trkpt lat="44.60228" lon="3.48568">
        <ele>1146.8566</ele>
        <time>2022-01-19T17:33:55Z</time>
      </trkpt>
      <trkpt lat="44.60227" lon="3.48566">
        <ele>1146.994</ele>
        <time>2022-01-19T17:33:56Z</time>
      </trkpt>
      <trkpt lat="44.60225" lon="3.48562">
        <ele>1146.9781</ele>
        <time>2022-01-19T17:33:58Z</time>
      </trkpt>
      <trkpt lat="44.60224" lon="3.48559">
        <ele>1146.9675</ele>
        <time>2022-01-19T17:34:00Z</time>
      </trkpt>
      <trkpt lat="44.60223" lon="3.48558">
        <ele>1146.9675</ele>
        <time>2022-01-19T17:34:01Z</time>
      </trkpt>
      <trkpt lat="44.60222" lon="3.48557">
        <ele>1146.7509</ele>
        <time>2022-01-19T17:34:02Z</time>
      </trkpt>
      <trkpt lat="44.60221" lon="3.48554">
        <ele>1146.6134</ele>
        <time>2022-01-19T17:34:03Z</time>
      </trkpt>
      <trkpt lat="44.6022" lon="3.48552">
        <ele>1146.6451</ele>
        <time>2022-01-19T17:34:04Z</time>
      </trkpt>
      <trkpt lat="44.60219" lon="3.48551">
        <ele>1146.7034</ele>
        <time>2022-01-19T17:34:05Z</time>
      </trkpt>
      <trkpt lat="44.60218" lon="3.48549">
        <ele>1146.5818</ele>
        <time>2022-01-19T17:34:06Z</time>
      </trkpt>
      <trkpt lat="44.60217" lon="3.48547">
        <ele>1146.5765</ele>
        <time>2022-01-19T17:34:07Z</time>
      </trkpt>
      <trkpt lat="44.60217" lon="3.48544">
        <ele>1146.3916</ele>
        <time>2022-01-19T17:34:08Z</time>
      </trkpt>
      <trkpt lat="44.60215" lon="3.4854">
        <ele>1146.2594</ele>
        <time>2022-01-19T17:34:10Z</time>
      </trkpt>
      <trkpt lat="44.60214" lon="3.48535">
        <ele>1145.8948</ele>
        <time>2022-01-19T17:34:12Z</time>
      </trkpt>
      <trkpt lat="44.60214" lon="3.48534">
        <ele>1145.8789</ele>
        <time>2022-01-19T17:34:13Z</time>
      </trkpt>
      <trkpt lat="44.60213" lon="3.48532">
        <ele>1145.7732</ele>
        <time>2022-01-19T17:34:14Z</time>
      </trkpt>
      <trkpt lat="44.60212" lon="3.4853">
        <ele>1145.5778</ele>
        <time>2022-01-19T17:34:15Z</time>
      </trkpt>
      <trkpt lat="44.60212" lon="3.48527">
        <ele>1145.5248</ele>
        <time>2022-01-19T17:34:16Z</time>
      </trkpt>
      <trkpt lat="44.60211" lon="3.48525">
        <ele>1145.3768</ele>
        <time>2022-01-19T17:34:17Z</time>
      </trkpt>
      <trkpt lat="44.60211" lon="3.48523">
        <ele>1145.102</ele>
        <time>2022-01-19T17:34:18Z</time>
      </trkpt>
      <trkpt lat="44.6021" lon="3.48521">
        <ele>1145.1444</ele>
        <time>2022-01-19T17:34:19Z</time>
      </trkpt>
      <trkpt lat="44.6021" lon="3.48518">
        <ele>1145.0968</ele>
        <time>2022-01-19T17:34:20Z</time>
      </trkpt>
      <trkpt lat="44.60209" lon="3.48516">
        <ele>1144.9594</ele>
        <time>2022-01-19T17:34:21Z</time>
      </trkpt>
      <trkpt lat="44.60209" lon="3.48514">
        <ele>1144.7004</ele>
        <time>2022-01-19T17:34:22Z</time>
      </trkpt>
      <trkpt lat="44.60208" lon="3.48512">
        <ele>1144.7322</ele>
        <time>2022-01-19T17:34:23Z</time>
      </trkpt>
      <trkpt lat="44.60207" lon="3.48509">
        <ele>1144.711</ele>
        <time>2022-01-19T17:34:24Z</time>
      </trkpt>
      <trkpt lat="44.60207" lon="3.48507">
        <ele>1144.4468</ele>
        <time>2022-01-19T17:34:25Z</time>
      </trkpt>
      <trkpt lat="44.60206" lon="3.48506">
        <ele>1144.0715</ele>
        <time>2022-01-19T17:34:26Z</time>
      </trkpt>
      <trkpt lat="44.60206" lon="3.48504">
        <ele>1143.855</ele>
        <time>2022-01-19T17:34:27Z</time>
      </trkpt>
      <trkpt lat="44.60205" lon="3.48501">
        <ele>1143.802</ele>
        <time>2022-01-19T17:34:28Z</time>
      </trkpt>
      <trkpt lat="44.60204" lon="3.485">
        <ele>1143.7809</ele>
        <time>2022-01-19T17:34:29Z</time>
      </trkpt>
      <trkpt lat="44.60204" lon="3.48497">
        <ele>1143.6329</ele>
        <time>2022-01-19T17:34:30Z</time>
      </trkpt>
      <trkpt lat="44.60204" lon="3.48496">
        <ele>1143.4532</ele>
        <time>2022-01-19T17:34:31Z</time>
      </trkpt>
      <trkpt lat="44.60203" lon="3.48494">
        <ele>1143.4374</ele>
        <time>2022-01-19T17:34:32Z</time>
      </trkpt>
      <trkpt lat="44.60202" lon="3.48491">
        <ele>1143.3053</ele>
        <time>2022-01-19T17:34:33Z</time>
      </trkpt>
      <trkpt lat="44.60202" lon="3.48489">
        <ele>1143.284</ele>
        <time>2022-01-19T17:34:34Z</time>
      </trkpt>
      <trkpt lat="44.60202" lon="3.48487">
        <ele>1142.9934</ele>
        <time>2022-01-19T17:34:35Z</time>
      </trkpt>
      <trkpt lat="44.60201" lon="3.48485">
        <ele>1142.761</ele>
        <time>2022-01-19T17:34:36Z</time>
      </trkpt>
      <trkpt lat="44.60201" lon="3.48483">
        <ele>1142.7292</ele>
        <time>2022-01-19T17:34:37Z</time>
      </trkpt>
      <trkpt lat="44.602" lon="3.48481">
        <ele>1142.7451</ele>
        <time>2022-01-19T17:34:38Z</time>
      </trkpt>
      <trkpt lat="44.602" lon="3.48479">
        <ele>1142.5602</ele>
        <time>2022-01-19T17:34:39Z</time>
      </trkpt>
      <trkpt lat="44.60199" lon="3.48477">
        <ele>1142.4121</ele>
        <time>2022-01-19T17:34:40Z</time>
      </trkpt>
      <trkpt lat="44.60198" lon="3.48475">
        <ele>1142.3011</ele>
        <time>2022-01-19T17:34:41Z</time>
      </trkpt>
      <trkpt lat="44.60198" lon="3.48473">
        <ele>1142.3752</ele>
        <time>2022-01-19T17:34:42Z</time>
      </trkpt>
      <trkpt lat="44.60197" lon="3.4847">
        <ele>1142.1162</ele>
        <time>2022-01-19T17:34:43Z</time>
      </trkpt>
      <trkpt lat="44.60196" lon="3.48468">
        <ele>1142.1426</ele>
        <time>2022-01-19T17:34:44Z</time>
      </trkpt>
      <trkpt lat="44.60196" lon="3.48466">
        <ele>1142.1215</ele>
        <time>2022-01-19T17:34:45Z</time>
      </trkpt>
      <trkpt lat="44.60196" lon="3.48464">
        <ele>1142.037</ele>
        <time>2022-01-19T17:34:46Z</time>
      </trkpt>
      <trkpt lat="44.60195" lon="3.48462">
        <ele>1141.8308</ele>
        <time>2022-01-19T17:34:47Z</time>
      </trkpt>
      <trkpt lat="44.60194" lon="3.4846">
        <ele>1141.6776</ele>
        <time>2022-01-19T17:34:48Z</time>
      </trkpt>
      <trkpt lat="44.60194" lon="3.48457">
        <ele>1141.5244</ele>
        <time>2022-01-19T17:34:49Z</time>
      </trkpt>
      <trkpt lat="44.60194" lon="3.48456">
        <ele>1141.3922</ele>
        <time>2022-01-19T17:34:50Z</time>
      </trkpt>
      <trkpt lat="44.60194" lon="3.48454">
        <ele>1141.1755</ele>
        <time>2022-01-19T17:34:51Z</time>
      </trkpt>
      <trkpt lat="44.60193" lon="3.48452">
        <ele>1141.202</ele>
        <time>2022-01-19T17:34:52Z</time>
      </trkpt>
      <trkpt lat="44.60193" lon="3.4845">
        <ele>1141.1914</ele>
        <time>2022-01-19T17:34:53Z</time>
      </trkpt>
      <trkpt lat="44.60192" lon="3.48448">
        <ele>1141.1227</ele>
        <time>2022-01-19T17:34:54Z</time>
      </trkpt>
      <trkpt lat="44.60192" lon="3.48446">
        <ele>1140.9377</ele>
        <time>2022-01-19T17:34:55Z</time>
      </trkpt>
      <trkpt lat="44.60191" lon="3.48444">
        <ele>1140.8109</ele>
        <time>2022-01-19T17:34:56Z</time>
      </trkpt>
      <trkpt lat="44.60191" lon="3.48442">
        <ele>1140.6577</ele>
        <time>2022-01-19T17:34:57Z</time>
      </trkpt>
      <trkpt lat="44.60191" lon="3.4844">
        <ele>1140.4991</ele>
        <time>2022-01-19T17:34:58Z</time>
      </trkpt>
      <trkpt lat="44.6019" lon="3.48437">
        <ele>1140.4304</ele>
        <time>2022-01-19T17:34:59Z</time>
      </trkpt>
      <trkpt lat="44.6019" lon="3.48435">
        <ele>1140.33</ele>
        <time>2022-01-19T17:35:00Z</time>
      </trkpt>
      <trkpt lat="44.60189" lon="3.48433">
        <ele>1140.1293</ele>
        <time>2022-01-19T17:35:01Z</time>
      </trkpt>
      <trkpt lat="44.60189" lon="3.4843">
        <ele>1140.0447</ele>
        <time>2022-01-19T17:35:02Z</time>
      </trkpt>
      <trkpt lat="44.60188" lon="3.48429">
        <ele>1139.8544</ele>
        <time>2022-01-19T17:35:03Z</time>
      </trkpt>
      <trkpt lat="44.60188" lon="3.48426">
        <ele>1139.7117</ele>
        <time>2022-01-19T17:35:04Z</time>
      </trkpt>
      <trkpt lat="44.60187" lon="3.48424">
        <ele>1139.5532</ele>
        <time>2022-01-19T17:35:05Z</time>
      </trkpt>
      <trkpt lat="44.60187" lon="3.48422">
        <ele>1139.5955</ele>
        <time>2022-01-19T17:35:06Z</time>
      </trkpt>
      <trkpt lat="44.60186" lon="3.4842">
        <ele>1140.7845</ele>
        <time>2022-01-19T17:35:07Z</time>
      </trkpt>
      <trkpt lat="44.60185" lon="3.48418">
        <ele>1139.7751</ele>
        <time>2022-01-19T17:35:08Z</time>
      </trkpt>
      <trkpt lat="44.60185" lon="3.48416">
        <ele>1139.0616</ele>
        <time>2022-01-19T17:35:09Z</time>
      </trkpt>
      <trkpt lat="44.60184" lon="3.48414">
        <ele>1139.104</ele>
        <time>2022-01-19T17:35:10Z</time>
      </trkpt>
      <trkpt lat="44.60183" lon="3.48411">
        <ele>1139.1146</ele>
        <time>2022-01-19T17:35:11Z</time>
      </trkpt>
      <trkpt lat="44.60183" lon="3.48409">
        <ele>1138.9032</ele>
        <time>2022-01-19T17:35:12Z</time>
      </trkpt>
      <trkpt lat="44.60182" lon="3.48407">
        <ele>1138.8292</ele>
        <time>2022-01-19T17:35:13Z</time>
      </trkpt>
      <trkpt lat="44.60181" lon="3.48405">
        <ele>1138.6918</ele>
        <time>2022-01-19T17:35:14Z</time>
      </trkpt>
      <trkpt lat="44.60181" lon="3.48403">
        <ele>1138.6548</ele>
        <time>2022-01-19T17:35:15Z</time>
      </trkpt>
      <trkpt lat="44.60181" lon="3.48401">
        <ele>1138.5386</ele>
        <time>2022-01-19T17:35:16Z</time>
      </trkpt>
      <trkpt lat="44.6018" lon="3.48399">
        <ele>1138.5438</ele>
        <time>2022-01-19T17:35:17Z</time>
      </trkpt>
      <trkpt lat="44.6018" lon="3.48397">
        <ele>1138.38</ele>
        <time>2022-01-19T17:35:18Z</time>
      </trkpt>
      <trkpt lat="44.60179" lon="3.48395">
        <ele>1138.3483</ele>
        <time>2022-01-19T17:35:19Z</time>
      </trkpt>
      <trkpt lat="44.60178" lon="3.48393">
        <ele>1138.2268</ele>
        <time>2022-01-19T17:35:20Z</time>
      </trkpt>
      <trkpt lat="44.60178" lon="3.48391">
        <ele>1138.1052</ele>
        <time>2022-01-19T17:35:21Z</time>
      </trkpt>
      <trkpt lat="44.60178" lon="3.48388">
        <ele>1138.047</ele>
        <time>2022-01-19T17:35:22Z</time>
      </trkpt>
      <trkpt lat="44.60177" lon="3.48386">
        <ele>1137.9889</ele>
        <time>2022-01-19T17:35:23Z</time>
      </trkpt>
      <trkpt lat="44.60177" lon="3.48384">
        <ele>1137.9308</ele>
        <time>2022-01-19T17:35:24Z</time>
      </trkpt>
      <trkpt lat="44.60176" lon="3.48381">
        <ele>1137.619</ele>
        <time>2022-01-19T17:35:25Z</time>
      </trkpt>
      <trkpt lat="44.60176" lon="3.48379">
        <ele>1137.582</ele>
        <time>2022-01-19T17:35:26Z</time>
      </trkpt>
      <trkpt lat="44.60175" lon="3.48377">
        <ele>1137.3971</ele>
        <time>2022-01-19T17:35:27Z</time>
      </trkpt>
      <trkpt lat="44.60175" lon="3.48375">
        <ele>1137.4023</ele>
        <time>2022-01-19T17:35:28Z</time>
      </trkpt>
      <trkpt lat="44.60175" lon="3.48372">
        <ele>1137.2015</ele>
        <time>2022-01-19T17:35:29Z</time>
      </trkpt>
      <trkpt lat="44.60174" lon="3.4837">
        <ele>1137.3125</ele>
        <time>2022-01-19T17:35:30Z</time>
      </trkpt>
      <trkpt lat="44.60173" lon="3.48368">
        <ele>1137.1064</ele>
        <time>2022-01-19T17:35:31Z</time>
      </trkpt>
      <trkpt lat="44.60173" lon="3.48365">
        <ele>1137.0536</ele>
        <time>2022-01-19T17:35:32Z</time>
      </trkpt>
      <trkpt lat="44.60172" lon="3.48361">
        <ele>1136.9585</ele>
        <time>2022-01-19T17:35:34Z</time>
      </trkpt>
      <trkpt lat="44.60171" lon="3.48359">
        <ele>1136.9109</ele>
        <time>2022-01-19T17:35:35Z</time>
      </trkpt>
      <trkpt lat="44.6017" lon="3.48356">
        <ele>1136.9055</ele>
        <time>2022-01-19T17:35:36Z</time>
      </trkpt>
      <trkpt lat="44.6017" lon="3.48354">
        <ele>1136.7418</ele>
        <time>2022-01-19T17:35:37Z</time>
      </trkpt>
      <trkpt lat="44.60169" lon="3.48352">
        <ele>1136.6466</ele>
        <time>2022-01-19T17:35:38Z</time>
      </trkpt>
      <trkpt lat="44.60168" lon="3.4835">
        <ele>1136.6096</ele>
        <time>2022-01-19T17:35:39Z</time>
      </trkpt>
      <trkpt lat="44.60168" lon="3.48348">
        <ele>1136.3931</ele>
        <time>2022-01-19T17:35:40Z</time>
      </trkpt>
      <trkpt lat="44.60167" lon="3.48346">
        <ele>1136.1816</ele>
        <time>2022-01-19T17:35:41Z</time>
      </trkpt>
      <trkpt lat="44.60167" lon="3.48343">
        <ele>1136.2661</ele>
        <time>2022-01-19T17:35:42Z</time>
      </trkpt>
      <trkpt lat="44.60167" lon="3.48341">
        <ele>1136.208</ele>
        <time>2022-01-19T17:35:43Z</time>
      </trkpt>
      <trkpt lat="44.60166" lon="3.48338">
        <ele>1136.1393</ele>
        <time>2022-01-19T17:35:44Z</time>
      </trkpt>
      <trkpt lat="44.60166" lon="3.48337">
        <ele>1136.0759</ele>
        <time>2022-01-19T17:35:45Z</time>
      </trkpt>
      <trkpt lat="44.60166" lon="3.48334">
        <ele>1136.0125</ele>
        <time>2022-01-19T17:35:46Z</time>
      </trkpt>
      <trkpt lat="44.60165" lon="3.48332">
        <ele>1135.8169</ele>
        <time>2022-01-19T17:35:47Z</time>
      </trkpt>
      <trkpt lat="44.60165" lon="3.48331">
        <ele>1135.8329</ele>
        <time>2022-01-19T17:35:48Z</time>
      </trkpt>
      <trkpt lat="44.60164" lon="3.48329">
        <ele>1135.8329</ele>
        <time>2022-01-19T17:35:49Z</time>
      </trkpt>
      <trkpt lat="44.60164" lon="3.48327">
        <ele>1135.9067</ele>
        <time>2022-01-19T17:35:50Z</time>
      </trkpt>
      <trkpt lat="44.60163" lon="3.48325">
        <ele>1135.5739</ele>
        <time>2022-01-19T17:35:51Z</time>
      </trkpt>
      <trkpt lat="44.60163" lon="3.48323">
        <ele>1135.3678</ele>
        <time>2022-01-19T17:35:52Z</time>
      </trkpt>
      <trkpt lat="44.60162" lon="3.48321">
        <ele>1135.4207</ele>
        <time>2022-01-19T17:35:53Z</time>
      </trkpt>
      <trkpt lat="44.60162" lon="3.48319">
        <ele>1135.2991</ele>
        <time>2022-01-19T17:35:54Z</time>
      </trkpt>
      <trkpt lat="44.60161" lon="3.48317">
        <ele>1135.2251</ele>
        <time>2022-01-19T17:35:55Z</time>
      </trkpt>
      <trkpt lat="44.6016" lon="3.48315">
        <ele>1135.1248</ele>
        <time>2022-01-19T17:35:56Z</time>
      </trkpt>
      <trkpt lat="44.6016" lon="3.48313">
        <ele>1135.0613</ele>
        <time>2022-01-19T17:35:57Z</time>
      </trkpt>
      <trkpt lat="44.6016" lon="3.4831">
        <ele>1135.0454</ele>
        <time>2022-01-19T17:35:58Z</time>
      </trkpt>
      <trkpt lat="44.6016" lon="3.48308">
        <ele>1134.9873</ele>
        <time>2022-01-19T17:35:59Z</time>
      </trkpt>
      <trkpt lat="44.60159" lon="3.48306">
        <ele>1134.6438</ele>
        <time>2022-01-19T17:36:00Z</time>
      </trkpt>
      <trkpt lat="44.60159" lon="3.48304">
        <ele>1134.4377</ele>
        <time>2022-01-19T17:36:01Z</time>
      </trkpt>
      <trkpt lat="44.60158" lon="3.48301">
        <ele>1134.3584</ele>
        <time>2022-01-19T17:36:02Z</time>
      </trkpt>
      <trkpt lat="44.60158" lon="3.48299">
        <ele>1134.3108</ele>
        <time>2022-01-19T17:36:03Z</time>
      </trkpt>
      <trkpt lat="44.60158" lon="3.48297">
        <ele>1134.0941</ele>
        <time>2022-01-19T17:36:04Z</time>
      </trkpt>
      <trkpt lat="44.60157" lon="3.48294">
        <ele>1134.0571</ele>
        <time>2022-01-19T17:36:05Z</time>
      </trkpt>
      <trkpt lat="44.60157" lon="3.48292">
        <ele>1133.8352</ele>
        <time>2022-01-19T17:36:06Z</time>
      </trkpt>
      <trkpt lat="44.60157" lon="3.48289">
        <ele>1133.6978</ele>
        <time>2022-01-19T17:36:07Z</time>
      </trkpt>
      <trkpt lat="44.60157" lon="3.48287">
        <ele>1133.6396</ele>
        <time>2022-01-19T17:36:08Z</time>
      </trkpt>
      <trkpt lat="44.60157" lon="3.48284">
        <ele>1133.5393</ele>
        <time>2022-01-19T17:36:09Z</time>
      </trkpt>
      <trkpt lat="44.60157" lon="3.48282">
        <ele>1133.4758</ele>
        <time>2022-01-19T17:36:10Z</time>
      </trkpt>
      <trkpt lat="44.60156" lon="3.4828">
        <ele>1133.2963</ele>
        <time>2022-01-19T17:36:11Z</time>
      </trkpt>
      <trkpt lat="44.60156" lon="3.48278">
        <ele>1133.1217</ele>
        <time>2022-01-19T17:36:12Z</time>
      </trkpt>
      <trkpt lat="44.60156" lon="3.48275">
        <ele>1133.069</ele>
        <time>2022-01-19T17:36:13Z</time>
      </trkpt>
      <trkpt lat="44.60156" lon="3.48274">
        <ele>1132.7888</ele>
        <time>2022-01-19T17:36:14Z</time>
      </trkpt>
      <trkpt lat="44.60156" lon="3.48271">
        <ele>1132.7518</ele>
        <time>2022-01-19T17:36:15Z</time>
      </trkpt>
      <trkpt lat="44.60155" lon="3.48269">
        <ele>1132.551</ele>
        <time>2022-01-19T17:36:16Z</time>
      </trkpt>
      <trkpt lat="44.60155" lon="3.48267">
        <ele>1132.5774</ele>
        <time>2022-01-19T17:36:17Z</time>
      </trkpt>
      <trkpt lat="44.60155" lon="3.48264">
        <ele>1132.5404</ele>
        <time>2022-01-19T17:36:18Z</time>
      </trkpt>
      <trkpt lat="44.60155" lon="3.48262">
        <ele>1132.4507</ele>
        <time>2022-01-19T17:36:19Z</time>
      </trkpt>
      <trkpt lat="44.60155" lon="3.48259">
        <ele>1132.3291</ele>
        <time>2022-01-19T17:36:20Z</time>
      </trkpt>
      <trkpt lat="44.60155" lon="3.48257">
        <ele>1132.0543</ele>
        <time>2022-01-19T17:36:21Z</time>
      </trkpt>
      <trkpt lat="44.60155" lon="3.48255">
        <ele>1131.9434</ele>
        <time>2022-01-19T17:36:22Z</time>
      </trkpt>
      <trkpt lat="44.60155" lon="3.48253">
        <ele>1131.7108</ele>
        <time>2022-01-19T17:36:23Z</time>
      </trkpt>
      <trkpt lat="44.60154" lon="3.4825">
        <ele>1131.6843</ele>
        <time>2022-01-19T17:36:24Z</time>
      </trkpt>
      <trkpt lat="44.60154" lon="3.48249">
        <ele>1131.7848</ele>
        <time>2022-01-19T17:36:25Z</time>
      </trkpt>
      <trkpt lat="44.60154" lon="3.48247">
        <ele>1131.6632</ele>
        <time>2022-01-19T17:36:26Z</time>
      </trkpt>
      <trkpt lat="44.60154" lon="3.48245">
        <ele>1131.5205</ele>
        <time>2022-01-19T17:36:27Z</time>
      </trkpt>
      <trkpt lat="44.60154" lon="3.48243">
        <ele>1131.3884</ele>
        <time>2022-01-19T17:36:28Z</time>
      </trkpt>
      <trkpt lat="44.60154" lon="3.4824">
        <ele>1131.4465</ele>
        <time>2022-01-19T17:36:29Z</time>
      </trkpt>
      <trkpt lat="44.60154" lon="3.48238">
        <ele>1131.3356</ele>
        <time>2022-01-19T17:36:30Z</time>
      </trkpt>
      <trkpt lat="44.60154" lon="3.48235">
        <ele>1131.4043</ele>
        <time>2022-01-19T17:36:31Z</time>
      </trkpt>
      <trkpt lat="44.60154" lon="3.48234">
        <ele>1131.2457</ele>
        <time>2022-01-19T17:36:32Z</time>
      </trkpt>
      <trkpt lat="44.60155" lon="3.48232">
        <ele>1131.0767</ele>
        <time>2022-01-19T17:36:33Z</time>
      </trkpt>
      <trkpt lat="44.60155" lon="3.4823">
        <ele>1130.9814</ele>
        <time>2022-01-19T17:36:34Z</time>
      </trkpt>
      <trkpt lat="44.60155" lon="3.48228">
        <ele>1130.9022</ele>
        <time>2022-01-19T17:36:35Z</time>
      </trkpt>
      <trkpt lat="44.60155" lon="3.48226">
        <ele>1130.7437</ele>
        <time>2022-01-19T17:36:36Z</time>
      </trkpt>
      <trkpt lat="44.60155" lon="3.48224">
        <ele>1130.6433</ele>
        <time>2022-01-19T17:36:37Z</time>
      </trkpt>
      <trkpt lat="44.60154" lon="3.48222">
        <ele>1130.6381</ele>
        <time>2022-01-19T17:36:38Z</time>
      </trkpt>
      <trkpt lat="44.60154" lon="3.48219">
        <ele>1130.6697</ele>
        <time>2022-01-19T17:36:39Z</time>
      </trkpt>
      <trkpt lat="44.60154" lon="3.48217">
        <ele>1130.4266</ele>
        <time>2022-01-19T17:36:40Z</time>
      </trkpt>
      <trkpt lat="44.60154" lon="3.48214">
        <ele>1130.4901</ele>
        <time>2022-01-19T17:36:41Z</time>
      </trkpt>
      <trkpt lat="44.60154" lon="3.48211">
        <ele>1130.5746</ele>
        <time>2022-01-19T17:36:42Z</time>
      </trkpt>
      <trkpt lat="44.60154" lon="3.48207">
        <ele>1130.3156</ele>
        <time>2022-01-19T17:36:44Z</time>
      </trkpt>
      <trkpt lat="44.60154" lon="3.48205">
        <ele>1130.1149</ele>
        <time>2022-01-19T17:36:45Z</time>
      </trkpt>
      <trkpt lat="44.60154" lon="3.48202">
        <ele>1130.0303</ele>
        <time>2022-01-19T17:36:46Z</time>
      </trkpt>
      <trkpt lat="44.60155" lon="3.482">
        <ele>1130.0725</ele>
        <time>2022-01-19T17:36:47Z</time>
      </trkpt>
      <trkpt lat="44.60154" lon="3.48198">
        <ele>1130.0038</ele>
        <time>2022-01-19T17:36:48Z</time>
      </trkpt>
      <trkpt lat="44.60154" lon="3.48196">
        <ele>1129.9352</ele>
        <time>2022-01-19T17:36:49Z</time>
      </trkpt>
      <trkpt lat="44.60154" lon="3.48194">
        <ele>1129.9457</ele>
        <time>2022-01-19T17:36:50Z</time>
      </trkpt>
      <trkpt lat="44.60155" lon="3.48192">
        <ele>1129.8295</ele>
        <time>2022-01-19T17:36:51Z</time>
      </trkpt>
      <trkpt lat="44.60155" lon="3.48189">
        <ele>1129.7714</ele>
        <time>2022-01-19T17:36:52Z</time>
      </trkpt>
      <trkpt lat="44.60155" lon="3.48186">
        <ele>1129.7396</ele>
        <time>2022-01-19T17:36:53Z</time>
      </trkpt>
      <trkpt lat="44.60155" lon="3.48184">
        <ele>1129.8136</ele>
        <time>2022-01-19T17:36:54Z</time>
      </trkpt>
      <trkpt lat="44.60155" lon="3.48182">
        <ele>1129.692</ele>
        <time>2022-01-19T17:36:55Z</time>
      </trkpt>
      <trkpt lat="44.60155" lon="3.4818">
        <ele>1129.5706</ele>
        <time>2022-01-19T17:36:56Z</time>
      </trkpt>
      <trkpt lat="44.60154" lon="3.48177">
        <ele>1129.5125</ele>
        <time>2022-01-19T17:36:57Z</time>
      </trkpt>
      <trkpt lat="44.60154" lon="3.48175">
        <ele>1129.2429</ele>
        <time>2022-01-19T17:36:58Z</time>
      </trkpt>
      <trkpt lat="44.60154" lon="3.48173">
        <ele>1129.3221</ele>
        <time>2022-01-19T17:36:59Z</time>
      </trkpt>
      <trkpt lat="44.60154" lon="3.4817">
        <ele>1129.1161</ele>
        <time>2022-01-19T17:37:00Z</time>
      </trkpt>
      <trkpt lat="44.60154" lon="3.48168">
        <ele>1128.9734</ele>
        <time>2022-01-19T17:37:01Z</time>
      </trkpt>
      <trkpt lat="44.60154" lon="3.48166">
        <ele>1129.0156</ele>
        <time>2022-01-19T17:37:02Z</time>
      </trkpt>
      <trkpt lat="44.60154" lon="3.48163">
        <ele>1128.9469</ele>
        <time>2022-01-19T17:37:03Z</time>
      </trkpt>
      <trkpt lat="44.60154" lon="3.48161">
        <ele>1128.9099</ele>
        <time>2022-01-19T17:37:04Z</time>
      </trkpt>
      <trkpt lat="44.60155" lon="3.48159">
        <ele>1128.8518</ele>
        <time>2022-01-19T17:37:05Z</time>
      </trkpt>
      <trkpt lat="44.60155" lon="3.48157">
        <ele>1128.8307</ele>
        <time>2022-01-19T17:37:06Z</time>
      </trkpt>
      <trkpt lat="44.60155" lon="3.48155">
        <ele>1128.8729</ele>
        <time>2022-01-19T17:37:07Z</time>
      </trkpt>
      <trkpt lat="44.60155" lon="3.48153">
        <ele>1128.8412</ele>
        <time>2022-01-19T17:37:09Z</time>
      </trkpt>
      <trkpt lat="44.60155" lon="3.4815">
        <ele>1128.7302</ele>
        <time>2022-01-19T17:37:10Z</time>
      </trkpt>
      <trkpt lat="44.60155" lon="3.48148">
        <ele>1128.651</ele>
        <time>2022-01-19T17:37:11Z</time>
      </trkpt>
      <trkpt lat="44.60155" lon="3.48146">
        <ele>1128.894</ele>
        <time>2022-01-19T17:37:12Z</time>
      </trkpt>
      <trkpt lat="44.60155" lon="3.48143">
        <ele>1128.4502</ele>
        <time>2022-01-19T17:37:13Z</time>
      </trkpt>
      <trkpt lat="44.60155" lon="3.48141">
        <ele>1128.5083</ele>
        <time>2022-01-19T17:37:14Z</time>
      </trkpt>
      <trkpt lat="44.60155" lon="3.48139">
        <ele>1128.3867</ele>
        <time>2022-01-19T17:37:15Z</time>
      </trkpt>
      <trkpt lat="44.60155" lon="3.48137">
        <ele>1128.3551</ele>
        <time>2022-01-19T17:37:16Z</time>
      </trkpt>
      <trkpt lat="44.60155" lon="3.48134">
        <ele>1128.4291</ele>
        <time>2022-01-19T17:37:17Z</time>
      </trkpt>
      <trkpt lat="44.60155" lon="3.48132">
        <ele>1128.3127</ele>
        <time>2022-01-19T17:37:18Z</time>
      </trkpt>
      <trkpt lat="44.60155" lon="3.4813">
        <ele>1128.1648</ele>
        <time>2022-01-19T17:37:19Z</time>
      </trkpt>
      <trkpt lat="44.60155" lon="3.48128">
        <ele>1128.281</ele>
        <time>2022-01-19T17:37:20Z</time>
      </trkpt>
      <trkpt lat="44.60155" lon="3.48126">
        <ele>1128.1965</ele>
        <time>2022-01-19T17:37:21Z</time>
      </trkpt>
      <trkpt lat="44.60155" lon="3.48123">
        <ele>1128.1226</ele>
        <time>2022-01-19T17:37:22Z</time>
      </trkpt>
      <trkpt lat="44.60155" lon="3.48121">
        <ele>1127.8635</ele>
        <time>2022-01-19T17:37:23Z</time>
      </trkpt>
      <trkpt lat="44.60155" lon="3.48119">
        <ele>1127.7737</ele>
        <time>2022-01-19T17:37:24Z</time>
      </trkpt>
      <trkpt lat="44.60155" lon="3.48117">
        <ele>1127.6733</ele>
        <time>2022-01-19T17:37:25Z</time>
      </trkpt>
      <trkpt lat="44.60155" lon="3.48115">
        <ele>1127.7473</ele>
        <time>2022-01-19T17:37:26Z</time>
      </trkpt>
      <trkpt lat="44.60155" lon="3.48113">
        <ele>1127.6469</ele>
        <time>2022-01-19T17:37:27Z</time>
      </trkpt>
      <trkpt lat="44.60155" lon="3.4811">
        <ele>1127.6945</ele>
        <time>2022-01-19T17:37:28Z</time>
      </trkpt>
      <trkpt lat="44.60155" lon="3.48108">
        <ele>1127.7262</ele>
        <time>2022-01-19T17:37:29Z</time>
      </trkpt>
      <trkpt lat="44.60155" lon="3.48105">
        <ele>1127.6786</ele>
        <time>2022-01-19T17:37:30Z</time>
      </trkpt>
      <trkpt lat="44.60155" lon="3.48103">
        <ele>1127.4725</ele>
        <time>2022-01-19T17:37:31Z</time>
      </trkpt>
      <trkpt lat="44.60155" lon="3.48101">
        <ele>1127.4672</ele>
        <time>2022-01-19T17:37:32Z</time>
      </trkpt>
      <trkpt lat="44.60155" lon="3.48099">
        <ele>1127.409</ele>
        <time>2022-01-19T17:37:33Z</time>
      </trkpt>
      <trkpt lat="44.60155" lon="3.48097">
        <ele>1127.388</ele>
        <time>2022-01-19T17:37:34Z</time>
      </trkpt>
      <trkpt lat="44.60155" lon="3.48094">
        <ele>1127.2822</ele>
        <time>2022-01-19T17:37:35Z</time>
      </trkpt>
      <trkpt lat="44.60155" lon="3.48092">
        <ele>1127.409</ele>
        <time>2022-01-19T17:37:36Z</time>
      </trkpt>
      <trkpt lat="44.60155" lon="3.4809">
        <ele>1127.2347</ele>
        <time>2022-01-19T17:37:37Z</time>
      </trkpt>
      <trkpt lat="44.60155" lon="3.48088">
        <ele>1127.1871</ele>
        <time>2022-01-19T17:37:38Z</time>
      </trkpt>
      <trkpt lat="44.60154" lon="3.48086">
        <ele>1127.1871</ele>
        <time>2022-01-19T17:37:39Z</time>
      </trkpt>
      <trkpt lat="44.60154" lon="3.48084">
        <ele>1127.2611</ele>
        <time>2022-01-19T17:37:40Z</time>
      </trkpt>
      <trkpt lat="44.60154" lon="3.48082">
        <ele>1127.129</ele>
        <time>2022-01-19T17:37:41Z</time>
      </trkpt>
      <trkpt lat="44.60154" lon="3.4808">
        <ele>1127.1395</ele>
        <time>2022-01-19T17:37:42Z</time>
      </trkpt>
      <trkpt lat="44.60155" lon="3.48077">
        <ele>1127.1027</ele>
        <time>2022-01-19T17:37:43Z</time>
      </trkpt>
      <trkpt lat="44.60155" lon="3.48075">
        <ele>1126.907</ele>
        <time>2022-01-19T17:37:44Z</time>
      </trkpt>
      <trkpt lat="44.60155" lon="3.48073">
        <ele>1126.8754</ele>
        <time>2022-01-19T17:37:45Z</time>
      </trkpt>
      <trkpt lat="44.60155" lon="3.48071">
        <ele>1126.8173</ele>
        <time>2022-01-19T17:37:46Z</time>
      </trkpt>
      <trkpt lat="44.60155" lon="3.48069">
        <ele>1126.8912</ele>
        <time>2022-01-19T17:37:47Z</time>
      </trkpt>
      <trkpt lat="44.60155" lon="3.48066">
        <ele>1126.7697</ele>
        <time>2022-01-19T17:37:48Z</time>
      </trkpt>
      <trkpt lat="44.60155" lon="3.48064">
        <ele>1126.7644</ele>
        <time>2022-01-19T17:37:49Z</time>
      </trkpt>
      <trkpt lat="44.60155" lon="3.48062">
        <ele>1126.6006</ele>
        <time>2022-01-19T17:37:50Z</time>
      </trkpt>
      <trkpt lat="44.60155" lon="3.48059">
        <ele>1126.5477</ele>
        <time>2022-01-19T17:37:51Z</time>
      </trkpt>
      <trkpt lat="44.60155" lon="3.48057">
        <ele>1126.405</ele>
        <time>2022-01-19T17:37:52Z</time>
      </trkpt>
      <trkpt lat="44.60155" lon="3.48055">
        <ele>1126.5214</ele>
        <time>2022-01-19T17:37:53Z</time>
      </trkpt>
      <trkpt lat="44.60155" lon="3.48053">
        <ele>1126.5214</ele>
        <time>2022-01-19T17:37:54Z</time>
      </trkpt>
      <trkpt lat="44.60155" lon="3.48051">
        <ele>1126.4103</ele>
        <time>2022-01-19T17:37:55Z</time>
      </trkpt>
      <trkpt lat="44.60155" lon="3.48049">
        <ele>1126.368</ele>
        <time>2022-01-19T17:37:56Z</time>
      </trkpt>
      <trkpt lat="44.60155" lon="3.48047">
        <ele>1126.273</ele>
        <time>2022-01-19T17:37:57Z</time>
      </trkpt>
      <trkpt lat="44.60155" lon="3.48044">
        <ele>1126.2888</ele>
        <time>2022-01-19T17:37:58Z</time>
      </trkpt>
      <trkpt lat="44.60155" lon="3.48042">
        <ele>1126.2465</ele>
        <time>2022-01-19T17:37:59Z</time>
      </trkpt>
      <trkpt lat="44.60154" lon="3.4804">
        <ele>1126.1514</ele>
        <time>2022-01-19T17:38:00Z</time>
      </trkpt>
      <trkpt lat="44.60155" lon="3.48037">
        <ele>1126.0562</ele>
        <time>2022-01-19T17:38:01Z</time>
      </trkpt>
      <trkpt lat="44.60155" lon="3.48035">
        <ele>1125.9293</ele>
        <time>2022-01-19T17:38:02Z</time>
      </trkpt>
      <trkpt lat="44.60155" lon="3.48032">
        <ele>1125.8818</ele>
        <time>2022-01-19T17:38:03Z</time>
      </trkpt>
      <trkpt lat="44.60155" lon="3.4803">
        <ele>1125.8871</ele>
        <time>2022-01-19T17:38:04Z</time>
      </trkpt>
      <trkpt lat="44.60155" lon="3.48028">
        <ele>1125.7761</ele>
        <time>2022-01-19T17:38:05Z</time>
      </trkpt>
      <trkpt lat="44.60155" lon="3.48026">
        <ele>1125.7233</ele>
        <time>2022-01-19T17:38:06Z</time>
      </trkpt>
      <trkpt lat="44.60155" lon="3.48024">
        <ele>1125.7709</ele>
        <time>2022-01-19T17:38:07Z</time>
      </trkpt>
      <trkpt lat="44.60156" lon="3.48021">
        <ele>1125.7498</ele>
        <time>2022-01-19T17:38:08Z</time>
      </trkpt>
      <trkpt lat="44.60156" lon="3.48019">
        <ele>1125.755</ele>
        <time>2022-01-19T17:38:09Z</time>
      </trkpt>
      <trkpt lat="44.60156" lon="3.48017">
        <ele>1125.7021</ele>
        <time>2022-01-19T17:38:10Z</time>
      </trkpt>
      <trkpt lat="44.60156" lon="3.48014">
        <ele>1125.5225</ele>
        <time>2022-01-19T17:38:11Z</time>
      </trkpt>
      <trkpt lat="44.60156" lon="3.48012">
        <ele>1125.5066</ele>
        <time>2022-01-19T17:38:12Z</time>
      </trkpt>
      <trkpt lat="44.60155" lon="3.48009">
        <ele>1125.5066</ele>
        <time>2022-01-19T17:38:13Z</time>
      </trkpt>
      <trkpt lat="44.60155" lon="3.48007">
        <ele>1125.5437</ele>
        <time>2022-01-19T17:38:14Z</time>
      </trkpt>
      <trkpt lat="44.60155" lon="3.48005">
        <ele>1125.4749</ele>
        <time>2022-01-19T17:38:15Z</time>
      </trkpt>
      <trkpt lat="44.60155" lon="3.48003">
        <ele>1125.4432</ele>
        <time>2022-01-19T17:38:16Z</time>
      </trkpt>
      <trkpt lat="44.60155" lon="3.48001">
        <ele>1125.5753</ele>
        <time>2022-01-19T17:38:17Z</time>
      </trkpt>
      <trkpt lat="44.60155" lon="3.47999">
        <ele>1125.2423</ele>
        <time>2022-01-19T17:38:18Z</time>
      </trkpt>
      <trkpt lat="44.60155" lon="3.47997">
        <ele>1125.3375</ele>
        <time>2022-01-19T17:38:19Z</time>
      </trkpt>
      <trkpt lat="44.60155" lon="3.47995">
        <ele>1125.2847</ele>
        <time>2022-01-19T17:38:20Z</time>
      </trkpt>
      <trkpt lat="44.60155" lon="3.47992">
        <ele>1125.0997</ele>
        <time>2022-01-19T17:38:21Z</time>
      </trkpt>
      <trkpt lat="44.60155" lon="3.4799">
        <ele>1125.0521</ele>
        <time>2022-01-19T17:38:22Z</time>
      </trkpt>
      <trkpt lat="44.60155" lon="3.47988">
        <ele>1124.8461</ele>
        <time>2022-01-19T17:38:23Z</time>
      </trkpt>
      <trkpt lat="44.60155" lon="3.47986">
        <ele>1124.9412</ele>
        <time>2022-01-19T17:38:24Z</time>
      </trkpt>
      <trkpt lat="44.60155" lon="3.47984">
        <ele>1124.9835</ele>
        <time>2022-01-19T17:38:25Z</time>
      </trkpt>
      <trkpt lat="44.60155" lon="3.47982">
        <ele>1124.8196</ele>
        <time>2022-01-19T17:38:26Z</time>
      </trkpt>
      <trkpt lat="44.60155" lon="3.4798">
        <ele>1124.661</ele>
        <time>2022-01-19T17:38:27Z</time>
      </trkpt>
      <trkpt lat="44.60155" lon="3.47978">
        <ele>1124.7721</ele>
        <time>2022-01-19T17:38:28Z</time>
      </trkpt>
      <trkpt lat="44.60155" lon="3.47975">
        <ele>1124.661</ele>
        <time>2022-01-19T17:38:29Z</time>
      </trkpt>
      <trkpt lat="44.60155" lon="3.47973">
        <ele>1124.7034</ele>
        <time>2022-01-19T17:38:30Z</time>
      </trkpt>
      <trkpt lat="44.60155" lon="3.4797">
        <ele>1124.6875</ele>
        <time>2022-01-19T17:38:31Z</time>
      </trkpt>
      <trkpt lat="44.60155" lon="3.47968">
        <ele>1124.7456</ele>
        <time>2022-01-19T17:38:32Z</time>
      </trkpt>
      <trkpt lat="44.60155" lon="3.47966">
        <ele>1124.6664</ele>
        <time>2022-01-19T17:38:33Z</time>
      </trkpt>
      <trkpt lat="44.60155" lon="3.47963">
        <ele>1124.6029</ele>
        <time>2022-01-19T17:38:34Z</time>
      </trkpt>
      <trkpt lat="44.60156" lon="3.47962">
        <ele>1124.5396</ele>
        <time>2022-01-19T17:38:35Z</time>
      </trkpt>
      <trkpt lat="44.60156" lon="3.47959">
        <ele>1124.4075</ele>
        <time>2022-01-19T17:38:36Z</time>
      </trkpt>
      <trkpt lat="44.60156" lon="3.47957">
        <ele>1124.3915</ele>
        <time>2022-01-19T17:38:37Z</time>
      </trkpt>
      <trkpt lat="44.60156" lon="3.47955">
        <ele>1124.4021</ele>
        <time>2022-01-19T17:38:38Z</time>
      </trkpt>
      <trkpt lat="44.60156" lon="3.47953">
        <ele>1124.4075</ele>
        <time>2022-01-19T17:38:39Z</time>
      </trkpt>
      <trkpt lat="44.60156" lon="3.47951">
        <ele>1124.3123</ele>
        <time>2022-01-19T17:38:40Z</time>
      </trkpt>
      <trkpt lat="44.60156" lon="3.47948">
        <ele>1124.3599</ele>
        <time>2022-01-19T17:38:41Z</time>
      </trkpt>
      <trkpt lat="44.60156" lon="3.47945">
        <ele>1124.1327</ele>
        <time>2022-01-19T17:38:42Z</time>
      </trkpt>
      <trkpt lat="44.60156" lon="3.47943">
        <ele>1124.2859</ele>
        <time>2022-01-19T17:38:43Z</time>
      </trkpt>
      <trkpt lat="44.60156" lon="3.47941">
        <ele>1124.1484</ele>
        <time>2022-01-19T17:38:44Z</time>
      </trkpt>
      <trkpt lat="44.60156" lon="3.47939">
        <ele>1124.2172</ele>
        <time>2022-01-19T17:38:45Z</time>
      </trkpt>
      <trkpt lat="44.60156" lon="3.47936">
        <ele>1124.0481</ele>
        <time>2022-01-19T17:38:46Z</time>
      </trkpt>
      <trkpt lat="44.60155" lon="3.47934">
        <ele>1124.064</ele>
        <time>2022-01-19T17:38:47Z</time>
      </trkpt>
      <trkpt lat="44.60155" lon="3.47932">
        <ele>1124.0481</ele>
        <time>2022-01-19T17:38:48Z</time>
      </trkpt>
      <trkpt lat="44.60155" lon="3.4793">
        <ele>1124.0005</ele>
        <time>2022-01-19T17:38:49Z</time>
      </trkpt>
      <trkpt lat="44.60155" lon="3.47928">
        <ele>1123.7152</ele>
        <time>2022-01-19T17:38:50Z</time>
      </trkpt>
      <trkpt lat="44.60155" lon="3.47925">
        <ele>1123.6464</ele>
        <time>2022-01-19T17:38:51Z</time>
      </trkpt>
      <trkpt lat="44.60155" lon="3.47923">
        <ele>1123.7468</ele>
        <time>2022-01-19T17:38:52Z</time>
      </trkpt>
      <trkpt lat="44.60155" lon="3.47921">
        <ele>1123.6464</ele>
        <time>2022-01-19T17:38:53Z</time>
      </trkpt>
      <trkpt lat="44.60155" lon="3.47918">
        <ele>1123.4562</ele>
        <time>2022-01-19T17:38:54Z</time>
      </trkpt>
      <trkpt lat="44.60155" lon="3.47916">
        <ele>1123.5195</ele>
        <time>2022-01-19T17:38:55Z</time>
      </trkpt>
      <trkpt lat="44.60155" lon="3.47914">
        <ele>1123.4457</ele>
        <time>2022-01-19T17:38:56Z</time>
      </trkpt>
      <trkpt lat="44.60155" lon="3.47912">
        <ele>1123.2712</ele>
        <time>2022-01-19T17:38:57Z</time>
      </trkpt>
      <trkpt lat="44.60155" lon="3.4791">
        <ele>1123.1866</ele>
        <time>2022-01-19T17:38:58Z</time>
      </trkpt>
      <trkpt lat="44.60156" lon="3.47907">
        <ele>1122.9541</ele>
        <time>2022-01-19T17:38:59Z</time>
      </trkpt>
      <trkpt lat="44.60155" lon="3.47905">
        <ele>1122.9647</ele>
        <time>2022-01-19T17:39:00Z</time>
      </trkpt>
      <trkpt lat="44.60155" lon="3.47903">
        <ele>1122.9066</ele>
        <time>2022-01-19T17:39:01Z</time>
      </trkpt>
      <trkpt lat="44.60155" lon="3.479">
        <ele>1122.9752</ele>
        <time>2022-01-19T17:39:02Z</time>
      </trkpt>
      <trkpt lat="44.60155" lon="3.47898">
        <ele>1122.822</ele>
        <time>2022-01-19T17:39:03Z</time>
      </trkpt>
      <trkpt lat="44.60155" lon="3.47896">
        <ele>1122.6952</ele>
        <time>2022-01-19T17:39:04Z</time>
      </trkpt>
      <trkpt lat="44.60155" lon="3.47894">
        <ele>1122.6741</ele>
        <time>2022-01-19T17:39:05Z</time>
      </trkpt>
      <trkpt lat="44.60155" lon="3.47892">
        <ele>1122.5314</ele>
        <time>2022-01-19T17:39:06Z</time>
      </trkpt>
      <trkpt lat="44.60155" lon="3.4789">
        <ele>1122.6001</ele>
        <time>2022-01-19T17:39:07Z</time>
      </trkpt>
      <trkpt lat="44.60155" lon="3.47888">
        <ele>1122.4098</ele>
        <time>2022-01-19T17:39:08Z</time>
      </trkpt>
      <trkpt lat="44.60155" lon="3.47886">
        <ele>1122.2249</ele>
        <time>2022-01-19T17:39:09Z</time>
      </trkpt>
      <trkpt lat="44.60155" lon="3.47884">
        <ele>1122.135</ele>
        <time>2022-01-19T17:39:10Z</time>
      </trkpt>
      <trkpt lat="44.60155" lon="3.47881">
        <ele>1122.098</ele>
        <time>2022-01-19T17:39:11Z</time>
      </trkpt>
      <trkpt lat="44.60155" lon="3.47879">
        <ele>1121.9553</ele>
        <time>2022-01-19T17:39:12Z</time>
      </trkpt>
      <trkpt lat="44.60155" lon="3.47876">
        <ele>1122.6476</ele>
        <time>2022-01-19T17:39:13Z</time>
      </trkpt>
      <trkpt lat="44.60155" lon="3.47874">
        <ele>1122.1191</ele>
        <time>2022-01-19T17:39:14Z</time>
      </trkpt>
      <trkpt lat="44.60155" lon="3.47872">
        <ele>1121.8126</ele>
        <time>2022-01-19T17:39:15Z</time>
      </trkpt>
      <trkpt lat="44.60155" lon="3.4787">
        <ele>1121.5378</ele>
        <time>2022-01-19T17:39:16Z</time>
      </trkpt>
      <trkpt lat="44.60156" lon="3.47867">
        <ele>1121.6383</ele>
        <time>2022-01-19T17:39:17Z</time>
      </trkpt>
      <trkpt lat="44.60156" lon="3.47865">
        <ele>1121.5272</ele>
        <time>2022-01-19T17:39:18Z</time>
      </trkpt>
      <trkpt lat="44.60156" lon="3.47863">
        <ele>1121.4058</ele>
        <time>2022-01-19T17:39:19Z</time>
      </trkpt>
      <trkpt lat="44.60156" lon="3.4786">
        <ele>1121.3265</ele>
        <time>2022-01-19T17:39:20Z</time>
      </trkpt>
      <trkpt lat="44.60156" lon="3.47858">
        <ele>1121.374</ele>
        <time>2022-01-19T17:39:21Z</time>
      </trkpt>
      <trkpt lat="44.60156" lon="3.47856">
        <ele>1121.1732</ele>
        <time>2022-01-19T17:39:22Z</time>
      </trkpt>
      <trkpt lat="44.60156" lon="3.47854">
        <ele>1121.1786</ele>
        <time>2022-01-19T17:39:23Z</time>
      </trkpt>
      <trkpt lat="44.60156" lon="3.47852">
        <ele>1121.0411</ele>
        <time>2022-01-19T17:39:24Z</time>
      </trkpt>
      <trkpt lat="44.60156" lon="3.4785">
        <ele>1121.1415</ele>
        <time>2022-01-19T17:39:25Z</time>
      </trkpt>
      <trkpt lat="44.60156" lon="3.47848">
        <ele>1121.1786</ele>
        <time>2022-01-19T17:39:26Z</time>
      </trkpt>
      <trkpt lat="44.60156" lon="3.47846">
        <ele>1120.909</ele>
        <time>2022-01-19T17:39:27Z</time>
      </trkpt>
      <trkpt lat="44.60156" lon="3.47844">
        <ele>1120.6659</ele>
        <time>2022-01-19T17:39:28Z</time>
      </trkpt>
      <trkpt lat="44.60156" lon="3.47842">
        <ele>1120.6289</ele>
        <time>2022-01-19T17:39:29Z</time>
      </trkpt>
      <trkpt lat="44.60156" lon="3.47839">
        <ele>1120.5391</ele>
        <time>2022-01-19T17:39:30Z</time>
      </trkpt>
      <trkpt lat="44.60156" lon="3.47837">
        <ele>1120.4545</ele>
        <time>2022-01-19T17:39:31Z</time>
      </trkpt>
      <trkpt lat="44.60156" lon="3.47834">
        <ele>1120.518</ele>
        <time>2022-01-19T17:39:32Z</time>
      </trkpt>
      <trkpt lat="44.60156" lon="3.47832">
        <ele>1120.4281</ele>
        <time>2022-01-19T17:39:33Z</time>
      </trkpt>
      <trkpt lat="44.60156" lon="3.4783">
        <ele>1120.4281</ele>
        <time>2022-01-19T17:39:34Z</time>
      </trkpt>
      <trkpt lat="44.60156" lon="3.47828">
        <ele>1120.317</ele>
        <time>2022-01-19T17:39:35Z</time>
      </trkpt>
      <trkpt lat="44.60156" lon="3.47826">
        <ele>1120.1744</ele>
        <time>2022-01-19T17:39:36Z</time>
      </trkpt>
      <trkpt lat="44.60156" lon="3.47824">
        <ele>1120.0529</ele>
        <time>2022-01-19T17:39:37Z</time>
      </trkpt>
      <trkpt lat="44.60156" lon="3.47821">
        <ele>1120.1216</ele>
        <time>2022-01-19T17:39:38Z</time>
      </trkpt>
      <trkpt lat="44.60156" lon="3.4782">
        <ele>1120.0424</ele>
        <time>2022-01-19T17:39:39Z</time>
      </trkpt>
      <trkpt lat="44.60156" lon="3.47817">
        <ele>1119.7992</ele>
        <time>2022-01-19T17:39:39Z</time>
      </trkpt>
      <trkpt lat="44.60156" lon="3.47815">
        <ele>1119.9155</ele>
        <time>2022-01-19T17:39:40Z</time>
      </trkpt>
      <trkpt lat="44.60156" lon="3.47813">
        <ele>1119.9419</ele>
        <time>2022-01-19T17:39:41Z</time>
      </trkpt>
      <trkpt lat="44.60156" lon="3.47811">
        <ele>1119.8573</ele>
        <time>2022-01-19T17:39:42Z</time>
      </trkpt>
      <trkpt lat="44.60156" lon="3.47808">
        <ele>1119.7094</ele>
        <time>2022-01-19T17:39:43Z</time>
      </trkpt>
      <trkpt lat="44.60156" lon="3.47806">
        <ele>1119.6143</ele>
        <time>2022-01-19T17:39:44Z</time>
      </trkpt>
      <trkpt lat="44.60156" lon="3.47804">
        <ele>1119.3817</ele>
        <time>2022-01-19T17:39:45Z</time>
      </trkpt>
      <trkpt lat="44.60156" lon="3.47802">
        <ele>1119.5139</ele>
        <time>2022-01-19T17:39:46Z</time>
      </trkpt>
      <trkpt lat="44.60156" lon="3.47799">
        <ele>1119.4082</ele>
        <time>2022-01-19T17:39:47Z</time>
      </trkpt>
      <trkpt lat="44.60156" lon="3.47797">
        <ele>1119.3025</ele>
        <time>2022-01-19T17:39:48Z</time>
      </trkpt>
      <trkpt lat="44.60156" lon="3.47795">
        <ele>1119.4028</ele>
        <time>2022-01-19T17:39:49Z</time>
      </trkpt>
      <trkpt lat="44.60156" lon="3.47793">
        <ele>1119.4398</ele>
        <time>2022-01-19T17:39:50Z</time>
      </trkpt>
      <trkpt lat="44.60155" lon="3.47791">
        <ele>1119.4716</ele>
        <time>2022-01-19T17:39:51Z</time>
      </trkpt>
      <trkpt lat="44.60155" lon="3.47789">
        <ele>1119.1069</ele>
        <time>2022-01-19T17:39:52Z</time>
      </trkpt>
      <trkpt lat="44.60155" lon="3.47787">
        <ele>1119.0276</ele>
        <time>2022-01-19T17:39:53Z</time>
      </trkpt>
      <trkpt lat="44.60154" lon="3.47785">
        <ele>1119.0223</ele>
        <time>2022-01-19T17:39:54Z</time>
      </trkpt>
      <trkpt lat="44.60154" lon="3.47782">
        <ele>1118.9484</ele>
        <time>2022-01-19T17:39:55Z</time>
      </trkpt>
      <trkpt lat="44.60154" lon="3.4778">
        <ele>1118.8638</ele>
        <time>2022-01-19T17:39:56Z</time>
      </trkpt>
      <trkpt lat="44.60154" lon="3.47777">
        <ele>1118.7</ele>
        <time>2022-01-19T17:39:57Z</time>
      </trkpt>
      <trkpt lat="44.60154" lon="3.47775">
        <ele>1118.6895</ele>
        <time>2022-01-19T17:39:58Z</time>
      </trkpt>
      <trkpt lat="44.60155" lon="3.47773">
        <ele>1118.6101</ele>
        <time>2022-01-19T17:39:59Z</time>
      </trkpt>
      <trkpt lat="44.60155" lon="3.47771">
        <ele>1118.4833</ele>
        <time>2022-01-19T17:40:00Z</time>
      </trkpt>
      <trkpt lat="44.60155" lon="3.47769">
        <ele>1118.552</ele>
        <time>2022-01-19T17:40:01Z</time>
      </trkpt>
      <trkpt lat="44.60156" lon="3.47767">
        <ele>1118.5837</ele>
        <time>2022-01-19T17:40:02Z</time>
      </trkpt>
      <trkpt lat="44.60156" lon="3.47765">
        <ele>1118.552</ele>
        <time>2022-01-19T17:40:03Z</time>
      </trkpt>
      <trkpt lat="44.60156" lon="3.47763">
        <ele>1118.6049</ele>
        <time>2022-01-19T17:40:04Z</time>
      </trkpt>
      <trkpt lat="44.60156" lon="3.47761">
        <ele>1118.4939</ele>
        <time>2022-01-19T17:40:05Z</time>
      </trkpt>
      <trkpt lat="44.60155" lon="3.47759">
        <ele>1118.4728</ele>
        <time>2022-01-19T17:40:06Z</time>
      </trkpt>
      <trkpt lat="44.60155" lon="3.47758">
        <ele>1118.5731</ele>
        <time>2022-01-19T17:40:07Z</time>
      </trkpt>
      <trkpt lat="44.60155" lon="3.47757">
        <ele>1118.6525</ele>
        <time>2022-01-19T17:40:08Z</time>
      </trkpt>
      <trkpt lat="44.60155" lon="3.47755">
        <ele>1118.6155</ele>
        <time>2022-01-19T17:40:09Z</time>
      </trkpt>
      <trkpt lat="44.60155" lon="3.47753">
        <ele>1118.552</ele>
        <time>2022-01-19T17:40:10Z</time>
      </trkpt>
      <trkpt lat="44.60155" lon="3.47752">
        <ele>1118.4833</ele>
        <time>2022-01-19T17:40:11Z</time>
      </trkpt>
      <trkpt lat="44.60155" lon="3.4775">
        <ele>1118.6207</ele>
        <time>2022-01-19T17:40:12Z</time>
      </trkpt>
      <trkpt lat="44.60155" lon="3.47747">
        <ele>1118.5309</ele>
        <time>2022-01-19T17:40:13Z</time>
      </trkpt>
      <trkpt lat="44.60155" lon="3.47745">
        <ele>1118.3988</ele>
        <time>2022-01-19T17:40:14Z</time>
      </trkpt>
      <trkpt lat="44.60155" lon="3.47743">
        <ele>1118.5045</ele>
        <time>2022-01-19T17:40:15Z</time>
      </trkpt>
      <trkpt lat="44.60155" lon="3.4774">
        <ele>1118.5415</ele>
        <time>2022-01-19T17:40:16Z</time>
      </trkpt>
      <trkpt lat="44.60155" lon="3.47738">
        <ele>1118.4517</ele>
        <time>2022-01-19T17:40:17Z</time>
      </trkpt>
      <trkpt lat="44.60154" lon="3.47736">
        <ele>1118.552</ele>
        <time>2022-01-19T17:40:18Z</time>
      </trkpt>
      <trkpt lat="44.60154" lon="3.47734">
        <ele>1118.5204</ele>
        <time>2022-01-19T17:40:19Z</time>
      </trkpt>
      <trkpt lat="44.60154" lon="3.47732">
        <ele>1118.5731</ele>
        <time>2022-01-19T17:40:20Z</time>
      </trkpt>
      <trkpt lat="44.60154" lon="3.4773">
        <ele>1118.5204</ele>
        <time>2022-01-19T17:40:21Z</time>
      </trkpt>
      <trkpt lat="44.60154" lon="3.47729">
        <ele>1118.5361</ele>
        <time>2022-01-19T17:40:22Z</time>
      </trkpt>
      <trkpt lat="44.60154" lon="3.47727">
        <ele>1118.5626</ele>
        <time>2022-01-19T17:40:23Z</time>
      </trkpt>
      <trkpt lat="44.60154" lon="3.47725">
        <ele>1118.5837</ele>
        <time>2022-01-19T17:40:24Z</time>
      </trkpt>
      <trkpt lat="44.60154" lon="3.47723">
        <ele>1118.5785</ele>
        <time>2022-01-19T17:40:25Z</time>
      </trkpt>
      <trkpt lat="44.60154" lon="3.4772">
        <ele>1118.6418</ele>
        <time>2022-01-19T17:40:26Z</time>
      </trkpt>
      <trkpt lat="44.60154" lon="3.47719">
        <ele>1118.6472</ele>
        <time>2022-01-19T17:40:27Z</time>
      </trkpt>
      <trkpt lat="44.60154" lon="3.47717">
        <ele>1118.589</ele>
        <time>2022-01-19T17:40:28Z</time>
      </trkpt>
      <trkpt lat="44.60154" lon="3.47714">
        <ele>1118.6049</ele>
        <time>2022-01-19T17:40:29Z</time>
      </trkpt>
      <trkpt lat="44.60154" lon="3.47712">
        <ele>1118.5837</ele>
        <time>2022-01-19T17:40:30Z</time>
      </trkpt>
      <trkpt lat="44.60154" lon="3.47709">
        <ele>1118.6788</ele>
        <time>2022-01-19T17:40:31Z</time>
      </trkpt>
      <trkpt lat="44.60154" lon="3.47708">
        <ele>1118.4993</ele>
        <time>2022-01-19T17:40:32Z</time>
      </trkpt>
      <trkpt lat="44.60154" lon="3.47706">
        <ele>1118.6683</ele>
        <time>2022-01-19T17:40:33Z</time>
      </trkpt>
      <trkpt lat="44.60154" lon="3.47703">
        <ele>1118.6101</ele>
        <time>2022-01-19T17:40:34Z</time>
      </trkpt>
      <trkpt lat="44.60154" lon="3.47701">
        <ele>1118.6313</ele>
        <time>2022-01-19T17:40:35Z</time>
      </trkpt>
      <trkpt lat="44.60153" lon="3.47699">
        <ele>1118.5098</ele>
        <time>2022-01-19T17:40:36Z</time>
      </trkpt>
      <trkpt lat="44.60153" lon="3.47697">
        <ele>1118.4622</ele>
        <time>2022-01-19T17:40:37Z</time>
      </trkpt>
      <trkpt lat="44.60153" lon="3.47695">
        <ele>1118.4622</ele>
        <time>2022-01-19T17:40:38Z</time>
      </trkpt>
      <trkpt lat="44.60153" lon="3.47693">
        <ele>1118.3988</ele>
        <time>2022-01-19T17:40:39Z</time>
      </trkpt>
      <trkpt lat="44.60153" lon="3.4769">
        <ele>1118.4833</ele>
        <time>2022-01-19T17:40:40Z</time>
      </trkpt>
      <trkpt lat="44.60153" lon="3.47689">
        <ele>1118.5309</ele>
        <time>2022-01-19T17:40:41Z</time>
      </trkpt>
      <trkpt lat="44.60153" lon="3.47687">
        <ele>1118.478</ele>
        <time>2022-01-19T17:40:42Z</time>
      </trkpt>
      <trkpt lat="44.60153" lon="3.47685">
        <ele>1118.3777</ele>
        <time>2022-01-19T17:40:43Z</time>
      </trkpt>
      <trkpt lat="44.60154" lon="3.47683">
        <ele>1118.5204</ele>
        <time>2022-01-19T17:40:44Z</time>
      </trkpt>
      <trkpt lat="44.60154" lon="3.47681">
        <ele>1118.626</ele>
        <time>2022-01-19T17:40:45Z</time>
      </trkpt>
      <trkpt lat="44.60154" lon="3.47679">
        <ele>1118.7793</ele>
        <time>2022-01-19T17:40:46Z</time>
      </trkpt>
      <trkpt lat="44.60154" lon="3.47677">
        <ele>1118.626</ele>
        <time>2022-01-19T17:40:47Z</time>
      </trkpt>
      <trkpt lat="44.60154" lon="3.47675">
        <ele>1118.7845</ele>
        <time>2022-01-19T17:40:48Z</time>
      </trkpt>
      <trkpt lat="44.60153" lon="3.47673">
        <ele>1118.8955</ele>
        <time>2022-01-19T17:40:49Z</time>
      </trkpt>
      <trkpt lat="44.60153" lon="3.47672">
        <ele>1118.8796</ele>
        <time>2022-01-19T17:40:50Z</time>
      </trkpt>
      <trkpt lat="44.60153" lon="3.4767">
        <ele>1118.8057</ele>
        <time>2022-01-19T17:40:51Z</time>
      </trkpt>
      <trkpt lat="44.60153" lon="3.47667">
        <ele>1118.8215</ele>
        <time>2022-01-19T17:40:52Z</time>
      </trkpt>
      <trkpt lat="44.60153" lon="3.47666">
        <ele>1118.8374</ele>
        <time>2022-01-19T17:40:53Z</time>
      </trkpt>
      <trkpt lat="44.60152" lon="3.47664">
        <ele>1118.8268</ele>
        <time>2022-01-19T17:40:54Z</time>
      </trkpt>
      <trkpt lat="44.60152" lon="3.47662">
        <ele>1118.848</ele>
        <time>2022-01-19T17:40:55Z</time>
      </trkpt>
      <trkpt lat="44.60152" lon="3.47659">
        <ele>1119.0382</ele>
        <time>2022-01-19T17:40:56Z</time>
      </trkpt>
      <trkpt lat="44.60152" lon="3.47657">
        <ele>1118.8691</ele>
        <time>2022-01-19T17:40:57Z</time>
      </trkpt>
      <trkpt lat="44.60152" lon="3.47655">
        <ele>1118.774</ele>
        <time>2022-01-19T17:40:58Z</time>
      </trkpt>
      <trkpt lat="44.60152" lon="3.47653">
        <ele>1118.7952</ele>
        <time>2022-01-19T17:40:59Z</time>
      </trkpt>
      <trkpt lat="44.60152" lon="3.47651">
        <ele>1118.8004</ele>
        <time>2022-01-19T17:41:00Z</time>
      </trkpt>
      <trkpt lat="44.60152" lon="3.47648">
        <ele>1118.6631</ele>
        <time>2022-01-19T17:41:01Z</time>
      </trkpt>
      <trkpt lat="44.60152" lon="3.47646">
        <ele>1118.4093</ele>
        <time>2022-01-19T17:41:02Z</time>
      </trkpt>
      <trkpt lat="44.60152" lon="3.47644">
        <ele>1118.2402</ele>
        <time>2022-01-19T17:41:03Z</time>
      </trkpt>
      <trkpt lat="44.60153" lon="3.47642">
        <ele>1118.3301</ele>
        <time>2022-01-19T17:41:04Z</time>
      </trkpt>
      <trkpt lat="44.60154" lon="3.47639">
        <ele>1118.1345</ele>
        <time>2022-01-19T17:41:05Z</time>
      </trkpt>
      <trkpt lat="44.60154" lon="3.47637">
        <ele>1117.9707</ele>
        <time>2022-01-19T17:41:06Z</time>
      </trkpt>
      <trkpt lat="44.60154" lon="3.47635">
        <ele>1117.7593</ele>
        <time>2022-01-19T17:41:07Z</time>
      </trkpt>
      <trkpt lat="44.60154" lon="3.47633">
        <ele>1117.5374</ele>
        <time>2022-01-19T17:41:08Z</time>
      </trkpt>
      <trkpt lat="44.60155" lon="3.47631">
        <ele>1117.4264</ele>
        <time>2022-01-19T17:41:09Z</time>
      </trkpt>
      <trkpt lat="44.60155" lon="3.47629">
        <ele>1117.1357</ele>
        <time>2022-01-19T17:41:10Z</time>
      </trkpt>
      <trkpt lat="44.60155" lon="3.47627">
        <ele>1116.7922</ele>
        <time>2022-01-19T17:41:11Z</time>
      </trkpt>
      <trkpt lat="44.60155" lon="3.47626">
        <ele>1116.4487</ele>
        <time>2022-01-19T17:41:12Z</time>
      </trkpt>
      <trkpt lat="44.60155" lon="3.47624">
        <ele>1116.75</ele>
        <time>2022-01-19T17:41:13Z</time>
      </trkpt>
      <trkpt lat="44.60156" lon="3.47622">
        <ele>1116.7552</ele>
        <time>2022-01-19T17:41:14Z</time>
      </trkpt>
      <trkpt lat="44.60156" lon="3.4762">
        <ele>1116.0365</ele>
        <time>2022-01-19T17:41:15Z</time>
      </trkpt>
      <trkpt lat="44.60156" lon="3.47618">
        <ele>1115.6825</ele>
        <time>2022-01-19T17:41:16Z</time>
      </trkpt>
      <trkpt lat="44.60156" lon="3.47615">
        <ele>1115.3971</ele>
        <time>2022-01-19T17:41:17Z</time>
      </trkpt>
      <trkpt lat="44.60156" lon="3.47613">
        <ele>1115.1118</ele>
        <time>2022-01-19T17:41:18Z</time>
      </trkpt>
      <trkpt lat="44.60156" lon="3.47611">
        <ele>1115.08</ele>
        <time>2022-01-19T17:41:19Z</time>
      </trkpt>
      <trkpt lat="44.60157" lon="3.47609">
        <ele>1114.8898</ele>
        <time>2022-01-19T17:41:20Z</time>
      </trkpt>
      <trkpt lat="44.60157" lon="3.47607">
        <ele>1114.578</ele>
        <time>2022-01-19T17:41:21Z</time>
      </trkpt>
      <trkpt lat="44.60157" lon="3.47605">
        <ele>1114.5463</ele>
        <time>2022-01-19T17:41:22Z</time>
      </trkpt>
      <trkpt lat="44.60158" lon="3.47603">
        <ele>1114.2874</ele>
        <time>2022-01-19T17:41:23Z</time>
      </trkpt>
      <trkpt lat="44.60159" lon="3.47601">
        <ele>1114.1553</ele>
        <time>2022-01-19T17:41:24Z</time>
      </trkpt>
      <trkpt lat="44.60159" lon="3.476">
        <ele>1113.965</ele>
        <time>2022-01-19T17:41:25Z</time>
      </trkpt>
      <trkpt lat="44.6016" lon="3.47598">
        <ele>1113.8064</ele>
        <time>2022-01-19T17:41:26Z</time>
      </trkpt>
      <trkpt lat="44.6016" lon="3.47596">
        <ele>1113.6267</ele>
        <time>2022-01-19T17:41:27Z</time>
      </trkpt>
      <trkpt lat="44.60161" lon="3.47595">
        <ele>1113.484</ele>
        <time>2022-01-19T17:41:28Z</time>
      </trkpt>
      <trkpt lat="44.60162" lon="3.47593">
        <ele>1113.1511</ele>
        <time>2022-01-19T17:41:29Z</time>
      </trkpt>
      <trkpt lat="44.60163" lon="3.47591">
        <ele>1113.019</ele>
        <time>2022-01-19T17:41:30Z</time>
      </trkpt>
      <trkpt lat="44.60164" lon="3.4759">
        <ele>1112.8235</ele>
        <time>2022-01-19T17:41:31Z</time>
      </trkpt>
      <trkpt lat="44.60165" lon="3.47589">
        <ele>1112.7706</ele>
        <time>2022-01-19T17:41:32Z</time>
      </trkpt>
      <trkpt lat="44.60167" lon="3.47588">
        <ele>1112.5857</ele>
        <time>2022-01-19T17:41:33Z</time>
      </trkpt>
      <trkpt lat="44.60168" lon="3.47586">
        <ele>1112.4695</ele>
        <time>2022-01-19T17:41:34Z</time>
      </trkpt>
      <trkpt lat="44.60169" lon="3.47585">
        <ele>1112.2157</ele>
        <time>2022-01-19T17:41:35Z</time>
      </trkpt>
      <trkpt lat="44.6017" lon="3.47585">
        <ele>1112.0731</ele>
        <time>2022-01-19T17:41:36Z</time>
      </trkpt>
      <trkpt lat="44.60171" lon="3.47583">
        <ele>1111.6979</ele>
        <time>2022-01-19T17:41:37Z</time>
      </trkpt>
      <trkpt lat="44.60172" lon="3.47582">
        <ele>1111.513</ele>
        <time>2022-01-19T17:41:38Z</time>
      </trkpt>
      <trkpt lat="44.60173" lon="3.47581">
        <ele>1111.4812</ele>
        <time>2022-01-19T17:41:39Z</time>
      </trkpt>
      <trkpt lat="44.60175" lon="3.4758">
        <ele>1111.3649</ele>
        <time>2022-01-19T17:41:40Z</time>
      </trkpt>
      <trkpt lat="44.60176" lon="3.47579">
        <ele>1111.1642</ele>
        <time>2022-01-19T17:41:41Z</time>
      </trkpt>
      <trkpt lat="44.60177" lon="3.47578">
        <ele>1111.0901</ele>
        <time>2022-01-19T17:41:42Z</time>
      </trkpt>
      <trkpt lat="44.60178" lon="3.47577">
        <ele>1110.9633</ele>
        <time>2022-01-19T17:41:43Z</time>
      </trkpt>
      <trkpt lat="44.6018" lon="3.47577">
        <ele>1110.6515</ele>
        <time>2022-01-19T17:41:44Z</time>
      </trkpt>
      <trkpt lat="44.60181" lon="3.47576">
        <ele>1110.3345</ele>
        <time>2022-01-19T17:41:45Z</time>
      </trkpt>
      <trkpt lat="44.60181" lon="3.47576">
        <ele>1110.3556</ele>
        <time>2022-01-19T17:41:46Z</time>
      </trkpt>
      <trkpt lat="44.60182" lon="3.47575">
        <ele>1110.271</ele>
        <time>2022-01-19T17:41:47Z</time>
      </trkpt>
      <trkpt lat="44.60183" lon="3.47573">
        <ele>1110.0702</ele>
        <time>2022-01-19T17:41:48Z</time>
      </trkpt>
      <trkpt lat="44.60185" lon="3.47572">
        <ele>1109.917</ele>
        <time>2022-01-19T17:41:49Z</time>
      </trkpt>
      <trkpt lat="44.60186" lon="3.47571">
        <ele>1109.6157</ele>
        <time>2022-01-19T17:41:50Z</time>
      </trkpt>
      <trkpt lat="44.60187" lon="3.4757">
        <ele>1109.3038</ele>
        <time>2022-01-19T17:41:51Z</time>
      </trkpt>
      <trkpt lat="44.60188" lon="3.47569">
        <ele>1109.1189</ele>
        <time>2022-01-19T17:41:52Z</time>
      </trkpt>
      <trkpt lat="44.60189" lon="3.47567">
        <ele>1108.9604</ele>
        <time>2022-01-19T17:41:53Z</time>
      </trkpt>
      <trkpt lat="44.60191" lon="3.47565">
        <ele>1108.4849</ele>
        <time>2022-01-19T17:41:54Z</time>
      </trkpt>
      <trkpt lat="44.60192" lon="3.47564">
        <ele>1108.3896</ele>
        <time>2022-01-19T17:41:55Z</time>
      </trkpt>
      <trkpt lat="44.60193" lon="3.47562">
        <ele>1108.2682</ele>
        <time>2022-01-19T17:41:56Z</time>
      </trkpt>
      <trkpt lat="44.60194" lon="3.4756">
        <ele>1107.9774</ele>
        <time>2022-01-19T17:41:57Z</time>
      </trkpt>
      <trkpt lat="44.60196" lon="3.47559">
        <ele>1107.9247</ele>
        <time>2022-01-19T17:41:58Z</time>
      </trkpt>
      <trkpt lat="44.60197" lon="3.47557">
        <ele>1107.7344</ele>
        <time>2022-01-19T17:41:59Z</time>
      </trkpt>
      <trkpt lat="44.60198" lon="3.47555">
        <ele>1107.5758</ele>
        <time>2022-01-19T17:42:00Z</time>
      </trkpt>
      <trkpt lat="44.60199" lon="3.47553">
        <ele>1107.4174</ele>
        <time>2022-01-19T17:42:01Z</time>
      </trkpt>
      <trkpt lat="44.602" lon="3.47552">
        <ele>1107.2588</ele>
        <time>2022-01-19T17:42:02Z</time>
      </trkpt>
      <trkpt lat="44.60201" lon="3.4755">
        <ele>1106.8413</ele>
        <time>2022-01-19T17:42:03Z</time>
      </trkpt>
      <trkpt lat="44.60202" lon="3.47548">
        <ele>1106.8307</ele>
        <time>2022-01-19T17:42:04Z</time>
      </trkpt>
      <trkpt lat="44.60203" lon="3.47546">
        <ele>1106.5876</ele>
        <time>2022-01-19T17:42:05Z</time>
      </trkpt>
      <trkpt lat="44.60204" lon="3.47545">
        <ele>1106.4132</ele>
        <time>2022-01-19T17:42:06Z</time>
      </trkpt>
      <trkpt lat="44.60204" lon="3.47544">
        <ele>1106.3075</ele>
        <time>2022-01-19T17:42:07Z</time>
      </trkpt>
      <trkpt lat="44.60205" lon="3.47542">
        <ele>1106.2283</ele>
        <time>2022-01-19T17:42:08Z</time>
      </trkpt>
      <trkpt lat="44.60206" lon="3.4754">
        <ele>1106.2494</ele>
        <time>2022-01-19T17:42:09Z</time>
      </trkpt>
      <trkpt lat="44.60206" lon="3.47539">
        <ele>1106.1807</ele>
        <time>2022-01-19T17:42:10Z</time>
      </trkpt>
      <trkpt lat="44.60207" lon="3.47537">
        <ele>1106.091</ele>
        <time>2022-01-19T17:42:11Z</time>
      </trkpt>
      <trkpt lat="44.60208" lon="3.47535">
        <ele>1105.9905</ele>
        <time>2022-01-19T17:42:12Z</time>
      </trkpt>
      <trkpt lat="44.60209" lon="3.47534">
        <ele>1105.8108</ele>
        <time>2022-01-19T17:42:13Z</time>
      </trkpt>
      <trkpt lat="44.6021" lon="3.47532">
        <ele>1105.6892</ele>
        <time>2022-01-19T17:42:14Z</time>
      </trkpt>
      <trkpt lat="44.6021" lon="3.4753">
        <ele>1105.5465</ele>
        <time>2022-01-19T17:42:15Z</time>
      </trkpt>
      <trkpt lat="44.60211" lon="3.47529">
        <ele>1105.3405</ele>
        <time>2022-01-19T17:42:16Z</time>
      </trkpt>
      <trkpt lat="44.60212" lon="3.47528">
        <ele>1105.3933</ele>
        <time>2022-01-19T17:42:17Z</time>
      </trkpt>
      <trkpt lat="44.60214" lon="3.47527">
        <ele>1105.2559</ele>
        <time>2022-01-19T17:42:18Z</time>
      </trkpt>
      <trkpt lat="44.60214" lon="3.47526">
        <ele>1105.2876</ele>
        <time>2022-01-19T17:42:19Z</time>
      </trkpt>
      <trkpt lat="44.60215" lon="3.47525">
        <ele>1105.1871</ele>
        <time>2022-01-19T17:42:20Z</time>
      </trkpt>
      <trkpt lat="44.60217" lon="3.47524">
        <ele>1104.9387</ele>
        <time>2022-01-19T17:42:21Z</time>
      </trkpt>
      <trkpt lat="44.60218" lon="3.47522">
        <ele>1105.0076</ele>
        <time>2022-01-19T17:42:22Z</time>
      </trkpt>
      <trkpt lat="44.6022" lon="3.47522">
        <ele>1104.8649</ele>
        <time>2022-01-19T17:42:23Z</time>
      </trkpt>
      <trkpt lat="44.60221" lon="3.47521">
        <ele>1104.8649</ele>
        <time>2022-01-19T17:42:24Z</time>
      </trkpt>
      <trkpt lat="44.60222" lon="3.4752">
        <ele>1104.9441</ele>
        <time>2022-01-19T17:42:25Z</time>
      </trkpt>
      <trkpt lat="44.60223" lon="3.47519">
        <ele>1104.7855</ele>
        <time>2022-01-19T17:42:26Z</time>
      </trkpt>
      <trkpt lat="44.60224" lon="3.47517">
        <ele>1104.701</ele>
        <time>2022-01-19T17:42:27Z</time>
      </trkpt>
      <trkpt lat="44.60225" lon="3.47516">
        <ele>1104.8173</ele>
        <time>2022-01-19T17:42:28Z</time>
      </trkpt>
      <trkpt lat="44.60225" lon="3.47514">
        <ele>1104.7169</ele>
        <time>2022-01-19T17:42:29Z</time>
      </trkpt>
      <trkpt lat="44.60226" lon="3.47512">
        <ele>1104.5001</ele>
        <time>2022-01-19T17:42:30Z</time>
      </trkpt>
      <trkpt lat="44.60227" lon="3.47511">
        <ele>1104.4156</ele>
        <time>2022-01-19T17:42:31Z</time>
      </trkpt>
      <trkpt lat="44.60228" lon="3.47509">
        <ele>1104.3892</ele>
        <time>2022-01-19T17:42:32Z</time>
      </trkpt>
      <trkpt lat="44.6023" lon="3.47508">
        <ele>1104.2253</ele>
        <time>2022-01-19T17:42:33Z</time>
      </trkpt>
      <trkpt lat="44.60231" lon="3.47507">
        <ele>1104.0774</ele>
        <time>2022-01-19T17:42:34Z</time>
      </trkpt>
      <trkpt lat="44.60232" lon="3.47506">
        <ele>1104.0563</ele>
        <time>2022-01-19T17:42:35Z</time>
      </trkpt>
      <trkpt lat="44.60233" lon="3.47505">
        <ele>1103.8872</ele>
        <time>2022-01-19T17:42:36Z</time>
      </trkpt>
      <trkpt lat="44.60235" lon="3.47505">
        <ele>1103.6123</ele>
        <time>2022-01-19T17:42:37Z</time>
      </trkpt>
      <trkpt lat="44.60236" lon="3.47504">
        <ele>1103.3904</ele>
        <time>2022-01-19T17:42:38Z</time>
      </trkpt>
      <trkpt lat="44.60236" lon="3.47503">
        <ele>1103.3217</ele>
        <time>2022-01-19T17:42:39Z</time>
      </trkpt>
      <trkpt lat="44.60238" lon="3.47501">
        <ele>1103.0627</ele>
        <time>2022-01-19T17:42:40Z</time>
      </trkpt>
      <trkpt lat="44.60239" lon="3.475">
        <ele>1102.9941</ele>
        <time>2022-01-19T17:42:41Z</time>
      </trkpt>
      <trkpt lat="44.60239" lon="3.47499">
        <ele>1102.8196</ele>
        <time>2022-01-19T17:42:42Z</time>
      </trkpt>
      <trkpt lat="44.6024" lon="3.47498">
        <ele>1102.6346</ele>
        <time>2022-01-19T17:42:43Z</time>
      </trkpt>
      <trkpt lat="44.60241" lon="3.47497">
        <ele>1102.5502</ele>
        <time>2022-01-19T17:42:44Z</time>
      </trkpt>
      <trkpt lat="44.60243" lon="3.47497">
        <ele>1102.2965</ele>
        <time>2022-01-19T17:42:45Z</time>
      </trkpt>
      <trkpt lat="44.60244" lon="3.47496">
        <ele>1102.2648</ele>
        <time>2022-01-19T17:42:46Z</time>
      </trkpt>
      <trkpt lat="44.60245" lon="3.47495">
        <ele>1102.1749</ele>
        <time>2022-01-19T17:42:47Z</time>
      </trkpt>
      <trkpt lat="44.60247" lon="3.47494">
        <ele>1101.99</ele>
        <time>2022-01-19T17:42:48Z</time>
      </trkpt>
      <trkpt lat="44.60248" lon="3.47493">
        <ele>1101.9583</ele>
        <time>2022-01-19T17:42:49Z</time>
      </trkpt>
      <trkpt lat="44.60249" lon="3.47493">
        <ele>1101.7839</ele>
        <time>2022-01-19T17:42:50Z</time>
      </trkpt>
      <trkpt lat="44.60251" lon="3.47492">
        <ele>1101.6782</ele>
        <time>2022-01-19T17:42:51Z</time>
      </trkpt>
      <trkpt lat="44.60252" lon="3.4749">
        <ele>1101.7205</ele>
        <time>2022-01-19T17:42:52Z</time>
      </trkpt>
      <trkpt lat="44.60253" lon="3.47489">
        <ele>1101.4352</ele>
        <time>2022-01-19T17:42:53Z</time>
      </trkpt>
      <trkpt lat="44.60254" lon="3.47488">
        <ele>1101.3295</ele>
        <time>2022-01-19T17:42:54Z</time>
      </trkpt>
      <trkpt lat="44.60255" lon="3.47487">
        <ele>1101.2554</ele>
        <time>2022-01-19T17:42:55Z</time>
      </trkpt>
      <trkpt lat="44.60257" lon="3.47486">
        <ele>1101.2238</ele>
        <time>2022-01-19T17:42:56Z</time>
      </trkpt>
      <trkpt lat="44.60258" lon="3.47485">
        <ele>1101.2343</ele>
        <time>2022-01-19T17:42:57Z</time>
      </trkpt>
      <trkpt lat="44.60259" lon="3.47484">
        <ele>1100.9172</ele>
        <time>2022-01-19T17:42:58Z</time>
      </trkpt>
      <trkpt lat="44.6026" lon="3.47483">
        <ele>1100.8431</ele>
        <time>2022-01-19T17:42:59Z</time>
      </trkpt>
      <trkpt lat="44.60261" lon="3.47482">
        <ele>1100.7375</ele>
        <time>2022-01-19T17:43:00Z</time>
      </trkpt>
      <trkpt lat="44.60262" lon="3.47481">
        <ele>1100.4998</ele>
        <time>2022-01-19T17:43:01Z</time>
      </trkpt>
      <trkpt lat="44.60263" lon="3.4748">
        <ele>1100.4363</ele>
        <time>2022-01-19T17:43:02Z</time>
      </trkpt>
      <trkpt lat="44.60264" lon="3.47479">
        <ele>1100.2672</ele>
        <time>2022-01-19T17:43:03Z</time>
      </trkpt>
      <trkpt lat="44.60265" lon="3.47478">
        <ele>1100.0769</ele>
        <time>2022-01-19T17:43:04Z</time>
      </trkpt>
      <trkpt lat="44.60266" lon="3.47477">
        <ele>1099.8444</ele>
        <time>2022-01-19T17:43:05Z</time>
      </trkpt>
      <trkpt lat="44.60267" lon="3.47476">
        <ele>1099.67</ele>
        <time>2022-01-19T17:43:06Z</time>
      </trkpt>
      <trkpt lat="44.60268" lon="3.47476">
        <ele>1099.5221</ele>
        <time>2022-01-19T17:43:07Z</time>
      </trkpt>
      <trkpt lat="44.6027" lon="3.47475">
        <ele>1099.4216</ele>
        <time>2022-01-19T17:43:08Z</time>
      </trkpt>
      <trkpt lat="44.60271" lon="3.47474">
        <ele>1099.0518</ele>
        <time>2022-01-19T17:43:09Z</time>
      </trkpt>
      <trkpt lat="44.60272" lon="3.47473">
        <ele>1098.8508</ele>
        <time>2022-01-19T17:43:10Z</time>
      </trkpt>
      <trkpt lat="44.60273" lon="3.47471">
        <ele>1098.5233</ele>
        <time>2022-01-19T17:43:11Z</time>
      </trkpt>
      <trkpt lat="44.60275" lon="3.4747">
        <ele>1098.4387</ele>
        <time>2022-01-19T17:43:12Z</time>
      </trkpt>
      <trkpt lat="44.60276" lon="3.47468">
        <ele>1098.2695</ele>
        <time>2022-01-19T17:43:13Z</time>
      </trkpt>
      <trkpt lat="44.60278" lon="3.47467">
        <ele>1098.2695</ele>
        <time>2022-01-19T17:43:14Z</time>
      </trkpt>
      <trkpt lat="44.60279" lon="3.47466">
        <ele>1098.0741</ele>
        <time>2022-01-19T17:43:15Z</time>
      </trkpt>
      <trkpt lat="44.60281" lon="3.47465">
        <ele>1097.7411</ele>
        <time>2022-01-19T17:43:16Z</time>
      </trkpt>
      <trkpt lat="44.60282" lon="3.47464">
        <ele>1097.609</ele>
        <time>2022-01-19T17:43:17Z</time>
      </trkpt>
      <trkpt lat="44.60284" lon="3.47463">
        <ele>1097.4768</ele>
        <time>2022-01-19T17:43:18Z</time>
      </trkpt>
      <trkpt lat="44.60285" lon="3.47461">
        <ele>1097.5087</ele>
        <time>2022-01-19T17:43:19Z</time>
      </trkpt>
      <trkpt lat="44.60286" lon="3.4746">
        <ele>1097.2391</ele>
        <time>2022-01-19T17:43:20Z</time>
      </trkpt>
      <trkpt lat="44.60287" lon="3.47459">
        <ele>1096.9907</ele>
        <time>2022-01-19T17:43:21Z</time>
      </trkpt>
      <trkpt lat="44.60288" lon="3.47458">
        <ele>1096.9749</ele>
        <time>2022-01-19T17:43:22Z</time>
      </trkpt>
      <trkpt lat="44.60289" lon="3.47457">
        <ele>1096.7212</ele>
        <time>2022-01-19T17:43:23Z</time>
      </trkpt>
      <trkpt lat="44.60289" lon="3.47456">
        <ele>1096.4623</ele>
        <time>2022-01-19T17:43:24Z</time>
      </trkpt>
      <trkpt lat="44.6029" lon="3.47455">
        <ele>1096.2561</ele>
        <time>2022-01-19T17:43:25Z</time>
      </trkpt>
      <trkpt lat="44.60291" lon="3.47453">
        <ele>1095.9337</ele>
        <time>2022-01-19T17:43:26Z</time>
      </trkpt>
      <trkpt lat="44.60291" lon="3.47452">
        <ele>1095.7329</ele>
        <time>2022-01-19T17:43:27Z</time>
      </trkpt>
      <trkpt lat="44.60292" lon="3.47451">
        <ele>1095.4688</ele>
        <time>2022-01-19T17:43:28Z</time>
      </trkpt>
      <trkpt lat="44.60293" lon="3.4745">
        <ele>1095.2838</ele>
        <time>2022-01-19T17:43:29Z</time>
      </trkpt>
      <trkpt lat="44.60294" lon="3.47448">
        <ele>1095.1147</ele>
        <time>2022-01-19T17:43:30Z</time>
      </trkpt>
      <trkpt lat="44.60294" lon="3.47447">
        <ele>1094.787</ele>
        <time>2022-01-19T17:43:31Z</time>
      </trkpt>
      <trkpt lat="44.60295" lon="3.47446">
        <ele>1094.4911</ele>
        <time>2022-01-19T17:43:32Z</time>
      </trkpt>
      <trkpt lat="44.60296" lon="3.47445">
        <ele>1094.2797</ele>
        <time>2022-01-19T17:43:33Z</time>
      </trkpt>
      <trkpt lat="44.60297" lon="3.47443">
        <ele>1094.1582</ele>
        <time>2022-01-19T17:43:34Z</time>
      </trkpt>
      <trkpt lat="44.60297" lon="3.47441">
        <ele>1094.0208</ele>
        <time>2022-01-19T17:43:35Z</time>
      </trkpt>
      <trkpt lat="44.60298" lon="3.47439">
        <ele>1093.8728</ele>
        <time>2022-01-19T17:43:36Z</time>
      </trkpt>
      <trkpt lat="44.60299" lon="3.47437">
        <ele>1093.7565</ele>
        <time>2022-01-19T17:43:37Z</time>
      </trkpt>
      <trkpt lat="44.60299" lon="3.47436">
        <ele>1093.5239</ele>
        <time>2022-01-19T17:43:38Z</time>
      </trkpt>
      <trkpt lat="44.603" lon="3.47435">
        <ele>1093.3442</ele>
        <time>2022-01-19T17:43:39Z</time>
      </trkpt>
      <trkpt lat="44.603" lon="3.47433">
        <ele>1093.0536</ele>
        <time>2022-01-19T17:43:40Z</time>
      </trkpt>
      <trkpt lat="44.60301" lon="3.47432">
        <ele>1092.6045</ele>
        <time>2022-01-19T17:43:41Z</time>
      </trkpt>
      <trkpt lat="44.60302" lon="3.4743">
        <ele>1092.3086</ele>
        <time>2022-01-19T17:43:42Z</time>
      </trkpt>
      <trkpt lat="44.60303" lon="3.47429">
        <ele>1092.2134</ele>
        <time>2022-01-19T17:43:43Z</time>
      </trkpt>
      <trkpt lat="44.60303" lon="3.47427">
        <ele>1091.8118</ele>
        <time>2022-01-19T17:43:44Z</time>
      </trkpt>
      <trkpt lat="44.60304" lon="3.47426">
        <ele>1091.6268</ele>
        <time>2022-01-19T17:43:45Z</time>
      </trkpt>
      <trkpt lat="44.60304" lon="3.47425">
        <ele>1091.1987</ele>
        <time>2022-01-19T17:43:46Z</time>
      </trkpt>
      <trkpt lat="44.60304" lon="3.47423">
        <ele>1090.8552</ele>
        <time>2022-01-19T17:43:47Z</time>
      </trkpt>
      <trkpt lat="44.60304" lon="3.47421">
        <ele>1090.5328</ele>
        <time>2022-01-19T17:43:48Z</time>
      </trkpt>
      <trkpt lat="44.60305" lon="3.4742">
        <ele>1090.1736</ele>
        <time>2022-01-19T17:43:49Z</time>
      </trkpt>
      <trkpt lat="44.60305" lon="3.47419">
        <ele>1090.0256</ele>
        <time>2022-01-19T17:43:50Z</time>
      </trkpt>
      <trkpt lat="44.60306" lon="3.47418">
        <ele>1089.5393</ele>
        <time>2022-01-19T17:43:51Z</time>
      </trkpt>
      <trkpt lat="44.60306" lon="3.47417">
        <ele>1089.1959</ele>
        <time>2022-01-19T17:43:52Z</time>
      </trkpt>
      <trkpt lat="44.60307" lon="3.47415">
        <ele>1088.9528</ele>
        <time>2022-01-19T17:43:53Z</time>
      </trkpt>
      <trkpt lat="44.60307" lon="3.47413">
        <ele>1088.5986</ele>
        <time>2022-01-19T17:43:54Z</time>
      </trkpt>
      <trkpt lat="44.60308" lon="3.47411">
        <ele>1088.3873</ele>
        <time>2022-01-19T17:43:55Z</time>
      </trkpt>
      <trkpt lat="44.60309" lon="3.4741">
        <ele>1087.9646</ele>
        <time>2022-01-19T17:43:56Z</time>
      </trkpt>
      <trkpt lat="44.60309" lon="3.47408">
        <ele>1087.8324</ele>
        <time>2022-01-19T17:43:57Z</time>
      </trkpt>
      <trkpt lat="44.6031" lon="3.47407">
        <ele>1087.5946</ele>
        <time>2022-01-19T17:43:58Z</time>
      </trkpt>
      <trkpt lat="44.6031" lon="3.47405">
        <ele>1087.2617</ele>
        <time>2022-01-19T17:43:59Z</time>
      </trkpt>
      <trkpt lat="44.60311" lon="3.47404">
        <ele>1087.082</ele>
        <time>2022-01-19T17:44:00Z</time>
      </trkpt>
      <trkpt lat="44.60312" lon="3.47403">
        <ele>1086.675</ele>
        <time>2022-01-19T17:44:01Z</time>
      </trkpt>
      <trkpt lat="44.60312" lon="3.47402">
        <ele>1086.4954</ele>
        <time>2022-01-19T17:44:02Z</time>
      </trkpt>
      <trkpt lat="44.60313" lon="3.47401">
        <ele>1086.2365</ele>
        <time>2022-01-19T17:44:03Z</time>
      </trkpt>
      <trkpt lat="44.60313" lon="3.47399">
        <ele>1085.8823</ele>
        <time>2022-01-19T17:44:04Z</time>
      </trkpt>
      <trkpt lat="44.60313" lon="3.47398">
        <ele>1085.5917</ele>
        <time>2022-01-19T17:44:05Z</time>
      </trkpt>
      <trkpt lat="44.60314" lon="3.47396">
        <ele>1085.3591</ele>
        <time>2022-01-19T17:44:06Z</time>
      </trkpt>
      <trkpt lat="44.60314" lon="3.47395">
        <ele>1084.8835</ele>
        <time>2022-01-19T17:44:07Z</time>
      </trkpt>
      <trkpt lat="44.60315" lon="3.47393">
        <ele>1084.8467</ele>
        <time>2022-01-19T17:44:08Z</time>
      </trkpt>
      <trkpt lat="44.60315" lon="3.47392">
        <ele>1084.6299</ele>
        <time>2022-01-19T17:44:09Z</time>
      </trkpt>
      <trkpt lat="44.60316" lon="3.47391">
        <ele>1084.2917</ele>
        <time>2022-01-19T17:44:10Z</time>
      </trkpt>
      <trkpt lat="44.60317" lon="3.4739">
        <ele>1083.7368</ele>
        <time>2022-01-19T17:44:11Z</time>
      </trkpt>
      <trkpt lat="44.60317" lon="3.47389">
        <ele>1083.7157</ele>
        <time>2022-01-19T17:44:12Z</time>
      </trkpt>
      <trkpt lat="44.60317" lon="3.47388">
        <ele>1083.3563</ele>
        <time>2022-01-19T17:44:13Z</time>
      </trkpt>
      <trkpt lat="44.60317" lon="3.47386">
        <ele>1083.1766</ele>
        <time>2022-01-19T17:44:14Z</time>
      </trkpt>
      <trkpt lat="44.60318" lon="3.47385">
        <ele>1082.7856</ele>
        <time>2022-01-19T17:44:15Z</time>
      </trkpt>
      <trkpt lat="44.60319" lon="3.47383">
        <ele>1082.405</ele>
        <time>2022-01-19T17:44:16Z</time>
      </trkpt>
      <trkpt lat="44.6032" lon="3.47381">
        <ele>1082.199</ele>
        <time>2022-01-19T17:44:17Z</time>
      </trkpt>
      <trkpt lat="44.60321" lon="3.47379">
        <ele>1081.7499</ele>
        <time>2022-01-19T17:44:18Z</time>
      </trkpt>
      <trkpt lat="44.60321" lon="3.47377">
        <ele>1081.5278</ele>
        <time>2022-01-19T17:44:19Z</time>
      </trkpt>
      <trkpt lat="44.60323" lon="3.47376">
        <ele>1081.2108</ele>
        <time>2022-01-19T17:44:20Z</time>
      </trkpt>
      <trkpt lat="44.60323" lon="3.47374">
        <ele>1080.9043</ele>
        <time>2022-01-19T17:44:21Z</time>
      </trkpt>
      <trkpt lat="44.60323" lon="3.47373">
        <ele>1080.64</ele>
        <time>2022-01-19T17:44:22Z</time>
      </trkpt>
      <trkpt lat="44.60324" lon="3.47372">
        <ele>1080.2067</ele>
        <time>2022-01-19T17:44:23Z</time>
      </trkpt>
      <trkpt lat="44.60324" lon="3.4737">
        <ele>1079.7365</ele>
        <time>2022-01-19T17:44:24Z</time>
      </trkpt>
      <trkpt lat="44.60324" lon="3.47368">
        <ele>1079.6254</ele>
        <time>2022-01-19T17:44:25Z</time>
      </trkpt>
      <trkpt lat="44.60324" lon="3.47368">
        <ele>1079.3506</ele>
        <time>2022-01-19T17:44:26Z</time>
      </trkpt>
      <trkpt lat="44.60324" lon="3.47366">
        <ele>1079.081</ele>
        <time>2022-01-19T17:44:27Z</time>
      </trkpt>
      <trkpt lat="44.60325" lon="3.47365">
        <ele>1078.7323</ele>
        <time>2022-01-19T17:44:28Z</time>
      </trkpt>
      <trkpt lat="44.60325" lon="3.47364">
        <ele>1078.3624</ele>
        <time>2022-01-19T17:44:29Z</time>
      </trkpt>
      <trkpt lat="44.60326" lon="3.47363">
        <ele>1078.1615</ele>
        <time>2022-01-19T17:44:30Z</time>
      </trkpt>
      <trkpt lat="44.60326" lon="3.47362">
        <ele>1077.7758</ele>
        <time>2022-01-19T17:44:31Z</time>
      </trkpt>
      <trkpt lat="44.60327" lon="3.47362">
        <ele>1077.5273</ele>
        <time>2022-01-19T17:44:32Z</time>
      </trkpt>
      <trkpt lat="44.60328" lon="3.4736">
        <ele>1077.2948</ele>
        <time>2022-01-19T17:44:33Z</time>
      </trkpt>
      <trkpt lat="44.60329" lon="3.47359">
        <ele>1077.1046</ele>
        <time>2022-01-19T17:44:34Z</time>
      </trkpt>
      <trkpt lat="44.6033" lon="3.47357">
        <ele>1076.8192</ele>
        <time>2022-01-19T17:44:35Z</time>
      </trkpt>
      <trkpt lat="44.6033" lon="3.47355">
        <ele>1076.444</ele>
        <time>2022-01-19T17:44:36Z</time>
      </trkpt>
      <trkpt lat="44.60331" lon="3.47354">
        <ele>1076.1376</ele>
        <time>2022-01-19T17:44:37Z</time>
      </trkpt>
      <trkpt lat="44.60332" lon="3.47352">
        <ele>1076.0212</ele>
        <time>2022-01-19T17:44:38Z</time>
      </trkpt>
      <trkpt lat="44.60333" lon="3.47352">
        <ele>1075.6884</ele>
        <time>2022-01-19T17:44:39Z</time>
      </trkpt>
      <trkpt lat="44.60333" lon="3.4735">
        <ele>1075.535</ele>
        <time>2022-01-19T17:44:40Z</time>
      </trkpt>
      <trkpt lat="44.60333" lon="3.47349">
        <ele>1075.0753</ele>
        <time>2022-01-19T17:44:41Z</time>
      </trkpt>
      <trkpt lat="44.60334" lon="3.47348">
        <ele>1074.7899</ele>
        <time>2022-01-19T17:44:42Z</time>
      </trkpt>
      <trkpt lat="44.60334" lon="3.47347">
        <ele>1074.6261</ele>
        <time>2022-01-19T17:44:43Z</time>
      </trkpt>
      <trkpt lat="44.60335" lon="3.47346">
        <ele>1074.4042</ele>
        <time>2022-01-19T17:44:44Z</time>
      </trkpt>
      <trkpt lat="44.60335" lon="3.47345">
        <ele>1074.0237</ele>
        <time>2022-01-19T17:44:45Z</time>
      </trkpt>
      <trkpt lat="44.60335" lon="3.47343">
        <ele>1073.77</ele>
        <time>2022-01-19T17:44:46Z</time>
      </trkpt>
      <trkpt lat="44.60336" lon="3.47342">
        <ele>1073.6062</ele>
        <time>2022-01-19T17:44:48Z</time>
      </trkpt>
      <trkpt lat="44.60336" lon="3.47341">
        <ele>1073.4159</ele>
        <time>2022-01-19T17:44:49Z</time>
      </trkpt>
      <trkpt lat="44.60336" lon="3.47341">
        <ele>1073.1359</ele>
        <time>2022-01-19T17:44:50Z</time>
      </trkpt>
      <trkpt lat="44.60336" lon="3.4734">
        <ele>1072.9879</ele>
        <time>2022-01-19T17:44:51Z</time>
      </trkpt>
      <trkpt lat="44.60337" lon="3.47339">
        <ele>1072.6866</ele>
        <time>2022-01-19T17:44:52Z</time>
      </trkpt>
      <trkpt lat="44.60337" lon="3.47338">
        <ele>1072.359</ele>
        <time>2022-01-19T17:44:53Z</time>
      </trkpt>
      <trkpt lat="44.60338" lon="3.47337">
        <ele>1072.1158</ele>
        <time>2022-01-19T17:44:54Z</time>
      </trkpt>
      <trkpt lat="44.60339" lon="3.47336">
        <ele>1071.8782</ele>
        <time>2022-01-19T17:44:55Z</time>
      </trkpt>
      <trkpt lat="44.60339" lon="3.47335">
        <ele>1071.5452</ele>
        <time>2022-01-19T17:44:56Z</time>
      </trkpt>
      <trkpt lat="44.6034" lon="3.47333">
        <ele>1071.3444</ele>
        <time>2022-01-19T17:44:57Z</time>
      </trkpt>
      <trkpt lat="44.6034" lon="3.47332">
        <ele>1071.0801</ele>
        <time>2022-01-19T17:44:58Z</time>
      </trkpt>
      <trkpt lat="44.6034" lon="3.47331">
        <ele>1070.7789</ele>
        <time>2022-01-19T17:44:59Z</time>
      </trkpt>
      <trkpt lat="44.60341" lon="3.47329">
        <ele>1070.5886</ele>
        <time>2022-01-19T17:45:00Z</time>
      </trkpt>
      <trkpt lat="44.60341" lon="3.47328">
        <ele>1070.3192</ele>
        <time>2022-01-19T17:45:01Z</time>
      </trkpt>
      <trkpt lat="44.60342" lon="3.47327">
        <ele>1070.0021</ele>
        <time>2022-01-19T17:45:02Z</time>
      </trkpt>
      <trkpt lat="44.60342" lon="3.47326">
        <ele>1069.8383</ele>
        <time>2022-01-19T17:45:03Z</time>
      </trkpt>
      <trkpt lat="44.60342" lon="3.47325">
        <ele>1069.7114</ele>
        <time>2022-01-19T17:45:04Z</time>
      </trkpt>
      <trkpt lat="44.60343" lon="3.47323">
        <ele>1069.4525</ele>
        <time>2022-01-19T17:45:05Z</time>
      </trkpt>
      <trkpt lat="44.60343" lon="3.47322">
        <ele>1069.2992</ele>
        <time>2022-01-19T17:45:06Z</time>
      </trkpt>
      <trkpt lat="44.60343" lon="3.47321">
        <ele>1068.9927</ele>
        <time>2022-01-19T17:45:07Z</time>
      </trkpt>
      <trkpt lat="44.60343" lon="3.47321">
        <ele>1068.739</ele>
        <time>2022-01-19T17:45:08Z</time>
      </trkpt>
      <trkpt lat="44.60343" lon="3.47321">
        <ele>1068.4801</ele>
        <time>2022-01-19T17:45:09Z</time>
      </trkpt>
      <trkpt lat="44.60344" lon="3.47318">
        <ele>1068.2264</ele>
        <time>2022-01-19T17:45:10Z</time>
      </trkpt>
      <trkpt lat="44.60345" lon="3.47318">
        <ele>1067.9569</ele>
        <time>2022-01-19T17:45:11Z</time>
      </trkpt>
      <trkpt lat="44.60345" lon="3.47317">
        <ele>1067.7085</ele>
        <time>2022-01-19T17:45:12Z</time>
      </trkpt>
      <trkpt lat="44.60346" lon="3.47316">
        <ele>1067.1694</ele>
        <time>2022-01-19T17:45:13Z</time>
      </trkpt>
      <trkpt lat="44.60346" lon="3.47315">
        <ele>1066.9581</ele>
        <time>2022-01-19T17:45:14Z</time>
      </trkpt>
      <trkpt lat="44.60346" lon="3.47313">
        <ele>1066.9159</ele>
        <time>2022-01-19T17:45:15Z</time>
      </trkpt>
      <trkpt lat="44.60347" lon="3.47312">
        <ele>1066.7572</ele>
        <time>2022-01-19T17:45:16Z</time>
      </trkpt>
      <trkpt lat="44.60348" lon="3.47311">
        <ele>1067.4918</ele>
        <time>2022-01-19T17:45:17Z</time>
      </trkpt>
      <trkpt lat="44.60348" lon="3.4731">
        <ele>1066.5142</ele>
        <time>2022-01-19T17:45:18Z</time>
      </trkpt>
      <trkpt lat="44.60349" lon="3.47309">
        <ele>1066.0597</ele>
        <time>2022-01-19T17:45:19Z</time>
      </trkpt>
      <trkpt lat="44.60349" lon="3.47308">
        <ele>1065.7427</ele>
        <time>2022-01-19T17:45:20Z</time>
      </trkpt>
      <trkpt lat="44.60349" lon="3.47307">
        <ele>1065.5101</ele>
        <time>2022-01-19T17:45:21Z</time>
      </trkpt>
      <trkpt lat="44.6035" lon="3.47306">
        <ele>1065.2723</ele>
        <time>2022-01-19T17:45:22Z</time>
      </trkpt>
      <trkpt lat="44.6035" lon="3.47305">
        <ele>1064.876</ele>
        <time>2022-01-19T17:45:23Z</time>
      </trkpt>
      <trkpt lat="44.6035" lon="3.47304">
        <ele>1064.6328</ele>
        <time>2022-01-19T17:45:24Z</time>
      </trkpt>
      <trkpt lat="44.60349" lon="3.47303">
        <ele>1064.5325</ele>
        <time>2022-01-19T17:45:25Z</time>
      </trkpt>
      <trkpt lat="44.6035" lon="3.47301">
        <ele>1064.4796</ele>
        <time>2022-01-19T17:45:26Z</time>
      </trkpt>
      <trkpt lat="44.6035" lon="3.47299">
        <ele>1064.2418</ele>
        <time>2022-01-19T17:45:27Z</time>
      </trkpt>
      <trkpt lat="44.60351" lon="3.47297">
        <ele>1064.1414</ele>
        <time>2022-01-19T17:45:28Z</time>
      </trkpt>
      <trkpt lat="44.60352" lon="3.47296">
        <ele>1063.9775</ele>
        <time>2022-01-19T17:45:29Z</time>
      </trkpt>
      <trkpt lat="44.60353" lon="3.47295">
        <ele>1063.6023</ele>
        <time>2022-01-19T17:45:30Z</time>
      </trkpt>
      <trkpt lat="44.60354" lon="3.47293">
        <ele>1063.4332</ele>
        <time>2022-01-19T17:45:31Z</time>
      </trkpt>
      <trkpt lat="44.60354" lon="3.47292">
        <ele>1063.2589</ele>
        <time>2022-01-19T17:45:32Z</time>
      </trkpt>
      <trkpt lat="44.60355" lon="3.47291">
        <ele>1062.9788</ele>
        <time>2022-01-19T17:45:33Z</time>
      </trkpt>
      <trkpt lat="44.60355" lon="3.4729">
        <ele>1062.8467</ele>
        <time>2022-01-19T17:45:34Z</time>
      </trkpt>
      <trkpt lat="44.60357" lon="3.47288">
        <ele>1062.7885</ele>
        <time>2022-01-19T17:45:35Z</time>
      </trkpt>
      <trkpt lat="44.60357" lon="3.47287">
        <ele>1062.4133</ele>
        <time>2022-01-19T17:45:36Z</time>
      </trkpt>
      <trkpt lat="44.60358" lon="3.47286">
        <ele>1062.2812</ele>
        <time>2022-01-19T17:45:37Z</time>
      </trkpt>
      <trkpt lat="44.60358" lon="3.47285">
        <ele>1062.0592</ele>
        <time>2022-01-19T17:45:38Z</time>
      </trkpt>
      <trkpt lat="44.60358" lon="3.47283">
        <ele>1061.943</ele>
        <time>2022-01-19T17:45:39Z</time>
      </trkpt>
      <trkpt lat="44.60359" lon="3.47282">
        <ele>1061.5836</ele>
        <time>2022-01-19T17:45:40Z</time>
      </trkpt>
      <trkpt lat="44.6036" lon="3.47281">
        <ele>1061.1556</ele>
        <time>2022-01-19T17:45:41Z</time>
      </trkpt>
      <trkpt lat="44.6036" lon="3.4728">
        <ele>1060.9547</ele>
        <time>2022-01-19T17:45:42Z</time>
      </trkpt>
      <trkpt lat="44.60361" lon="3.47279">
        <ele>1060.7645</ele>
        <time>2022-01-19T17:45:43Z</time>
      </trkpt>
      <trkpt lat="44.60361" lon="3.47278">
        <ele>1060.4421</ele>
        <time>2022-01-19T17:45:44Z</time>
      </trkpt>
      <trkpt lat="44.60361" lon="3.47277">
        <ele>1060.1885</ele>
        <time>2022-01-19T17:45:45Z</time>
      </trkpt>
      <trkpt lat="44.60362" lon="3.47276">
        <ele>1059.808</ele>
        <time>2022-01-19T17:45:46Z</time>
      </trkpt>
      <trkpt lat="44.60363" lon="3.47274">
        <ele>1059.5596</ele>
        <time>2022-01-19T17:45:47Z</time>
      </trkpt>
      <trkpt lat="44.60363" lon="3.47274">
        <ele>1059.2161</ele>
        <time>2022-01-19T17:45:48Z</time>
      </trkpt>
      <trkpt lat="44.60364" lon="3.47272">
        <ele>1058.862</ele>
        <time>2022-01-19T17:45:49Z</time>
      </trkpt>
      <trkpt lat="44.60364" lon="3.47271">
        <ele>1058.7194</ele>
        <time>2022-01-19T17:45:50Z</time>
      </trkpt>
      <trkpt lat="44.60365" lon="3.4727">
        <ele>1058.5079</ele>
        <time>2022-01-19T17:45:51Z</time>
      </trkpt>
      <trkpt lat="44.60365" lon="3.47268">
        <ele>1058.2279</ele>
        <time>2022-01-19T17:45:52Z</time>
      </trkpt>
      <trkpt lat="44.60365" lon="3.47267">
        <ele>1057.9954</ele>
        <time>2022-01-19T17:45:53Z</time>
      </trkpt>
      <trkpt lat="44.60365" lon="3.47266">
        <ele>1057.879</ele>
        <time>2022-01-19T17:45:54Z</time>
      </trkpt>
      <trkpt lat="44.60365" lon="3.47265">
        <ele>1057.562</ele>
        <time>2022-01-19T17:45:55Z</time>
      </trkpt>
      <trkpt lat="44.60365" lon="3.47263">
        <ele>1057.3348</ele>
        <time>2022-01-19T17:45:56Z</time>
      </trkpt>
      <trkpt lat="44.60364" lon="3.47261">
        <ele>1057.1974</ele>
        <time>2022-01-19T17:45:57Z</time>
      </trkpt>
      <trkpt lat="44.60364" lon="3.4726">
        <ele>1056.9912</ele>
        <time>2022-01-19T17:45:58Z</time>
      </trkpt>
      <trkpt lat="44.60363" lon="3.47258">
        <ele>1056.9067</ele>
        <time>2022-01-19T17:45:59Z</time>
      </trkpt>
      <trkpt lat="44.60363" lon="3.47257">
        <ele>1056.6794</ele>
        <time>2022-01-19T17:46:00Z</time>
      </trkpt>
      <trkpt lat="44.60363" lon="3.47256">
        <ele>1056.4469</ele>
        <time>2022-01-19T17:46:01Z</time>
      </trkpt>
      <trkpt lat="44.60363" lon="3.47255">
        <ele>1056.0929</ele>
        <time>2022-01-19T17:46:02Z</time>
      </trkpt>
      <trkpt lat="44.60363" lon="3.47254">
        <ele>1055.945</ele>
        <time>2022-01-19T17:46:03Z</time>
      </trkpt>
      <trkpt lat="44.60363" lon="3.47252">
        <ele>1055.6754</ele>
        <time>2022-01-19T17:46:04Z</time>
      </trkpt>
      <trkpt lat="44.60364" lon="3.4725">
        <ele>1055.4323</ele>
        <time>2022-01-19T17:46:05Z</time>
      </trkpt>
      <trkpt lat="44.60364" lon="3.47247">
        <ele>1055.3584</ele>
        <time>2022-01-19T17:46:06Z</time>
      </trkpt>
      <trkpt lat="44.60364" lon="3.47246">
        <ele>1055.0306</ele>
        <time>2022-01-19T17:46:07Z</time>
      </trkpt>
      <trkpt lat="44.60364" lon="3.47244">
        <ele>1054.7876</ele>
        <time>2022-01-19T17:46:08Z</time>
      </trkpt>
      <trkpt lat="44.60364" lon="3.47242">
        <ele>1054.6978</ele>
        <time>2022-01-19T17:46:09Z</time>
      </trkpt>
      <trkpt lat="44.60364" lon="3.47241">
        <ele>1054.4811</ele>
        <time>2022-01-19T17:46:10Z</time>
      </trkpt>
      <trkpt lat="44.60363" lon="3.47239">
        <ele>1054.2592</ele>
        <time>2022-01-19T17:46:11Z</time>
      </trkpt>
      <trkpt lat="44.60364" lon="3.47237">
        <ele>1054.053</ele>
        <time>2022-01-19T17:46:12Z</time>
      </trkpt>
      <trkpt lat="44.60364" lon="3.47235">
        <ele>1053.8206</ele>
        <time>2022-01-19T17:46:13Z</time>
      </trkpt>
      <trkpt lat="44.60364" lon="3.47233">
        <ele>1053.5826</ele>
        <time>2022-01-19T17:46:14Z</time>
      </trkpt>
      <trkpt lat="44.60364" lon="3.47232">
        <ele>1053.4188</ele>
        <time>2022-01-19T17:46:15Z</time>
      </trkpt>
      <trkpt lat="44.60365" lon="3.47231">
        <ele>1053.1969</ele>
        <time>2022-01-19T17:46:16Z</time>
      </trkpt>
      <trkpt lat="44.60366" lon="3.47229">
        <ele>1052.9062</ele>
        <time>2022-01-19T17:46:17Z</time>
      </trkpt>
      <trkpt lat="44.60367" lon="3.47227">
        <ele>1052.6526</ele>
        <time>2022-01-19T17:46:18Z</time>
      </trkpt>
      <trkpt lat="44.60368" lon="3.47226">
        <ele>1052.4993</ele>
        <time>2022-01-19T17:46:19Z</time>
      </trkpt>
      <trkpt lat="44.60369" lon="3.47225">
        <ele>1052.0713</ele>
        <time>2022-01-19T17:46:20Z</time>
      </trkpt>
      <trkpt lat="44.6037" lon="3.47223">
        <ele>1051.8757</ele>
        <time>2022-01-19T17:46:21Z</time>
      </trkpt>
      <trkpt lat="44.6037" lon="3.47222">
        <ele>1051.7542</ele>
        <time>2022-01-19T17:46:22Z</time>
      </trkpt>
      <trkpt lat="44.60371" lon="3.4722">
        <ele>1051.5059</ele>
        <time>2022-01-19T17:46:23Z</time>
      </trkpt>
      <trkpt lat="44.60372" lon="3.47219">
        <ele>1051.1306</ele>
        <time>2022-01-19T17:46:24Z</time>
      </trkpt>
      <trkpt lat="44.60373" lon="3.47217">
        <ele>1050.8293</ele>
        <time>2022-01-19T17:46:25Z</time>
      </trkpt>
      <trkpt lat="44.60375" lon="3.47216">
        <ele>1050.7184</ele>
        <time>2022-01-19T17:46:26Z</time>
      </trkpt>
      <trkpt lat="44.60376" lon="3.47214">
        <ele>1050.5387</ele>
        <time>2022-01-19T17:46:27Z</time>
      </trkpt>
      <trkpt lat="44.60376" lon="3.47213">
        <ele>1050.2006</ele>
        <time>2022-01-19T17:46:28Z</time>
      </trkpt>
      <trkpt lat="44.60376" lon="3.47211">
        <ele>1050.1106</ele>
        <time>2022-01-19T17:46:29Z</time>
      </trkpt>
      <trkpt lat="44.60376" lon="3.4721">
        <ele>1049.9574</ele>
        <time>2022-01-19T17:46:30Z</time>
      </trkpt>
      <trkpt lat="44.60376" lon="3.47208">
        <ele>1049.6245</ele>
        <time>2022-01-19T17:46:31Z</time>
      </trkpt>
      <trkpt lat="44.60376" lon="3.47207">
        <ele>1049.5875</ele>
        <time>2022-01-19T17:46:32Z</time>
      </trkpt>
      <trkpt lat="44.60377" lon="3.47205">
        <ele>1049.3339</ele>
        <time>2022-01-19T17:46:33Z</time>
      </trkpt>
      <trkpt lat="44.60377" lon="3.47204">
        <ele>1048.9586</ele>
        <time>2022-01-19T17:46:34Z</time>
      </trkpt>
      <trkpt lat="44.60378" lon="3.47203">
        <ele>1048.948</ele>
        <time>2022-01-19T17:46:35Z</time>
      </trkpt>
      <trkpt lat="44.60379" lon="3.47202">
        <ele>1048.6362</ele>
        <time>2022-01-19T17:46:36Z</time>
      </trkpt>
      <trkpt lat="44.60379" lon="3.47201">
        <ele>1048.5359</ele>
        <time>2022-01-19T17:46:37Z</time>
      </trkpt>
      <trkpt lat="44.60381" lon="3.47199">
        <ele>1048.2083</ele>
        <time>2022-01-19T17:46:38Z</time>
      </trkpt>
      <trkpt lat="44.60381" lon="3.47198">
        <ele>1047.9492</ele>
        <time>2022-01-19T17:46:39Z</time>
      </trkpt>
      <trkpt lat="44.60382" lon="3.47197">
        <ele>1047.8646</ele>
        <time>2022-01-19T17:46:40Z</time>
      </trkpt>
      <trkpt lat="44.60383" lon="3.47196">
        <ele>1047.7378</ele>
        <time>2022-01-19T17:46:41Z</time>
      </trkpt>
      <trkpt lat="44.60383" lon="3.47195">
        <ele>1047.479</ele>
        <time>2022-01-19T17:46:42Z</time>
      </trkpt>
      <trkpt lat="44.60384" lon="3.47194">
        <ele>1047.3997</ele>
        <time>2022-01-19T17:46:43Z</time>
      </trkpt>
      <trkpt lat="44.60385" lon="3.47193">
        <ele>1047.1512</ele>
        <time>2022-01-19T17:46:44Z</time>
      </trkpt>
      <trkpt lat="44.60386" lon="3.47191">
        <ele>1046.85</ele>
        <time>2022-01-19T17:46:45Z</time>
      </trkpt>
      <trkpt lat="44.60387" lon="3.47191">
        <ele>1046.6176</ele>
        <time>2022-01-19T17:46:46Z</time>
      </trkpt>
      <trkpt lat="44.60388" lon="3.4719">
        <ele>1046.3903</ele>
        <time>2022-01-19T17:46:47Z</time>
      </trkpt>
      <trkpt lat="44.60388" lon="3.47189">
        <ele>1046.1418</ele>
        <time>2022-01-19T17:46:48Z</time>
      </trkpt>
      <trkpt lat="44.60389" lon="3.47188">
        <ele>1046.0996</ele>
        <time>2022-01-19T17:46:49Z</time>
      </trkpt>
      <trkpt lat="44.60389" lon="3.47187">
        <ele>1045.7666</ele>
        <time>2022-01-19T17:46:50Z</time>
      </trkpt>
      <trkpt lat="44.6039" lon="3.47186">
        <ele>1045.4021</ele>
        <time>2022-01-19T17:46:51Z</time>
      </trkpt>
      <trkpt lat="44.60391" lon="3.47184">
        <ele>1045.1959</ele>
        <time>2022-01-19T17:46:52Z</time>
      </trkpt>
      <trkpt lat="44.60392" lon="3.47183">
        <ele>1045.1273</ele>
        <time>2022-01-19T17:46:53Z</time>
      </trkpt>
      <trkpt lat="44.60392" lon="3.47182">
        <ele>1044.8208</ele>
        <time>2022-01-19T17:46:54Z</time>
      </trkpt>
      <trkpt lat="44.60393" lon="3.4718">
        <ele>1044.6252</ele>
        <time>2022-01-19T17:46:55Z</time>
      </trkpt>
      <trkpt lat="44.60393" lon="3.47179">
        <ele>1044.5883</ele>
        <time>2022-01-19T17:46:56Z</time>
      </trkpt>
      <trkpt lat="44.60394" lon="3.47177">
        <ele>1044.4667</ele>
        <time>2022-01-19T17:46:57Z</time>
      </trkpt>
      <trkpt lat="44.60394" lon="3.47175">
        <ele>1044.1919</ele>
        <time>2022-01-19T17:46:58Z</time>
      </trkpt>
      <trkpt lat="44.60394" lon="3.47173">
        <ele>1043.8114</ele>
        <time>2022-01-19T17:46:59Z</time>
      </trkpt>
      <trkpt lat="44.60395" lon="3.47172">
        <ele>1043.5947</ele>
        <time>2022-01-19T17:47:00Z</time>
      </trkpt>
      <trkpt lat="44.60395" lon="3.4717">
        <ele>1043.2247</ele>
        <time>2022-01-19T17:47:01Z</time>
      </trkpt>
      <trkpt lat="44.60396" lon="3.47168">
        <ele>1043.1244</ele>
        <time>2022-01-19T17:47:02Z</time>
      </trkpt>
      <trkpt lat="44.60397" lon="3.47167">
        <ele>1042.8496</ele>
        <time>2022-01-19T17:47:03Z</time>
      </trkpt>
      <trkpt lat="44.60398" lon="3.47165">
        <ele>1042.8444</ele>
        <time>2022-01-19T17:47:04Z</time>
      </trkpt>
      <trkpt lat="44.60399" lon="3.47164">
        <ele>1042.7228</ele>
        <time>2022-01-19T17:47:05Z</time>
      </trkpt>
      <trkpt lat="44.60399" lon="3.47162">
        <ele>1042.728</ele>
        <time>2022-01-19T17:47:06Z</time>
      </trkpt>
      <trkpt lat="44.604" lon="3.47161">
        <ele>1042.5378</ele>
        <time>2022-01-19T17:47:07Z</time>
      </trkpt>
      <trkpt lat="44.60401" lon="3.47159">
        <ele>1042.5326</ele>
        <time>2022-01-19T17:47:08Z</time>
      </trkpt>
      <trkpt lat="44.60402" lon="3.47158">
        <ele>1042.2999</ele>
        <time>2022-01-19T17:47:09Z</time>
      </trkpt>
      <trkpt lat="44.60402" lon="3.47156">
        <ele>1042.3634</ele>
        <time>2022-01-19T17:47:10Z</time>
      </trkpt>
      <trkpt lat="44.60403" lon="3.47155">
        <ele>1042.1204</ele>
        <time>2022-01-19T17:47:11Z</time>
      </trkpt>
      <trkpt lat="44.60404" lon="3.47154">
        <ele>1042.1362</ele>
        <time>2022-01-19T17:47:12Z</time>
      </trkpt>
      <trkpt lat="44.60405" lon="3.47152">
        <ele>1041.9564</ele>
        <time>2022-01-19T17:47:13Z</time>
      </trkpt>
      <trkpt lat="44.60406" lon="3.47151">
        <ele>1041.7821</ele>
        <time>2022-01-19T17:47:14Z</time>
      </trkpt>
      <trkpt lat="44.60407" lon="3.4715">
        <ele>1041.9512</ele>
        <time>2022-01-19T17:47:15Z</time>
      </trkpt>
      <trkpt lat="44.60408" lon="3.47148">
        <ele>1041.835</ele>
        <time>2022-01-19T17:47:16Z</time>
      </trkpt>
      <trkpt lat="44.6041" lon="3.47146">
        <ele>1041.8613</ele>
        <time>2022-01-19T17:47:17Z</time>
      </trkpt>
      <trkpt lat="44.60411" lon="3.47145">
        <ele>1043.0082</ele>
        <time>2022-01-19T17:47:18Z</time>
      </trkpt>
      <trkpt lat="44.60412" lon="3.47144">
        <ele>1042.0251</ele>
        <time>2022-01-19T17:47:19Z</time>
      </trkpt>
      <trkpt lat="44.60412" lon="3.47143">
        <ele>1041.7029</ele>
        <time>2022-01-19T17:47:20Z</time>
      </trkpt>
      <trkpt lat="44.60413" lon="3.47142">
        <ele>1041.428</ele>
        <time>2022-01-19T17:47:21Z</time>
      </trkpt>
      <trkpt lat="44.60414" lon="3.47141">
        <ele>1041.465</ele>
        <time>2022-01-19T17:47:22Z</time>
      </trkpt>
      <trkpt lat="44.60415" lon="3.47139">
        <ele>1041.354</ele>
        <time>2022-01-19T17:47:23Z</time>
      </trkpt>
      <trkpt lat="44.60416" lon="3.47138">
        <ele>1041.2959</ele>
        <time>2022-01-19T17:47:24Z</time>
      </trkpt>
      <trkpt lat="44.60417" lon="3.47137">
        <ele>1041.2535</ele>
        <time>2022-01-19T17:47:25Z</time>
      </trkpt>
      <trkpt lat="44.60418" lon="3.47135">
        <ele>1041.2166</ele>
        <time>2022-01-19T17:47:26Z</time>
      </trkpt>
      <trkpt lat="44.60419" lon="3.47134">
        <ele>1041.1003</ele>
        <time>2022-01-19T17:47:27Z</time>
      </trkpt>
      <trkpt lat="44.6042" lon="3.47133">
        <ele>1040.9524</ele>
        <time>2022-01-19T17:47:28Z</time>
      </trkpt>
      <trkpt lat="44.60421" lon="3.47132">
        <ele>1040.9102</ele>
        <time>2022-01-19T17:47:29Z</time>
      </trkpt>
      <trkpt lat="44.60422" lon="3.4713">
        <ele>1040.8837</ele>
        <time>2022-01-19T17:47:30Z</time>
      </trkpt>
      <trkpt lat="44.60423" lon="3.47129">
        <ele>1040.7252</ele>
        <time>2022-01-19T17:47:31Z</time>
      </trkpt>
      <trkpt lat="44.60424" lon="3.47128">
        <ele>1040.5878</ele>
        <time>2022-01-19T17:47:32Z</time>
      </trkpt>
      <trkpt lat="44.60426" lon="3.47127">
        <ele>1040.5878</ele>
        <time>2022-01-19T17:47:33Z</time>
      </trkpt>
      <trkpt lat="44.60427" lon="3.47126">
        <ele>1040.593</ele>
        <time>2022-01-19T17:47:34Z</time>
      </trkpt>
      <trkpt lat="44.60428" lon="3.47126">
        <ele>1040.5454</ele>
        <time>2022-01-19T17:47:35Z</time>
      </trkpt>
      <trkpt lat="44.60429" lon="3.47125">
        <ele>1040.3975</ele>
        <time>2022-01-19T17:47:36Z</time>
      </trkpt>
      <trkpt lat="44.6043" lon="3.47124">
        <ele>1040.313</ele>
        <time>2022-01-19T17:47:37Z</time>
      </trkpt>
      <trkpt lat="44.60431" lon="3.47123">
        <ele>1040.2654</ele>
        <time>2022-01-19T17:47:38Z</time>
      </trkpt>
      <trkpt lat="44.60432" lon="3.47122">
        <ele>1039.9958</ele>
        <time>2022-01-19T17:47:39Z</time>
      </trkpt>
      <trkpt lat="44.60434" lon="3.47121">
        <ele>1040.0328</ele>
        <time>2022-01-19T17:47:40Z</time>
      </trkpt>
      <trkpt lat="44.60435" lon="3.47121">
        <ele>1039.8533</ele>
        <time>2022-01-19T17:47:41Z</time>
      </trkpt>
      <trkpt lat="44.60436" lon="3.4712">
        <ele>1039.8744</ele>
        <time>2022-01-19T17:47:42Z</time>
      </trkpt>
      <trkpt lat="44.60437" lon="3.47119">
        <ele>1039.98</ele>
        <time>2022-01-19T17:47:43Z</time>
      </trkpt>
      <trkpt lat="44.60438" lon="3.47117">
        <ele>1040.054</ele>
        <time>2022-01-19T17:47:44Z</time>
      </trkpt>
      <trkpt lat="44.6044" lon="3.47117">
        <ele>1039.758</ele>
        <time>2022-01-19T17:47:45Z</time>
      </trkpt>
      <trkpt lat="44.60442" lon="3.47116">
        <ele>1039.7158</ele>
        <time>2022-01-19T17:47:46Z</time>
      </trkpt>
      <trkpt lat="44.60443" lon="3.47115">
        <ele>1039.7317</ele>
        <time>2022-01-19T17:47:47Z</time>
      </trkpt>
      <trkpt lat="44.60444" lon="3.47115">
        <ele>1039.8214</ele>
        <time>2022-01-19T17:47:48Z</time>
      </trkpt>
      <trkpt lat="44.60445" lon="3.47114">
        <ele>1039.8479</ele>
        <time>2022-01-19T17:47:49Z</time>
      </trkpt>
      <trkpt lat="44.60446" lon="3.47113">
        <ele>1039.8003</ele>
        <time>2022-01-19T17:47:50Z</time>
      </trkpt>
      <trkpt lat="44.60447" lon="3.47113">
        <ele>1039.7</ele>
        <time>2022-01-19T17:47:51Z</time>
      </trkpt>
      <trkpt lat="44.60448" lon="3.47112">
        <ele>1039.6576</ele>
        <time>2022-01-19T17:47:52Z</time>
      </trkpt>
      <trkpt lat="44.60449" lon="3.47111">
        <ele>1039.7422</ele>
        <time>2022-01-19T17:47:53Z</time>
      </trkpt>
      <trkpt lat="44.6045" lon="3.4711">
        <ele>1039.8003</ele>
        <time>2022-01-19T17:47:54Z</time>
      </trkpt>
      <trkpt lat="44.60451" lon="3.4711">
        <ele>1039.8373</ele>
        <time>2022-01-19T17:47:55Z</time>
      </trkpt>
      <trkpt lat="44.6045" lon="3.4711">
        <ele>1039.8585</ele>
        <time>2022-01-19T17:47:56Z</time>
      </trkpt>
      <trkpt lat="44.6045" lon="3.47111">
        <ele>1039.9114</ele>
        <time>2022-01-19T17:47:57Z</time>
      </trkpt>
      <trkpt lat="44.6045" lon="3.47111">
        <ele>1039.8638</ele>
        <time>2022-01-19T17:47:58Z</time>
      </trkpt>
      <trkpt lat="44.6045" lon="3.47111">
        <ele>1039.832</ele>
        <time>2022-01-19T17:47:59Z</time>
      </trkpt>
      <trkpt lat="44.6045" lon="3.47111">
        <ele>1039.9166</ele>
        <time>2022-01-19T17:48:00Z</time>
      </trkpt>
      <trkpt lat="44.6045" lon="3.47111">
        <ele>1039.9166</ele>
        <time>2022-01-19T17:48:00Z</time>
      </trkpt>
      <trkpt lat="44.6045" lon="3.47111">
        <ele>1039.9166</ele>
        <time>2022-01-19T17:48:00Z</time>
      </trkpt>
      <trkpt lat="44.60454" lon="3.47106">
        <ele>1039.8109</ele>
        <time>2022-01-19T17:48:38Z</time>
      </trkpt>
      <trkpt lat="44.60455" lon="3.47105">
        <ele>1039.8849</ele>
        <time>2022-01-19T17:48:39Z</time>
      </trkpt>
      <trkpt lat="44.60455" lon="3.47104">
        <ele>1039.9271</ele>
        <time>2022-01-19T17:48:40Z</time>
      </trkpt>
      <trkpt lat="44.60457" lon="3.47102">
        <ele>1039.9219</ele>
        <time>2022-01-19T17:48:41Z</time>
      </trkpt>
      <trkpt lat="44.60458" lon="3.47101">
        <ele>1039.9641</ele>
        <time>2022-01-19T17:48:42Z</time>
      </trkpt>
      <trkpt lat="44.60459" lon="3.471">
        <ele>1040.0487</ele>
        <time>2022-01-19T17:48:43Z</time>
      </trkpt>
      <trkpt lat="44.6046" lon="3.47099">
        <ele>1039.8425</ele>
        <time>2022-01-19T17:48:44Z</time>
      </trkpt>
      <trkpt lat="44.60461" lon="3.47098">
        <ele>1039.8214</ele>
        <time>2022-01-19T17:48:45Z</time>
      </trkpt>
      <trkpt lat="44.60461" lon="3.47097">
        <ele>1039.869</ele>
        <time>2022-01-19T17:48:46Z</time>
      </trkpt>
      <trkpt lat="44.60462" lon="3.47096">
        <ele>1039.8585</ele>
        <time>2022-01-19T17:48:47Z</time>
      </trkpt>
      <trkpt lat="44.60463" lon="3.47095">
        <ele>1039.7317</ele>
        <time>2022-01-19T17:48:48Z</time>
      </trkpt>
      <trkpt lat="44.60464" lon="3.47094">
        <ele>1039.7633</ele>
        <time>2022-01-19T17:48:49Z</time>
      </trkpt>
      <trkpt lat="44.60465" lon="3.47093">
        <ele>1039.832</ele>
        <time>2022-01-19T17:48:50Z</time>
      </trkpt>
      <trkpt lat="44.60465" lon="3.47093">
        <ele>1039.8214</ele>
        <time>2022-01-19T17:48:51Z</time>
      </trkpt>
      <trkpt lat="44.60466" lon="3.47092">
        <ele>1039.7158</ele>
        <time>2022-01-19T17:48:52Z</time>
      </trkpt>
      <trkpt lat="44.60466" lon="3.47091">
        <ele>1039.663</ele>
        <time>2022-01-19T17:48:53Z</time>
      </trkpt>
      <trkpt lat="44.60466" lon="3.47091">
        <ele>1039.5837</ele>
        <time>2022-01-19T17:48:54Z</time>
      </trkpt>
      <trkpt lat="44.60467" lon="3.4709">
        <ele>1039.4991</ele>
        <time>2022-01-19T17:48:55Z</time>
      </trkpt>
      <trkpt lat="44.60468" lon="3.47089">
        <ele>1039.6471</ele>
        <time>2022-01-19T17:48:56Z</time>
      </trkpt>
      <trkpt lat="44.60469" lon="3.47088">
        <ele>1039.8533</ele>
        <time>2022-01-19T17:48:57Z</time>
      </trkpt>
      <trkpt lat="44.60469" lon="3.47087">
        <ele>1039.9219</ele>
        <time>2022-01-19T17:48:58Z</time>
      </trkpt>
      <trkpt lat="44.60471" lon="3.47086">
        <ele>1040.1703</ele>
        <time>2022-01-19T17:48:59Z</time>
      </trkpt>
      <trkpt lat="44.60472" lon="3.47085">
        <ele>1040.2178</ele>
        <time>2022-01-19T17:49:00Z</time>
      </trkpt>
      <trkpt lat="44.60473" lon="3.47083">
        <ele>1040.0487</ele>
        <time>2022-01-19T17:49:01Z</time>
      </trkpt>
      <trkpt lat="44.60474" lon="3.47082">
        <ele>1040.2284</ele>
        <time>2022-01-19T17:49:02Z</time>
      </trkpt>
      <trkpt lat="44.60475" lon="3.47081">
        <ele>1040.2231</ele>
        <time>2022-01-19T17:49:03Z</time>
      </trkpt>
      <trkpt lat="44.60476" lon="3.4708">
        <ele>1040.2443</ele>
        <time>2022-01-19T17:49:04Z</time>
      </trkpt>
      <trkpt lat="44.60477" lon="3.4708">
        <ele>1040.3446</ele>
        <time>2022-01-19T17:49:05Z</time>
      </trkpt>
      <trkpt lat="44.60479" lon="3.47079">
        <ele>1040.3552</ele>
        <time>2022-01-19T17:49:06Z</time>
      </trkpt>
      <trkpt lat="44.60479" lon="3.47078">
        <ele>1040.3816</ele>
        <time>2022-01-19T17:49:07Z</time>
      </trkpt>
      <trkpt lat="44.60481" lon="3.47077">
        <ele>1040.3658</ele>
        <time>2022-01-19T17:49:08Z</time>
      </trkpt>
      <trkpt lat="44.60482" lon="3.47076">
        <ele>1040.3341</ele>
        <time>2022-01-19T17:49:09Z</time>
      </trkpt>
      <trkpt lat="44.60483" lon="3.47075">
        <ele>1040.3763</ele>
        <time>2022-01-19T17:49:10Z</time>
      </trkpt>
      <trkpt lat="44.60484" lon="3.47073">
        <ele>1040.112</ele>
        <time>2022-01-19T17:49:11Z</time>
      </trkpt>
      <trkpt lat="44.60486" lon="3.47072">
        <ele>1040.1279</ele>
        <time>2022-01-19T17:49:12Z</time>
      </trkpt>
      <trkpt lat="44.60486" lon="3.47071">
        <ele>1040.1385</ele>
        <time>2022-01-19T17:49:13Z</time>
      </trkpt>
      <trkpt lat="44.60487" lon="3.4707">
        <ele>1040.0963</ele>
        <time>2022-01-19T17:49:14Z</time>
      </trkpt>
      <trkpt lat="44.60489" lon="3.47068">
        <ele>1040.1068</ele>
        <time>2022-01-19T17:49:15Z</time>
      </trkpt>
      <trkpt lat="44.60489" lon="3.47067">
        <ele>1039.943</ele>
        <time>2022-01-19T17:49:16Z</time>
      </trkpt>
      <trkpt lat="44.6049" lon="3.47065">
        <ele>1039.9482</ele>
        <time>2022-01-19T17:49:17Z</time>
      </trkpt>
      <trkpt lat="44.60492" lon="3.47064">
        <ele>1040.0276</ele>
        <time>2022-01-19T17:49:18Z</time>
      </trkpt>
      <trkpt lat="44.60493" lon="3.47063">
        <ele>1039.869</ele>
        <time>2022-01-19T17:49:19Z</time>
      </trkpt>
      <trkpt lat="44.60494" lon="3.47062">
        <ele>1040.0171</ele>
        <time>2022-01-19T17:49:20Z</time>
      </trkpt>
      <trkpt lat="44.60495" lon="3.47061">
        <ele>1040.1174</ele>
        <time>2022-01-19T17:49:21Z</time>
      </trkpt>
      <trkpt lat="44.60496" lon="3.4706">
        <ele>1040.1279</ele>
        <time>2022-01-19T17:49:22Z</time>
      </trkpt>
      <trkpt lat="44.60496" lon="3.47058">
        <ele>1040.6934</ele>
        <time>2022-01-19T17:49:23Z</time>
      </trkpt>
      <trkpt lat="44.60497" lon="3.47056">
        <ele>1040.7886</ele>
        <time>2022-01-19T17:49:24Z</time>
      </trkpt>
      <trkpt lat="44.60498" lon="3.47055">
        <ele>1040.2125</ele>
        <time>2022-01-19T17:49:25Z</time>
      </trkpt>
      <trkpt lat="44.60499" lon="3.47054">
        <ele>1040.0804</ele>
        <time>2022-01-19T17:49:26Z</time>
      </trkpt>
      <trkpt lat="44.605" lon="3.47052">
        <ele>1040.0171</ele>
        <time>2022-01-19T17:49:27Z</time>
      </trkpt>
      <trkpt lat="44.60501" lon="3.4705">
        <ele>1040.0698</ele>
        <time>2022-01-19T17:49:28Z</time>
      </trkpt>
      <trkpt lat="44.60502" lon="3.47048">
        <ele>1040.0435</ele>
        <time>2022-01-19T17:49:29Z</time>
      </trkpt>
      <trkpt lat="44.60503" lon="3.47046">
        <ele>1040.0857</ele>
        <time>2022-01-19T17:49:30Z</time>
      </trkpt>
      <trkpt lat="44.60504" lon="3.47045">
        <ele>1039.9906</ele>
        <time>2022-01-19T17:49:31Z</time>
      </trkpt>
      <trkpt lat="44.60505" lon="3.47043">
        <ele>1039.9589</ele>
        <time>2022-01-19T17:49:32Z</time>
      </trkpt>
      <trkpt lat="44.60506" lon="3.47042">
        <ele>1040.0065</ele>
        <time>2022-01-19T17:49:33Z</time>
      </trkpt>
      <trkpt lat="44.60507" lon="3.47041">
        <ele>1040.0593</ele>
        <time>2022-01-19T17:49:34Z</time>
      </trkpt>
      <trkpt lat="44.60508" lon="3.4704">
        <ele>1040.2073</ele>
        <time>2022-01-19T17:49:35Z</time>
      </trkpt>
      <trkpt lat="44.60508" lon="3.47038">
        <ele>1040.1808</ele>
        <time>2022-01-19T17:49:36Z</time>
      </trkpt>
      <trkpt lat="44.60508" lon="3.47037">
        <ele>1040.202</ele>
        <time>2022-01-19T17:49:37Z</time>
      </trkpt>
      <trkpt lat="44.60508" lon="3.47035">
        <ele>1040.1492</ele>
        <time>2022-01-19T17:49:38Z</time>
      </trkpt>
      <trkpt lat="44.6051" lon="3.47034">
        <ele>1040.1174</ele>
        <time>2022-01-19T17:49:39Z</time>
      </trkpt>
      <trkpt lat="44.6051" lon="3.47032">
        <ele>1040.091</ele>
        <time>2022-01-19T17:49:40Z</time>
      </trkpt>
      <trkpt lat="44.60511" lon="3.47031">
        <ele>1040.1227</ele>
        <time>2022-01-19T17:49:41Z</time>
      </trkpt>
      <trkpt lat="44.60511" lon="3.47029">
        <ele>1040.0382</ele>
        <time>2022-01-19T17:49:42Z</time>
      </trkpt>
      <trkpt lat="44.60512" lon="3.47027">
        <ele>1040.0857</ele>
        <time>2022-01-19T17:49:43Z</time>
      </trkpt>
      <trkpt lat="44.60513" lon="3.47026">
        <ele>1040.054</ele>
        <time>2022-01-19T17:49:44Z</time>
      </trkpt>
      <trkpt lat="44.60514" lon="3.47024">
        <ele>1040.0223</ele>
        <time>2022-01-19T17:49:45Z</time>
      </trkpt>
      <trkpt lat="44.60514" lon="3.47022">
        <ele>1040.0171</ele>
        <time>2022-01-19T17:49:46Z</time>
      </trkpt>
      <trkpt lat="44.60515" lon="3.4702">
        <ele>1040.091</ele>
        <time>2022-01-19T17:49:47Z</time>
      </trkpt>
      <trkpt lat="44.60516" lon="3.47018">
        <ele>1040.1279</ele>
        <time>2022-01-19T17:49:48Z</time>
      </trkpt>
      <trkpt lat="44.60516" lon="3.47016">
        <ele>1040.1068</ele>
        <time>2022-01-19T17:49:49Z</time>
      </trkpt>
      <trkpt lat="44.60516" lon="3.47014">
        <ele>1040.0487</ele>
        <time>2022-01-19T17:49:50Z</time>
      </trkpt>
      <trkpt lat="44.60517" lon="3.47013">
        <ele>1039.9958</ele>
        <time>2022-01-19T17:49:51Z</time>
      </trkpt>
      <trkpt lat="44.60517" lon="3.47011">
        <ele>1039.906</ele>
        <time>2022-01-19T17:49:52Z</time>
      </trkpt>
      <trkpt lat="44.60518" lon="3.47009">
        <ele>1039.98</ele>
        <time>2022-01-19T17:49:53Z</time>
      </trkpt>
      <trkpt lat="44.60519" lon="3.47007">
        <ele>1039.9008</ele>
        <time>2022-01-19T17:49:54Z</time>
      </trkpt>
      <trkpt lat="44.60519" lon="3.47005">
        <ele>1040.0487</ele>
        <time>2022-01-19T17:49:55Z</time>
      </trkpt>
      <trkpt lat="44.6052" lon="3.47004">
        <ele>1040.0751</ele>
        <time>2022-01-19T17:49:56Z</time>
      </trkpt>
      <trkpt lat="44.60521" lon="3.47002">
        <ele>1040.2706</ele>
        <time>2022-01-19T17:49:57Z</time>
      </trkpt>
      <trkpt lat="44.60521" lon="3.47">
        <ele>1040.1544</ele>
        <time>2022-01-19T17:49:58Z</time>
      </trkpt>
      <trkpt lat="44.60522" lon="3.46998">
        <ele>1040.2706</ele>
        <time>2022-01-19T17:49:59Z</time>
      </trkpt>
      <trkpt lat="44.60523" lon="3.46996">
        <ele>1040.2073</ele>
        <time>2022-01-19T17:50:00Z</time>
      </trkpt>
      <trkpt lat="44.60523" lon="3.46994">
        <ele>1040.3658</ele>
        <time>2022-01-19T17:50:01Z</time>
      </trkpt>
      <trkpt lat="44.60524" lon="3.46992">
        <ele>1040.4609</ele>
        <time>2022-01-19T17:50:02Z</time>
      </trkpt>
      <trkpt lat="44.60525" lon="3.46991">
        <ele>1040.387</ele>
        <time>2022-01-19T17:50:03Z</time>
      </trkpt>
      <trkpt lat="44.60526" lon="3.46989">
        <ele>1040.4398</ele>
        <time>2022-01-19T17:50:04Z</time>
      </trkpt>
      <trkpt lat="44.60526" lon="3.46988">
        <ele>1040.4346</ele>
        <time>2022-01-19T17:50:05Z</time>
      </trkpt>
      <trkpt lat="44.60527" lon="3.46986">
        <ele>1040.4503</ele>
        <time>2022-01-19T17:50:06Z</time>
      </trkpt>
      <trkpt lat="44.60528" lon="3.46984">
        <ele>1040.3394</ele>
        <time>2022-01-19T17:50:07Z</time>
      </trkpt>
      <trkpt lat="44.60529" lon="3.46982">
        <ele>1040.3763</ele>
        <time>2022-01-19T17:50:08Z</time>
      </trkpt>
      <trkpt lat="44.6053" lon="3.4698">
        <ele>1040.5138</ele>
        <time>2022-01-19T17:50:09Z</time>
      </trkpt>
      <trkpt lat="44.6053" lon="3.46979">
        <ele>1040.5667</ele>
        <time>2022-01-19T17:50:10Z</time>
      </trkpt>
      <trkpt lat="44.60531" lon="3.46977">
        <ele>1040.4927</ele>
        <time>2022-01-19T17:50:11Z</time>
      </trkpt>
      <trkpt lat="44.60532" lon="3.46975">
        <ele>1040.4346</ele>
        <time>2022-01-19T17:50:12Z</time>
      </trkpt>
      <trkpt lat="44.60533" lon="3.46973">
        <ele>1040.4873</ele>
        <time>2022-01-19T17:50:13Z</time>
      </trkpt>
      <trkpt lat="44.60534" lon="3.46972">
        <ele>1040.4979</ele>
        <time>2022-01-19T17:50:14Z</time>
      </trkpt>
      <trkpt lat="44.60534" lon="3.4697">
        <ele>1040.6141</ele>
        <time>2022-01-19T17:50:15Z</time>
      </trkpt>
      <trkpt lat="44.60535" lon="3.46969">
        <ele>1040.7357</ele>
        <time>2022-01-19T17:50:16Z</time>
      </trkpt>
      <trkpt lat="44.60535" lon="3.46968">
        <ele>1040.6617</ele>
        <time>2022-01-19T17:50:17Z</time>
      </trkpt>
      <trkpt lat="44.60536" lon="3.46966">
        <ele>1040.6248</ele>
        <time>2022-01-19T17:50:18Z</time>
      </trkpt>
      <trkpt lat="44.60537" lon="3.46964">
        <ele>1040.8837</ele>
        <time>2022-01-19T17:50:19Z</time>
      </trkpt>
      <trkpt lat="44.60538" lon="3.46963">
        <ele>1040.9789</ele>
        <time>2022-01-19T17:50:20Z</time>
      </trkpt>
      <trkpt lat="44.60539" lon="3.46961">
        <ele>1040.9629</ele>
        <time>2022-01-19T17:50:21Z</time>
      </trkpt>
      <trkpt lat="44.6054" lon="3.46959">
        <ele>1040.9471</ele>
        <time>2022-01-19T17:50:22Z</time>
      </trkpt>
      <trkpt lat="44.60541" lon="3.46957">
        <ele>1040.9735</ele>
        <time>2022-01-19T17:50:23Z</time>
      </trkpt>
      <trkpt lat="44.60542" lon="3.46955">
        <ele>1040.9365</ele>
        <time>2022-01-19T17:50:24Z</time>
      </trkpt>
      <trkpt lat="44.60542" lon="3.46954">
        <ele>1041.0264</ele>
        <time>2022-01-19T17:50:25Z</time>
      </trkpt>
      <trkpt lat="44.60543" lon="3.46952">
        <ele>1040.9841</ele>
        <time>2022-01-19T17:50:26Z</time>
      </trkpt>
      <trkpt lat="44.60543" lon="3.4695">
        <ele>1040.9789</ele>
        <time>2022-01-19T17:50:27Z</time>
      </trkpt>
      <trkpt lat="44.60544" lon="3.46948">
        <ele>1041.1743</ele>
        <time>2022-01-19T17:50:28Z</time>
      </trkpt>
      <trkpt lat="44.60545" lon="3.46947">
        <ele>1041.1743</ele>
        <time>2022-01-19T17:50:29Z</time>
      </trkpt>
      <trkpt lat="44.60545" lon="3.46945">
        <ele>1041.2272</ele>
        <time>2022-01-19T17:50:30Z</time>
      </trkpt>
      <trkpt lat="44.60546" lon="3.46943">
        <ele>1041.3751</ele>
        <time>2022-01-19T17:50:31Z</time>
      </trkpt>
      <trkpt lat="44.60547" lon="3.46941">
        <ele>1041.4597</ele>
        <time>2022-01-19T17:50:32Z</time>
      </trkpt>
      <trkpt lat="44.60547" lon="3.46939">
        <ele>1041.4016</ele>
        <time>2022-01-19T17:50:33Z</time>
      </trkpt>
      <trkpt lat="44.60548" lon="3.46937">
        <ele>1041.4069</ele>
        <time>2022-01-19T17:50:34Z</time>
      </trkpt>
      <trkpt lat="44.60548" lon="3.46935">
        <ele>1041.5707</ele>
        <time>2022-01-19T17:50:35Z</time>
      </trkpt>
      <trkpt lat="44.60549" lon="3.46932">
        <ele>1041.5231</ele>
        <time>2022-01-19T17:50:36Z</time>
      </trkpt>
      <trkpt lat="44.60549" lon="3.4693">
        <ele>1041.6342</ele>
        <time>2022-01-19T17:50:37Z</time>
      </trkpt>
      <trkpt lat="44.6055" lon="3.46928">
        <ele>1041.4861</ele>
        <time>2022-01-19T17:50:38Z</time>
      </trkpt>
      <trkpt lat="44.6055" lon="3.46926">
        <ele>1041.6975</ele>
        <time>2022-01-19T17:50:39Z</time>
      </trkpt>
      <trkpt lat="44.6055" lon="3.46923">
        <ele>1041.7451</ele>
        <time>2022-01-19T17:50:40Z</time>
      </trkpt>
      <trkpt lat="44.6055" lon="3.46921">
        <ele>1041.8508</ele>
        <time>2022-01-19T17:50:41Z</time>
      </trkpt>
      <trkpt lat="44.60551" lon="3.46919">
        <ele>1041.7134</ele>
        <time>2022-01-19T17:50:42Z</time>
      </trkpt>
      <trkpt lat="44.60552" lon="3.46917">
        <ele>1041.8667</ele>
        <time>2022-01-19T17:50:43Z</time>
      </trkpt>
      <trkpt lat="44.60552" lon="3.46915">
        <ele>1042.0093</ele>
        <time>2022-01-19T17:50:44Z</time>
      </trkpt>
      <trkpt lat="44.60553" lon="3.46912">
        <ele>1041.9988</ele>
        <time>2022-01-19T17:50:45Z</time>
      </trkpt>
      <trkpt lat="44.60553" lon="3.4691">
        <ele>1041.9724</ele>
        <time>2022-01-19T17:50:46Z</time>
      </trkpt>
      <trkpt lat="44.60554" lon="3.46908">
        <ele>1042.1256</ele>
        <time>2022-01-19T17:50:47Z</time>
      </trkpt>
      <trkpt lat="44.60554" lon="3.46906">
        <ele>1042.1626</ele>
        <time>2022-01-19T17:50:48Z</time>
      </trkpt>
      <trkpt lat="44.60555" lon="3.46904">
        <ele>1042.0093</ele>
        <time>2022-01-19T17:50:49Z</time>
      </trkpt>
      <trkpt lat="44.60555" lon="3.46902">
        <ele>1042.1415</ele>
        <time>2022-01-19T17:50:50Z</time>
      </trkpt>
      <trkpt lat="44.60556" lon="3.469">
        <ele>1042.2947</ele>
        <time>2022-01-19T17:50:51Z</time>
      </trkpt>
      <trkpt lat="44.60556" lon="3.46898">
        <ele>1042.2577</ele>
        <time>2022-01-19T17:50:52Z</time>
      </trkpt>
      <trkpt lat="44.60557" lon="3.46896">
        <ele>1042.4321</ele>
        <time>2022-01-19T17:50:53Z</time>
      </trkpt>
      <trkpt lat="44.60557" lon="3.46894">
        <ele>1042.4955</ele>
        <time>2022-01-19T17:50:54Z</time>
      </trkpt>
      <trkpt lat="44.60558" lon="3.46892">
        <ele>1042.5219</ele>
        <time>2022-01-19T17:50:55Z</time>
      </trkpt>
      <trkpt lat="44.60558" lon="3.4689">
        <ele>1042.4637</ele>
        <time>2022-01-19T17:50:56Z</time>
      </trkpt>
      <trkpt lat="44.60559" lon="3.46888">
        <ele>1042.6752</ele>
        <time>2022-01-19T17:50:57Z</time>
      </trkpt>
      <trkpt lat="44.60559" lon="3.46886">
        <ele>1042.5853</ele>
        <time>2022-01-19T17:50:58Z</time>
      </trkpt>
      <trkpt lat="44.6056" lon="3.46885">
        <ele>1042.839</ele>
        <time>2022-01-19T17:50:59Z</time>
      </trkpt>
      <trkpt lat="44.6056" lon="3.46882">
        <ele>1042.728</ele>
        <time>2022-01-19T17:51:00Z</time>
      </trkpt>
      <trkpt lat="44.60561" lon="3.46881">
        <ele>1042.765</ele>
        <time>2022-01-19T17:51:01Z</time>
      </trkpt>
      <trkpt lat="44.60561" lon="3.46879">
        <ele>1042.9712</ele>
        <time>2022-01-19T17:51:02Z</time>
      </trkpt>
      <trkpt lat="44.60562" lon="3.46877">
        <ele>1042.9393</ele>
        <time>2022-01-19T17:51:03Z</time>
      </trkpt>
      <trkpt lat="44.60563" lon="3.46875">
        <ele>1042.9606</ele>
        <time>2022-01-19T17:51:04Z</time>
      </trkpt>
      <trkpt lat="44.60563" lon="3.46873">
        <ele>1043.0609</ele>
        <time>2022-01-19T17:51:05Z</time>
      </trkpt>
      <trkpt lat="44.60563" lon="3.46871">
        <ele>1043.1508</ele>
        <time>2022-01-19T17:51:06Z</time>
      </trkpt>
      <trkpt lat="44.60563" lon="3.46869">
        <ele>1043.0663</ele>
        <time>2022-01-19T17:51:07Z</time>
      </trkpt>
      <trkpt lat="44.60564" lon="3.46867">
        <ele>1043.1825</ele>
        <time>2022-01-19T17:51:08Z</time>
      </trkpt>
      <trkpt lat="44.60564" lon="3.46865">
        <ele>1043.2723</ele>
        <time>2022-01-19T17:51:09Z</time>
      </trkpt>
      <trkpt lat="44.60564" lon="3.46863">
        <ele>1043.2776</ele>
        <time>2022-01-19T17:51:10Z</time>
      </trkpt>
      <trkpt lat="44.60565" lon="3.46861">
        <ele>1043.3041</ele>
        <time>2022-01-19T17:51:11Z</time>
      </trkpt>
      <trkpt lat="44.60566" lon="3.46859">
        <ele>1043.378</ele>
        <time>2022-01-19T17:51:12Z</time>
      </trkpt>
      <trkpt lat="44.60567" lon="3.46857">
        <ele>1043.4203</ele>
        <time>2022-01-19T17:51:13Z</time>
      </trkpt>
      <trkpt lat="44.60568" lon="3.46855">
        <ele>1043.5366</ele>
        <time>2022-01-19T17:51:14Z</time>
      </trkpt>
      <trkpt lat="44.60568" lon="3.46852">
        <ele>1043.637</ele>
        <time>2022-01-19T17:51:15Z</time>
      </trkpt>
      <trkpt lat="44.60569" lon="3.46851">
        <ele>1043.7109</ele>
        <time>2022-01-19T17:51:16Z</time>
      </trkpt>
      <trkpt lat="44.60569" lon="3.46849">
        <ele>1043.8114</ele>
        <time>2022-01-19T17:51:17Z</time>
      </trkpt>
      <trkpt lat="44.6057" lon="3.46847">
        <ele>1043.8325</ele>
        <time>2022-01-19T17:51:18Z</time>
      </trkpt>
      <trkpt lat="44.60571" lon="3.46846">
        <ele>1043.9117</ele>
        <time>2022-01-19T17:51:19Z</time>
      </trkpt>
      <trkpt lat="44.60571" lon="3.46844">
        <ele>1043.9224</ele>
        <time>2022-01-19T17:51:20Z</time>
      </trkpt>
      <trkpt lat="44.60571" lon="3.46842">
        <ele>1043.8695</ele>
        <time>2022-01-19T17:51:21Z</time>
      </trkpt>
      <trkpt lat="44.60572" lon="3.46841">
        <ele>1043.9858</ele>
        <time>2022-01-19T17:51:22Z</time>
      </trkpt>
      <trkpt lat="44.60572" lon="3.46839">
        <ele>1044.213</ele>
        <time>2022-01-19T17:51:23Z</time>
      </trkpt>
      <trkpt lat="44.60573" lon="3.46837">
        <ele>1044.7891</ele>
        <time>2022-01-19T17:51:24Z</time>
      </trkpt>
      <trkpt lat="44.60573" lon="3.46835">
        <ele>1044.7626</ele>
        <time>2022-01-19T17:51:25Z</time>
      </trkpt>
      <trkpt lat="44.60574" lon="3.46833">
        <ele>1044.2765</ele>
        <time>2022-01-19T17:51:26Z</time>
      </trkpt>
      <trkpt lat="44.60574" lon="3.46831">
        <ele>1044.4297</ele>
        <time>2022-01-19T17:51:27Z</time>
      </trkpt>
      <trkpt lat="44.60574" lon="3.46829">
        <ele>1044.4983</ele>
        <time>2022-01-19T17:51:28Z</time>
      </trkpt>
      <trkpt lat="44.60574" lon="3.46827">
        <ele>1044.6675</ele>
        <time>2022-01-19T17:51:29Z</time>
      </trkpt>
      <trkpt lat="44.60575" lon="3.46825">
        <ele>1044.6992</ele>
        <time>2022-01-19T17:51:30Z</time>
      </trkpt>
      <trkpt lat="44.60576" lon="3.46824">
        <ele>1044.7256</ele>
        <time>2022-01-19T17:51:31Z</time>
      </trkpt>
      <trkpt lat="44.60576" lon="3.46822">
        <ele>1044.9529</ele>
        <time>2022-01-19T17:51:32Z</time>
      </trkpt>
      <trkpt lat="44.60577" lon="3.4682">
        <ele>1044.9476</ele>
        <time>2022-01-19T17:51:33Z</time>
      </trkpt>
      <trkpt lat="44.60578" lon="3.46818">
        <ele>1044.9688</ele>
        <time>2022-01-19T17:51:34Z</time>
      </trkpt>
      <trkpt lat="44.60579" lon="3.46816">
        <ele>1045.1642</ele>
        <time>2022-01-19T17:51:35Z</time>
      </trkpt>
      <trkpt lat="44.60579" lon="3.46814">
        <ele>1045.2065</ele>
        <time>2022-01-19T17:51:36Z</time>
      </trkpt>
      <trkpt lat="44.6058" lon="3.46813">
        <ele>1045.328</ele>
        <time>2022-01-19T17:51:37Z</time>
      </trkpt>
      <trkpt lat="44.6058" lon="3.46811">
        <ele>1045.4126</ele>
        <time>2022-01-19T17:51:38Z</time>
      </trkpt>
      <trkpt lat="44.60581" lon="3.46809">
        <ele>1045.4496</ele>
        <time>2022-01-19T17:51:39Z</time>
      </trkpt>
      <trkpt lat="44.60581" lon="3.46807">
        <ele>1045.6451</ele>
        <time>2022-01-19T17:51:40Z</time>
      </trkpt>
      <trkpt lat="44.60582" lon="3.46805">
        <ele>1045.7244</ele>
        <time>2022-01-19T17:51:41Z</time>
      </trkpt>
      <trkpt lat="44.60582" lon="3.46803">
        <ele>1045.7826</ele>
        <time>2022-01-19T17:51:42Z</time>
      </trkpt>
      <trkpt lat="44.60582" lon="3.46802">
        <ele>1045.9517</ele>
        <time>2022-01-19T17:51:43Z</time>
      </trkpt>
      <trkpt lat="44.60583" lon="3.46801">
        <ele>1046.0098</ele>
        <time>2022-01-19T17:51:44Z</time>
      </trkpt>
      <trkpt lat="44.60584" lon="3.46799">
        <ele>1046.2793</ele>
        <time>2022-01-19T17:51:45Z</time>
      </trkpt>
      <trkpt lat="44.60584" lon="3.46797">
        <ele>1046.2845</ele>
        <time>2022-01-19T17:51:46Z</time>
      </trkpt>
      <trkpt lat="44.60584" lon="3.46796">
        <ele>1046.385</ele>
        <time>2022-01-19T17:51:47Z</time>
      </trkpt>
      <trkpt lat="44.60584" lon="3.46794">
        <ele>1046.5752</ele>
        <time>2022-01-19T17:51:48Z</time>
      </trkpt>
      <trkpt lat="44.60585" lon="3.46793">
        <ele>1046.739</ele>
        <time>2022-01-19T17:51:49Z</time>
      </trkpt>
      <trkpt lat="44.60585" lon="3.46792">
        <ele>1046.6809</ele>
        <time>2022-01-19T17:51:50Z</time>
      </trkpt>
      <trkpt lat="44.60586" lon="3.46791">
        <ele>1046.9557</ele>
        <time>2022-01-19T17:51:51Z</time>
      </trkpt>
      <trkpt lat="44.60587" lon="3.4679">
        <ele>1047.2095</ele>
        <time>2022-01-19T17:51:52Z</time>
      </trkpt>
      <trkpt lat="44.60587" lon="3.46789">
        <ele>1047.426</ele>
        <time>2022-01-19T17:51:53Z</time>
      </trkpt>
      <trkpt lat="44.60588" lon="3.46788">
        <ele>1047.5529</ele>
        <time>2022-01-19T17:51:54Z</time>
      </trkpt>
      <trkpt lat="44.60589" lon="3.46787">
        <ele>1047.7273</ele>
        <time>2022-01-19T17:51:55Z</time>
      </trkpt>
      <trkpt lat="44.60589" lon="3.46785">
        <ele>1047.9703</ele>
        <time>2022-01-19T17:51:56Z</time>
      </trkpt>
      <trkpt lat="44.60589" lon="3.46784">
        <ele>1048.166</ele>
        <time>2022-01-19T17:51:57Z</time>
      </trkpt>
      <trkpt lat="44.6059" lon="3.46783">
        <ele>1048.3562</ele>
        <time>2022-01-19T17:51:58Z</time>
      </trkpt>
      <trkpt lat="44.60591" lon="3.46782">
        <ele>1048.6627</ele>
        <time>2022-01-19T17:51:59Z</time>
      </trkpt>
      <trkpt lat="44.60591" lon="3.46781">
        <ele>1048.837</ele>
        <time>2022-01-19T17:52:00Z</time>
      </trkpt>
      <trkpt lat="44.60592" lon="3.4678">
        <ele>1048.9534</ele>
        <time>2022-01-19T17:52:01Z</time>
      </trkpt>
      <trkpt lat="44.60593" lon="3.4678">
        <ele>1049.1488</ele>
        <time>2022-01-19T17:52:02Z</time>
      </trkpt>
      <trkpt lat="44.60594" lon="3.46779">
        <ele>1049.4236</ele>
        <time>2022-01-19T17:52:03Z</time>
      </trkpt>
      <trkpt lat="44.60595" lon="3.46778">
        <ele>1049.5029</ele>
        <time>2022-01-19T17:52:04Z</time>
      </trkpt>
      <trkpt lat="44.60596" lon="3.46777">
        <ele>1049.7144</ele>
        <time>2022-01-19T17:52:05Z</time>
      </trkpt>
      <trkpt lat="44.60597" lon="3.46775">
        <ele>1049.8412</ele>
        <time>2022-01-19T17:52:06Z</time>
      </trkpt>
      <trkpt lat="44.60597" lon="3.46774">
        <ele>1050.0314</ele>
        <time>2022-01-19T17:52:07Z</time>
      </trkpt>
      <trkpt lat="44.60597" lon="3.46773">
        <ele>1050.079</ele>
        <time>2022-01-19T17:52:08Z</time>
      </trkpt>
      <trkpt lat="44.60598" lon="3.46772">
        <ele>1050.2798</ele>
        <time>2022-01-19T17:52:09Z</time>
      </trkpt>
      <trkpt lat="44.60599" lon="3.46771">
        <ele>1050.4012</ele>
        <time>2022-01-19T17:52:10Z</time>
      </trkpt>
      <trkpt lat="44.606" lon="3.4677">
        <ele>1050.729</ele>
        <time>2022-01-19T17:52:11Z</time>
      </trkpt>
      <trkpt lat="44.60601" lon="3.46769">
        <ele>1050.8506</ele>
        <time>2022-01-19T17:52:12Z</time>
      </trkpt>
      <trkpt lat="44.60601" lon="3.46768">
        <ele>1050.9668</ele>
        <time>2022-01-19T17:52:13Z</time>
      </trkpt>
      <trkpt lat="44.60602" lon="3.46766">
        <ele>1051.083</ele>
        <time>2022-01-19T17:52:14Z</time>
      </trkpt>
      <trkpt lat="44.60602" lon="3.46765">
        <ele>1051.305</ele>
        <time>2022-01-19T17:52:15Z</time>
      </trkpt>
      <trkpt lat="44.60603" lon="3.46764">
        <ele>1051.4108</ele>
        <time>2022-01-19T17:52:16Z</time>
      </trkpt>
      <trkpt lat="44.60603" lon="3.46762">
        <ele>1051.4635</ele>
        <time>2022-01-19T17:52:17Z</time>
      </trkpt>
      <trkpt lat="44.60604" lon="3.46761">
        <ele>1051.7911</ele>
        <time>2022-01-19T17:52:18Z</time>
      </trkpt>
      <trkpt lat="44.60604" lon="3.4676">
        <ele>1051.7595</ele>
        <time>2022-01-19T17:52:19Z</time>
      </trkpt>
      <trkpt lat="44.60605" lon="3.46759">
        <ele>1051.9391</ele>
        <time>2022-01-19T17:52:20Z</time>
      </trkpt>
      <trkpt lat="44.60605" lon="3.46758">
        <ele>1051.9921</ele>
        <time>2022-01-19T17:52:21Z</time>
      </trkpt>
      <trkpt lat="44.60605" lon="3.46756">
        <ele>1052.2245</ele>
        <time>2022-01-19T17:52:22Z</time>
      </trkpt>
      <trkpt lat="44.60606" lon="3.46755">
        <ele>1052.383</ele>
        <time>2022-01-19T17:52:23Z</time>
      </trkpt>
      <trkpt lat="44.60606" lon="3.46754">
        <ele>1052.5892</ele>
        <time>2022-01-19T17:52:24Z</time>
      </trkpt>
      <trkpt lat="44.60606" lon="3.46752">
        <ele>1052.7477</ele>
        <time>2022-01-19T17:52:25Z</time>
      </trkpt>
      <trkpt lat="44.60606" lon="3.4675">
        <ele>1052.8164</ele>
        <time>2022-01-19T17:52:26Z</time>
      </trkpt>
      <trkpt lat="44.60606" lon="3.46749">
        <ele>1053.0225</ele>
        <time>2022-01-19T17:52:27Z</time>
      </trkpt>
      <trkpt lat="44.60606" lon="3.46747">
        <ele>1053.1917</ele>
        <time>2022-01-19T17:52:28Z</time>
      </trkpt>
      <trkpt lat="44.60606" lon="3.46745">
        <ele>1053.4558</ele>
        <time>2022-01-19T17:52:29Z</time>
      </trkpt>
      <trkpt lat="44.60607" lon="3.46743">
        <ele>1053.7253</ele>
        <time>2022-01-19T17:52:30Z</time>
      </trkpt>
      <trkpt lat="44.60608" lon="3.46742">
        <ele>1053.8628</ele>
        <time>2022-01-19T17:52:31Z</time>
      </trkpt>
      <trkpt lat="44.60608" lon="3.4674">
        <ele>1053.9896</ele>
        <time>2022-01-19T17:52:32Z</time>
      </trkpt>
      <trkpt lat="44.60608" lon="3.46739">
        <ele>1054.0266</ele>
        <time>2022-01-19T17:52:33Z</time>
      </trkpt>
      <trkpt lat="44.60608" lon="3.46737">
        <ele>1054.1587</ele>
        <time>2022-01-19T17:52:34Z</time>
      </trkpt>
      <trkpt lat="44.60608" lon="3.46736">
        <ele>1054.3278</ele>
        <time>2022-01-19T17:52:35Z</time>
      </trkpt>
      <trkpt lat="44.60608" lon="3.46735">
        <ele>1054.6079</ele>
        <time>2022-01-19T17:52:36Z</time>
      </trkpt>
      <trkpt lat="44.60608" lon="3.46734">
        <ele>1054.703</ele>
        <time>2022-01-19T17:52:37Z</time>
      </trkpt>
      <trkpt lat="44.60608" lon="3.46733">
        <ele>1054.7928</ele>
        <time>2022-01-19T17:52:38Z</time>
      </trkpt>
      <trkpt lat="44.60609" lon="3.46732">
        <ele>1055.0889</ele>
        <time>2022-01-19T17:52:39Z</time>
      </trkpt>
      <trkpt lat="44.60609" lon="3.4673">
        <ele>1055.0306</ele>
        <time>2022-01-19T17:52:40Z</time>
      </trkpt>
      <trkpt lat="44.60609" lon="3.46729">
        <ele>1055.2316</ele>
        <time>2022-01-19T17:52:41Z</time>
      </trkpt>
      <trkpt lat="44.6061" lon="3.46727">
        <ele>1055.4165</ele>
        <time>2022-01-19T17:52:42Z</time>
      </trkpt>
      <trkpt lat="44.60611" lon="3.46726">
        <ele>1055.4851</ele>
        <time>2022-01-19T17:52:43Z</time>
      </trkpt>
      <trkpt lat="44.60612" lon="3.46725">
        <ele>1055.5591</ele>
        <time>2022-01-19T17:52:44Z</time>
      </trkpt>
      <trkpt lat="44.60613" lon="3.46723">
        <ele>1055.6702</ele>
        <time>2022-01-19T17:52:45Z</time>
      </trkpt>
      <trkpt lat="44.60614" lon="3.46722">
        <ele>1055.7388</ele>
        <time>2022-01-19T17:52:46Z</time>
      </trkpt>
      <trkpt lat="44.60615" lon="3.46721">
        <ele>1055.8867</ele>
        <time>2022-01-19T17:52:47Z</time>
      </trkpt>
      <trkpt lat="44.60616" lon="3.46719">
        <ele>1056.0294</ele>
        <time>2022-01-19T17:52:48Z</time>
      </trkpt>
      <trkpt lat="44.60616" lon="3.46717">
        <ele>1056.2408</ele>
        <time>2022-01-19T17:52:49Z</time>
      </trkpt>
      <trkpt lat="44.60617" lon="3.46716">
        <ele>1056.2937</ele>
        <time>2022-01-19T17:52:50Z</time>
      </trkpt>
      <trkpt lat="44.60618" lon="3.46714">
        <ele>1056.4469</ele>
        <time>2022-01-19T17:52:51Z</time>
      </trkpt>
      <trkpt lat="44.60619" lon="3.46713">
        <ele>1056.521</ele>
        <time>2022-01-19T17:52:52Z</time>
      </trkpt>
      <trkpt lat="44.60619" lon="3.46712">
        <ele>1056.6002</ele>
        <time>2022-01-19T17:52:53Z</time>
      </trkpt>
      <trkpt lat="44.6062" lon="3.46711">
        <ele>1056.8328</ele>
        <time>2022-01-19T17:52:54Z</time>
      </trkpt>
      <trkpt lat="44.60621" lon="3.4671">
        <ele>1056.8909</ele>
        <time>2022-01-19T17:52:55Z</time>
      </trkpt>
      <trkpt lat="44.60622" lon="3.4671">
        <ele>1057.0123</ele>
        <time>2022-01-19T17:52:56Z</time>
      </trkpt>
      <trkpt lat="44.60624" lon="3.46709">
        <ele>1056.9437</ele>
        <time>2022-01-19T17:52:57Z</time>
      </trkpt>
      <trkpt lat="44.60625" lon="3.46708">
        <ele>1057.2607</ele>
        <time>2022-01-19T17:52:58Z</time>
      </trkpt>
      <trkpt lat="44.60626" lon="3.46708">
        <ele>1057.4669</ele>
        <time>2022-01-19T17:52:59Z</time>
      </trkpt>
      <trkpt lat="44.60627" lon="3.46707">
        <ele>1057.5409</ele>
        <time>2022-01-19T17:53:00Z</time>
      </trkpt>
      <trkpt lat="44.60627" lon="3.46705">
        <ele>1057.7787</ele>
        <time>2022-01-19T17:53:01Z</time>
      </trkpt>
      <trkpt lat="44.60629" lon="3.46705">
        <ele>1057.7787</ele>
        <time>2022-01-19T17:53:02Z</time>
      </trkpt>
      <trkpt lat="44.6063" lon="3.46704">
        <ele>1058.0323</ele>
        <time>2022-01-19T17:53:03Z</time>
      </trkpt>
      <trkpt lat="44.60631" lon="3.46703">
        <ele>1058.2438</ele>
        <time>2022-01-19T17:53:04Z</time>
      </trkpt>
      <trkpt lat="44.60632" lon="3.46703">
        <ele>1058.3177</ele>
        <time>2022-01-19T17:53:05Z</time>
      </trkpt>
      <trkpt lat="44.60633" lon="3.46702">
        <ele>1058.471</ele>
        <time>2022-01-19T17:53:06Z</time>
      </trkpt>
      <trkpt lat="44.60634" lon="3.46701">
        <ele>1058.6929</ele>
        <time>2022-01-19T17:53:07Z</time>
      </trkpt>
      <trkpt lat="44.60635" lon="3.46701">
        <ele>1058.8145</ele>
        <time>2022-01-19T17:53:08Z</time>
      </trkpt>
      <trkpt lat="44.60637" lon="3.467">
        <ele>1058.936</ele>
        <time>2022-01-19T17:53:09Z</time>
      </trkpt>
      <trkpt lat="44.60637" lon="3.467">
        <ele>1059.0365</ele>
        <time>2022-01-19T17:53:10Z</time>
      </trkpt>
      <trkpt lat="44.60638" lon="3.46699">
        <ele>1059.2584</ele>
        <time>2022-01-19T17:53:11Z</time>
      </trkpt>
      <trkpt lat="44.6064" lon="3.46698">
        <ele>1059.3218</ele>
        <time>2022-01-19T17:53:12Z</time>
      </trkpt>
      <trkpt lat="44.60641" lon="3.46698">
        <ele>1059.2848</ele>
        <time>2022-01-19T17:53:13Z</time>
      </trkpt>
      <trkpt lat="44.60642" lon="3.46698">
        <ele>1059.1368</ele>
        <time>2022-01-19T17:53:14Z</time>
      </trkpt>
      <trkpt lat="44.60643" lon="3.46697">
        <ele>1059.2003</ele>
        <time>2022-01-19T17:53:15Z</time>
      </trkpt>
      <trkpt lat="44.60644" lon="3.46696">
        <ele>1059.121</ele>
        <time>2022-01-19T17:53:16Z</time>
      </trkpt>
      <trkpt lat="44.60645" lon="3.46696">
        <ele>1058.8938</ele>
        <time>2022-01-19T17:53:17Z</time>
      </trkpt>
      <trkpt lat="44.60646" lon="3.46694">
        <ele>1058.7246</ele>
        <time>2022-01-19T17:53:18Z</time>
      </trkpt>
      <trkpt lat="44.60648" lon="3.46693">
        <ele>1058.714</ele>
        <time>2022-01-19T17:53:19Z</time>
      </trkpt>
      <trkpt lat="44.60649" lon="3.46692">
        <ele>1058.3759</ele>
        <time>2022-01-19T17:53:20Z</time>
      </trkpt>
      <trkpt lat="44.6065" lon="3.46691">
        <ele>1058.3177</ele>
        <time>2022-01-19T17:53:21Z</time>
      </trkpt>
      <trkpt lat="44.60651" lon="3.46691">
        <ele>1058.2068</ele>
        <time>2022-01-19T17:53:22Z</time>
      </trkpt>
      <trkpt lat="44.60653" lon="3.4669">
        <ele>1058.1011</ele>
        <time>2022-01-19T17:53:23Z</time>
      </trkpt>
      <trkpt lat="44.60653" lon="3.46689">
        <ele>1058.0112</ele>
        <time>2022-01-19T17:53:24Z</time>
      </trkpt>
      <trkpt lat="44.60654" lon="3.46689">
        <ele>1058.397</ele>
        <time>2022-01-19T17:53:25Z</time>
      </trkpt>
      <trkpt lat="44.60655" lon="3.46688">
        <ele>1058.5397</ele>
        <time>2022-01-19T17:53:26Z</time>
      </trkpt>
      <trkpt lat="44.60656" lon="3.46687">
        <ele>1057.5779</ele>
        <time>2022-01-19T17:53:27Z</time>
      </trkpt>
      <trkpt lat="44.60657" lon="3.46686">
        <ele>1057.451</ele>
        <time>2022-01-19T17:53:28Z</time>
      </trkpt>
      <trkpt lat="44.60658" lon="3.46685">
        <ele>1057.393</ele>
        <time>2022-01-19T17:53:29Z</time>
      </trkpt>
      <trkpt lat="44.60659" lon="3.46685">
        <ele>1057.06</ele>
        <time>2022-01-19T17:53:30Z</time>
      </trkpt>
      <trkpt lat="44.60661" lon="3.46684">
        <ele>1057.118</ele>
        <time>2022-01-19T17:53:31Z</time>
      </trkpt>
      <trkpt lat="44.60662" lon="3.46683">
        <ele>1056.8698</ele>
        <time>2022-01-19T17:53:32Z</time>
      </trkpt>
      <trkpt lat="44.60663" lon="3.46683">
        <ele>1056.7429</ele>
        <time>2022-01-19T17:53:33Z</time>
      </trkpt>
      <trkpt lat="44.60664" lon="3.46682">
        <ele>1056.5421</ele>
        <time>2022-01-19T17:53:34Z</time>
      </trkpt>
      <trkpt lat="44.60666" lon="3.46682">
        <ele>1056.5051</ele>
        <time>2022-01-19T17:53:35Z</time>
      </trkpt>
      <trkpt lat="44.60667" lon="3.46681">
        <ele>1056.3466</ele>
        <time>2022-01-19T17:53:36Z</time>
      </trkpt>
      <trkpt lat="44.60669" lon="3.46681">
        <ele>1056.2145</ele>
        <time>2022-01-19T17:53:37Z</time>
      </trkpt>
      <trkpt lat="44.6067" lon="3.46681">
        <ele>1055.9502</ele>
        <time>2022-01-19T17:53:38Z</time>
      </trkpt>
      <trkpt lat="44.60671" lon="3.46681">
        <ele>1055.8445</ele>
        <time>2022-01-19T17:53:39Z</time>
      </trkpt>
      <trkpt lat="44.60672" lon="3.4668">
        <ele>1055.7229</ele>
        <time>2022-01-19T17:53:40Z</time>
      </trkpt>
      <trkpt lat="44.60673" lon="3.4668">
        <ele>1055.6437</ele>
        <time>2022-01-19T17:53:41Z</time>
      </trkpt>
      <trkpt lat="44.60675" lon="3.46679">
        <ele>1055.4111</ele>
        <time>2022-01-19T17:53:42Z</time>
      </trkpt>
      <trkpt lat="44.60676" lon="3.46679">
        <ele>1055.3372</ele>
        <time>2022-01-19T17:53:43Z</time>
      </trkpt>
      <trkpt lat="44.60677" lon="3.46679">
        <ele>1055.0413</ele>
        <time>2022-01-19T17:53:44Z</time>
      </trkpt>
      <trkpt lat="44.60679" lon="3.46679">
        <ele>1054.7982</ele>
        <time>2022-01-19T17:53:45Z</time>
      </trkpt>
      <trkpt lat="44.6068" lon="3.46678">
        <ele>1054.6503</ele>
        <time>2022-01-19T17:53:46Z</time>
      </trkpt>
      <trkpt lat="44.60681" lon="3.46678">
        <ele>1054.6449</ele>
        <time>2022-01-19T17:53:47Z</time>
      </trkpt>
      <trkpt lat="44.60682" lon="3.46679">
        <ele>1054.4282</ele>
        <time>2022-01-19T17:53:48Z</time>
      </trkpt>
      <trkpt lat="44.60683" lon="3.46679">
        <ele>1054.1693</ele>
        <time>2022-01-19T17:53:49Z</time>
      </trkpt>
      <trkpt lat="44.60685" lon="3.46679">
        <ele>1054.0001</ele>
        <time>2022-01-19T17:53:50Z</time>
      </trkpt>
      <trkpt lat="44.60685" lon="3.46679">
        <ele>1053.8787</ele>
        <time>2022-01-19T17:53:51Z</time>
      </trkpt>
      <trkpt lat="44.60686" lon="3.46679">
        <ele>1053.736</ele>
        <time>2022-01-19T17:53:52Z</time>
      </trkpt>
      <trkpt lat="44.60688" lon="3.46679">
        <ele>1053.6249</ele>
        <time>2022-01-19T17:53:53Z</time>
      </trkpt>
      <trkpt lat="44.60689" lon="3.4668">
        <ele>1053.5457</ele>
        <time>2022-01-19T17:53:54Z</time>
      </trkpt>
      <trkpt lat="44.6069" lon="3.46679">
        <ele>1053.5139</ele>
        <time>2022-01-19T17:53:55Z</time>
      </trkpt>
      <trkpt lat="44.60692" lon="3.46679">
        <ele>1053.3712</ele>
        <time>2022-01-19T17:53:56Z</time>
      </trkpt>
      <trkpt lat="44.60693" lon="3.46679">
        <ele>1053.1599</ele>
        <time>2022-01-19T17:53:57Z</time>
      </trkpt>
      <trkpt lat="44.60694" lon="3.46678">
        <ele>1052.9908</ele>
        <time>2022-01-19T17:53:58Z</time>
      </trkpt>
      <trkpt lat="44.60695" lon="3.46678">
        <ele>1052.9326</ele>
        <time>2022-01-19T17:53:59Z</time>
      </trkpt>
      <trkpt lat="44.60696" lon="3.46677">
        <ele>1052.7372</ele>
        <time>2022-01-19T17:54:00Z</time>
      </trkpt>
      <trkpt lat="44.60697" lon="3.46677">
        <ele>1052.6685</ele>
        <time>2022-01-19T17:54:01Z</time>
      </trkpt>
      <trkpt lat="44.60698" lon="3.46677">
        <ele>1052.4835</ele>
        <time>2022-01-19T17:54:02Z</time>
      </trkpt>
      <trkpt lat="44.60699" lon="3.46677">
        <ele>1052.3672</ele>
        <time>2022-01-19T17:54:03Z</time>
      </trkpt>
      <trkpt lat="44.607" lon="3.46678">
        <ele>1052.1981</ele>
        <time>2022-01-19T17:54:04Z</time>
      </trkpt>
      <trkpt lat="44.60701" lon="3.46678">
        <ele>1051.9127</ele>
        <time>2022-01-19T17:54:05Z</time>
      </trkpt>
      <trkpt lat="44.60702" lon="3.46678">
        <ele>1051.9338</ele>
        <time>2022-01-19T17:54:06Z</time>
      </trkpt>
      <trkpt lat="44.60703" lon="3.46678">
        <ele>1051.7489</ele>
        <time>2022-01-19T17:54:07Z</time>
      </trkpt>
      <trkpt lat="44.60704" lon="3.46678">
        <ele>1051.6802</ele>
        <time>2022-01-19T17:54:08Z</time>
      </trkpt>
      <trkpt lat="44.60705" lon="3.46678">
        <ele>1051.5535</ele>
        <time>2022-01-19T17:54:09Z</time>
      </trkpt>
      <trkpt lat="44.60706" lon="3.46678">
        <ele>1051.3578</ele>
        <time>2022-01-19T17:54:10Z</time>
      </trkpt>
      <trkpt lat="44.60708" lon="3.46678">
        <ele>1051.0619</ele>
        <time>2022-01-19T17:54:11Z</time>
      </trkpt>
      <trkpt lat="44.60709" lon="3.46678">
        <ele>1050.9246</ele>
        <time>2022-01-19T17:54:12Z</time>
      </trkpt>
      <trkpt lat="44.6071" lon="3.46678">
        <ele>1050.8082</ele>
        <time>2022-01-19T17:54:13Z</time>
      </trkpt>
      <trkpt lat="44.60711" lon="3.46678">
        <ele>1050.5546</ele>
        <time>2022-01-19T17:54:14Z</time>
      </trkpt>
      <trkpt lat="44.60712" lon="3.46678">
        <ele>1050.3538</ele>
        <time>2022-01-19T17:54:15Z</time>
      </trkpt>
      <trkpt lat="44.60714" lon="3.46678">
        <ele>1050.2058</ele>
        <time>2022-01-19T17:54:16Z</time>
      </trkpt>
      <trkpt lat="44.60715" lon="3.46678">
        <ele>1049.968</ele>
        <time>2022-01-19T17:54:17Z</time>
      </trkpt>
      <trkpt lat="44.60717" lon="3.46678">
        <ele>1049.7831</ele>
        <time>2022-01-19T17:54:18Z</time>
      </trkpt>
      <trkpt lat="44.60718" lon="3.46678">
        <ele>1049.7566</ele>
        <time>2022-01-19T17:54:19Z</time>
      </trkpt>
      <trkpt lat="44.60719" lon="3.46678">
        <ele>1049.5823</ele>
        <time>2022-01-19T17:54:20Z</time>
      </trkpt>
      <trkpt lat="44.6072" lon="3.46678">
        <ele>1049.3021</ele>
        <time>2022-01-19T17:54:21Z</time>
      </trkpt>
      <trkpt lat="44.60721" lon="3.46678">
        <ele>1049.2281</ele>
        <time>2022-01-19T17:54:22Z</time>
      </trkpt>
      <trkpt lat="44.60722" lon="3.46678">
        <ele>1048.8899</ele>
        <time>2022-01-19T17:54:23Z</time>
      </trkpt>
      <trkpt lat="44.60724" lon="3.46677">
        <ele>1048.837</ele>
        <time>2022-01-19T17:54:24Z</time>
      </trkpt>
      <trkpt lat="44.60725" lon="3.46678">
        <ele>1048.742</ele>
        <time>2022-01-19T17:54:25Z</time>
      </trkpt>
      <trkpt lat="44.60725" lon="3.46678">
        <ele>1048.4883</ele>
        <time>2022-01-19T17:54:26Z</time>
      </trkpt>
      <trkpt lat="44.60727" lon="3.46678">
        <ele>1048.2241</ele>
        <time>2022-01-19T17:54:27Z</time>
      </trkpt>
      <trkpt lat="44.60728" lon="3.46679">
        <ele>1048.166</ele>
        <time>2022-01-19T17:54:28Z</time>
      </trkpt>
      <trkpt lat="44.60729" lon="3.46679">
        <ele>1048.0021</ele>
        <time>2022-01-19T17:54:29Z</time>
      </trkpt>
      <trkpt lat="44.6073" lon="3.4668">
        <ele>1047.8594</ele>
        <time>2022-01-19T17:54:30Z</time>
      </trkpt>
      <trkpt lat="44.60732" lon="3.4668">
        <ele>1047.7378</ele>
        <time>2022-01-19T17:54:31Z</time>
      </trkpt>
      <trkpt lat="44.60733" lon="3.46681">
        <ele>1047.6216</ele>
        <time>2022-01-19T17:54:32Z</time>
      </trkpt>
      <trkpt lat="44.60734" lon="3.46681">
        <ele>1047.4948</ele>
        <time>2022-01-19T17:54:33Z</time>
      </trkpt>
      <trkpt lat="44.60735" lon="3.46681">
        <ele>1047.2463</ele>
        <time>2022-01-19T17:54:34Z</time>
      </trkpt>
      <trkpt lat="44.60737" lon="3.46681">
        <ele>1047.0297</ele>
        <time>2022-01-19T17:54:35Z</time>
      </trkpt>
      <trkpt lat="44.60738" lon="3.4668">
        <ele>1046.8977</ele>
        <time>2022-01-19T17:54:36Z</time>
      </trkpt>
      <trkpt lat="44.6074" lon="3.4668">
        <ele>1046.8077</ele>
        <time>2022-01-19T17:54:37Z</time>
      </trkpt>
      <trkpt lat="44.60741" lon="3.4668">
        <ele>1046.6493</ele>
        <time>2022-01-19T17:54:38Z</time>
      </trkpt>
      <trkpt lat="44.60743" lon="3.4668">
        <ele>1046.5963</ele>
        <time>2022-01-19T17:54:39Z</time>
      </trkpt>
      <trkpt lat="44.60744" lon="3.4668">
        <ele>1046.4484</ele>
        <time>2022-01-19T17:54:40Z</time>
      </trkpt>
      <trkpt lat="44.60746" lon="3.46681">
        <ele>1046.1788</ele>
        <time>2022-01-19T17:54:41Z</time>
      </trkpt>
      <trkpt lat="44.60747" lon="3.4668">
        <ele>1046.1207</ele>
        <time>2022-01-19T17:54:42Z</time>
      </trkpt>
      <trkpt lat="44.60748" lon="3.4668">
        <ele>1045.8723</ele>
        <time>2022-01-19T17:54:43Z</time>
      </trkpt>
      <trkpt lat="44.6075" lon="3.4668">
        <ele>1045.809</ele>
        <time>2022-01-19T17:54:44Z</time>
      </trkpt>
      <trkpt lat="44.60751" lon="3.46681">
        <ele>1045.7191</ele>
        <time>2022-01-19T17:54:45Z</time>
      </trkpt>
      <trkpt lat="44.60752" lon="3.46681">
        <ele>1045.5975</ele>
        <time>2022-01-19T17:54:46Z</time>
      </trkpt>
      <trkpt lat="44.60753" lon="3.46681">
        <ele>1045.5448</ele>
        <time>2022-01-19T17:54:47Z</time>
      </trkpt>
      <trkpt lat="44.60754" lon="3.46681">
        <ele>1045.3756</ele>
        <time>2022-01-19T17:54:48Z</time>
      </trkpt>
      <trkpt lat="44.60756" lon="3.46681">
        <ele>1045.3016</ele>
        <time>2022-01-19T17:54:49Z</time>
      </trkpt>
      <trkpt lat="44.60756" lon="3.46681">
        <ele>1045.0057</ele>
        <time>2022-01-19T17:54:50Z</time>
      </trkpt>
      <trkpt lat="44.60757" lon="3.46682">
        <ele>1044.8472</ele>
        <time>2022-01-19T17:54:51Z</time>
      </trkpt>
      <trkpt lat="44.60758" lon="3.46681">
        <ele>1044.8842</ele>
        <time>2022-01-19T17:54:52Z</time>
      </trkpt>
      <trkpt lat="44.60759" lon="3.4668">
        <ele>1044.8789</ele>
        <time>2022-01-19T17:54:53Z</time>
      </trkpt>
      <trkpt lat="44.60759" lon="3.46679">
        <ele>1044.8419</ele>
        <time>2022-01-19T17:54:54Z</time>
      </trkpt>
      <trkpt lat="44.6076" lon="3.46679">
        <ele>1044.8208</ele>
        <time>2022-01-19T17:54:55Z</time>
      </trkpt>
      <trkpt lat="44.60761" lon="3.46679">
        <ele>1044.8049</ele>
        <time>2022-01-19T17:54:56Z</time>
      </trkpt>
      <trkpt lat="44.60761" lon="3.46679">
        <ele>1044.7203</ele>
        <time>2022-01-19T17:54:57Z</time>
      </trkpt>
      <trkpt lat="44.60761" lon="3.46679">
        <ele>1044.826</ele>
        <time>2022-01-19T17:54:58Z</time>
      </trkpt>
      <trkpt lat="44.60761" lon="3.46679">
        <ele>1044.7784</ele>
        <time>2022-01-19T17:54:59Z</time>
      </trkpt>
      <trkpt lat="44.60761" lon="3.46679">
        <ele>1044.5776</ele>
        <time>2022-01-19T17:55:00Z</time>
      </trkpt>
      <trkpt lat="44.60761" lon="3.46679">
        <ele>1044.5776</ele>
        <time>2022-01-19T17:55:00Z</time>
      </trkpt>
      <trkpt lat="44.60761" lon="3.46679">
        <ele>1044.5776</ele>
        <time>2022-01-19T17:55:00Z</time>
      </trkpt>
      <trkpt lat="44.60766" lon="3.46678">
        <ele>1044.3557</ele>
        <time>2022-01-19T17:55:11Z</time>
      </trkpt>
      <trkpt lat="44.60766" lon="3.46678">
        <ele>1044.4508</ele>
        <time>2022-01-19T17:55:12Z</time>
      </trkpt>
      <trkpt lat="44.60766" lon="3.46678">
        <ele>1044.3716</ele>
        <time>2022-01-19T17:55:13Z</time>
      </trkpt>
      <trkpt lat="44.60767" lon="3.46678">
        <ele>1044.2976</ele>
        <time>2022-01-19T17:55:14Z</time>
      </trkpt>
      <trkpt lat="44.60768" lon="3.46679">
        <ele>1044.2817</ele>
        <time>2022-01-19T17:55:15Z</time>
      </trkpt>
      <trkpt lat="44.60769" lon="3.46678">
        <ele>1044.2395</ele>
        <time>2022-01-19T17:55:16Z</time>
      </trkpt>
      <trkpt lat="44.6077" lon="3.46678">
        <ele>1044.1654</ele>
        <time>2022-01-19T17:55:17Z</time>
      </trkpt>
      <trkpt lat="44.60771" lon="3.46678">
        <ele>1044.007</ele>
        <time>2022-01-19T17:55:18Z</time>
      </trkpt>
      <trkpt lat="44.60772" lon="3.46678">
        <ele>1044.007</ele>
        <time>2022-01-19T17:55:19Z</time>
      </trkpt>
      <trkpt lat="44.60773" lon="3.46678">
        <ele>1043.9489</ele>
        <time>2022-01-19T17:55:20Z</time>
      </trkpt>
      <trkpt lat="44.60774" lon="3.46678">
        <ele>1043.822</ele>
        <time>2022-01-19T17:55:21Z</time>
      </trkpt>
      <trkpt lat="44.60775" lon="3.46678">
        <ele>1043.8114</ele>
        <time>2022-01-19T17:55:22Z</time>
      </trkpt>
      <trkpt lat="44.60776" lon="3.46678">
        <ele>1043.6952</ele>
        <time>2022-01-19T17:55:23Z</time>
      </trkpt>
      <trkpt lat="44.60777" lon="3.46678">
        <ele>1043.6158</ele>
        <time>2022-01-19T17:55:24Z</time>
      </trkpt>
      <trkpt lat="44.60777" lon="3.46678">
        <ele>1043.6635</ele>
        <time>2022-01-19T17:55:25Z</time>
      </trkpt>
      <trkpt lat="44.60778" lon="3.46678">
        <ele>1044.0016</ele>
        <time>2022-01-19T17:55:26Z</time>
      </trkpt>
      <trkpt lat="44.60779" lon="3.46678">
        <ele>1044.3398</ele>
        <time>2022-01-19T17:55:27Z</time>
      </trkpt>
      <trkpt lat="44.6078" lon="3.46678">
        <ele>1043.5155</ele>
        <time>2022-01-19T17:55:28Z</time>
      </trkpt>
      <trkpt lat="44.60782" lon="3.46678">
        <ele>1043.2618</ele>
        <time>2022-01-19T17:55:29Z</time>
      </trkpt>
      <trkpt lat="44.60783" lon="3.46678">
        <ele>1043.2407</ele>
        <time>2022-01-19T17:55:30Z</time>
      </trkpt>
      <trkpt lat="44.60783" lon="3.46678">
        <ele>1043.2407</ele>
        <time>2022-01-19T17:55:31Z</time>
      </trkpt>
      <trkpt lat="44.60785" lon="3.46679">
        <ele>1043.1719</ele>
        <time>2022-01-19T17:55:32Z</time>
      </trkpt>
      <trkpt lat="44.60786" lon="3.46679">
        <ele>1043.2142</ele>
        <time>2022-01-19T17:55:33Z</time>
      </trkpt>
      <trkpt lat="44.60787" lon="3.46679">
        <ele>1043.1455</ele>
        <time>2022-01-19T17:55:34Z</time>
      </trkpt>
      <trkpt lat="44.60788" lon="3.4668">
        <ele>1043.1719</ele>
        <time>2022-01-19T17:55:35Z</time>
      </trkpt>
      <trkpt lat="44.60788" lon="3.4668">
        <ele>1043.1614</ele>
        <time>2022-01-19T17:55:36Z</time>
      </trkpt>
      <trkpt lat="44.60789" lon="3.4668">
        <ele>1043.1666</ele>
        <time>2022-01-19T17:55:37Z</time>
      </trkpt>
      <trkpt lat="44.60789" lon="3.4668">
        <ele>1043.1614</ele>
        <time>2022-01-19T17:55:38Z</time>
      </trkpt>
      <trkpt lat="44.60789" lon="3.4668">
        <ele>1043.098</ele>
        <time>2022-01-19T17:55:39Z</time>
      </trkpt>
      <trkpt lat="44.60791" lon="3.4668">
        <ele>1043.1085</ele>
        <time>2022-01-19T17:55:40Z</time>
      </trkpt>
      <trkpt lat="44.60791" lon="3.4668">
        <ele>1043.0663</ele>
        <time>2022-01-19T17:55:41Z</time>
      </trkpt>
      <trkpt lat="44.60792" lon="3.46679">
        <ele>1043.0082</ele>
        <time>2022-01-19T17:55:42Z</time>
      </trkpt>
      <trkpt lat="44.60793" lon="3.46679">
        <ele>1043.0082</ele>
        <time>2022-01-19T17:55:43Z</time>
      </trkpt>
      <trkpt lat="44.60793" lon="3.46679">
        <ele>1043.0293</ele>
        <time>2022-01-19T17:55:44Z</time>
      </trkpt>
      <trkpt lat="44.60793" lon="3.46679">
        <ele>1042.9288</ele>
        <time>2022-01-19T17:55:45Z</time>
      </trkpt>
      <trkpt lat="44.60794" lon="3.46679">
        <ele>1042.9341</ele>
        <time>2022-01-19T17:55:46Z</time>
      </trkpt>
      <trkpt lat="44.60794" lon="3.46679">
        <ele>1042.9182</ele>
        <time>2022-01-19T17:55:47Z</time>
      </trkpt>
      <trkpt lat="44.60795" lon="3.46678">
        <ele>1042.8073</ele>
        <time>2022-01-19T17:55:48Z</time>
      </trkpt>
      <trkpt lat="44.60796" lon="3.46677">
        <ele>1042.8126</ele>
        <time>2022-01-19T17:55:49Z</time>
      </trkpt>
      <trkpt lat="44.60797" lon="3.46677">
        <ele>1042.8707</ele>
        <time>2022-01-19T17:55:50Z</time>
      </trkpt>
      <trkpt lat="44.60798" lon="3.46677">
        <ele>1042.876</ele>
        <time>2022-01-19T17:55:51Z</time>
      </trkpt>
      <trkpt lat="44.60799" lon="3.46676">
        <ele>1042.8655</ele>
        <time>2022-01-19T17:55:52Z</time>
      </trkpt>
      <trkpt lat="44.60799" lon="3.46677">
        <ele>1042.839</ele>
        <time>2022-01-19T17:55:53Z</time>
      </trkpt>
      <trkpt lat="44.608" lon="3.46678">
        <ele>1042.8707</ele>
        <time>2022-01-19T17:55:54Z</time>
      </trkpt>
      <trkpt lat="44.60801" lon="3.46678">
        <ele>1042.8601</ele>
        <time>2022-01-19T17:55:55Z</time>
      </trkpt>
      <trkpt lat="44.60801" lon="3.46678">
        <ele>1042.876</ele>
        <time>2022-01-19T17:55:56Z</time>
      </trkpt>
      <trkpt lat="44.60801" lon="3.46678">
        <ele>1042.9025</ele>
        <time>2022-01-19T17:55:57Z</time>
      </trkpt>
      <trkpt lat="44.60802" lon="3.46679">
        <ele>1042.8655</ele>
        <time>2022-01-19T17:55:58Z</time>
      </trkpt>
      <trkpt lat="44.60802" lon="3.46679">
        <ele>1042.8601</ele>
        <time>2022-01-19T17:55:59Z</time>
      </trkpt>
      <trkpt lat="44.60802" lon="3.46679">
        <ele>1042.8601</ele>
        <time>2022-01-19T17:55:59Z</time>
      </trkpt>
      <trkpt lat="44.60802" lon="3.46679">
        <ele>1042.8601</ele>
        <time>2022-01-19T17:55:59Z</time>
      </trkpt>
      <trkpt lat="44.60807" lon="3.46687">
        <ele>1043.7216</ele>
        <time>2022-01-19T17:57:50Z</time>
      </trkpt>
      <trkpt lat="44.60809" lon="3.46688">
        <ele>1043.9117</ele>
        <time>2022-01-19T17:57:52Z</time>
      </trkpt>
      <trkpt lat="44.6081" lon="3.46689">
        <ele>1044.0175</ele>
        <time>2022-01-19T17:57:53Z</time>
      </trkpt>
      <trkpt lat="44.60812" lon="3.46689">
        <ele>1044.0862</ele>
        <time>2022-01-19T17:57:54Z</time>
      </trkpt>
      <trkpt lat="44.60813" lon="3.4669">
        <ele>1044.2289</ele>
        <time>2022-01-19T17:57:55Z</time>
      </trkpt>
      <trkpt lat="44.60814" lon="3.46689">
        <ele>1044.213</ele>
        <time>2022-01-19T17:57:56Z</time>
      </trkpt>
      <trkpt lat="44.60815" lon="3.46689">
        <ele>1044.2236</ele>
        <time>2022-01-19T17:57:57Z</time>
      </trkpt>
      <trkpt lat="44.60817" lon="3.46688">
        <ele>1044.2922</ele>
        <time>2022-01-19T17:57:58Z</time>
      </trkpt>
      <trkpt lat="44.60819" lon="3.46688">
        <ele>1044.4138</ele>
        <time>2022-01-19T17:57:59Z</time>
      </trkpt>
      <trkpt lat="44.6082" lon="3.46687">
        <ele>1044.324</ele>
        <time>2022-01-19T17:58:00Z</time>
      </trkpt>
      <trkpt lat="44.60821" lon="3.46686">
        <ele>1044.4456</ele>
        <time>2022-01-19T17:58:01Z</time>
      </trkpt>
      <trkpt lat="44.60822" lon="3.46686">
        <ele>1044.6146</ele>
        <time>2022-01-19T17:58:02Z</time>
      </trkpt>
      <trkpt lat="44.60823" lon="3.46685">
        <ele>1044.6094</ele>
        <time>2022-01-19T17:58:03Z</time>
      </trkpt>
      <trkpt lat="44.60825" lon="3.46684">
        <ele>1044.5988</ele>
        <time>2022-01-19T17:58:04Z</time>
      </trkpt>
      <trkpt lat="44.60825" lon="3.46684">
        <ele>1044.5988</ele>
        <time>2022-01-19T17:58:04Z</time>
      </trkpt>
      <trkpt lat="44.60826" lon="3.46684">
        <ele>1044.6622</ele>
        <time>2022-01-19T17:58:06Z</time>
      </trkpt>
      <trkpt lat="44.60828" lon="3.46683">
        <ele>1044.7784</ele>
        <time>2022-01-19T17:58:07Z</time>
      </trkpt>
      <trkpt lat="44.6083" lon="3.46683">
        <ele>1044.7891</ele>
        <time>2022-01-19T17:58:08Z</time>
      </trkpt>
      <trkpt lat="44.60831" lon="3.46683">
        <ele>1044.8208</ele>
        <time>2022-01-19T17:58:09Z</time>
      </trkpt>
      <trkpt lat="44.60832" lon="3.46683">
        <ele>1044.9688</ele>
        <time>2022-01-19T17:58:10Z</time>
      </trkpt>
      <trkpt lat="44.60833" lon="3.46683">
        <ele>1045.0162</ele>
        <time>2022-01-19T17:58:11Z</time>
      </trkpt>
      <trkpt lat="44.60835" lon="3.46683">
        <ele>1045.1642</ele>
        <time>2022-01-19T17:58:12Z</time>
      </trkpt>
      <trkpt lat="44.60836" lon="3.46683">
        <ele>1045.1642</ele>
        <time>2022-01-19T17:58:13Z</time>
      </trkpt>
      <trkpt lat="44.60836" lon="3.46683">
        <ele>1045.2012</ele>
        <time>2022-01-19T17:58:14Z</time>
      </trkpt>
      <trkpt lat="44.60837" lon="3.46683">
        <ele>1045.1959</ele>
        <time>2022-01-19T17:58:15Z</time>
      </trkpt>
      <trkpt lat="44.60838" lon="3.46684">
        <ele>1045.1431</ele>
        <time>2022-01-19T17:58:16Z</time>
      </trkpt>
      <trkpt lat="44.6084" lon="3.46684">
        <ele>1045.2646</ele>
        <time>2022-01-19T17:58:17Z</time>
      </trkpt>
      <trkpt lat="44.60841" lon="3.46685">
        <ele>1045.291</ele>
        <time>2022-01-19T17:58:18Z</time>
      </trkpt>
      <trkpt lat="44.60843" lon="3.46685">
        <ele>1045.3704</ele>
        <time>2022-01-19T17:58:19Z</time>
      </trkpt>
      <trkpt lat="44.60844" lon="3.46686">
        <ele>1045.4337</ele>
        <time>2022-01-19T17:58:20Z</time>
      </trkpt>
      <trkpt lat="44.60846" lon="3.46686">
        <ele>1045.4972</ele>
        <time>2022-01-19T17:58:21Z</time>
      </trkpt>
      <trkpt lat="44.60847" lon="3.46687">
        <ele>1045.5553</ele>
        <time>2022-01-19T17:58:22Z</time>
      </trkpt>
      <trkpt lat="44.60847" lon="3.46687">
        <ele>1045.5553</ele>
        <time>2022-01-19T17:58:22Z</time>
      </trkpt>
      <trkpt lat="44.60849" lon="3.46688">
        <ele>1045.5975</ele>
        <time>2022-01-19T17:58:24Z</time>
      </trkpt>
      <trkpt lat="44.60851" lon="3.46688">
        <ele>1045.7985</ele>
        <time>2022-01-19T17:58:25Z</time>
      </trkpt>
      <trkpt lat="44.60852" lon="3.46688">
        <ele>1045.8037</ele>
        <time>2022-01-19T17:58:26Z</time>
      </trkpt>
      <trkpt lat="44.60852" lon="3.46689">
        <ele>1045.9623</ele>
        <time>2022-01-19T17:58:27Z</time>
      </trkpt>
      <trkpt lat="44.60854" lon="3.4669">
        <ele>1045.9675</ele>
        <time>2022-01-19T17:58:28Z</time>
      </trkpt>
      <trkpt lat="44.60855" lon="3.4669">
        <ele>1045.9517</ele>
        <time>2022-01-19T17:58:29Z</time>
      </trkpt>
      <trkpt lat="44.60856" lon="3.46691">
        <ele>1046.0891</ele>
        <time>2022-01-19T17:58:30Z</time>
      </trkpt>
      <trkpt lat="44.60857" lon="3.46691">
        <ele>1046.1577</ele>
        <time>2022-01-19T17:58:31Z</time>
      </trkpt>
      <trkpt lat="44.60859" lon="3.46692">
        <ele>1046.163</ele>
        <time>2022-01-19T17:58:32Z</time>
      </trkpt>
      <trkpt lat="44.6086" lon="3.46693">
        <ele>1046.3163</ele>
        <time>2022-01-19T17:58:33Z</time>
      </trkpt>
      <trkpt lat="44.60862" lon="3.46694">
        <ele>1046.4325</ele>
        <time>2022-01-19T17:58:34Z</time>
      </trkpt>
      <trkpt lat="44.60863" lon="3.46695">
        <ele>1046.5911</ele>
        <time>2022-01-19T17:58:35Z</time>
      </trkpt>
      <trkpt lat="44.60864" lon="3.46695">
        <ele>1046.6387</ele>
        <time>2022-01-19T17:58:36Z</time>
      </trkpt>
      <trkpt lat="44.60864" lon="3.46695">
        <ele>1046.6228</ele>
        <time>2022-01-19T17:58:37Z</time>
      </trkpt>
      <trkpt lat="44.60865" lon="3.46696">
        <ele>1046.6915</ele>
        <time>2022-01-19T17:58:38Z</time>
      </trkpt>
      <trkpt lat="44.60865" lon="3.46696">
        <ele>1046.6915</ele>
        <time>2022-01-19T17:58:38Z</time>
      </trkpt>
      <trkpt lat="44.60867" lon="3.46697">
        <ele>1046.9504</ele>
        <time>2022-01-19T17:58:40Z</time>
      </trkpt>
      <trkpt lat="44.60868" lon="3.46698">
        <ele>1047.072</ele>
        <time>2022-01-19T17:58:41Z</time>
      </trkpt>
      <trkpt lat="44.60869" lon="3.46698">
        <ele>1047.1038</ele>
        <time>2022-01-19T17:58:42Z</time>
      </trkpt>
      <trkpt lat="44.6087" lon="3.46699">
        <ele>1047.2095</ele>
        <time>2022-01-19T17:58:43Z</time>
      </trkpt>
      <trkpt lat="44.60872" lon="3.46699">
        <ele>1047.2252</ele>
        <time>2022-01-19T17:58:44Z</time>
      </trkpt>
      <trkpt lat="44.60872" lon="3.467">
        <ele>1047.2992</ele>
        <time>2022-01-19T17:58:45Z</time>
      </trkpt>
      <trkpt lat="44.60873" lon="3.46701">
        <ele>1047.4155</ele>
        <time>2022-01-19T17:58:46Z</time>
      </trkpt>
      <trkpt lat="44.60875" lon="3.46702">
        <ele>1047.5265</ele>
        <time>2022-01-19T17:58:47Z</time>
      </trkpt>
      <trkpt lat="44.60876" lon="3.46702">
        <ele>1047.6744</ele>
        <time>2022-01-19T17:58:48Z</time>
      </trkpt>
      <trkpt lat="44.60877" lon="3.46703">
        <ele>1047.627</ele>
        <time>2022-01-19T17:58:49Z</time>
      </trkpt>
      <trkpt lat="44.60878" lon="3.46703">
        <ele>1047.722</ele>
        <time>2022-01-19T17:58:50Z</time>
      </trkpt>
      <trkpt lat="44.6088" lon="3.46704">
        <ele>1047.7484</ele>
        <time>2022-01-19T17:58:51Z</time>
      </trkpt>
      <trkpt lat="44.60881" lon="3.46705">
        <ele>1047.8646</ele>
        <time>2022-01-19T17:58:52Z</time>
      </trkpt>
      <trkpt lat="44.60882" lon="3.46706">
        <ele>1047.907</ele>
        <time>2022-01-19T17:58:53Z</time>
      </trkpt>
      <trkpt lat="44.60883" lon="3.46707">
        <ele>1048.0656</ele>
        <time>2022-01-19T17:58:54Z</time>
      </trkpt>
      <trkpt lat="44.60883" lon="3.46709">
        <ele>1048.0549</ele>
        <time>2022-01-19T17:58:55Z</time>
      </trkpt>
      <trkpt lat="44.60884" lon="3.4671">
        <ele>1048.1713</ele>
        <time>2022-01-19T17:58:56Z</time>
      </trkpt>
      <trkpt lat="44.60885" lon="3.46711">
        <ele>1048.2083</ele>
        <time>2022-01-19T17:58:57Z</time>
      </trkpt>
      <trkpt lat="44.60885" lon="3.46713">
        <ele>1048.1448</ele>
        <time>2022-01-19T17:58:58Z</time>
      </trkpt>
      <trkpt lat="44.60886" lon="3.46714">
        <ele>1048.3667</ele>
        <time>2022-01-19T17:58:59Z</time>
      </trkpt>
      <trkpt lat="44.60887" lon="3.46716">
        <ele>1048.4302</ele>
        <time>2022-01-19T17:59:00Z</time>
      </trkpt>
      <trkpt lat="44.60887" lon="3.46718">
        <ele>1048.5148</ele>
        <time>2022-01-19T17:59:01Z</time>
      </trkpt>
      <trkpt lat="44.60888" lon="3.46719">
        <ele>1048.5728</ele>
        <time>2022-01-19T17:59:02Z</time>
      </trkpt>
      <trkpt lat="44.60888" lon="3.46721">
        <ele>1048.8054</ele>
        <time>2022-01-19T17:59:03Z</time>
      </trkpt>
      <trkpt lat="44.60888" lon="3.46723">
        <ele>1048.8054</ele>
        <time>2022-01-19T17:59:04Z</time>
      </trkpt>
      <trkpt lat="44.60888" lon="3.46724">
        <ele>1048.7473</ele>
        <time>2022-01-19T17:59:05Z</time>
      </trkpt>
      <trkpt lat="44.60888" lon="3.46726">
        <ele>1048.9216</ele>
        <time>2022-01-19T17:59:06Z</time>
      </trkpt>
      <trkpt lat="44.60888" lon="3.46728">
        <ele>1048.8953</ele>
        <time>2022-01-19T17:59:07Z</time>
      </trkpt>
      <trkpt lat="44.60888" lon="3.4673">
        <ele>1049.0221</ele>
        <time>2022-01-19T17:59:08Z</time>
      </trkpt>
      <trkpt lat="44.60888" lon="3.46732">
        <ele>1049.1013</ele>
        <time>2022-01-19T17:59:09Z</time>
      </trkpt>
      <trkpt lat="44.60888" lon="3.46734">
        <ele>1049.1329</ele>
        <time>2022-01-19T17:59:10Z</time>
      </trkpt>
      <trkpt lat="44.60888" lon="3.46735">
        <ele>1049.1542</ele>
        <time>2022-01-19T17:59:11Z</time>
      </trkpt>
      <trkpt lat="44.60888" lon="3.46737">
        <ele>1049.3391</ele>
        <time>2022-01-19T17:59:12Z</time>
      </trkpt>
      <trkpt lat="44.60888" lon="3.46739">
        <ele>1049.4396</ele>
        <time>2022-01-19T17:59:13Z</time>
      </trkpt>
      <trkpt lat="44.60888" lon="3.46741">
        <ele>1049.4236</ele>
        <time>2022-01-19T17:59:14Z</time>
      </trkpt>
      <trkpt lat="44.60888" lon="3.46743">
        <ele>1049.5188</ele>
        <time>2022-01-19T17:59:15Z</time>
      </trkpt>
      <trkpt lat="44.60887" lon="3.46745">
        <ele>1049.5663</ele>
        <time>2022-01-19T17:59:16Z</time>
      </trkpt>
      <trkpt lat="44.60887" lon="3.46748">
        <ele>1049.7144</ele>
        <time>2022-01-19T17:59:17Z</time>
      </trkpt>
      <trkpt lat="44.60887" lon="3.46749">
        <ele>1049.6774</ele>
        <time>2022-01-19T17:59:18Z</time>
      </trkpt>
      <trkpt lat="44.60887" lon="3.46752">
        <ele>1049.8306</ele>
        <time>2022-01-19T17:59:19Z</time>
      </trkpt>
      <trkpt lat="44.60887" lon="3.46754">
        <ele>1049.7672</ele>
        <time>2022-01-19T17:59:20Z</time>
      </trkpt>
      <trkpt lat="44.60886" lon="3.46756">
        <ele>1049.8094</ele>
        <time>2022-01-19T17:59:21Z</time>
      </trkpt>
      <trkpt lat="44.60886" lon="3.46758">
        <ele>1049.9257</ele>
        <time>2022-01-19T17:59:22Z</time>
      </trkpt>
      <trkpt lat="44.60886" lon="3.46759">
        <ele>1049.9838</ele>
        <time>2022-01-19T17:59:23Z</time>
      </trkpt>
      <trkpt lat="44.60886" lon="3.46762">
        <ele>1050.116</ele>
        <time>2022-01-19T17:59:24Z</time>
      </trkpt>
      <trkpt lat="44.60886" lon="3.46764">
        <ele>1050.1688</ele>
        <time>2022-01-19T17:59:25Z</time>
      </trkpt>
      <trkpt lat="44.60886" lon="3.46765">
        <ele>1050.2587</ele>
        <time>2022-01-19T17:59:26Z</time>
      </trkpt>
      <trkpt lat="44.60886" lon="3.46767">
        <ele>1050.3115</ele>
        <time>2022-01-19T17:59:27Z</time>
      </trkpt>
      <trkpt lat="44.60886" lon="3.46769">
        <ele>1050.9985</ele>
        <time>2022-01-19T17:59:28Z</time>
      </trkpt>
      <trkpt lat="44.60885" lon="3.4677">
        <ele>1050.935</ele>
        <time>2022-01-19T17:59:29Z</time>
      </trkpt>
      <trkpt lat="44.60885" lon="3.46772">
        <ele>1050.4912</ele>
        <time>2022-01-19T17:59:30Z</time>
      </trkpt>
      <trkpt lat="44.60885" lon="3.46774">
        <ele>1050.6022</ele>
        <time>2022-01-19T17:59:31Z</time>
      </trkpt>
      <trkpt lat="44.60885" lon="3.46776">
        <ele>1050.5546</ele>
        <time>2022-01-19T17:59:32Z</time>
      </trkpt>
      <trkpt lat="44.60884" lon="3.46778">
        <ele>1050.7026</ele>
        <time>2022-01-19T17:59:33Z</time>
      </trkpt>
      <trkpt lat="44.60884" lon="3.4678">
        <ele>1050.8506</ele>
        <time>2022-01-19T17:59:34Z</time>
      </trkpt>
      <trkpt lat="44.60884" lon="3.46782">
        <ele>1050.9087</ele>
        <time>2022-01-19T17:59:35Z</time>
      </trkpt>
      <trkpt lat="44.60884" lon="3.46784">
        <ele>1050.8876</ele>
        <time>2022-01-19T17:59:36Z</time>
      </trkpt>
      <trkpt lat="44.60884" lon="3.46786">
        <ele>1050.8876</ele>
        <time>2022-01-19T17:59:37Z</time>
      </trkpt>
      <trkpt lat="44.60883" lon="3.46788">
        <ele>1051.0778</ele>
        <time>2022-01-19T17:59:38Z</time>
      </trkpt>
      <trkpt lat="44.60883" lon="3.4679">
        <ele>1051.1835</ele>
        <time>2022-01-19T17:59:39Z</time>
      </trkpt>
      <trkpt lat="44.60883" lon="3.46792">
        <ele>1051.1993</ele>
        <time>2022-01-19T17:59:40Z</time>
      </trkpt>
      <trkpt lat="44.60882" lon="3.46793">
        <ele>1051.3208</ele>
        <time>2022-01-19T17:59:41Z</time>
      </trkpt>
      <trkpt lat="44.60882" lon="3.46795">
        <ele>1051.3578</ele>
        <time>2022-01-19T17:59:42Z</time>
      </trkpt>
      <trkpt lat="44.60882" lon="3.46797">
        <ele>1051.3789</ele>
        <time>2022-01-19T17:59:43Z</time>
      </trkpt>
      <trkpt lat="44.60881" lon="3.46799">
        <ele>1051.453</ele>
        <time>2022-01-19T17:59:44Z</time>
      </trkpt>
      <trkpt lat="44.60881" lon="3.46801">
        <ele>1051.3843</ele>
        <time>2022-01-19T17:59:45Z</time>
      </trkpt>
      <trkpt lat="44.60881" lon="3.46803">
        <ele>1051.6327</ele>
        <time>2022-01-19T17:59:46Z</time>
      </trkpt>
      <trkpt lat="44.60881" lon="3.46805">
        <ele>1051.5798</ele>
        <time>2022-01-19T17:59:47Z</time>
      </trkpt>
      <trkpt lat="44.60881" lon="3.46806">
        <ele>1051.7806</ele>
        <time>2022-01-19T17:59:48Z</time>
      </trkpt>
      <trkpt lat="44.60881" lon="3.46808">
        <ele>1051.8441</ele>
        <time>2022-01-19T17:59:49Z</time>
      </trkpt>
      <trkpt lat="44.60881" lon="3.4681">
        <ele>1051.9338</ele>
        <time>2022-01-19T17:59:50Z</time>
      </trkpt>
      <trkpt lat="44.60881" lon="3.46812">
        <ele>1052.0872</ele>
        <time>2022-01-19T17:59:51Z</time>
      </trkpt>
      <trkpt lat="44.60881" lon="3.46814">
        <ele>1052.1559</ele>
        <time>2022-01-19T17:59:52Z</time>
      </trkpt>
      <trkpt lat="44.60881" lon="3.46816">
        <ele>1052.2616</ele>
        <time>2022-01-19T17:59:53Z</time>
      </trkpt>
      <trkpt lat="44.6088" lon="3.46818">
        <ele>1052.3143</ele>
        <time>2022-01-19T17:59:54Z</time>
      </trkpt>
      <trkpt lat="44.6088" lon="3.46819">
        <ele>1052.42</ele>
        <time>2022-01-19T17:59:55Z</time>
      </trkpt>
      <trkpt lat="44.60881" lon="3.46821">
        <ele>1052.6578</ele>
        <time>2022-01-19T17:59:56Z</time>
      </trkpt>
      <trkpt lat="44.60881" lon="3.46822">
        <ele>1052.695</ele>
        <time>2022-01-19T17:59:57Z</time>
      </trkpt>
      <trkpt lat="44.60881" lon="3.46824">
        <ele>1052.7213</ele>
        <time>2022-01-19T17:59:58Z</time>
      </trkpt>
      <trkpt lat="44.60881" lon="3.46826">
        <ele>1052.8218</ele>
        <time>2022-01-19T17:59:59Z</time>
      </trkpt>
      <trkpt lat="44.60881" lon="3.46828">
        <ele>1052.9591</ele>
        <time>2022-01-19T18:00:00Z</time>
      </trkpt>
      <trkpt lat="44.6088" lon="3.4683">
        <ele>1053.0278</ele>
        <time>2022-01-19T18:00:01Z</time>
      </trkpt>
      <trkpt lat="44.60881" lon="3.46832">
        <ele>1053.1335</ele>
        <time>2022-01-19T18:00:02Z</time>
      </trkpt>
      <trkpt lat="44.6088" lon="3.46833">
        <ele>1053.2762</ele>
        <time>2022-01-19T18:00:03Z</time>
      </trkpt>
      <trkpt lat="44.60881" lon="3.46835">
        <ele>1053.3872</ele>
        <time>2022-01-19T18:00:04Z</time>
      </trkpt>
      <trkpt lat="44.60881" lon="3.46838">
        <ele>1053.4823</ele>
        <time>2022-01-19T18:00:05Z</time>
      </trkpt>
      <trkpt lat="44.60881" lon="3.4684">
        <ele>1053.5563</ele>
        <time>2022-01-19T18:00:06Z</time>
      </trkpt>
      <trkpt lat="44.60881" lon="3.46841">
        <ele>1053.7201</ele>
        <time>2022-01-19T18:00:07Z</time>
      </trkpt>
      <trkpt lat="44.60881" lon="3.46843">
        <ele>1053.7993</ele>
        <time>2022-01-19T18:00:08Z</time>
      </trkpt>
      <trkpt lat="44.60882" lon="3.46845">
        <ele>1053.8628</ele>
        <time>2022-01-19T18:00:09Z</time>
      </trkpt>
      <trkpt lat="44.60882" lon="3.46846">
        <ele>1054.0901</ele>
        <time>2022-01-19T18:00:10Z</time>
      </trkpt>
      <trkpt lat="44.60882" lon="3.46847">
        <ele>1054.1746</ele>
        <time>2022-01-19T18:00:11Z</time>
      </trkpt>
      <trkpt lat="44.60883" lon="3.46849">
        <ele>1054.3225</ele>
        <time>2022-01-19T18:00:12Z</time>
      </trkpt>
      <trkpt lat="44.60883" lon="3.46851">
        <ele>1054.4282</ele>
        <time>2022-01-19T18:00:13Z</time>
      </trkpt>
      <trkpt lat="44.60884" lon="3.46852">
        <ele>1054.497</ele>
        <time>2022-01-19T18:00:14Z</time>
      </trkpt>
      <trkpt lat="44.60884" lon="3.46854">
        <ele>1054.592</ele>
        <time>2022-01-19T18:00:15Z</time>
      </trkpt>
      <trkpt lat="44.60885" lon="3.46855">
        <ele>1054.6555</ele>
        <time>2022-01-19T18:00:16Z</time>
      </trkpt>
      <trkpt lat="44.60885" lon="3.46857">
        <ele>1054.6132</ele>
        <time>2022-01-19T18:00:17Z</time>
      </trkpt>
      <trkpt lat="44.60885" lon="3.46858">
        <ele>1054.7876</ele>
        <time>2022-01-19T18:00:18Z</time>
      </trkpt>
      <trkpt lat="44.60886" lon="3.46859">
        <ele>1055.0095</ele>
        <time>2022-01-19T18:00:19Z</time>
      </trkpt>
      <trkpt lat="44.60887" lon="3.4686">
        <ele>1055.0994</ele>
        <time>2022-01-19T18:00:20Z</time>
      </trkpt>
      <trkpt lat="44.60887" lon="3.4686">
        <ele>1055.0148</ele>
        <time>2022-01-19T18:00:21Z</time>
      </trkpt>
      <trkpt lat="44.60887" lon="3.46861">
        <ele>1055.1416</ele>
        <time>2022-01-19T18:00:22Z</time>
      </trkpt>
      <trkpt lat="44.60888" lon="3.46862">
        <ele>1055.2738</ele>
        <time>2022-01-19T18:00:23Z</time>
      </trkpt>
      <trkpt lat="44.60888" lon="3.46863">
        <ele>1055.2579</ele>
        <time>2022-01-19T18:00:24Z</time>
      </trkpt>
      <trkpt lat="44.60888" lon="3.46864">
        <ele>1055.3265</ele>
        <time>2022-01-19T18:00:25Z</time>
      </trkpt>
      <trkpt lat="44.60888" lon="3.46866">
        <ele>1055.4851</ele>
        <time>2022-01-19T18:00:26Z</time>
      </trkpt>
      <trkpt lat="44.60888" lon="3.46866">
        <ele>1055.5645</ele>
        <time>2022-01-19T18:00:27Z</time>
      </trkpt>
      <trkpt lat="44.60888" lon="3.46868">
        <ele>1055.834</ele>
        <time>2022-01-19T18:00:28Z</time>
      </trkpt>
      <trkpt lat="44.60888" lon="3.46869">
        <ele>1055.834</ele>
        <time>2022-01-19T18:00:29Z</time>
      </trkpt>
      <trkpt lat="44.60887" lon="3.4687">
        <ele>1055.9291</ele>
        <time>2022-01-19T18:00:30Z</time>
      </trkpt>
      <trkpt lat="44.60887" lon="3.46872">
        <ele>1056.2092</ele>
        <time>2022-01-19T18:00:31Z</time>
      </trkpt>
      <trkpt lat="44.60886" lon="3.46873">
        <ele>1056.3942</ele>
        <time>2022-01-19T18:00:32Z</time>
      </trkpt>
      <trkpt lat="44.60886" lon="3.46873">
        <ele>1056.632</ele>
        <time>2022-01-19T18:00:33Z</time>
      </trkpt>
      <trkpt lat="44.60886" lon="3.46874">
        <ele>1056.6794</ele>
        <time>2022-01-19T18:00:34Z</time>
      </trkpt>
      <trkpt lat="44.60886" lon="3.46875">
        <ele>1057.0758</ele>
        <time>2022-01-19T18:00:35Z</time>
      </trkpt>
      <trkpt lat="44.60885" lon="3.46877">
        <ele>1057.1761</ele>
        <time>2022-01-19T18:00:36Z</time>
      </trkpt>
      <trkpt lat="44.60885" lon="3.46878">
        <ele>1057.4193</ele>
        <time>2022-01-19T18:00:37Z</time>
      </trkpt>
      <trkpt lat="44.60885" lon="3.46879">
        <ele>1057.488</ele>
        <time>2022-01-19T18:00:38Z</time>
      </trkpt>
      <trkpt lat="44.60885" lon="3.4688">
        <ele>1057.7417</ele>
        <time>2022-01-19T18:00:39Z</time>
      </trkpt>
      <trkpt lat="44.60884" lon="3.46881">
        <ele>1058.0693</ele>
        <time>2022-01-19T18:00:40Z</time>
      </trkpt>
      <trkpt lat="44.60884" lon="3.46882">
        <ele>1058.2965</ele>
        <time>2022-01-19T18:00:41Z</time>
      </trkpt>
      <trkpt lat="44.60884" lon="3.46883">
        <ele>1058.434</ele>
        <time>2022-01-19T18:00:42Z</time>
      </trkpt>
      <trkpt lat="44.60884" lon="3.46884">
        <ele>1058.5819</ele>
        <time>2022-01-19T18:00:43Z</time>
      </trkpt>
      <trkpt lat="44.60884" lon="3.46885">
        <ele>1058.8197</ele>
        <time>2022-01-19T18:00:44Z</time>
      </trkpt>
      <trkpt lat="44.60884" lon="3.46886">
        <ele>1058.8145</ele>
        <time>2022-01-19T18:00:45Z</time>
      </trkpt>
      <trkpt lat="44.60884" lon="3.46886">
        <ele>1059.0311</ele>
        <time>2022-01-19T18:00:46Z</time>
      </trkpt>
      <trkpt lat="44.60884" lon="3.46886">
        <ele>1059.158</ele>
        <time>2022-01-19T18:00:47Z</time>
      </trkpt>
      <trkpt lat="44.60883" lon="3.46889">
        <ele>1059.4169</ele>
        <time>2022-01-19T18:00:48Z</time>
      </trkpt>
      <trkpt lat="44.60884" lon="3.46889">
        <ele>1059.5173</ele>
        <time>2022-01-19T18:00:49Z</time>
      </trkpt>
      <trkpt lat="44.60883" lon="3.4689">
        <ele>1059.7181</ele>
        <time>2022-01-19T18:00:50Z</time>
      </trkpt>
      <trkpt lat="44.60883" lon="3.46891">
        <ele>1059.8555</ele>
        <time>2022-01-19T18:00:51Z</time>
      </trkpt>
      <trkpt lat="44.60883" lon="3.46892">
        <ele>1060.1674</ele>
        <time>2022-01-19T18:00:52Z</time>
      </trkpt>
      <trkpt lat="44.60883" lon="3.46893">
        <ele>1060.1621</ele>
        <time>2022-01-19T18:00:53Z</time>
      </trkpt>
      <trkpt lat="44.60883" lon="3.46895">
        <ele>1060.3893</ele>
        <time>2022-01-19T18:00:54Z</time>
      </trkpt>
      <trkpt lat="44.60882" lon="3.46896">
        <ele>1060.6218</ele>
        <time>2022-01-19T18:00:55Z</time>
      </trkpt>
      <trkpt lat="44.60882" lon="3.46897">
        <ele>1060.8174</ele>
        <time>2022-01-19T18:00:56Z</time>
      </trkpt>
      <trkpt lat="44.60881" lon="3.46898">
        <ele>1060.9865</ele>
        <time>2022-01-19T18:00:57Z</time>
      </trkpt>
      <trkpt lat="44.60881" lon="3.46899">
        <ele>1061.0657</ele>
        <time>2022-01-19T18:00:58Z</time>
      </trkpt>
      <trkpt lat="44.60881" lon="3.46901">
        <ele>1061.2877</ele>
        <time>2022-01-19T18:00:59Z</time>
      </trkpt>
      <trkpt lat="44.60881" lon="3.46902">
        <ele>1061.4832</ele>
        <time>2022-01-19T18:01:00Z</time>
      </trkpt>
      <trkpt lat="44.6088" lon="3.46903">
        <ele>1061.6576</ele>
        <time>2022-01-19T18:01:01Z</time>
      </trkpt>
      <trkpt lat="44.6088" lon="3.46904">
        <ele>1061.795</ele>
        <time>2022-01-19T18:01:02Z</time>
      </trkpt>
      <trkpt lat="44.6088" lon="3.46905">
        <ele>1062.0751</ele>
        <time>2022-01-19T18:01:03Z</time>
      </trkpt>
      <trkpt lat="44.60879" lon="3.46906">
        <ele>1062.2495</ele>
        <time>2022-01-19T18:01:04Z</time>
      </trkpt>
      <trkpt lat="44.60878" lon="3.46907">
        <ele>1062.4344</ele>
        <time>2022-01-19T18:01:05Z</time>
      </trkpt>
      <trkpt lat="44.60878" lon="3.46909">
        <ele>1062.6935</ele>
        <time>2022-01-19T18:01:06Z</time>
      </trkpt>
      <trkpt lat="44.60878" lon="3.4691">
        <ele>1062.815</ele>
        <time>2022-01-19T18:01:07Z</time>
      </trkpt>
      <trkpt lat="44.60877" lon="3.4691">
        <ele>1062.9735</ele>
        <time>2022-01-19T18:01:08Z</time>
      </trkpt>
      <trkpt lat="44.60877" lon="3.46912">
        <ele>1063.1215</ele>
        <time>2022-01-19T18:01:09Z</time>
      </trkpt>
      <trkpt lat="44.60876" lon="3.46913">
        <ele>1063.3116</ele>
        <time>2022-01-19T18:01:10Z</time>
      </trkpt>
      <trkpt lat="44.60875" lon="3.46914">
        <ele>1063.634</ele>
        <time>2022-01-19T18:01:11Z</time>
      </trkpt>
      <trkpt lat="44.60875" lon="3.46915">
        <ele>1063.7186</ele>
        <time>2022-01-19T18:01:12Z</time>
      </trkpt>
      <trkpt lat="44.60874" lon="3.46916">
        <ele>1063.9458</ele>
        <time>2022-01-19T18:01:13Z</time>
      </trkpt>
      <trkpt lat="44.60873" lon="3.46917">
        <ele>1064.1256</ele>
        <time>2022-01-19T18:01:14Z</time>
      </trkpt>
      <trkpt lat="44.60873" lon="3.46918">
        <ele>1064.3052</ele>
        <time>2022-01-19T18:01:15Z</time>
      </trkpt>
      <trkpt lat="44.60872" lon="3.46919">
        <ele>1064.4849</ele>
        <time>2022-01-19T18:01:16Z</time>
      </trkpt>
      <trkpt lat="44.60872" lon="3.4692">
        <ele>1064.6381</ele>
        <time>2022-01-19T18:01:17Z</time>
      </trkpt>
      <trkpt lat="44.60871" lon="3.46921">
        <ele>1064.8865</ele>
        <time>2022-01-19T18:01:18Z</time>
      </trkpt>
      <trkpt lat="44.60871" lon="3.46922">
        <ele>1065.0714</ele>
        <time>2022-01-19T18:01:19Z</time>
      </trkpt>
      <trkpt lat="44.6087" lon="3.46924">
        <ele>1065.1719</ele>
        <time>2022-01-19T18:01:20Z</time>
      </trkpt>
      <trkpt lat="44.6087" lon="3.46925">
        <ele>1065.3674</ele>
        <time>2022-01-19T18:01:21Z</time>
      </trkpt>
      <trkpt lat="44.6087" lon="3.46925">
        <ele>1065.5312</ele>
        <time>2022-01-19T18:01:22Z</time>
      </trkpt>
      <trkpt lat="44.60869" lon="3.46926">
        <ele>1065.7479</ele>
        <time>2022-01-19T18:01:23Z</time>
      </trkpt>
      <trkpt lat="44.60868" lon="3.46927">
        <ele>1065.9646</ele>
        <time>2022-01-19T18:01:24Z</time>
      </trkpt>
      <trkpt lat="44.60868" lon="3.46928">
        <ele>1066.0703</ele>
        <time>2022-01-19T18:01:25Z</time>
      </trkpt>
      <trkpt lat="44.60867" lon="3.46929">
        <ele>1066.3873</ele>
        <time>2022-01-19T18:01:26Z</time>
      </trkpt>
      <trkpt lat="44.60867" lon="3.4693">
        <ele>1066.5089</ele>
        <time>2022-01-19T18:01:27Z</time>
      </trkpt>
      <trkpt lat="44.60866" lon="3.46931">
        <ele>1066.7996</ele>
        <time>2022-01-19T18:01:28Z</time>
      </trkpt>
      <trkpt lat="44.60865" lon="3.46932">
        <ele>1066.9529</ele>
        <time>2022-01-19T18:01:29Z</time>
      </trkpt>
      <trkpt lat="44.60865" lon="3.46933">
        <ele>1067.2012</ele>
        <time>2022-01-19T18:01:30Z</time>
      </trkpt>
      <trkpt lat="44.60864" lon="3.46935">
        <ele>1067.571</ele>
        <time>2022-01-19T18:01:31Z</time>
      </trkpt>
      <trkpt lat="44.60864" lon="3.46936">
        <ele>1068.6122</ele>
        <time>2022-01-19T18:01:32Z</time>
      </trkpt>
      <trkpt lat="44.60864" lon="3.46937">
        <ele>1067.9094</ele>
        <time>2022-01-19T18:01:33Z</time>
      </trkpt>
      <trkpt lat="44.60863" lon="3.46939">
        <ele>1068.0415</ele>
        <time>2022-01-19T18:01:34Z</time>
      </trkpt>
      <trkpt lat="44.60862" lon="3.4694">
        <ele>1068.1682</ele>
        <time>2022-01-19T18:01:35Z</time>
      </trkpt>
      <trkpt lat="44.60862" lon="3.46942">
        <ele>1068.3585</ele>
        <time>2022-01-19T18:01:36Z</time>
      </trkpt>
      <trkpt lat="44.60861" lon="3.46943">
        <ele>1068.6333</ele>
        <time>2022-01-19T18:01:37Z</time>
      </trkpt>
      <trkpt lat="44.60861" lon="3.46945">
        <ele>1068.7655</ele>
        <time>2022-01-19T18:01:38Z</time>
      </trkpt>
      <trkpt lat="44.60861" lon="3.46946">
        <ele>1068.8289</ele>
        <time>2022-01-19T18:01:39Z</time>
      </trkpt>
      <trkpt lat="44.60861" lon="3.46947">
        <ele>1068.9609</ele>
        <time>2022-01-19T18:01:40Z</time>
      </trkpt>
      <trkpt lat="44.60861" lon="3.46949">
        <ele>1069.0562</ele>
        <time>2022-01-19T18:01:41Z</time>
      </trkpt>
      <trkpt lat="44.6086" lon="3.4695">
        <ele>1069.0931</ele>
        <time>2022-01-19T18:01:42Z</time>
      </trkpt>
      <trkpt lat="44.6086" lon="3.46952">
        <ele>1069.1565</ele>
        <time>2022-01-19T18:01:43Z</time>
      </trkpt>
      <trkpt lat="44.6086" lon="3.46953">
        <ele>1069.2041</ele>
        <time>2022-01-19T18:01:44Z</time>
      </trkpt>
      <trkpt lat="44.6086" lon="3.46955">
        <ele>1069.2992</ele>
        <time>2022-01-19T18:01:45Z</time>
      </trkpt>
      <trkpt lat="44.60859" lon="3.46956">
        <ele>1069.2516</ele>
        <time>2022-01-19T18:01:46Z</time>
      </trkpt>
      <trkpt lat="44.60859" lon="3.46957">
        <ele>1069.5106</ele>
        <time>2022-01-19T18:01:47Z</time>
      </trkpt>
      <trkpt lat="44.60859" lon="3.46959">
        <ele>1069.4841</ele>
        <time>2022-01-19T18:01:48Z</time>
      </trkpt>
      <trkpt lat="44.60859" lon="3.46961">
        <ele>1069.5211</ele>
        <time>2022-01-19T18:01:49Z</time>
      </trkpt>
      <trkpt lat="44.60859" lon="3.46963">
        <ele>1069.6638</ele>
        <time>2022-01-19T18:01:50Z</time>
      </trkpt>
      <trkpt lat="44.60858" lon="3.46964">
        <ele>1069.6216</ele>
        <time>2022-01-19T18:01:51Z</time>
      </trkpt>
      <trkpt lat="44.60858" lon="3.46965">
        <ele>1069.8065</ele>
        <time>2022-01-19T18:01:52Z</time>
      </trkpt>
      <trkpt lat="44.60859" lon="3.46967">
        <ele>1069.8013</ele>
        <time>2022-01-19T18:01:53Z</time>
      </trkpt>
      <trkpt lat="44.60858" lon="3.46968">
        <ele>1069.8065</ele>
        <time>2022-01-19T18:01:54Z</time>
      </trkpt>
      <trkpt lat="44.60858" lon="3.46969">
        <ele>1069.8435</ele>
        <time>2022-01-19T18:01:55Z</time>
      </trkpt>
      <trkpt lat="44.60858" lon="3.46971">
        <ele>1069.9229</ele>
        <time>2022-01-19T18:01:56Z</time>
      </trkpt>
      <trkpt lat="44.60857" lon="3.46972">
        <ele>1070.0284</ele>
        <time>2022-01-19T18:01:57Z</time>
      </trkpt>
      <trkpt lat="44.60857" lon="3.46973">
        <ele>1069.9651</ele>
        <time>2022-01-19T18:01:58Z</time>
      </trkpt>
      <trkpt lat="44.60856" lon="3.46974">
        <ele>1070.0127</ele>
        <time>2022-01-19T18:01:59Z</time>
      </trkpt>
      <trkpt lat="44.60856" lon="3.46976">
        <ele>1070.1818</ele>
        <time>2022-01-19T18:02:00Z</time>
      </trkpt>
      <trkpt lat="44.60855" lon="3.46977">
        <ele>1070.2292</ele>
        <time>2022-01-19T18:02:01Z</time>
      </trkpt>
      <trkpt lat="44.60855" lon="3.46978">
        <ele>1070.1976</ele>
        <time>2022-01-19T18:02:02Z</time>
      </trkpt>
      <trkpt lat="44.60854" lon="3.4698">
        <ele>1070.3508</ele>
        <time>2022-01-19T18:02:03Z</time>
      </trkpt>
      <trkpt lat="44.60854" lon="3.46981">
        <ele>1070.4618</ele>
        <time>2022-01-19T18:02:04Z</time>
      </trkpt>
      <trkpt lat="44.60853" lon="3.46983">
        <ele>1070.4672</ele>
        <time>2022-01-19T18:02:05Z</time>
      </trkpt>
      <trkpt lat="44.60852" lon="3.46984">
        <ele>1070.6099</ele>
        <time>2022-01-19T18:02:06Z</time>
      </trkpt>
      <trkpt lat="44.60851" lon="3.46986">
        <ele>1070.6626</ele>
        <time>2022-01-19T18:02:07Z</time>
      </trkpt>
      <trkpt lat="44.60851" lon="3.46986">
        <ele>1070.7048</ele>
        <time>2022-01-19T18:02:08Z</time>
      </trkpt>
      <trkpt lat="44.6085" lon="3.46988">
        <ele>1070.7261</ele>
        <time>2022-01-19T18:02:09Z</time>
      </trkpt>
      <trkpt lat="44.60849" lon="3.46989">
        <ele>1070.837</ele>
        <time>2022-01-19T18:02:10Z</time>
      </trkpt>
      <trkpt lat="44.60849" lon="3.4699">
        <ele>1071.0062</ele>
        <time>2022-01-19T18:02:11Z</time>
      </trkpt>
      <trkpt lat="44.60848" lon="3.46992">
        <ele>1071.1066</ele>
        <time>2022-01-19T18:02:12Z</time>
      </trkpt>
      <trkpt lat="44.60848" lon="3.46993">
        <ele>1071.2704</ele>
        <time>2022-01-19T18:02:13Z</time>
      </trkpt>
      <trkpt lat="44.60848" lon="3.46994">
        <ele>1071.3918</ele>
        <time>2022-01-19T18:02:14Z</time>
      </trkpt>
      <trkpt lat="44.60847" lon="3.46995">
        <ele>1071.3866</ele>
        <time>2022-01-19T18:02:15Z</time>
      </trkpt>
      <trkpt lat="44.60847" lon="3.46997">
        <ele>1071.598</ele>
        <time>2022-01-19T18:02:16Z</time>
      </trkpt>
      <trkpt lat="44.60846" lon="3.46998">
        <ele>1071.6509</ele>
        <time>2022-01-19T18:02:17Z</time>
      </trkpt>
      <trkpt lat="44.60846" lon="3.46999">
        <ele>1071.7988</ele>
        <time>2022-01-19T18:02:18Z</time>
      </trkpt>
      <trkpt lat="44.60846" lon="3.47001">
        <ele>1071.8782</ele>
        <time>2022-01-19T18:02:19Z</time>
      </trkpt>
      <trkpt lat="44.60845" lon="3.47002">
        <ele>1072.0366</ele>
        <time>2022-01-19T18:02:20Z</time>
      </trkpt>
      <trkpt lat="44.60845" lon="3.47003">
        <ele>1072.1582</ele>
        <time>2022-01-19T18:02:21Z</time>
      </trkpt>
      <trkpt lat="44.60844" lon="3.47004">
        <ele>1072.2269</ele>
        <time>2022-01-19T18:02:22Z</time>
      </trkpt>
      <trkpt lat="44.60844" lon="3.47006">
        <ele>1072.3906</ele>
        <time>2022-01-19T18:02:23Z</time>
      </trkpt>
      <trkpt lat="44.60844" lon="3.47008">
        <ele>1072.4277</ele>
        <time>2022-01-19T18:02:24Z</time>
      </trkpt>
      <trkpt lat="44.60843" lon="3.47009">
        <ele>1072.5968</ele>
        <time>2022-01-19T18:02:25Z</time>
      </trkpt>
      <trkpt lat="44.60842" lon="3.47011">
        <ele>1072.7924</ele>
        <time>2022-01-19T18:02:26Z</time>
      </trkpt>
      <trkpt lat="44.60841" lon="3.47012">
        <ele>1072.8822</ele>
        <time>2022-01-19T18:02:27Z</time>
      </trkpt>
      <trkpt lat="44.60841" lon="3.47014">
        <ele>1072.9508</ele>
        <time>2022-01-19T18:02:28Z</time>
      </trkpt>
      <trkpt lat="44.6084" lon="3.47015">
        <ele>1073.0513</ele>
        <time>2022-01-19T18:02:29Z</time>
      </trkpt>
      <trkpt lat="44.6084" lon="3.47017">
        <ele>1073.0989</ele>
        <time>2022-01-19T18:02:30Z</time>
      </trkpt>
      <trkpt lat="44.6084" lon="3.47018">
        <ele>1073.2415</ele>
        <time>2022-01-19T18:02:31Z</time>
      </trkpt>
      <trkpt lat="44.60839" lon="3.4702">
        <ele>1073.3314</ele>
        <time>2022-01-19T18:02:32Z</time>
      </trkpt>
      <trkpt lat="44.60839" lon="3.47021">
        <ele>1073.474</ele>
        <time>2022-01-19T18:02:33Z</time>
      </trkpt>
      <trkpt lat="44.60839" lon="3.47023">
        <ele>1073.5428</ele>
        <time>2022-01-19T18:02:34Z</time>
      </trkpt>
      <trkpt lat="44.60838" lon="3.47025">
        <ele>1073.7859</ele>
        <time>2022-01-19T18:02:35Z</time>
      </trkpt>
      <trkpt lat="44.60838" lon="3.47026">
        <ele>1073.7119</ele>
        <time>2022-01-19T18:02:36Z</time>
      </trkpt>
      <trkpt lat="44.60837" lon="3.47027">
        <ele>1073.807</ele>
        <time>2022-01-19T18:02:37Z</time>
      </trkpt>
      <trkpt lat="44.60836" lon="3.47028">
        <ele>1073.8123</ele>
        <time>2022-01-19T18:02:38Z</time>
      </trkpt>
      <trkpt lat="44.60836" lon="3.4703">
        <ele>1073.8599</ele>
        <time>2022-01-19T18:02:39Z</time>
      </trkpt>
      <trkpt lat="44.60836" lon="3.47031">
        <ele>1074.0342</ele>
        <time>2022-01-19T18:02:40Z</time>
      </trkpt>
      <trkpt lat="44.60835" lon="3.47032">
        <ele>1074.1769</ele>
        <time>2022-01-19T18:02:41Z</time>
      </trkpt>
      <trkpt lat="44.60835" lon="3.47034">
        <ele>1074.2139</ele>
        <time>2022-01-19T18:02:42Z</time>
      </trkpt>
      <trkpt lat="44.60834" lon="3.47035">
        <ele>1074.346</ele>
        <time>2022-01-19T18:02:43Z</time>
      </trkpt>
      <trkpt lat="44.60834" lon="3.47036">
        <ele>1074.4464</ele>
        <time>2022-01-19T18:02:44Z</time>
      </trkpt>
      <trkpt lat="44.60833" lon="3.47038">
        <ele>1074.4623</ele>
        <time>2022-01-19T18:02:45Z</time>
      </trkpt>
      <trkpt lat="44.60833" lon="3.47039">
        <ele>1074.5574</ele>
        <time>2022-01-19T18:02:46Z</time>
      </trkpt>
      <trkpt lat="44.60833" lon="3.4704">
        <ele>1074.7001</ele>
        <time>2022-01-19T18:02:47Z</time>
      </trkpt>
      <trkpt lat="44.60832" lon="3.47041">
        <ele>1074.7952</ele>
        <time>2022-01-19T18:02:48Z</time>
      </trkpt>
      <trkpt lat="44.60832" lon="3.47043">
        <ele>1074.9537</ele>
        <time>2022-01-19T18:02:49Z</time>
      </trkpt>
      <trkpt lat="44.60831" lon="3.47045">
        <ele>1075.0753</ele>
        <time>2022-01-19T18:02:50Z</time>
      </trkpt>
      <trkpt lat="44.6083" lon="3.47047">
        <ele>1075.0912</ele>
        <time>2022-01-19T18:02:51Z</time>
      </trkpt>
      <trkpt lat="44.6083" lon="3.47048">
        <ele>1075.2126</ele>
        <time>2022-01-19T18:02:52Z</time>
      </trkpt>
      <trkpt lat="44.6083" lon="3.4705">
        <ele>1075.3766</ele>
        <time>2022-01-19T18:02:53Z</time>
      </trkpt>
      <trkpt lat="44.6083" lon="3.47052">
        <ele>1075.461</ele>
        <time>2022-01-19T18:02:54Z</time>
      </trkpt>
      <trkpt lat="44.60829" lon="3.47053">
        <ele>1075.72</ele>
        <time>2022-01-19T18:02:55Z</time>
      </trkpt>
      <trkpt lat="44.60829" lon="3.47054">
        <ele>1075.8627</ele>
        <time>2022-01-19T18:02:56Z</time>
      </trkpt>
      <trkpt lat="44.60828" lon="3.47055">
        <ele>1075.979</ele>
        <time>2022-01-19T18:02:57Z</time>
      </trkpt>
      <trkpt lat="44.60827" lon="3.47057">
        <ele>1076.0476</ele>
        <time>2022-01-19T18:02:58Z</time>
      </trkpt>
      <trkpt lat="44.60827" lon="3.47058">
        <ele>1076.1903</ele>
        <time>2022-01-19T18:02:59Z</time>
      </trkpt>
      <trkpt lat="44.60827" lon="3.47059">
        <ele>1076.2538</ele>
        <time>2022-01-19T18:03:00Z</time>
      </trkpt>
      <trkpt lat="44.60826" lon="3.47061">
        <ele>1076.4863</ele>
        <time>2022-01-19T18:03:01Z</time>
      </trkpt>
      <trkpt lat="44.60826" lon="3.47062">
        <ele>1076.7241</ele>
        <time>2022-01-19T18:03:02Z</time>
      </trkpt>
      <trkpt lat="44.60826" lon="3.47064">
        <ele>1076.9038</ele>
        <time>2022-01-19T18:03:03Z</time>
      </trkpt>
      <trkpt lat="44.60826" lon="3.47066">
        <ele>1076.9937</ele>
        <time>2022-01-19T18:03:04Z</time>
      </trkpt>
      <trkpt lat="44.60825" lon="3.47067">
        <ele>1077.1838</ele>
        <time>2022-01-19T18:03:05Z</time>
      </trkpt>
      <trkpt lat="44.60825" lon="3.47069">
        <ele>1077.3054</ele>
        <time>2022-01-19T18:03:06Z</time>
      </trkpt>
      <trkpt lat="44.60825" lon="3.47071">
        <ele>1077.3424</ele>
        <time>2022-01-19T18:03:07Z</time>
      </trkpt>
      <trkpt lat="44.60824" lon="3.47073">
        <ele>1077.5908</ele>
        <time>2022-01-19T18:03:08Z</time>
      </trkpt>
      <trkpt lat="44.60824" lon="3.47074">
        <ele>1077.7388</ele>
        <time>2022-01-19T18:03:09Z</time>
      </trkpt>
      <trkpt lat="44.60824" lon="3.47075">
        <ele>1077.8127</ele>
        <time>2022-01-19T18:03:10Z</time>
      </trkpt>
      <trkpt lat="44.60823" lon="3.47077">
        <ele>1078.0135</ele>
        <time>2022-01-19T18:03:11Z</time>
      </trkpt>
      <trkpt lat="44.60823" lon="3.47078">
        <ele>1078.1774</ele>
        <time>2022-01-19T18:03:12Z</time>
      </trkpt>
      <trkpt lat="44.60823" lon="3.47079">
        <ele>1078.262</ele>
        <time>2022-01-19T18:03:13Z</time>
      </trkpt>
      <trkpt lat="44.60822" lon="3.47081">
        <ele>1078.3677</ele>
        <time>2022-01-19T18:03:14Z</time>
      </trkpt>
      <trkpt lat="44.60822" lon="3.47083">
        <ele>1078.5367</ele>
        <time>2022-01-19T18:03:15Z</time>
      </trkpt>
      <trkpt lat="44.60821" lon="3.47084">
        <ele>1078.8538</ele>
        <time>2022-01-19T18:03:16Z</time>
      </trkpt>
      <trkpt lat="44.6082" lon="3.47086">
        <ele>1078.8696</ele>
        <time>2022-01-19T18:03:17Z</time>
      </trkpt>
      <trkpt lat="44.6082" lon="3.47087">
        <ele>1079.0123</ele>
        <time>2022-01-19T18:03:18Z</time>
      </trkpt>
      <trkpt lat="44.6082" lon="3.47089">
        <ele>1079.192</ele>
        <time>2022-01-19T18:03:19Z</time>
      </trkpt>
      <trkpt lat="44.6082" lon="3.4709">
        <ele>1079.5461</ele>
        <time>2022-01-19T18:03:20Z</time>
      </trkpt>
      <trkpt lat="44.60819" lon="3.47091">
        <ele>1079.5831</ele>
        <time>2022-01-19T18:03:21Z</time>
      </trkpt>
      <trkpt lat="44.60819" lon="3.47092">
        <ele>1079.7892</ele>
        <time>2022-01-19T18:03:22Z</time>
      </trkpt>
      <trkpt lat="44.60818" lon="3.47094">
        <ele>1079.9583</ele>
        <time>2022-01-19T18:03:23Z</time>
      </trkpt>
      <trkpt lat="44.60817" lon="3.47096">
        <ele>1080.0852</ele>
        <time>2022-01-19T18:03:24Z</time>
      </trkpt>
      <trkpt lat="44.60817" lon="3.47097">
        <ele>1080.323</ele>
        <time>2022-01-19T18:03:25Z</time>
      </trkpt>
      <trkpt lat="44.60816" lon="3.47098">
        <ele>1080.5449</ele>
        <time>2022-01-19T18:03:26Z</time>
      </trkpt>
      <trkpt lat="44.60815" lon="3.47099">
        <ele>1080.7087</ele>
        <time>2022-01-19T18:03:27Z</time>
      </trkpt>
      <trkpt lat="44.60815" lon="3.471">
        <ele>1080.9307</ele>
        <time>2022-01-19T18:03:28Z</time>
      </trkpt>
      <trkpt lat="44.60814" lon="3.47101">
        <ele>1081.0892</ele>
        <time>2022-01-19T18:03:29Z</time>
      </trkpt>
      <trkpt lat="44.60814" lon="3.47102">
        <ele>1081.3376</ele>
        <time>2022-01-19T18:03:30Z</time>
      </trkpt>
      <trkpt lat="44.60813" lon="3.47103">
        <ele>1081.6229</ele>
        <time>2022-01-19T18:03:31Z</time>
      </trkpt>
      <trkpt lat="44.60813" lon="3.47104">
        <ele>1081.7023</ele>
        <time>2022-01-19T18:03:32Z</time>
      </trkpt>
      <trkpt lat="44.60812" lon="3.47105">
        <ele>1081.8713</ele>
        <time>2022-01-19T18:03:33Z</time>
      </trkpt>
      <trkpt lat="44.60812" lon="3.47107">
        <ele>1082.0828</ele>
        <time>2022-01-19T18:03:34Z</time>
      </trkpt>
      <trkpt lat="44.60811" lon="3.47108">
        <ele>1082.4156</ele>
        <time>2022-01-19T18:03:35Z</time>
      </trkpt>
      <trkpt lat="44.60811" lon="3.47109">
        <ele>1082.5795</ele>
        <time>2022-01-19T18:03:36Z</time>
      </trkpt>
      <trkpt lat="44.6081" lon="3.4711">
        <ele>1082.7803</ele>
        <time>2022-01-19T18:03:37Z</time>
      </trkpt>
      <trkpt lat="44.6081" lon="3.47111">
        <ele>1083.0709</ele>
        <time>2022-01-19T18:03:38Z</time>
      </trkpt>
      <trkpt lat="44.60809" lon="3.47112">
        <ele>1083.1661</ele>
        <time>2022-01-19T18:03:39Z</time>
      </trkpt>
      <trkpt lat="44.60809" lon="3.47114">
        <ele>1083.3774</ele>
        <time>2022-01-19T18:03:40Z</time>
      </trkpt>
      <trkpt lat="44.60809" lon="3.47115">
        <ele>1083.4198</ele>
        <time>2022-01-19T18:03:41Z</time>
      </trkpt>
      <trkpt lat="44.60808" lon="3.47116">
        <ele>1083.6047</ele>
        <time>2022-01-19T18:03:42Z</time>
      </trkpt>
      <trkpt lat="44.60808" lon="3.47118">
        <ele>1083.9006</ele>
        <time>2022-01-19T18:03:43Z</time>
      </trkpt>
      <trkpt lat="44.60807" lon="3.47119">
        <ele>1084.0275</ele>
        <time>2022-01-19T18:03:44Z</time>
      </trkpt>
      <trkpt lat="44.60807" lon="3.4712">
        <ele>1084.2653</ele>
        <time>2022-01-19T18:03:45Z</time>
      </trkpt>
      <trkpt lat="44.60806" lon="3.47121">
        <ele>1084.3446</ele>
        <time>2022-01-19T18:03:46Z</time>
      </trkpt>
      <trkpt lat="44.60806" lon="3.47122">
        <ele>1084.6194</ele>
        <time>2022-01-19T18:03:47Z</time>
      </trkpt>
      <trkpt lat="44.60806" lon="3.47123">
        <ele>1084.8942</ele>
        <time>2022-01-19T18:03:48Z</time>
      </trkpt>
      <trkpt lat="44.60805" lon="3.47125">
        <ele>1085.1848</ele>
        <time>2022-01-19T18:03:49Z</time>
      </trkpt>
      <trkpt lat="44.60805" lon="3.47126">
        <ele>1085.2642</ele>
        <time>2022-01-19T18:03:50Z</time>
      </trkpt>
      <trkpt lat="44.60805" lon="3.47127">
        <ele>1085.3645</ele>
        <time>2022-01-19T18:03:51Z</time>
      </trkpt>
      <trkpt lat="44.60804" lon="3.47128">
        <ele>1085.5018</ele>
        <time>2022-01-19T18:03:52Z</time>
      </trkpt>
      <trkpt lat="44.60804" lon="3.4713">
        <ele>1085.6393</ele>
        <time>2022-01-19T18:03:53Z</time>
      </trkpt>
      <trkpt lat="44.60803" lon="3.47131">
        <ele>1085.8455</ele>
        <time>2022-01-19T18:03:54Z</time>
      </trkpt>
      <trkpt lat="44.60803" lon="3.47132">
        <ele>1086.1625</ele>
        <time>2022-01-19T18:03:55Z</time>
      </trkpt>
      <trkpt lat="44.60803" lon="3.47134">
        <ele>1086.2047</ele>
        <time>2022-01-19T18:03:56Z</time>
      </trkpt>
      <trkpt lat="44.60802" lon="3.47135">
        <ele>1086.4795</ele>
        <time>2022-01-19T18:03:57Z</time>
      </trkpt>
      <trkpt lat="44.60802" lon="3.47137">
        <ele>1086.6382</ele>
        <time>2022-01-19T18:03:58Z</time>
      </trkpt>
      <trkpt lat="44.60801" lon="3.47138">
        <ele>1086.8284</ele>
        <time>2022-01-19T18:03:59Z</time>
      </trkpt>
      <trkpt lat="44.60801" lon="3.4714">
        <ele>1087.008</ele>
        <time>2022-01-19T18:04:00Z</time>
      </trkpt>
      <trkpt lat="44.60801" lon="3.47141">
        <ele>1087.2828</ele>
        <time>2022-01-19T18:04:01Z</time>
      </trkpt>
      <trkpt lat="44.608" lon="3.47143">
        <ele>1087.4044</ele>
        <time>2022-01-19T18:04:02Z</time>
      </trkpt>
      <trkpt lat="44.608" lon="3.47144">
        <ele>1087.4414</ele>
        <time>2022-01-19T18:04:03Z</time>
      </trkpt>
      <trkpt lat="44.60799" lon="3.47145">
        <ele>1087.5576</ele>
        <time>2022-01-19T18:04:04Z</time>
      </trkpt>
      <trkpt lat="44.60799" lon="3.47147">
        <ele>1087.7902</ele>
        <time>2022-01-19T18:04:05Z</time>
      </trkpt>
      <trkpt lat="44.60798" lon="3.47148">
        <ele>1087.9646</ele>
        <time>2022-01-19T18:04:06Z</time>
      </trkpt>
      <trkpt lat="44.60798" lon="3.47149">
        <ele>1088.1125</ele>
        <time>2022-01-19T18:04:07Z</time>
      </trkpt>
      <trkpt lat="44.60797" lon="3.4715">
        <ele>1088.2499</ele>
        <time>2022-01-19T18:04:08Z</time>
      </trkpt>
      <trkpt lat="44.60797" lon="3.47151">
        <ele>1088.3345</ele>
        <time>2022-01-19T18:04:09Z</time>
      </trkpt>
      <trkpt lat="44.60796" lon="3.47152">
        <ele>1088.53</ele>
        <time>2022-01-19T18:04:10Z</time>
      </trkpt>
      <trkpt lat="44.60796" lon="3.47153">
        <ele>1088.6516</ele>
        <time>2022-01-19T18:04:11Z</time>
      </trkpt>
      <trkpt lat="44.60796" lon="3.47155">
        <ele>1088.9316</ele>
        <time>2022-01-19T18:04:12Z</time>
      </trkpt>
      <trkpt lat="44.60795" lon="3.47156">
        <ele>1089.1748</ele>
        <time>2022-01-19T18:04:13Z</time>
      </trkpt>
      <trkpt lat="44.60794" lon="3.47157">
        <ele>1089.2434</ele>
        <time>2022-01-19T18:04:14Z</time>
      </trkpt>
      <trkpt lat="44.60794" lon="3.47158">
        <ele>1089.4283</ele>
        <time>2022-01-19T18:04:15Z</time>
      </trkpt>
      <trkpt lat="44.60793" lon="3.47159">
        <ele>1089.5552</ele>
        <time>2022-01-19T18:04:16Z</time>
      </trkpt>
      <trkpt lat="44.60793" lon="3.47161">
        <ele>1089.6345</ele>
        <time>2022-01-19T18:04:17Z</time>
      </trkpt>
      <trkpt lat="44.60792" lon="3.47161">
        <ele>1089.83</ele>
        <time>2022-01-19T18:04:18Z</time>
      </trkpt>
      <trkpt lat="44.60792" lon="3.47163">
        <ele>1089.9515</ele>
        <time>2022-01-19T18:04:19Z</time>
      </trkpt>
      <trkpt lat="44.60791" lon="3.47164">
        <ele>1090.0679</ele>
        <time>2022-01-19T18:04:20Z</time>
      </trkpt>
      <trkpt lat="44.60791" lon="3.47166">
        <ele>1090.1682</ele>
        <time>2022-01-19T18:04:21Z</time>
      </trkpt>
      <trkpt lat="44.6079" lon="3.47167">
        <ele>1090.295</ele>
        <time>2022-01-19T18:04:22Z</time>
      </trkpt>
      <trkpt lat="44.6079" lon="3.47169">
        <ele>1090.3849</ele>
        <time>2022-01-19T18:04:23Z</time>
      </trkpt>
      <trkpt lat="44.60789" lon="3.4717">
        <ele>1090.5382</ele>
        <time>2022-01-19T18:04:24Z</time>
      </trkpt>
      <trkpt lat="44.60788" lon="3.47172">
        <ele>1090.7865</ele>
        <time>2022-01-19T18:04:25Z</time>
      </trkpt>
      <trkpt lat="44.60788" lon="3.47173">
        <ele>1090.8552</ele>
        <time>2022-01-19T18:04:26Z</time>
      </trkpt>
      <trkpt lat="44.60787" lon="3.47174">
        <ele>1091.0667</ele>
        <time>2022-01-19T18:04:27Z</time>
      </trkpt>
      <trkpt lat="44.60787" lon="3.47176">
        <ele>1091.2146</ele>
        <time>2022-01-19T18:04:28Z</time>
      </trkpt>
      <trkpt lat="44.60786" lon="3.47177">
        <ele>1091.3573</ele>
        <time>2022-01-19T18:04:29Z</time>
      </trkpt>
      <trkpt lat="44.60786" lon="3.47179">
        <ele>1091.3467</ele>
        <time>2022-01-19T18:04:30Z</time>
      </trkpt>
      <trkpt lat="44.60785" lon="3.4718">
        <ele>1091.4578</ele>
        <time>2022-01-19T18:04:31Z</time>
      </trkpt>
      <trkpt lat="44.60785" lon="3.47182">
        <ele>1091.6216</ele>
        <time>2022-01-19T18:04:32Z</time>
      </trkpt>
      <trkpt lat="44.60785" lon="3.47183">
        <ele>1091.8065</ele>
        <time>2022-01-19T18:04:33Z</time>
      </trkpt>
      <trkpt lat="44.60785" lon="3.47185">
        <ele>1091.8118</ele>
        <time>2022-01-19T18:04:34Z</time>
      </trkpt>
      <trkpt lat="44.60784" lon="3.47186">
        <ele>1091.9175</ele>
        <time>2022-01-19T18:04:35Z</time>
      </trkpt>
      <trkpt lat="44.60784" lon="3.47187">
        <ele>1092.1129</ele>
        <time>2022-01-19T18:04:36Z</time>
      </trkpt>
      <trkpt lat="44.60783" lon="3.47189">
        <ele>1092.1288</ele>
        <time>2022-01-19T18:04:37Z</time>
      </trkpt>
      <trkpt lat="44.60782" lon="3.4719">
        <ele>1092.224</ele>
        <time>2022-01-19T18:04:38Z</time>
      </trkpt>
      <trkpt lat="44.60781" lon="3.47191">
        <ele>1092.3402</ele>
        <time>2022-01-19T18:04:39Z</time>
      </trkpt>
      <trkpt lat="44.6078" lon="3.47192">
        <ele>1092.4407</ele>
        <time>2022-01-19T18:04:40Z</time>
      </trkpt>
      <trkpt lat="44.6078" lon="3.47193">
        <ele>1092.6837</ele>
        <time>2022-01-19T18:04:41Z</time>
      </trkpt>
      <trkpt lat="44.60779" lon="3.47194">
        <ele>1092.7418</ele>
        <time>2022-01-19T18:04:42Z</time>
      </trkpt>
      <trkpt lat="44.60778" lon="3.47196">
        <ele>1092.874</ele>
        <time>2022-01-19T18:04:43Z</time>
      </trkpt>
      <trkpt lat="44.60778" lon="3.47197">
        <ele>1092.8951</ele>
        <time>2022-01-19T18:04:44Z</time>
      </trkpt>
      <trkpt lat="44.60778" lon="3.47199">
        <ele>1093.1171</ele>
        <time>2022-01-19T18:04:45Z</time>
      </trkpt>
      <trkpt lat="44.60777" lon="3.47199">
        <ele>1093.3179</ele>
        <time>2022-01-19T18:04:46Z</time>
      </trkpt>
      <trkpt lat="44.60777" lon="3.47201">
        <ele>1093.4077</ele>
        <time>2022-01-19T18:04:47Z</time>
      </trkpt>
      <trkpt lat="44.60777" lon="3.47202">
        <ele>1093.5028</ele>
        <time>2022-01-19T18:04:48Z</time>
      </trkpt>
      <trkpt lat="44.60776" lon="3.47203">
        <ele>1093.5715</ele>
        <time>2022-01-19T18:04:49Z</time>
      </trkpt>
      <trkpt lat="44.60776" lon="3.47204">
        <ele>1093.7618</ele>
        <time>2022-01-19T18:04:50Z</time>
      </trkpt>
      <trkpt lat="44.60775" lon="3.47206">
        <ele>1093.8252</ele>
        <time>2022-01-19T18:04:51Z</time>
      </trkpt>
      <trkpt lat="44.60775" lon="3.47207">
        <ele>1093.9098</ele>
        <time>2022-01-19T18:04:52Z</time>
      </trkpt>
      <trkpt lat="44.60774" lon="3.47209">
        <ele>1093.989</ele>
        <time>2022-01-19T18:04:53Z</time>
      </trkpt>
      <trkpt lat="44.60773" lon="3.4721">
        <ele>1094.0471</ele>
        <time>2022-01-19T18:04:54Z</time>
      </trkpt>
      <trkpt lat="44.60772" lon="3.47211">
        <ele>1094.0947</ele>
        <time>2022-01-19T18:04:55Z</time>
      </trkpt>
      <trkpt lat="44.60772" lon="3.47212">
        <ele>1094.2004</ele>
        <time>2022-01-19T18:04:56Z</time>
      </trkpt>
      <trkpt lat="44.60771" lon="3.47213">
        <ele>1094.3325</ele>
        <time>2022-01-19T18:04:57Z</time>
      </trkpt>
      <trkpt lat="44.6077" lon="3.47214">
        <ele>1094.3907</ele>
        <time>2022-01-19T18:04:58Z</time>
      </trkpt>
      <trkpt lat="44.60769" lon="3.47216">
        <ele>1094.5175</ele>
        <time>2022-01-19T18:04:59Z</time>
      </trkpt>
      <trkpt lat="44.60769" lon="3.47218">
        <ele>1094.6971</ele>
        <time>2022-01-19T18:05:00Z</time>
      </trkpt>
      <trkpt lat="44.60768" lon="3.47219">
        <ele>1094.9033</ele>
        <time>2022-01-19T18:05:01Z</time>
      </trkpt>
      <trkpt lat="44.60767" lon="3.4722">
        <ele>1095.12</ele>
        <time>2022-01-19T18:05:02Z</time>
      </trkpt>
      <trkpt lat="44.60767" lon="3.47222">
        <ele>1095.2256</ele>
        <time>2022-01-19T18:05:03Z</time>
      </trkpt>
      <trkpt lat="44.60766" lon="3.47223">
        <ele>1095.4054</ele>
        <time>2022-01-19T18:05:04Z</time>
      </trkpt>
      <trkpt lat="44.60766" lon="3.47223">
        <ele>1095.5269</ele>
        <time>2022-01-19T18:05:05Z</time>
      </trkpt>
      <trkpt lat="44.60765" lon="3.47225">
        <ele>1095.7172</ele>
        <time>2022-01-19T18:05:06Z</time>
      </trkpt>
      <trkpt lat="44.60764" lon="3.47225">
        <ele>1095.7858</ele>
        <time>2022-01-19T18:05:07Z</time>
      </trkpt>
      <trkpt lat="44.60764" lon="3.47226">
        <ele>1095.9285</ele>
        <time>2022-01-19T18:05:08Z</time>
      </trkpt>
      <trkpt lat="44.60763" lon="3.47227">
        <ele>1096.2404</ele>
        <time>2022-01-19T18:05:09Z</time>
      </trkpt>
      <trkpt lat="44.60762" lon="3.47228">
        <ele>1096.3672</ele>
        <time>2022-01-19T18:05:10Z</time>
      </trkpt>
      <trkpt lat="44.60762" lon="3.4723">
        <ele>1096.5626</ele>
        <time>2022-01-19T18:05:11Z</time>
      </trkpt>
      <trkpt lat="44.60761" lon="3.47231">
        <ele>1096.716</ele>
        <time>2022-01-19T18:05:12Z</time>
      </trkpt>
      <trkpt lat="44.6076" lon="3.47232">
        <ele>1096.8058</ele>
        <time>2022-01-19T18:05:13Z</time>
      </trkpt>
      <trkpt lat="44.60759" lon="3.47234">
        <ele>1096.9009</ele>
        <time>2022-01-19T18:05:14Z</time>
      </trkpt>
      <trkpt lat="44.60759" lon="3.47235">
        <ele>1097.0858</ele>
        <time>2022-01-19T18:05:15Z</time>
      </trkpt>
      <trkpt lat="44.60759" lon="3.47236">
        <ele>1097.2233</ele>
        <time>2022-01-19T18:05:16Z</time>
      </trkpt>
      <trkpt lat="44.60758" lon="3.47237">
        <ele>1097.2972</ele>
        <time>2022-01-19T18:05:17Z</time>
      </trkpt>
      <trkpt lat="44.60757" lon="3.47239">
        <ele>1097.4241</ele>
        <time>2022-01-19T18:05:18Z</time>
      </trkpt>
      <trkpt lat="44.60757" lon="3.47241">
        <ele>1097.6407</ele>
        <time>2022-01-19T18:05:19Z</time>
      </trkpt>
      <trkpt lat="44.60757" lon="3.47242">
        <ele>1097.8204</ele>
        <time>2022-01-19T18:05:20Z</time>
      </trkpt>
      <trkpt lat="44.60757" lon="3.47243">
        <ele>1097.9631</ele>
        <time>2022-01-19T18:05:21Z</time>
      </trkpt>
      <trkpt lat="44.60757" lon="3.47245">
        <ele>1098.0476</ele>
        <time>2022-01-19T18:05:22Z</time>
      </trkpt>
      <trkpt lat="44.60756" lon="3.47246">
        <ele>1098.2749</ele>
        <time>2022-01-19T18:05:23Z</time>
      </trkpt>
      <trkpt lat="44.60756" lon="3.47247">
        <ele>1098.5497</ele>
        <time>2022-01-19T18:05:24Z</time>
      </trkpt>
      <trkpt lat="44.60755" lon="3.47248">
        <ele>1098.6078</ele>
        <time>2022-01-19T18:05:25Z</time>
      </trkpt>
      <trkpt lat="44.60754" lon="3.47249">
        <ele>1098.8403</ele>
        <time>2022-01-19T18:05:26Z</time>
      </trkpt>
      <trkpt lat="44.60754" lon="3.4725">
        <ele>1099.094</ele>
        <time>2022-01-19T18:05:27Z</time>
      </trkpt>
      <trkpt lat="44.60754" lon="3.47252">
        <ele>1099.1469</ele>
        <time>2022-01-19T18:05:28Z</time>
      </trkpt>
      <trkpt lat="44.60754" lon="3.47253">
        <ele>1099.3053</ele>
        <time>2022-01-19T18:05:29Z</time>
      </trkpt>
      <trkpt lat="44.60753" lon="3.47254">
        <ele>1099.4799</ele>
        <time>2022-01-19T18:05:30Z</time>
      </trkpt>
      <trkpt lat="44.60753" lon="3.47255">
        <ele>1099.6278</ele>
        <time>2022-01-19T18:05:31Z</time>
      </trkpt>
      <trkpt lat="44.60753" lon="3.47257">
        <ele>1099.9237</ele>
        <time>2022-01-19T18:05:32Z</time>
      </trkpt>
      <trkpt lat="44.60752" lon="3.47259">
        <ele>1099.9766</ele>
        <time>2022-01-19T18:05:33Z</time>
      </trkpt>
      <trkpt lat="44.60752" lon="3.4726">
        <ele>1100.0029</ele>
        <time>2022-01-19T18:05:34Z</time>
      </trkpt>
      <trkpt lat="44.60752" lon="3.47261">
        <ele>1100.1191</ele>
        <time>2022-01-19T18:05:35Z</time>
      </trkpt>
      <trkpt lat="44.60752" lon="3.47262">
        <ele>1100.3042</ele>
        <time>2022-01-19T18:05:36Z</time>
      </trkpt>
      <trkpt lat="44.60751" lon="3.47263">
        <ele>1100.3782</ele>
        <time>2022-01-19T18:05:37Z</time>
      </trkpt>
      <trkpt lat="44.60751" lon="3.47264">
        <ele>1100.5367</ele>
        <time>2022-01-19T18:05:38Z</time>
      </trkpt>
      <trkpt lat="44.60751" lon="3.47266">
        <ele>1101.4615</ele>
        <time>2022-01-19T18:05:39Z</time>
      </trkpt>
      <trkpt lat="44.60751" lon="3.47267">
        <ele>1100.8115</ele>
        <time>2022-01-19T18:05:40Z</time>
      </trkpt>
      <trkpt lat="44.60751" lon="3.47269">
        <ele>1100.9119</ele>
        <time>2022-01-19T18:05:41Z</time>
      </trkpt>
      <trkpt lat="44.60751" lon="3.47271">
        <ele>1100.8696</ele>
        <time>2022-01-19T18:05:42Z</time>
      </trkpt>
      <trkpt lat="44.6075" lon="3.47273">
        <ele>1100.9806</ele>
        <time>2022-01-19T18:05:43Z</time>
      </trkpt>
      <trkpt lat="44.6075" lon="3.47274">
        <ele>1101.1603</ele>
        <time>2022-01-19T18:05:44Z</time>
      </trkpt>
      <trkpt lat="44.60749" lon="3.47276">
        <ele>1101.3241</ele>
        <time>2022-01-19T18:05:45Z</time>
      </trkpt>
      <trkpt lat="44.60749" lon="3.47277">
        <ele>1101.3506</ele>
        <time>2022-01-19T18:05:46Z</time>
      </trkpt>
      <trkpt lat="44.60749" lon="3.47278">
        <ele>1101.1603</ele>
        <time>2022-01-19T18:05:47Z</time>
      </trkpt>
      <trkpt lat="44.60749" lon="3.47279">
        <ele>1101.4827</ele>
        <time>2022-01-19T18:05:48Z</time>
      </trkpt>
      <trkpt lat="44.60748" lon="3.47281">
        <ele>1101.6095</ele>
        <time>2022-01-19T18:05:49Z</time>
      </trkpt>
      <trkpt lat="44.60748" lon="3.47282">
        <ele>1101.5725</ele>
        <time>2022-01-19T18:05:50Z</time>
      </trkpt>
      <trkpt lat="44.60748" lon="3.47284">
        <ele>1101.6042</ele>
        <time>2022-01-19T18:05:51Z</time>
      </trkpt>
      <trkpt lat="44.60748" lon="3.47285">
        <ele>1101.7205</ele>
        <time>2022-01-19T18:05:52Z</time>
      </trkpt>
      <trkpt lat="44.60747" lon="3.47287">
        <ele>1101.8367</ele>
        <time>2022-01-19T18:05:53Z</time>
      </trkpt>
      <trkpt lat="44.60746" lon="3.47288">
        <ele>1101.9001</ele>
        <time>2022-01-19T18:05:54Z</time>
      </trkpt>
      <trkpt lat="44.60746" lon="3.4729">
        <ele>1101.8314</ele>
        <time>2022-01-19T18:05:55Z</time>
      </trkpt>
      <trkpt lat="44.60746" lon="3.47292">
        <ele>1101.9424</ele>
        <time>2022-01-19T18:05:56Z</time>
      </trkpt>
      <trkpt lat="44.60745" lon="3.47293">
        <ele>1102.064</ele>
        <time>2022-01-19T18:05:57Z</time>
      </trkpt>
      <trkpt lat="44.60745" lon="3.47295">
        <ele>1102.196</ele>
        <time>2022-01-19T18:05:58Z</time>
      </trkpt>
      <trkpt lat="44.60745" lon="3.47296">
        <ele>1102.2965</ele>
        <time>2022-01-19T18:05:59Z</time>
      </trkpt>
      <trkpt lat="44.60744" lon="3.47298">
        <ele>1102.3335</ele>
        <time>2022-01-19T18:06:00Z</time>
      </trkpt>
      <trkpt lat="44.60744" lon="3.47299">
        <ele>1102.3916</ele>
        <time>2022-01-19T18:06:01Z</time>
      </trkpt>
      <trkpt lat="44.60743" lon="3.473">
        <ele>1102.5607</ele>
        <time>2022-01-19T18:06:02Z</time>
      </trkpt>
      <trkpt lat="44.60743" lon="3.47302">
        <ele>1102.6083</ele>
        <time>2022-01-19T18:06:03Z</time>
      </trkpt>
      <trkpt lat="44.60743" lon="3.47304">
        <ele>1102.6135</ele>
        <time>2022-01-19T18:06:04Z</time>
      </trkpt>
      <trkpt lat="44.60742" lon="3.47305">
        <ele>1102.7087</ele>
        <time>2022-01-19T18:06:05Z</time>
      </trkpt>
      <trkpt lat="44.60741" lon="3.47307">
        <ele>1102.8884</ele>
        <time>2022-01-19T18:06:06Z</time>
      </trkpt>
      <trkpt lat="44.60741" lon="3.47309">
        <ele>1102.9307</ele>
        <time>2022-01-19T18:06:07Z</time>
      </trkpt>
      <trkpt lat="44.60741" lon="3.4731">
        <ele>1102.9834</ele>
        <time>2022-01-19T18:06:08Z</time>
      </trkpt>
      <trkpt lat="44.6074" lon="3.47312">
        <ele>1103.0786</ele>
        <time>2022-01-19T18:06:09Z</time>
      </trkpt>
      <trkpt lat="44.6074" lon="3.47313">
        <ele>1103.2318</ele>
        <time>2022-01-19T18:06:10Z</time>
      </trkpt>
      <trkpt lat="44.60739" lon="3.47316">
        <ele>1103.2794</ele>
        <time>2022-01-19T18:06:11Z</time>
      </trkpt>
      <trkpt lat="44.60739" lon="3.47318">
        <ele>1103.3798</ele>
        <time>2022-01-19T18:06:12Z</time>
      </trkpt>
      <trkpt lat="44.60738" lon="3.47319">
        <ele>1103.4539</ele>
        <time>2022-01-19T18:06:13Z</time>
      </trkpt>
      <trkpt lat="44.60738" lon="3.4732">
        <ele>1103.6969</ele>
        <time>2022-01-19T18:06:14Z</time>
      </trkpt>
      <trkpt lat="44.60738" lon="3.47321">
        <ele>1103.6917</ele>
        <time>2022-01-19T18:06:15Z</time>
      </trkpt>
      <trkpt lat="44.60738" lon="3.47323">
        <ele>1103.8079</ele>
        <time>2022-01-19T18:06:16Z</time>
      </trkpt>
      <trkpt lat="44.60738" lon="3.47324">
        <ele>1103.8185</ele>
        <time>2022-01-19T18:06:17Z</time>
      </trkpt>
      <trkpt lat="44.60738" lon="3.47326">
        <ele>1103.9242</ele>
        <time>2022-01-19T18:06:18Z</time>
      </trkpt>
      <trkpt lat="44.60737" lon="3.47328">
        <ele>1104.0721</ele>
        <time>2022-01-19T18:06:19Z</time>
      </trkpt>
      <trkpt lat="44.60737" lon="3.47329">
        <ele>1104.236</ele>
        <time>2022-01-19T18:06:20Z</time>
      </trkpt>
      <trkpt lat="44.60737" lon="3.47331">
        <ele>1104.1884</ele>
        <time>2022-01-19T18:06:21Z</time>
      </trkpt>
      <trkpt lat="44.60736" lon="3.47333">
        <ele>1104.236</ele>
        <time>2022-01-19T18:06:22Z</time>
      </trkpt>
      <trkpt lat="44.60736" lon="3.47334">
        <ele>1104.3152</ele>
        <time>2022-01-19T18:06:23Z</time>
      </trkpt>
      <trkpt lat="44.60735" lon="3.47336">
        <ele>1104.3945</ele>
        <time>2022-01-19T18:06:24Z</time>
      </trkpt>
      <trkpt lat="44.60735" lon="3.47338">
        <ele>1104.4368</ele>
        <time>2022-01-19T18:06:25Z</time>
      </trkpt>
      <trkpt lat="44.60735" lon="3.4734">
        <ele>1104.6006</ele>
        <time>2022-01-19T18:06:26Z</time>
      </trkpt>
      <trkpt lat="44.60735" lon="3.47342">
        <ele>1104.7592</ele>
        <time>2022-01-19T18:06:27Z</time>
      </trkpt>
      <trkpt lat="44.60735" lon="3.47343">
        <ele>1104.6481</ele>
        <time>2022-01-19T18:06:28Z</time>
      </trkpt>
      <trkpt lat="44.60735" lon="3.47345">
        <ele>1104.7115</ele>
        <time>2022-01-19T18:06:29Z</time>
      </trkpt>
      <trkpt lat="44.60734" lon="3.47347">
        <ele>1105.0022</ele>
        <time>2022-01-19T18:06:30Z</time>
      </trkpt>
      <trkpt lat="44.60733" lon="3.47349">
        <ele>1105.1185</ele>
        <time>2022-01-19T18:06:31Z</time>
      </trkpt>
      <trkpt lat="44.60733" lon="3.47351">
        <ele>1105.0603</ele>
        <time>2022-01-19T18:06:32Z</time>
      </trkpt>
      <trkpt lat="44.60733" lon="3.47353">
        <ele>1105.2294</ele>
        <time>2022-01-19T18:06:33Z</time>
      </trkpt>
      <trkpt lat="44.60732" lon="3.47354">
        <ele>1105.3405</ele>
        <time>2022-01-19T18:06:34Z</time>
      </trkpt>
      <trkpt lat="44.60733" lon="3.47355">
        <ele>1105.4725</ele>
        <time>2022-01-19T18:06:35Z</time>
      </trkpt>
      <trkpt lat="44.60732" lon="3.47357">
        <ele>1105.6152</ele>
        <time>2022-01-19T18:06:36Z</time>
      </trkpt>
      <trkpt lat="44.60732" lon="3.47358">
        <ele>1105.6787</ele>
        <time>2022-01-19T18:06:37Z</time>
      </trkpt>
      <trkpt lat="44.60732" lon="3.4736">
        <ele>1105.8689</ele>
        <time>2022-01-19T18:06:38Z</time>
      </trkpt>
      <trkpt lat="44.60731" lon="3.47361">
        <ele>1105.8689</ele>
        <time>2022-01-19T18:06:39Z</time>
      </trkpt>
      <trkpt lat="44.60731" lon="3.47363">
        <ele>1105.9376</ele>
        <time>2022-01-19T18:06:40Z</time>
      </trkpt>
      <trkpt lat="44.6073" lon="3.47365">
        <ele>1106.112</ele>
        <time>2022-01-19T18:06:41Z</time>
      </trkpt>
      <trkpt lat="44.6073" lon="3.47366">
        <ele>1106.1173</ele>
        <time>2022-01-19T18:06:42Z</time>
      </trkpt>
      <trkpt lat="44.6073" lon="3.47368">
        <ele>1106.1648</ele>
        <time>2022-01-19T18:06:43Z</time>
      </trkpt>
      <trkpt lat="44.60729" lon="3.47369">
        <ele>1106.408</ele>
        <time>2022-01-19T18:06:44Z</time>
      </trkpt>
      <trkpt lat="44.60729" lon="3.4737">
        <ele>1106.4502</ele>
        <time>2022-01-19T18:06:45Z</time>
      </trkpt>
      <trkpt lat="44.60728" lon="3.47372">
        <ele>1106.5559</ele>
        <time>2022-01-19T18:06:46Z</time>
      </trkpt>
      <trkpt lat="44.60728" lon="3.47373">
        <ele>1106.6458</ele>
        <time>2022-01-19T18:06:47Z</time>
      </trkpt>
      <trkpt lat="44.60727" lon="3.47375">
        <ele>1106.7408</ele>
        <time>2022-01-19T18:06:48Z</time>
      </trkpt>
      <trkpt lat="44.60727" lon="3.47377">
        <ele>1106.8888</ele>
        <time>2022-01-19T18:06:49Z</time>
      </trkpt>
      <trkpt lat="44.60726" lon="3.47378">
        <ele>1107.0791</ele>
        <time>2022-01-19T18:06:50Z</time>
      </trkpt>
      <trkpt lat="44.60726" lon="3.4738">
        <ele>1107.1161</ele>
        <time>2022-01-19T18:06:51Z</time>
      </trkpt>
      <trkpt lat="44.60725" lon="3.47381">
        <ele>1107.227</ele>
        <time>2022-01-19T18:06:52Z</time>
      </trkpt>
      <trkpt lat="44.60725" lon="3.47383">
        <ele>1107.3274</ele>
        <time>2022-01-19T18:06:53Z</time>
      </trkpt>
      <trkpt lat="44.60724" lon="3.47384">
        <ele>1107.4648</ele>
        <time>2022-01-19T18:06:54Z</time>
      </trkpt>
      <trkpt lat="44.60724" lon="3.47385">
        <ele>1107.6339</ele>
        <time>2022-01-19T18:06:55Z</time>
      </trkpt>
      <trkpt lat="44.60724" lon="3.47387">
        <ele>1107.6287</ele>
        <time>2022-01-19T18:06:56Z</time>
      </trkpt>
      <trkpt lat="44.60723" lon="3.47388">
        <ele>1107.8295</ele>
        <time>2022-01-19T18:06:57Z</time>
      </trkpt>
      <trkpt lat="44.60723" lon="3.4739">
        <ele>1108.1044</ele>
        <time>2022-01-19T18:06:58Z</time>
      </trkpt>
      <trkpt lat="44.60722" lon="3.47391">
        <ele>1108.0831</ele>
        <time>2022-01-19T18:06:59Z</time>
      </trkpt>
      <trkpt lat="44.60722" lon="3.47391">
        <ele>1108.1836</ele>
        <time>2022-01-19T18:07:00Z</time>
      </trkpt>
      <trkpt lat="44.60721" lon="3.47393">
        <ele>1108.3792</ele>
        <time>2022-01-19T18:07:01Z</time>
      </trkpt>
      <trkpt lat="44.60721" lon="3.47394">
        <ele>1108.5376</ele>
        <time>2022-01-19T18:07:02Z</time>
      </trkpt>
      <trkpt lat="44.60721" lon="3.47395">
        <ele>1108.6487</ele>
        <time>2022-01-19T18:07:03Z</time>
      </trkpt>
      <trkpt lat="44.60721" lon="3.47397">
        <ele>1108.7279</ele>
        <time>2022-01-19T18:07:04Z</time>
      </trkpt>
      <trkpt lat="44.6072" lon="3.47398">
        <ele>1108.8864</ele>
        <time>2022-01-19T18:07:05Z</time>
      </trkpt>
      <trkpt lat="44.6072" lon="3.474">
        <ele>1108.9604</ele>
        <time>2022-01-19T18:07:06Z</time>
      </trkpt>
      <trkpt lat="44.60719" lon="3.47402">
        <ele>1109.0555</ele>
        <time>2022-01-19T18:07:07Z</time>
      </trkpt>
      <trkpt lat="44.60719" lon="3.47404">
        <ele>1109.1718</ele>
        <time>2022-01-19T18:07:08Z</time>
      </trkpt>
      <trkpt lat="44.60718" lon="3.47405">
        <ele>1109.3938</ele>
        <time>2022-01-19T18:07:09Z</time>
      </trkpt>
      <trkpt lat="44.60718" lon="3.47406">
        <ele>1109.4784</ele>
        <time>2022-01-19T18:07:10Z</time>
      </trkpt>
      <trkpt lat="44.60718" lon="3.47408">
        <ele>1109.5892</ele>
        <time>2022-01-19T18:07:11Z</time>
      </trkpt>
      <trkpt lat="44.60718" lon="3.47409">
        <ele>1109.769</ele>
        <time>2022-01-19T18:07:12Z</time>
      </trkpt>
      <trkpt lat="44.60717" lon="3.47411">
        <ele>1109.9222</ele>
        <time>2022-01-19T18:07:13Z</time>
      </trkpt>
      <trkpt lat="44.60717" lon="3.47412">
        <ele>1109.9275</ele>
        <time>2022-01-19T18:07:14Z</time>
      </trkpt>
      <trkpt lat="44.60717" lon="3.47413">
        <ele>1110.1335</ele>
        <time>2022-01-19T18:07:16Z</time>
      </trkpt>
      <trkpt lat="44.60717" lon="3.47414">
        <ele>1110.3503</ele>
        <time>2022-01-19T18:07:17Z</time>
      </trkpt>
      <trkpt lat="44.60717" lon="3.47416">
        <ele>1110.4929</ele>
        <time>2022-01-19T18:07:18Z</time>
      </trkpt>
      <trkpt lat="44.60717" lon="3.47417">
        <ele>1110.5142</ele>
        <time>2022-01-19T18:07:19Z</time>
      </trkpt>
      <trkpt lat="44.60717" lon="3.47418">
        <ele>1110.7413</ele>
        <time>2022-01-19T18:07:20Z</time>
      </trkpt>
      <trkpt lat="44.60717" lon="3.4742">
        <ele>1110.8682</ele>
        <time>2022-01-19T18:07:21Z</time>
      </trkpt>
      <trkpt lat="44.60717" lon="3.47421">
        <ele>1111.0267</ele>
        <time>2022-01-19T18:07:22Z</time>
      </trkpt>
      <trkpt lat="44.60717" lon="3.47422">
        <ele>1111.2645</ele>
        <time>2022-01-19T18:07:23Z</time>
      </trkpt>
      <trkpt lat="44.60717" lon="3.47424">
        <ele>1111.4442</ele>
        <time>2022-01-19T18:07:24Z</time>
      </trkpt>
      <trkpt lat="44.60717" lon="3.47425">
        <ele>1111.4653</ele>
        <time>2022-01-19T18:07:25Z</time>
      </trkpt>
      <trkpt lat="44.60717" lon="3.47427">
        <ele>1111.6873</ele>
        <time>2022-01-19T18:07:26Z</time>
      </trkpt>
      <trkpt lat="44.60716" lon="3.47427">
        <ele>1111.7666</ele>
        <time>2022-01-19T18:07:27Z</time>
      </trkpt>
      <trkpt lat="44.60716" lon="3.47429">
        <ele>1112.0677</ele>
        <time>2022-01-19T18:07:28Z</time>
      </trkpt>
      <trkpt lat="44.60716" lon="3.4743">
        <ele>1112.2898</ele>
        <time>2022-01-19T18:07:29Z</time>
      </trkpt>
      <trkpt lat="44.60716" lon="3.47431">
        <ele>1112.4641</ele>
        <time>2022-01-19T18:07:30Z</time>
      </trkpt>
      <trkpt lat="44.60716" lon="3.47433">
        <ele>1112.6649</ele>
        <time>2022-01-19T18:07:31Z</time>
      </trkpt>
      <trkpt lat="44.60716" lon="3.47434">
        <ele>1112.7759</ele>
        <time>2022-01-19T18:07:32Z</time>
      </trkpt>
      <trkpt lat="44.60716" lon="3.47436">
        <ele>1112.924</ele>
        <time>2022-01-19T18:07:33Z</time>
      </trkpt>
      <trkpt lat="44.60716" lon="3.47437">
        <ele>1113.1353</ele>
        <time>2022-01-19T18:07:34Z</time>
      </trkpt>
      <trkpt lat="44.60716" lon="3.47439">
        <ele>1113.3097</ele>
        <time>2022-01-19T18:07:35Z</time>
      </trkpt>
      <trkpt lat="44.60716" lon="3.4744">
        <ele>1113.5527</ele>
        <time>2022-01-19T18:07:36Z</time>
      </trkpt>
      <trkpt lat="44.60716" lon="3.47441">
        <ele>1113.7272</ele>
        <time>2022-01-19T18:07:37Z</time>
      </trkpt>
      <trkpt lat="44.60716" lon="3.47442">
        <ele>1113.8699</ele>
        <time>2022-01-19T18:07:38Z</time>
      </trkpt>
      <trkpt lat="44.60716" lon="3.47443">
        <ele>1114.097</ele>
        <time>2022-01-19T18:07:39Z</time>
      </trkpt>
      <trkpt lat="44.60716" lon="3.47444">
        <ele>1114.4089</ele>
        <time>2022-01-19T18:07:40Z</time>
      </trkpt>
      <trkpt lat="44.60716" lon="3.47446">
        <ele>1114.6837</ele>
        <time>2022-01-19T18:07:41Z</time>
      </trkpt>
      <trkpt lat="44.60716" lon="3.47448">
        <ele>1114.763</ele>
        <time>2022-01-19T18:07:42Z</time>
      </trkpt>
      <trkpt lat="44.60716" lon="3.47449">
        <ele>1114.9637</ele>
        <time>2022-01-19T18:07:43Z</time>
      </trkpt>
      <trkpt lat="44.60716" lon="3.47451">
        <ele>1115.1171</ele>
        <time>2022-01-19T18:07:44Z</time>
      </trkpt>
      <trkpt lat="44.60716" lon="3.47452">
        <ele>1115.3337</ele>
        <time>2022-01-19T18:07:45Z</time>
      </trkpt>
      <trkpt lat="44.60716" lon="3.47453">
        <ele>1115.3601</ele>
        <time>2022-01-19T18:07:46Z</time>
      </trkpt>
      <trkpt lat="44.60716" lon="3.47454">
        <ele>1115.5557</ele>
        <time>2022-01-19T18:07:47Z</time>
      </trkpt>
      <trkpt lat="44.60716" lon="3.47455">
        <ele>1115.8411</ele>
        <time>2022-01-19T18:07:48Z</time>
      </trkpt>
      <trkpt lat="44.60716" lon="3.47456">
        <ele>1116.0524</ele>
        <time>2022-01-19T18:07:49Z</time>
      </trkpt>
      <trkpt lat="44.60716" lon="3.47457">
        <ele>1116.3271</ele>
        <time>2022-01-19T18:07:50Z</time>
      </trkpt>
      <trkpt lat="44.60716" lon="3.47458">
        <ele>1116.4698</ele>
        <time>2022-01-19T18:07:51Z</time>
      </trkpt>
      <trkpt lat="44.60716" lon="3.4746">
        <ele>1116.7024</ele>
        <time>2022-01-19T18:07:52Z</time>
      </trkpt>
      <trkpt lat="44.60717" lon="3.47461">
        <ele>1116.75</ele>
        <time>2022-01-19T18:07:53Z</time>
      </trkpt>
      <trkpt lat="44.60717" lon="3.47462">
        <ele>1117.0353</ele>
        <time>2022-01-19T18:07:54Z</time>
      </trkpt>
      <trkpt lat="44.60717" lon="3.47463">
        <ele>1117.2678</ele>
        <time>2022-01-19T18:07:55Z</time>
      </trkpt>
      <trkpt lat="44.60717" lon="3.47464">
        <ele>1117.4105</ele>
        <time>2022-01-19T18:07:56Z</time>
      </trkpt>
      <trkpt lat="44.60717" lon="3.47466">
        <ele>1117.5321</ele>
        <time>2022-01-19T18:07:57Z</time>
      </trkpt>
      <trkpt lat="44.60717" lon="3.47468">
        <ele>1117.8545</ele>
        <time>2022-01-19T18:07:58Z</time>
      </trkpt>
      <trkpt lat="44.60717" lon="3.47469">
        <ele>1118.1768</ele>
        <time>2022-01-19T18:07:59Z</time>
      </trkpt>
      <trkpt lat="44.60717" lon="3.47471">
        <ele>1118.2667</ele>
        <time>2022-01-19T18:08:00Z</time>
      </trkpt>
      <trkpt lat="44.60717" lon="3.47472">
        <ele>1118.2983</ele>
        <time>2022-01-19T18:08:01Z</time>
      </trkpt>
      <trkpt lat="44.60717" lon="3.47474">
        <ele>1118.5415</ele>
        <time>2022-01-19T18:08:02Z</time>
      </trkpt>
      <trkpt lat="44.60717" lon="3.47476">
        <ele>1118.6788</ele>
        <time>2022-01-19T18:08:03Z</time>
      </trkpt>
      <trkpt lat="44.60717" lon="3.47477">
        <ele>1118.8796</ele>
        <time>2022-01-19T18:08:04Z</time>
      </trkpt>
      <trkpt lat="44.60717" lon="3.47479">
        <ele>1118.959</ele>
        <time>2022-01-19T18:08:05Z</time>
      </trkpt>
      <trkpt lat="44.60717" lon="3.47481">
        <ele>1119.1439</ele>
        <time>2022-01-19T18:08:06Z</time>
      </trkpt>
      <trkpt lat="44.60717" lon="3.47482">
        <ele>1119.2338</ele>
        <time>2022-01-19T18:08:07Z</time>
      </trkpt>
      <trkpt lat="44.60716" lon="3.47484">
        <ele>1119.4716</ele>
        <time>2022-01-19T18:08:08Z</time>
      </trkpt>
      <trkpt lat="44.60716" lon="3.47485">
        <ele>1119.5562</ele>
        <time>2022-01-19T18:08:09Z</time>
      </trkpt>
      <trkpt lat="44.60716" lon="3.47487">
        <ele>1119.7146</ele>
        <time>2022-01-19T18:08:10Z</time>
      </trkpt>
      <trkpt lat="44.60716" lon="3.47489">
        <ele>1119.8414</ele>
        <time>2022-01-19T18:08:11Z</time>
      </trkpt>
      <trkpt lat="44.60716" lon="3.4749">
        <ele>1119.8838</ele>
        <time>2022-01-19T18:08:12Z</time>
      </trkpt>
      <trkpt lat="44.60716" lon="3.47491">
        <ele>1120.0793</ele>
        <time>2022-01-19T18:08:13Z</time>
      </trkpt>
      <trkpt lat="44.60716" lon="3.47493">
        <ele>1120.1956</ele>
        <time>2022-01-19T18:08:14Z</time>
      </trkpt>
      <trkpt lat="44.60716" lon="3.47494">
        <ele>1120.37</ele>
        <time>2022-01-19T18:08:15Z</time>
      </trkpt>
      <trkpt lat="44.60716" lon="3.47496">
        <ele>1120.4651</ele>
        <time>2022-01-19T18:08:16Z</time>
      </trkpt>
      <trkpt lat="44.60716" lon="3.47498">
        <ele>1120.5602</ele>
        <time>2022-01-19T18:08:17Z</time>
      </trkpt>
      <trkpt lat="44.60716" lon="3.47499">
        <ele>1120.761</ele>
        <time>2022-01-19T18:08:18Z</time>
      </trkpt>
      <trkpt lat="44.60715" lon="3.47501">
        <ele>1120.8561</ele>
        <time>2022-01-19T18:08:19Z</time>
      </trkpt>
      <trkpt lat="44.60715" lon="3.47502">
        <ele>1121.0834</ele>
        <time>2022-01-19T18:08:20Z</time>
      </trkpt>
      <trkpt lat="44.60714" lon="3.47504">
        <ele>1121.1045</ele>
        <time>2022-01-19T18:08:21Z</time>
      </trkpt>
      <trkpt lat="44.60714" lon="3.47506">
        <ele>1121.1732</ele>
        <time>2022-01-19T18:08:22Z</time>
      </trkpt>
      <trkpt lat="44.60714" lon="3.47508">
        <ele>1121.3</ele>
        <time>2022-01-19T18:08:23Z</time>
      </trkpt>
      <trkpt lat="44.60714" lon="3.47509">
        <ele>1121.4216</ele>
        <time>2022-01-19T18:08:24Z</time>
      </trkpt>
      <trkpt lat="44.60713" lon="3.47511">
        <ele>1121.6542</ele>
        <time>2022-01-19T18:08:25Z</time>
      </trkpt>
      <trkpt lat="44.60713" lon="3.47512">
        <ele>1121.691</ele>
        <time>2022-01-19T18:08:26Z</time>
      </trkpt>
      <trkpt lat="44.60713" lon="3.47514">
        <ele>1121.8232</ele>
        <time>2022-01-19T18:08:27Z</time>
      </trkpt>
      <trkpt lat="44.60712" lon="3.47515">
        <ele>1121.9236</ele>
        <time>2022-01-19T18:08:28Z</time>
      </trkpt>
      <trkpt lat="44.60712" lon="3.47517">
        <ele>1122.0347</ele>
        <time>2022-01-19T18:08:29Z</time>
      </trkpt>
      <trkpt lat="44.60712" lon="3.47519">
        <ele>1122.32</ele>
        <time>2022-01-19T18:08:30Z</time>
      </trkpt>
      <trkpt lat="44.60712" lon="3.4752">
        <ele>1122.3412</ele>
        <time>2022-01-19T18:08:31Z</time>
      </trkpt>
      <trkpt lat="44.60711" lon="3.47522">
        <ele>1122.3728</ele>
        <time>2022-01-19T18:08:32Z</time>
      </trkpt>
      <trkpt lat="44.60711" lon="3.47524">
        <ele>1122.579</ele>
        <time>2022-01-19T18:08:33Z</time>
      </trkpt>
      <trkpt lat="44.60711" lon="3.47526">
        <ele>1122.6793</ele>
        <time>2022-01-19T18:08:34Z</time>
      </trkpt>
      <trkpt lat="44.6071" lon="3.47527">
        <ele>1122.7163</ele>
        <time>2022-01-19T18:08:35Z</time>
      </trkpt>
      <trkpt lat="44.6071" lon="3.47529">
        <ele>1122.8855</ele>
        <time>2022-01-19T18:08:36Z</time>
      </trkpt>
      <trkpt lat="44.60709" lon="3.47531">
        <ele>1122.9436</ele>
        <time>2022-01-19T18:08:37Z</time>
      </trkpt>
      <trkpt lat="44.60709" lon="3.47532">
        <ele>1122.9911</ele>
        <time>2022-01-19T18:08:38Z</time>
      </trkpt>
      <trkpt lat="44.60708" lon="3.47534">
        <ele>1123.2184</ele>
        <time>2022-01-19T18:08:39Z</time>
      </trkpt>
      <trkpt lat="44.60708" lon="3.47535">
        <ele>1123.3452</ele>
        <time>2022-01-19T18:08:40Z</time>
      </trkpt>
      <trkpt lat="44.60708" lon="3.47537">
        <ele>1123.2976</ele>
        <time>2022-01-19T18:08:41Z</time>
      </trkpt>
      <trkpt lat="44.60708" lon="3.47539">
        <ele>1123.3452</ele>
        <time>2022-01-19T18:08:42Z</time>
      </trkpt>
      <trkpt lat="44.60707" lon="3.47541">
        <ele>1123.5725</ele>
        <time>2022-01-19T18:08:43Z</time>
      </trkpt>
      <trkpt lat="44.60707" lon="3.47542">
        <ele>1123.7152</ele>
        <time>2022-01-19T18:08:44Z</time>
      </trkpt>
      <trkpt lat="44.60707" lon="3.47544">
        <ele>1123.7997</ele>
        <time>2022-01-19T18:08:45Z</time>
      </trkpt>
      <trkpt lat="44.60706" lon="3.47546">
        <ele>1123.8895</ele>
        <time>2022-01-19T18:08:46Z</time>
      </trkpt>
      <trkpt lat="44.60706" lon="3.47547">
        <ele>1123.9847</ele>
        <time>2022-01-19T18:08:47Z</time>
      </trkpt>
      <trkpt lat="44.60706" lon="3.47549">
        <ele>1124.0164</ele>
        <time>2022-01-19T18:08:48Z</time>
      </trkpt>
      <trkpt lat="44.60706" lon="3.47549">
        <ele>1124.2542</ele>
        <time>2022-01-19T18:08:49Z</time>
      </trkpt>
      <trkpt lat="44.60705" lon="3.4755">
        <ele>1124.3229</ele>
        <time>2022-01-19T18:08:50Z</time>
      </trkpt>
      <trkpt lat="44.60705" lon="3.47551">
        <ele>1124.492</ele>
        <time>2022-01-19T18:08:51Z</time>
      </trkpt>
      <trkpt lat="44.60704" lon="3.47553">
        <ele>1124.661</ele>
        <time>2022-01-19T18:08:52Z</time>
      </trkpt>
      <trkpt lat="44.60704" lon="3.47554">
        <ele>1124.7297</ele>
        <time>2022-01-19T18:08:53Z</time>
      </trkpt>
      <trkpt lat="44.60704" lon="3.47556">
        <ele>1124.7721</ele>
        <time>2022-01-19T18:08:54Z</time>
      </trkpt>
      <trkpt lat="44.60703" lon="3.47557">
        <ele>1124.8778</ele>
        <time>2022-01-19T18:08:55Z</time>
      </trkpt>
      <trkpt lat="44.60703" lon="3.47559">
        <ele>1125.1315</ele>
        <time>2022-01-19T18:08:56Z</time>
      </trkpt>
      <trkpt lat="44.60703" lon="3.4756">
        <ele>1125.2318</ele>
        <time>2022-01-19T18:08:57Z</time>
      </trkpt>
      <trkpt lat="44.60702" lon="3.47562">
        <ele>1125.3269</ele>
        <time>2022-01-19T18:08:58Z</time>
      </trkpt>
      <trkpt lat="44.60701" lon="3.47563">
        <ele>1125.4855</ele>
        <time>2022-01-19T18:08:59Z</time>
      </trkpt>
      <trkpt lat="44.60701" lon="3.47565">
        <ele>1125.6598</ele>
        <time>2022-01-19T18:09:00Z</time>
      </trkpt>
      <trkpt lat="44.60701" lon="3.47566">
        <ele>1125.6969</ele>
        <time>2022-01-19T18:09:01Z</time>
      </trkpt>
      <trkpt lat="44.607" lon="3.47568">
        <ele>1125.8396</ele>
        <time>2022-01-19T18:09:02Z</time>
      </trkpt>
      <trkpt lat="44.607" lon="3.47569">
        <ele>1125.9823</ele>
        <time>2022-01-19T18:09:03Z</time>
      </trkpt>
      <trkpt lat="44.607" lon="3.47571">
        <ele>1126.125</ele>
        <time>2022-01-19T18:09:04Z</time>
      </trkpt>
      <trkpt lat="44.607" lon="3.47573">
        <ele>1126.2623</ele>
        <time>2022-01-19T18:09:05Z</time>
      </trkpt>
      <trkpt lat="44.60699" lon="3.47574">
        <ele>1126.3204</ele>
        <time>2022-01-19T18:09:06Z</time>
      </trkpt>
      <trkpt lat="44.60699" lon="3.47576">
        <ele>1126.685</ele>
        <time>2022-01-19T18:09:07Z</time>
      </trkpt>
      <trkpt lat="44.60698" lon="3.47578">
        <ele>1126.7485</ele>
        <time>2022-01-19T18:09:08Z</time>
      </trkpt>
      <trkpt lat="44.60698" lon="3.47579">
        <ele>1126.8806</ele>
        <time>2022-01-19T18:09:09Z</time>
      </trkpt>
      <trkpt lat="44.60698" lon="3.4758">
        <ele>1127.1079</ele>
        <time>2022-01-19T18:09:10Z</time>
      </trkpt>
      <trkpt lat="44.60697" lon="3.47581">
        <ele>1127.1449</ele>
        <time>2022-01-19T18:09:11Z</time>
      </trkpt>
      <trkpt lat="44.60696" lon="3.47582">
        <ele>1127.2083</ele>
        <time>2022-01-19T18:09:12Z</time>
      </trkpt>
      <trkpt lat="44.60696" lon="3.47584">
        <ele>1127.3192</ele>
        <time>2022-01-19T18:09:13Z</time>
      </trkpt>
      <trkpt lat="44.60695" lon="3.47585">
        <ele>1127.4514</ele>
        <time>2022-01-19T18:09:14Z</time>
      </trkpt>
      <trkpt lat="44.60695" lon="3.47586">
        <ele>1127.3986</ele>
        <time>2022-01-19T18:09:15Z</time>
      </trkpt>
      <trkpt lat="44.60694" lon="3.47587">
        <ele>1127.4725</ele>
        <time>2022-01-19T18:09:16Z</time>
      </trkpt>
      <trkpt lat="44.60693" lon="3.47588">
        <ele>1127.6416</ele>
        <time>2022-01-19T18:09:17Z</time>
      </trkpt>
      <trkpt lat="44.60693" lon="3.47589">
        <ele>1127.6575</ele>
        <time>2022-01-19T18:09:18Z</time>
      </trkpt>
      <trkpt lat="44.60692" lon="3.47589">
        <ele>1127.8319</ele>
        <time>2022-01-19T18:09:19Z</time>
      </trkpt>
      <trkpt lat="44.60691" lon="3.4759">
        <ele>1127.9216</ele>
        <time>2022-01-19T18:09:20Z</time>
      </trkpt>
      <trkpt lat="44.60691" lon="3.47591">
        <ele>1127.8953</ele>
        <time>2022-01-19T18:09:21Z</time>
      </trkpt>
      <trkpt lat="44.60691" lon="3.47592">
        <ele>1127.9535</ele>
        <time>2022-01-19T18:09:22Z</time>
      </trkpt>
      <trkpt lat="44.6069" lon="3.47593">
        <ele>1128.001</ele>
        <time>2022-01-19T18:09:23Z</time>
      </trkpt>
      <trkpt lat="44.6069" lon="3.47594">
        <ele>1128.0856</ele>
        <time>2022-01-19T18:09:24Z</time>
      </trkpt>
      <trkpt lat="44.6069" lon="3.47596">
        <ele>1128.1542</ele>
        <time>2022-01-19T18:09:25Z</time>
      </trkpt>
      <trkpt lat="44.6069" lon="3.47597">
        <ele>1128.2864</ele>
        <time>2022-01-19T18:09:26Z</time>
      </trkpt>
      <trkpt lat="44.60689" lon="3.47599">
        <ele>1128.2653</ele>
        <time>2022-01-19T18:09:27Z</time>
      </trkpt>
      <trkpt lat="44.60689" lon="3.476">
        <ele>1128.5189</ele>
        <time>2022-01-19T18:09:28Z</time>
      </trkpt>
      <trkpt lat="44.60689" lon="3.47602">
        <ele>1128.371</ele>
        <time>2022-01-19T18:09:29Z</time>
      </trkpt>
      <trkpt lat="44.60689" lon="3.47603">
        <ele>1128.7461</ele>
        <time>2022-01-19T18:09:30Z</time>
      </trkpt>
      <trkpt lat="44.60689" lon="3.47605">
        <ele>1128.7513</ele>
        <time>2022-01-19T18:09:31Z</time>
      </trkpt>
      <trkpt lat="44.60689" lon="3.47606">
        <ele>1128.8623</ele>
        <time>2022-01-19T18:09:32Z</time>
      </trkpt>
      <trkpt lat="44.60688" lon="3.47607">
        <ele>1129.005</ele>
        <time>2022-01-19T18:09:33Z</time>
      </trkpt>
      <trkpt lat="44.60688" lon="3.47608">
        <ele>1129.0737</ele>
        <time>2022-01-19T18:09:34Z</time>
      </trkpt>
      <trkpt lat="44.60688" lon="3.47609">
        <ele>1129.2006</ele>
        <time>2022-01-19T18:09:35Z</time>
      </trkpt>
      <trkpt lat="44.60687" lon="3.47611">
        <ele>1129.3063</ele>
        <time>2022-01-19T18:09:36Z</time>
      </trkpt>
      <trkpt lat="44.60686" lon="3.47612">
        <ele>1129.4014</ele>
        <time>2022-01-19T18:09:37Z</time>
      </trkpt>
      <trkpt lat="44.60686" lon="3.47613">
        <ele>1129.6022</ele>
        <time>2022-01-19T18:09:38Z</time>
      </trkpt>
      <trkpt lat="44.60686" lon="3.47614">
        <ele>1129.5441</ele>
        <time>2022-01-19T18:09:39Z</time>
      </trkpt>
      <trkpt lat="44.60686" lon="3.47615">
        <ele>1129.5969</ele>
        <time>2022-01-19T18:09:40Z</time>
      </trkpt>
      <trkpt lat="44.60685" lon="3.47616">
        <ele>1129.9034</ele>
        <time>2022-01-19T18:09:41Z</time>
      </trkpt>
      <trkpt lat="44.60685" lon="3.47618">
        <ele>1129.9141</ele>
        <time>2022-01-19T18:09:42Z</time>
      </trkpt>
      <trkpt lat="44.60685" lon="3.47619">
        <ele>1129.8876</ele>
        <time>2022-01-19T18:09:43Z</time>
      </trkpt>
      <trkpt lat="44.60685" lon="3.47621">
        <ele>1129.9615</ele>
        <time>2022-01-19T18:09:44Z</time>
      </trkpt>
      <trkpt lat="44.60685" lon="3.47622">
        <ele>1129.9722</ele>
        <time>2022-01-19T18:09:45Z</time>
      </trkpt>
      <trkpt lat="44.60684" lon="3.47624">
        <ele>1130.1095</ele>
        <time>2022-01-19T18:09:46Z</time>
      </trkpt>
      <trkpt lat="44.60684" lon="3.47625">
        <ele>1130.2628</ele>
        <time>2022-01-19T18:09:47Z</time>
      </trkpt>
      <trkpt lat="44.60684" lon="3.47627">
        <ele>1130.4371</ele>
        <time>2022-01-19T18:09:48Z</time>
      </trkpt>
      <trkpt lat="44.60684" lon="3.47628">
        <ele>1130.5905</ele>
        <time>2022-01-19T18:09:49Z</time>
      </trkpt>
      <trkpt lat="44.60683" lon="3.47629">
        <ele>1130.749</ele>
        <time>2022-01-19T18:09:50Z</time>
      </trkpt>
      <trkpt lat="44.60683" lon="3.47631">
        <ele>1130.9233</ele>
        <time>2022-01-19T18:09:51Z</time>
      </trkpt>
      <trkpt lat="44.60683" lon="3.47632">
        <ele>1130.8335</ele>
        <time>2022-01-19T18:09:52Z</time>
      </trkpt>
      <trkpt lat="44.60683" lon="3.47633">
        <ele>1131.0344</ele>
        <time>2022-01-19T18:09:53Z</time>
      </trkpt>
      <trkpt lat="44.60683" lon="3.47635">
        <ele>1131.1611</ele>
        <time>2022-01-19T18:09:54Z</time>
      </trkpt>
      <trkpt lat="44.60683" lon="3.47636">
        <ele>1131.3251</ele>
        <time>2022-01-19T18:09:55Z</time>
      </trkpt>
      <trkpt lat="44.60682" lon="3.47637">
        <ele>1131.3937</ele>
        <time>2022-01-19T18:09:56Z</time>
      </trkpt>
      <trkpt lat="44.60682" lon="3.47638">
        <ele>1131.4413</ele>
        <time>2022-01-19T18:09:57Z</time>
      </trkpt>
      <trkpt lat="44.60682" lon="3.4764">
        <ele>1131.4889</ele>
        <time>2022-01-19T18:09:58Z</time>
      </trkpt>
      <trkpt lat="44.60682" lon="3.47641">
        <ele>1131.6896</ele>
        <time>2022-01-19T18:09:59Z</time>
      </trkpt>
      <trkpt lat="44.60681" lon="3.47643">
        <ele>1131.864</ele>
        <time>2022-01-19T18:10:00Z</time>
      </trkpt>
      <trkpt lat="44.6068" lon="3.47644">
        <ele>1131.8218</ele>
        <time>2022-01-19T18:10:01Z</time>
      </trkpt>
      <trkpt lat="44.6068" lon="3.47645">
        <ele>1131.8958</ele>
        <time>2022-01-19T18:10:02Z</time>
      </trkpt>
      <trkpt lat="44.6068" lon="3.47646">
        <ele>1132.0966</ele>
        <time>2022-01-19T18:10:03Z</time>
      </trkpt>
      <trkpt lat="44.6068" lon="3.47647">
        <ele>1132.2129</ele>
        <time>2022-01-19T18:10:04Z</time>
      </trkpt>
      <trkpt lat="44.6068" lon="3.47648">
        <ele>1132.2286</ele>
        <time>2022-01-19T18:10:04Z</time>
      </trkpt>
      <trkpt lat="44.6068" lon="3.4765">
        <ele>1132.3344</ele>
        <time>2022-01-19T18:10:05Z</time>
      </trkpt>
      <trkpt lat="44.6068" lon="3.47651">
        <ele>1132.514</ele>
        <time>2022-01-19T18:10:06Z</time>
      </trkpt>
      <trkpt lat="44.60679" lon="3.47653">
        <ele>1132.5088</ele>
        <time>2022-01-19T18:10:07Z</time>
      </trkpt>
      <trkpt lat="44.60679" lon="3.47655">
        <ele>1132.7466</ele>
        <time>2022-01-19T18:10:08Z</time>
      </trkpt>
      <trkpt lat="44.60679" lon="3.47655">
        <ele>1132.8682</ele>
        <time>2022-01-19T18:10:09Z</time>
      </trkpt>
      <trkpt lat="44.60679" lon="3.47656">
        <ele>1133.0002</ele>
        <time>2022-01-19T18:10:10Z</time>
      </trkpt>
      <trkpt lat="44.60679" lon="3.47656">
        <ele>1132.8999</ele>
        <time>2022-01-19T18:10:11Z</time>
      </trkpt>
      <trkpt lat="44.60679" lon="3.47656">
        <ele>1132.9896</ele>
        <time>2022-01-19T18:10:12Z</time>
      </trkpt>
      <trkpt lat="44.60679" lon="3.47656">
        <ele>1133.069</ele>
        <time>2022-01-19T18:10:13Z</time>
      </trkpt>
      <trkpt lat="44.60679" lon="3.47656">
        <ele>1132.9474</ele>
        <time>2022-01-19T18:10:14Z</time>
      </trkpt>
      <trkpt lat="44.60679" lon="3.47656">
        <ele>1132.9474</ele>
        <time>2022-01-19T18:10:14Z</time>
      </trkpt>
      <trkpt lat="44.60679" lon="3.47656">
        <ele>1132.9474</ele>
        <time>2022-01-19T18:10:14Z</time>
      </trkpt>
      <trkpt lat="44.60678" lon="3.47662">
        <ele>1133.4495</ele>
        <time>2022-01-19T18:10:28Z</time>
      </trkpt>
      <trkpt lat="44.60677" lon="3.47663">
        <ele>1133.5815</ele>
        <time>2022-01-19T18:10:29Z</time>
      </trkpt>
      <trkpt lat="44.60677" lon="3.47665">
        <ele>1133.8035</ele>
        <time>2022-01-19T18:10:30Z</time>
      </trkpt>
      <trkpt lat="44.60677" lon="3.47665">
        <ele>1133.8141</ele>
        <time>2022-01-19T18:10:31Z</time>
      </trkpt>
      <trkpt lat="44.60676" lon="3.47667">
        <ele>1133.999</ele>
        <time>2022-01-19T18:10:32Z</time>
      </trkpt>
      <trkpt lat="44.60676" lon="3.47668">
        <ele>1134.0149</ele>
        <time>2022-01-19T18:10:33Z</time>
      </trkpt>
      <trkpt lat="44.60675" lon="3.47669">
        <ele>1134.1152</ele>
        <time>2022-01-19T18:10:34Z</time>
      </trkpt>
      <trkpt lat="44.60675" lon="3.4767">
        <ele>1134.2897</ele>
        <time>2022-01-19T18:10:35Z</time>
      </trkpt>
      <trkpt lat="44.60675" lon="3.47672">
        <ele>1134.332</ele>
        <time>2022-01-19T18:10:36Z</time>
      </trkpt>
      <trkpt lat="44.60675" lon="3.47673">
        <ele>1134.517</ele>
        <time>2022-01-19T18:10:37Z</time>
      </trkpt>
      <trkpt lat="44.60674" lon="3.47674">
        <ele>1134.5962</ele>
        <time>2022-01-19T18:10:38Z</time>
      </trkpt>
      <trkpt lat="44.60674" lon="3.47674">
        <ele>1134.6967</ele>
        <time>2022-01-19T18:10:39Z</time>
      </trkpt>
      <trkpt lat="44.60674" lon="3.47676">
        <ele>1134.5698</ele>
        <time>2022-01-19T18:10:40Z</time>
      </trkpt>
      <trkpt lat="44.60674" lon="3.47677">
        <ele>1134.6649</ele>
        <time>2022-01-19T18:10:41Z</time>
      </trkpt>
      <trkpt lat="44.60674" lon="3.47678">
        <ele>1134.8234</ele>
        <time>2022-01-19T18:10:42Z</time>
      </trkpt>
      <trkpt lat="44.60674" lon="3.4768">
        <ele>1134.9397</ele>
        <time>2022-01-19T18:10:43Z</time>
      </trkpt>
      <trkpt lat="44.60674" lon="3.47681">
        <ele>1134.9397</ele>
        <time>2022-01-19T18:10:44Z</time>
      </trkpt>
      <trkpt lat="44.60673" lon="3.47683">
        <ele>1135.0507</ele>
        <time>2022-01-19T18:10:45Z</time>
      </trkpt>
      <trkpt lat="44.60673" lon="3.47684">
        <ele>1135.2197</ele>
        <time>2022-01-19T18:10:46Z</time>
      </trkpt>
      <trkpt lat="44.60672" lon="3.47686">
        <ele>1135.2515</ele>
        <time>2022-01-19T18:10:47Z</time>
      </trkpt>
      <trkpt lat="44.60672" lon="3.47688">
        <ele>1135.2832</ele>
        <time>2022-01-19T18:10:48Z</time>
      </trkpt>
      <trkpt lat="44.60672" lon="3.4769">
        <ele>1135.4259</ele>
        <time>2022-01-19T18:10:49Z</time>
      </trkpt>
      <trkpt lat="44.60672" lon="3.47691">
        <ele>1135.4523</ele>
        <time>2022-01-19T18:10:50Z</time>
      </trkpt>
      <trkpt lat="44.60671" lon="3.47693">
        <ele>1135.5845</ele>
        <time>2022-01-19T18:10:51Z</time>
      </trkpt>
      <trkpt lat="44.60671" lon="3.47694">
        <ele>1135.632</ele>
        <time>2022-01-19T18:10:52Z</time>
      </trkpt>
      <trkpt lat="44.60671" lon="3.47696">
        <ele>1135.764</ele>
        <time>2022-01-19T18:10:53Z</time>
      </trkpt>
      <trkpt lat="44.60671" lon="3.47697">
        <ele>1135.8593</ele>
        <time>2022-01-19T18:10:54Z</time>
      </trkpt>
      <trkpt lat="44.6067" lon="3.47699">
        <ele>1135.9755</ele>
        <time>2022-01-19T18:10:55Z</time>
      </trkpt>
      <trkpt lat="44.6067" lon="3.477">
        <ele>1135.8856</ele>
        <time>2022-01-19T18:10:56Z</time>
      </trkpt>
      <trkpt lat="44.60669" lon="3.47702">
        <ele>1136.0812</ele>
        <time>2022-01-19T18:10:57Z</time>
      </trkpt>
      <trkpt lat="44.60669" lon="3.47703">
        <ele>1136.1235</ele>
        <time>2022-01-19T18:10:58Z</time>
      </trkpt>
      <trkpt lat="44.60669" lon="3.47705">
        <ele>1136.2133</ele>
        <time>2022-01-19T18:10:59Z</time>
      </trkpt>
      <trkpt lat="44.60669" lon="3.47707">
        <ele>1136.3877</ele>
        <time>2022-01-19T18:11:00Z</time>
      </trkpt>
      <trkpt lat="44.60668" lon="3.47709">
        <ele>1136.4669</ele>
        <time>2022-01-19T18:11:01Z</time>
      </trkpt>
      <trkpt lat="44.60668" lon="3.47711">
        <ele>1136.5145</ele>
        <time>2022-01-19T18:11:02Z</time>
      </trkpt>
      <trkpt lat="44.60668" lon="3.47712">
        <ele>1136.6307</ele>
        <time>2022-01-19T18:11:03Z</time>
      </trkpt>
      <trkpt lat="44.60667" lon="3.47713">
        <ele>1136.7312</ele>
        <time>2022-01-19T18:11:04Z</time>
      </trkpt>
      <trkpt lat="44.60667" lon="3.47714">
        <ele>1136.8633</ele>
        <time>2022-01-19T18:11:05Z</time>
      </trkpt>
      <trkpt lat="44.60668" lon="3.47714">
        <ele>1136.8105</ele>
        <time>2022-01-19T18:11:06Z</time>
      </trkpt>
      <trkpt lat="44.60667" lon="3.47715">
        <ele>1136.8052</ele>
        <time>2022-01-19T18:11:07Z</time>
      </trkpt>
      <trkpt lat="44.60667" lon="3.47717">
        <ele>1136.8792</ele>
        <time>2022-01-19T18:11:08Z</time>
      </trkpt>
      <trkpt lat="44.60667" lon="3.47718">
        <ele>1136.9901</ele>
        <time>2022-01-19T18:11:09Z</time>
      </trkpt>
      <trkpt lat="44.60667" lon="3.4772">
        <ele>1136.9744</ele>
        <time>2022-01-19T18:11:10Z</time>
      </trkpt>
      <trkpt lat="44.60667" lon="3.47722">
        <ele>1136.9901</ele>
        <time>2022-01-19T18:11:11Z</time>
      </trkpt>
      <trkpt lat="44.60667" lon="3.47723">
        <ele>1137.1487</ele>
        <time>2022-01-19T18:11:12Z</time>
      </trkpt>
      <trkpt lat="44.60667" lon="3.47725">
        <ele>1137.1539</ele>
        <time>2022-01-19T18:11:13Z</time>
      </trkpt>
      <trkpt lat="44.60667" lon="3.47727">
        <ele>1137.2861</ele>
        <time>2022-01-19T18:11:14Z</time>
      </trkpt>
      <trkpt lat="44.60666" lon="3.47728">
        <ele>1137.4235</ele>
        <time>2022-01-19T18:11:15Z</time>
      </trkpt>
      <trkpt lat="44.60666" lon="3.4773">
        <ele>1137.4657</ele>
        <time>2022-01-19T18:11:16Z</time>
      </trkpt>
      <trkpt lat="44.60666" lon="3.47731">
        <ele>1137.4763</ele>
        <time>2022-01-19T18:11:17Z</time>
      </trkpt>
      <trkpt lat="44.60666" lon="3.47733">
        <ele>1137.6506</ele>
        <time>2022-01-19T18:11:18Z</time>
      </trkpt>
      <trkpt lat="44.60665" lon="3.47734">
        <ele>1137.6031</ele>
        <time>2022-01-19T18:11:19Z</time>
      </trkpt>
      <trkpt lat="44.60665" lon="3.47736">
        <ele>1137.7722</ele>
        <time>2022-01-19T18:11:20Z</time>
      </trkpt>
      <trkpt lat="44.60664" lon="3.47737">
        <ele>1137.8463</ele>
        <time>2022-01-19T18:11:21Z</time>
      </trkpt>
      <trkpt lat="44.60664" lon="3.47739">
        <ele>1137.9731</ele>
        <time>2022-01-19T18:11:22Z</time>
      </trkpt>
      <trkpt lat="44.60664" lon="3.4774">
        <ele>1138.0681</ele>
        <time>2022-01-19T18:11:23Z</time>
      </trkpt>
      <trkpt lat="44.60664" lon="3.47742">
        <ele>1138.2584</ele>
        <time>2022-01-19T18:11:24Z</time>
      </trkpt>
      <trkpt lat="44.60664" lon="3.47743">
        <ele>1138.3535</ele>
        <time>2022-01-19T18:11:25Z</time>
      </trkpt>
      <trkpt lat="44.60663" lon="3.47745">
        <ele>1138.4276</ele>
        <time>2022-01-19T18:11:26Z</time>
      </trkpt>
      <trkpt lat="44.60663" lon="3.47746">
        <ele>1138.5544</ele>
        <time>2022-01-19T18:11:27Z</time>
      </trkpt>
      <trkpt lat="44.60663" lon="3.47747">
        <ele>1138.824</ele>
        <time>2022-01-19T18:11:28Z</time>
      </trkpt>
      <trkpt lat="44.60663" lon="3.47749">
        <ele>1138.8345</ele>
        <time>2022-01-19T18:11:29Z</time>
      </trkpt>
      <trkpt lat="44.60663" lon="3.4775">
        <ele>1139.0035</ele>
        <time>2022-01-19T18:11:30Z</time>
      </trkpt>
      <trkpt lat="44.60662" lon="3.47752">
        <ele>1139.0564</ele>
        <time>2022-01-19T18:11:31Z</time>
      </trkpt>
      <trkpt lat="44.60662" lon="3.47753">
        <ele>1139.141</ele>
        <time>2022-01-19T18:11:32Z</time>
      </trkpt>
      <trkpt lat="44.60662" lon="3.47755">
        <ele>1139.289</ele>
        <time>2022-01-19T18:11:33Z</time>
      </trkpt>
      <trkpt lat="44.60662" lon="3.47757">
        <ele>1139.2837</ele>
        <time>2022-01-19T18:11:34Z</time>
      </trkpt>
      <trkpt lat="44.60661" lon="3.47758">
        <ele>1139.3735</ele>
        <time>2022-01-19T18:11:35Z</time>
      </trkpt>
      <trkpt lat="44.60661" lon="3.4776">
        <ele>1139.4264</ele>
        <time>2022-01-19T18:11:36Z</time>
      </trkpt>
      <trkpt lat="44.60661" lon="3.47761">
        <ele>1139.5479</ele>
        <time>2022-01-19T18:11:37Z</time>
      </trkpt>
      <trkpt lat="44.60661" lon="3.47763">
        <ele>1139.5637</ele>
        <time>2022-01-19T18:11:38Z</time>
      </trkpt>
      <trkpt lat="44.6066" lon="3.47763">
        <ele>1139.5743</ele>
        <time>2022-01-19T18:11:39Z</time>
      </trkpt>
      <trkpt lat="44.6066" lon="3.47765">
        <ele>1139.6694</ele>
        <time>2022-01-19T18:11:40Z</time>
      </trkpt>
      <trkpt lat="44.6066" lon="3.47766">
        <ele>1139.6113</ele>
        <time>2022-01-19T18:11:41Z</time>
      </trkpt>
      <trkpt lat="44.6066" lon="3.47768">
        <ele>1139.5743</ele>
        <time>2022-01-19T18:11:42Z</time>
      </trkpt>
      <trkpt lat="44.60659" lon="3.4777">
        <ele>1139.6218</ele>
        <time>2022-01-19T18:11:43Z</time>
      </trkpt>
      <trkpt lat="44.60659" lon="3.47771">
        <ele>1139.7064</ele>
        <time>2022-01-19T18:11:44Z</time>
      </trkpt>
      <trkpt lat="44.60659" lon="3.47772">
        <ele>1139.7593</ele>
        <time>2022-01-19T18:11:45Z</time>
      </trkpt>
      <trkpt lat="44.60659" lon="3.47774">
        <ele>1141.128</ele>
        <time>2022-01-19T18:11:46Z</time>
      </trkpt>
      <trkpt lat="44.60659" lon="3.47776">
        <ele>1140.2137</ele>
        <time>2022-01-19T18:11:47Z</time>
      </trkpt>
      <trkpt lat="44.60659" lon="3.47777">
        <ele>1139.9072</ele>
        <time>2022-01-19T18:11:48Z</time>
      </trkpt>
      <trkpt lat="44.60659" lon="3.47779">
        <ele>1139.902</ele>
        <time>2022-01-19T18:11:49Z</time>
      </trkpt>
      <trkpt lat="44.60659" lon="3.4778">
        <ele>1139.9231</ele>
        <time>2022-01-19T18:11:50Z</time>
      </trkpt>
      <trkpt lat="44.60659" lon="3.47782">
        <ele>1140.0023</ele>
        <time>2022-01-19T18:11:51Z</time>
      </trkpt>
      <trkpt lat="44.60659" lon="3.47784">
        <ele>1139.8966</ele>
        <time>2022-01-19T18:11:52Z</time>
      </trkpt>
      <trkpt lat="44.60659" lon="3.47785">
        <ele>1139.9707</ele>
        <time>2022-01-19T18:11:53Z</time>
      </trkpt>
      <trkpt lat="44.60659" lon="3.47787">
        <ele>1139.976</ele>
        <time>2022-01-19T18:11:54Z</time>
      </trkpt>
      <trkpt lat="44.60659" lon="3.47789">
        <ele>1140.0499</ele>
        <time>2022-01-19T18:11:55Z</time>
      </trkpt>
      <trkpt lat="44.60659" lon="3.4779">
        <ele>1140.0182</ele>
        <time>2022-01-19T18:11:56Z</time>
      </trkpt>
      <trkpt lat="44.60659" lon="3.47791">
        <ele>1139.9866</ele>
        <time>2022-01-19T18:11:57Z</time>
      </trkpt>
      <trkpt lat="44.6066" lon="3.47792">
        <ele>1140.0023</ele>
        <time>2022-01-19T18:11:58Z</time>
      </trkpt>
      <trkpt lat="44.6066" lon="3.47794">
        <ele>1140.0393</ele>
        <time>2022-01-19T18:11:59Z</time>
      </trkpt>
      <trkpt lat="44.6066" lon="3.47795">
        <ele>1139.9971</ele>
        <time>2022-01-19T18:12:00Z</time>
      </trkpt>
      <trkpt lat="44.6066" lon="3.47797">
        <ele>1140.1504</ele>
        <time>2022-01-19T18:12:01Z</time>
      </trkpt>
      <trkpt lat="44.6066" lon="3.47799">
        <ele>1140.1504</ele>
        <time>2022-01-19T18:12:02Z</time>
      </trkpt>
      <trkpt lat="44.6066" lon="3.47801">
        <ele>1140.1661</ele>
        <time>2022-01-19T18:12:03Z</time>
      </trkpt>
      <trkpt lat="44.6066" lon="3.47803">
        <ele>1140.1661</ele>
        <time>2022-01-19T18:12:04Z</time>
      </trkpt>
      <trkpt lat="44.6066" lon="3.47805">
        <ele>1140.1239</ele>
        <time>2022-01-19T18:12:05Z</time>
      </trkpt>
      <trkpt lat="44.6066" lon="3.47807">
        <ele>1140.1239</ele>
        <time>2022-01-19T18:12:06Z</time>
      </trkpt>
      <trkpt lat="44.60659" lon="3.47809">
        <ele>1140.0923</ele>
        <time>2022-01-19T18:12:07Z</time>
      </trkpt>
      <trkpt lat="44.60659" lon="3.47811">
        <ele>1140.145</ele>
        <time>2022-01-19T18:12:08Z</time>
      </trkpt>
      <trkpt lat="44.60659" lon="3.47812">
        <ele>1140.2244</ele>
        <time>2022-01-19T18:12:09Z</time>
      </trkpt>
      <trkpt lat="44.60659" lon="3.47814">
        <ele>1140.2877</ele>
        <time>2022-01-19T18:12:10Z</time>
      </trkpt>
      <trkpt lat="44.60658" lon="3.47816">
        <ele>1140.2772</ele>
        <time>2022-01-19T18:12:11Z</time>
      </trkpt>
      <trkpt lat="44.60658" lon="3.47817">
        <ele>1140.3671</ele>
        <time>2022-01-19T18:12:12Z</time>
      </trkpt>
      <trkpt lat="44.60658" lon="3.47818">
        <ele>1140.3195</ele>
        <time>2022-01-19T18:12:13Z</time>
      </trkpt>
      <trkpt lat="44.60658" lon="3.4782">
        <ele>1140.3247</ele>
        <time>2022-01-19T18:12:14Z</time>
      </trkpt>
      <trkpt lat="44.60658" lon="3.47821">
        <ele>1140.404</ele>
        <time>2022-01-19T18:12:15Z</time>
      </trkpt>
      <trkpt lat="44.60658" lon="3.47823">
        <ele>1140.2349</ele>
        <time>2022-01-19T18:12:16Z</time>
      </trkpt>
      <trkpt lat="44.60657" lon="3.47824">
        <ele>1140.3142</ele>
        <time>2022-01-19T18:12:17Z</time>
      </trkpt>
      <trkpt lat="44.60656" lon="3.47825">
        <ele>1140.3829</ele>
        <time>2022-01-19T18:12:18Z</time>
      </trkpt>
      <trkpt lat="44.60657" lon="3.47827">
        <ele>1140.4252</ele>
        <time>2022-01-19T18:12:19Z</time>
      </trkpt>
      <trkpt lat="44.60657" lon="3.47828">
        <ele>1140.5203</ele>
        <time>2022-01-19T18:12:20Z</time>
      </trkpt>
      <trkpt lat="44.60656" lon="3.4783">
        <ele>1140.478</ele>
        <time>2022-01-19T18:12:21Z</time>
      </trkpt>
      <trkpt lat="44.60656" lon="3.47831">
        <ele>1140.663</ele>
        <time>2022-01-19T18:12:22Z</time>
      </trkpt>
      <trkpt lat="44.60656" lon="3.47833">
        <ele>1140.6577</ele>
        <time>2022-01-19T18:12:23Z</time>
      </trkpt>
      <trkpt lat="44.60655" lon="3.47834">
        <ele>1140.7263</ele>
        <time>2022-01-19T18:12:24Z</time>
      </trkpt>
      <trkpt lat="44.60654" lon="3.47835">
        <ele>1140.6947</ele>
        <time>2022-01-19T18:12:25Z</time>
      </trkpt>
      <trkpt lat="44.60653" lon="3.47837">
        <ele>1140.832</ele>
        <time>2022-01-19T18:12:26Z</time>
      </trkpt>
      <trkpt lat="44.60653" lon="3.47837">
        <ele>1140.7793</ele>
        <time>2022-01-19T18:12:27Z</time>
      </trkpt>
      <trkpt lat="44.60653" lon="3.47837">
        <ele>1140.7634</ele>
        <time>2022-01-19T18:12:28Z</time>
      </trkpt>
      <trkpt lat="44.60652" lon="3.47839">
        <ele>1140.7634</ele>
        <time>2022-01-19T18:12:29Z</time>
      </trkpt>
      <trkpt lat="44.60651" lon="3.4784">
        <ele>1140.8955</ele>
        <time>2022-01-19T18:12:30Z</time>
      </trkpt>
      <trkpt lat="44.60651" lon="3.47842">
        <ele>1141.0117</ele>
        <time>2022-01-19T18:12:31Z</time>
      </trkpt>
      <trkpt lat="44.6065" lon="3.47844">
        <ele>1141.0223</ele>
        <time>2022-01-19T18:12:32Z</time>
      </trkpt>
      <trkpt lat="44.6065" lon="3.47845">
        <ele>1141.0012</ele>
        <time>2022-01-19T18:12:33Z</time>
      </trkpt>
      <trkpt lat="44.60649" lon="3.47846">
        <ele>1140.98</ele>
        <time>2022-01-19T18:12:34Z</time>
      </trkpt>
      <trkpt lat="44.60648" lon="3.47848">
        <ele>1141.1174</ele>
        <time>2022-01-19T18:12:35Z</time>
      </trkpt>
      <trkpt lat="44.60646" lon="3.4785">
        <ele>1141.1544</ele>
        <time>2022-01-19T18:12:36Z</time>
      </trkpt>
      <trkpt lat="44.60645" lon="3.47851">
        <ele>1141.1174</ele>
        <time>2022-01-19T18:12:37Z</time>
      </trkpt>
      <trkpt lat="44.60645" lon="3.47852">
        <ele>1141.2073</ele>
        <time>2022-01-19T18:12:38Z</time>
      </trkpt>
      <trkpt lat="44.60643" lon="3.47853">
        <ele>1141.3711</ele>
        <time>2022-01-19T18:12:39Z</time>
      </trkpt>
      <trkpt lat="44.60642" lon="3.47854">
        <ele>1141.4663</ele>
        <time>2022-01-19T18:12:40Z</time>
      </trkpt>
      <trkpt lat="44.60641" lon="3.47855">
        <ele>1141.6301</ele>
        <time>2022-01-19T18:12:41Z</time>
      </trkpt>
      <trkpt lat="44.6064" lon="3.47856">
        <ele>1141.6565</ele>
        <time>2022-01-19T18:12:42Z</time>
      </trkpt>
      <trkpt lat="44.60639" lon="3.47856">
        <ele>1141.4768</ele>
        <time>2022-01-19T18:12:43Z</time>
      </trkpt>
      <trkpt lat="44.60638" lon="3.47857">
        <ele>1141.5297</ele>
        <time>2022-01-19T18:12:44Z</time>
      </trkpt>
      <trkpt lat="44.60637" lon="3.47859">
        <ele>1141.5719</ele>
        <time>2022-01-19T18:12:45Z</time>
      </trkpt>
      <trkpt lat="44.60636" lon="3.4786">
        <ele>1141.5138</ele>
        <time>2022-01-19T18:12:46Z</time>
      </trkpt>
      <trkpt lat="44.60635" lon="3.47861">
        <ele>1141.5508</ele>
        <time>2022-01-19T18:12:47Z</time>
      </trkpt>
      <trkpt lat="44.60634" lon="3.47862">
        <ele>1141.4503</ele>
        <time>2022-01-19T18:12:48Z</time>
      </trkpt>
      <trkpt lat="44.60632" lon="3.47862">
        <ele>1141.4028</ele>
        <time>2022-01-19T18:12:49Z</time>
      </trkpt>
      <trkpt lat="44.60631" lon="3.47863">
        <ele>1141.4081</ele>
        <time>2022-01-19T18:12:50Z</time>
      </trkpt>
      <trkpt lat="44.6063" lon="3.47864">
        <ele>1141.4028</ele>
        <time>2022-01-19T18:12:51Z</time>
      </trkpt>
      <trkpt lat="44.60628" lon="3.47864">
        <ele>1141.3976</ele>
        <time>2022-01-19T18:12:52Z</time>
      </trkpt>
      <trkpt lat="44.60627" lon="3.47865">
        <ele>1141.2549</ele>
        <time>2022-01-19T18:12:53Z</time>
      </trkpt>
      <trkpt lat="44.60626" lon="3.47866">
        <ele>1141.1597</ele>
        <time>2022-01-19T18:12:54Z</time>
      </trkpt>
      <trkpt lat="44.60625" lon="3.47867">
        <ele>1141.202</ele>
        <time>2022-01-19T18:12:55Z</time>
      </trkpt>
      <trkpt lat="44.60623" lon="3.47868">
        <ele>1141.1755</ele>
        <time>2022-01-19T18:12:56Z</time>
      </trkpt>
      <trkpt lat="44.60622" lon="3.47869">
        <ele>1141.1492</ele>
        <time>2022-01-19T18:12:57Z</time>
      </trkpt>
      <trkpt lat="44.60621" lon="3.47869">
        <ele>1141.2549</ele>
        <time>2022-01-19T18:12:58Z</time>
      </trkpt>
      <trkpt lat="44.6062" lon="3.4787">
        <ele>1141.202</ele>
        <time>2022-01-19T18:12:59Z</time>
      </trkpt>
      <trkpt lat="44.60619" lon="3.47871">
        <ele>1141.1862</ele>
        <time>2022-01-19T18:13:00Z</time>
      </trkpt>
      <trkpt lat="44.60617" lon="3.47873">
        <ele>1141.239</ele>
        <time>2022-01-19T18:13:01Z</time>
      </trkpt>
      <trkpt lat="44.60616" lon="3.47873">
        <ele>1141.2338</ele>
        <time>2022-01-19T18:13:02Z</time>
      </trkpt>
      <trkpt lat="44.60614" lon="3.47874">
        <ele>1141.2812</ele>
        <time>2022-01-19T18:13:03Z</time>
      </trkpt>
      <trkpt lat="44.60613" lon="3.47875">
        <ele>1141.3341</ele>
        <time>2022-01-19T18:13:04Z</time>
      </trkpt>
      <trkpt lat="44.60612" lon="3.47877">
        <ele>1141.2919</ele>
        <time>2022-01-19T18:13:05Z</time>
      </trkpt>
      <trkpt lat="44.60611" lon="3.47878">
        <ele>1141.276</ele>
        <time>2022-01-19T18:13:06Z</time>
      </trkpt>
      <trkpt lat="44.6061" lon="3.47879">
        <ele>1141.2601</ele>
        <time>2022-01-19T18:13:07Z</time>
      </trkpt>
      <trkpt lat="44.60609" lon="3.4788">
        <ele>1141.2865</ele>
        <time>2022-01-19T18:13:08Z</time>
      </trkpt>
      <trkpt lat="44.60608" lon="3.47881">
        <ele>1141.2919</ele>
        <time>2022-01-19T18:13:09Z</time>
      </trkpt>
      <trkpt lat="44.60607" lon="3.47882">
        <ele>1141.3395</ele>
        <time>2022-01-19T18:13:10Z</time>
      </trkpt>
      <trkpt lat="44.60606" lon="3.47883">
        <ele>1141.3289</ele>
        <time>2022-01-19T18:13:11Z</time>
      </trkpt>
      <trkpt lat="44.60605" lon="3.47884">
        <ele>1141.3447</ele>
        <time>2022-01-19T18:13:12Z</time>
      </trkpt>
      <trkpt lat="44.60603" lon="3.47885">
        <ele>1141.3763</ele>
        <time>2022-01-19T18:13:13Z</time>
      </trkpt>
      <trkpt lat="44.60602" lon="3.47886">
        <ele>1141.3552</ele>
        <time>2022-01-19T18:13:14Z</time>
      </trkpt>
      <trkpt lat="44.60601" lon="3.47887">
        <ele>1141.387</ele>
        <time>2022-01-19T18:13:15Z</time>
      </trkpt>
      <trkpt lat="44.606" lon="3.47888">
        <ele>1141.3552</ele>
        <time>2022-01-19T18:13:16Z</time>
      </trkpt>
      <trkpt lat="44.60598" lon="3.47888">
        <ele>1141.4768</ele>
        <time>2022-01-19T18:13:17Z</time>
      </trkpt>
      <trkpt lat="44.60597" lon="3.47888">
        <ele>1141.313</ele>
        <time>2022-01-19T18:13:18Z</time>
      </trkpt>
      <trkpt lat="44.60595" lon="3.47888">
        <ele>1141.4081</ele>
        <time>2022-01-19T18:13:19Z</time>
      </trkpt>
      <trkpt lat="44.60594" lon="3.47889">
        <ele>1141.4133</ele>
        <time>2022-01-19T18:13:20Z</time>
      </trkpt>
      <trkpt lat="44.60593" lon="3.47889">
        <ele>1141.4927</ele>
        <time>2022-01-19T18:13:21Z</time>
      </trkpt>
      <trkpt lat="44.60592" lon="3.47889">
        <ele>1141.5455</ele>
        <time>2022-01-19T18:13:22Z</time>
      </trkpt>
      <trkpt lat="44.60591" lon="3.4789">
        <ele>1141.667</ele>
        <time>2022-01-19T18:13:23Z</time>
      </trkpt>
      <trkpt lat="44.6059" lon="3.4789">
        <ele>1141.6143</ele>
        <time>2022-01-19T18:13:24Z</time>
      </trkpt>
      <trkpt lat="44.60589" lon="3.47891">
        <ele>1141.5244</ele>
        <time>2022-01-19T18:13:25Z</time>
      </trkpt>
      <trkpt lat="44.60589" lon="3.47892">
        <ele>1141.5613</ele>
        <time>2022-01-19T18:13:26Z</time>
      </trkpt>
      <trkpt lat="44.60587" lon="3.47892">
        <ele>1141.6406</ele>
        <time>2022-01-19T18:13:27Z</time>
      </trkpt>
      <trkpt lat="44.60587" lon="3.47893">
        <ele>1141.7781</ele>
        <time>2022-01-19T18:13:28Z</time>
      </trkpt>
      <trkpt lat="44.60586" lon="3.47893">
        <ele>1141.7198</ele>
        <time>2022-01-19T18:13:29Z</time>
      </trkpt>
      <trkpt lat="44.60585" lon="3.47894">
        <ele>1141.6301</ele>
        <time>2022-01-19T18:13:30Z</time>
      </trkpt>
      <trkpt lat="44.60584" lon="3.47894">
        <ele>1141.6195</ele>
        <time>2022-01-19T18:13:31Z</time>
      </trkpt>
      <trkpt lat="44.60584" lon="3.47895">
        <ele>1141.7622</ele>
        <time>2022-01-19T18:13:32Z</time>
      </trkpt>
      <trkpt lat="44.60582" lon="3.47895">
        <ele>1141.7146</ele>
        <time>2022-01-19T18:13:33Z</time>
      </trkpt>
      <trkpt lat="44.60581" lon="3.47895">
        <ele>1141.8308</ele>
        <time>2022-01-19T18:13:34Z</time>
      </trkpt>
      <trkpt lat="44.6058" lon="3.47896">
        <ele>1141.8203</ele>
        <time>2022-01-19T18:13:35Z</time>
      </trkpt>
      <trkpt lat="44.60579" lon="3.47897">
        <ele>1141.7675</ele>
        <time>2022-01-19T18:13:36Z</time>
      </trkpt>
      <trkpt lat="44.60577" lon="3.47898">
        <ele>1141.7833</ele>
        <time>2022-01-19T18:13:37Z</time>
      </trkpt>
      <trkpt lat="44.60576" lon="3.47899">
        <ele>1141.8151</ele>
        <time>2022-01-19T18:13:38Z</time>
      </trkpt>
      <trkpt lat="44.60575" lon="3.479">
        <ele>1141.9419</ele>
        <time>2022-01-19T18:13:39Z</time>
      </trkpt>
      <trkpt lat="44.60574" lon="3.479">
        <ele>1142.0634</ele>
        <time>2022-01-19T18:13:40Z</time>
      </trkpt>
      <trkpt lat="44.60572" lon="3.47901">
        <ele>1142.0265</ele>
        <time>2022-01-19T18:13:41Z</time>
      </trkpt>
      <trkpt lat="44.60571" lon="3.47901">
        <ele>1142.0951</ele>
        <time>2022-01-19T18:13:42Z</time>
      </trkpt>
      <trkpt lat="44.6057" lon="3.47902">
        <ele>1142.1638</ele>
        <time>2022-01-19T18:13:43Z</time>
      </trkpt>
      <trkpt lat="44.60569" lon="3.47903">
        <ele>1142.0951</ele>
        <time>2022-01-19T18:13:44Z</time>
      </trkpt>
      <trkpt lat="44.60568" lon="3.47903">
        <ele>1141.9735</ele>
        <time>2022-01-19T18:13:45Z</time>
      </trkpt>
      <trkpt lat="44.60566" lon="3.47904">
        <ele>1142.111</ele>
        <time>2022-01-19T18:13:46Z</time>
      </trkpt>
      <trkpt lat="44.60565" lon="3.47905">
        <ele>1142.2008</ele>
        <time>2022-01-19T18:13:47Z</time>
      </trkpt>
      <trkpt lat="44.60564" lon="3.47906">
        <ele>1142.2219</ele>
        <time>2022-01-19T18:13:48Z</time>
      </trkpt>
      <trkpt lat="44.60563" lon="3.47907">
        <ele>1142.2378</ele>
        <time>2022-01-19T18:13:49Z</time>
      </trkpt>
      <trkpt lat="44.60562" lon="3.47908">
        <ele>1142.354</ele>
        <time>2022-01-19T18:13:50Z</time>
      </trkpt>
      <trkpt lat="44.60561" lon="3.4791">
        <ele>1142.3699</ele>
        <time>2022-01-19T18:13:51Z</time>
      </trkpt>
      <trkpt lat="44.6056" lon="3.47911">
        <ele>1142.65</ele>
        <time>2022-01-19T18:13:52Z</time>
      </trkpt>
      <trkpt lat="44.60559" lon="3.47912">
        <ele>1143.6436</ele>
        <time>2022-01-19T18:13:53Z</time>
      </trkpt>
      <trkpt lat="44.60558" lon="3.47913">
        <ele>1142.5126</ele>
        <time>2022-01-19T18:13:54Z</time>
      </trkpt>
      <trkpt lat="44.60557" lon="3.47914">
        <ele>1142.481</ele>
        <time>2022-01-19T18:13:55Z</time>
      </trkpt>
      <trkpt lat="44.60556" lon="3.47915">
        <ele>1142.4333</ele>
        <time>2022-01-19T18:13:56Z</time>
      </trkpt>
      <trkpt lat="44.60555" lon="3.47916">
        <ele>1142.539</ele>
        <time>2022-01-19T18:13:57Z</time>
      </trkpt>
      <trkpt lat="44.60554" lon="3.47918">
        <ele>1142.5284</ele>
        <time>2022-01-19T18:13:58Z</time>
      </trkpt>
      <trkpt lat="44.60553" lon="3.47919">
        <ele>1142.5337</ele>
        <time>2022-01-19T18:13:59Z</time>
      </trkpt>
      <trkpt lat="44.60552" lon="3.4792">
        <ele>1142.7186</ele>
        <time>2022-01-19T18:14:00Z</time>
      </trkpt>
      <trkpt lat="44.60551" lon="3.47921">
        <ele>1142.7346</ele>
        <time>2022-01-19T18:14:01Z</time>
      </trkpt>
      <trkpt lat="44.6055" lon="3.47922">
        <ele>1142.8032</ele>
        <time>2022-01-19T18:14:02Z</time>
      </trkpt>
      <trkpt lat="44.60549" lon="3.47923">
        <ele>1142.8984</ele>
        <time>2022-01-19T18:14:03Z</time>
      </trkpt>
      <trkpt lat="44.60548" lon="3.47925">
        <ele>1142.8666</ele>
        <time>2022-01-19T18:14:04Z</time>
      </trkpt>
      <trkpt lat="44.60547" lon="3.47927">
        <ele>1142.9037</ele>
        <time>2022-01-19T18:14:05Z</time>
      </trkpt>
      <trkpt lat="44.60546" lon="3.47928">
        <ele>1142.9829</ele>
        <time>2022-01-19T18:14:06Z</time>
      </trkpt>
      <trkpt lat="44.60545" lon="3.47929">
        <ele>1143.1045</ele>
        <time>2022-01-19T18:14:07Z</time>
      </trkpt>
      <trkpt lat="44.60545" lon="3.4793">
        <ele>1143.2524</ele>
        <time>2022-01-19T18:14:08Z</time>
      </trkpt>
      <trkpt lat="44.60544" lon="3.47931">
        <ele>1143.1996</ele>
        <time>2022-01-19T18:14:09Z</time>
      </trkpt>
      <trkpt lat="44.60543" lon="3.47932">
        <ele>1143.4639</ele>
        <time>2022-01-19T18:14:10Z</time>
      </trkpt>
      <trkpt lat="44.60541" lon="3.47935">
        <ele>1143.4639</ele>
        <time>2022-01-19T18:14:12Z</time>
      </trkpt>
      <trkpt lat="44.60541" lon="3.47935">
        <ele>1143.4639</ele>
        <time>2022-01-19T18:14:12Z</time>
      </trkpt>
      <trkpt lat="44.6054" lon="3.47936">
        <ele>1143.5009</ele>
        <time>2022-01-19T18:14:13Z</time>
      </trkpt>
      <trkpt lat="44.6054" lon="3.47938">
        <ele>1143.6171</ele>
        <time>2022-01-19T18:14:14Z</time>
      </trkpt>
      <trkpt lat="44.60537" lon="3.4794">
        <ele>1143.8866</ele>
        <time>2022-01-19T18:14:16Z</time>
      </trkpt>
      <trkpt lat="44.60537" lon="3.4794">
        <ele>1143.8866</ele>
        <time>2022-01-19T18:14:16Z</time>
      </trkpt>
      <trkpt lat="44.60535" lon="3.47942">
        <ele>1144.1403</ele>
        <time>2022-01-19T18:14:18Z</time>
      </trkpt>
      <trkpt lat="44.60534" lon="3.47943">
        <ele>1144.2406</ele>
        <time>2022-01-19T18:14:19Z</time>
      </trkpt>
      <trkpt lat="44.60533" lon="3.47944">
        <ele>1144.415</ele>
        <time>2022-01-19T18:14:20Z</time>
      </trkpt>
      <trkpt lat="44.60532" lon="3.47945">
        <ele>1144.5366</ele>
        <time>2022-01-19T18:14:21Z</time>
      </trkpt>
      <trkpt lat="44.60531" lon="3.47946">
        <ele>1144.6317</ele>
        <time>2022-01-19T18:14:22Z</time>
      </trkpt>
      <trkpt lat="44.60531" lon="3.47946">
        <ele>1144.6317</ele>
        <time>2022-01-19T18:14:22Z</time>
      </trkpt>
      <trkpt lat="44.60529" lon="3.47949">
        <ele>1145.0017</ele>
        <time>2022-01-19T18:14:24Z</time>
      </trkpt>
      <trkpt lat="44.60529" lon="3.4795">
        <ele>1145.1919</ele>
        <time>2022-01-19T18:14:25Z</time>
      </trkpt>
      <trkpt lat="44.60528" lon="3.47951">
        <ele>1145.3768</ele>
        <time>2022-01-19T18:14:26Z</time>
      </trkpt>
      <trkpt lat="44.60528" lon="3.47952">
        <ele>1145.5143</ele>
        <time>2022-01-19T18:14:27Z</time>
      </trkpt>
      <trkpt lat="44.60527" lon="3.47953">
        <ele>1145.731</ele>
        <time>2022-01-19T18:14:28Z</time>
      </trkpt>
      <trkpt lat="44.60526" lon="3.47954">
        <ele>1145.7415</ele>
        <time>2022-01-19T18:14:29Z</time>
      </trkpt>
      <trkpt lat="44.60525" lon="3.47955">
        <ele>1146.0057</ele>
        <time>2022-01-19T18:14:30Z</time>
      </trkpt>
      <trkpt lat="44.60524" lon="3.47956">
        <ele>1146.159</ele>
        <time>2022-01-19T18:14:31Z</time>
      </trkpt>
      <trkpt lat="44.60523" lon="3.47958">
        <ele>1146.3334</ele>
        <time>2022-01-19T18:14:32Z</time>
      </trkpt>
      <trkpt lat="44.60522" lon="3.47959">
        <ele>1146.5342</ele>
        <time>2022-01-19T18:14:33Z</time>
      </trkpt>
      <trkpt lat="44.60521" lon="3.47961">
        <ele>1146.7615</ele>
        <time>2022-01-19T18:14:34Z</time>
      </trkpt>
      <trkpt lat="44.6052" lon="3.47962">
        <ele>1146.8143</ele>
        <time>2022-01-19T18:14:35Z</time>
      </trkpt>
      <trkpt lat="44.60519" lon="3.47963">
        <ele>1146.9305</ele>
        <time>2022-01-19T18:14:36Z</time>
      </trkpt>
      <trkpt lat="44.60518" lon="3.47964">
        <ele>1147.0415</ele>
        <time>2022-01-19T18:14:37Z</time>
      </trkpt>
      <trkpt lat="44.60517" lon="3.47964">
        <ele>1147.1525</ele>
        <time>2022-01-19T18:14:38Z</time>
      </trkpt>
      <trkpt lat="44.60516" lon="3.47965">
        <ele>1147.496</ele>
        <time>2022-01-19T18:14:39Z</time>
      </trkpt>
      <trkpt lat="44.60515" lon="3.47967">
        <ele>1147.5964</ele>
        <time>2022-01-19T18:14:40Z</time>
      </trkpt>
      <trkpt lat="44.60514" lon="3.47967">
        <ele>1147.6704</ele>
        <time>2022-01-19T18:14:41Z</time>
      </trkpt>
      <trkpt lat="44.60513" lon="3.47968">
        <ele>1147.8025</ele>
        <time>2022-01-19T18:14:42Z</time>
      </trkpt>
      <trkpt lat="44.60512" lon="3.47969">
        <ele>1147.8131</ele>
        <time>2022-01-19T18:14:43Z</time>
      </trkpt>
      <trkpt lat="44.60511" lon="3.4797">
        <ele>1147.8871</ele>
        <time>2022-01-19T18:14:44Z</time>
      </trkpt>
      <trkpt lat="44.60511" lon="3.4797">
        <ele>1147.8871</ele>
        <time>2022-01-19T18:14:44Z</time>
      </trkpt>
      <trkpt lat="44.60508" lon="3.47973">
        <ele>1148.0033</ele>
        <time>2022-01-19T18:14:46Z</time>
      </trkpt>
      <trkpt lat="44.60508" lon="3.47974">
        <ele>1148.0668</ele>
        <time>2022-01-19T18:14:47Z</time>
      </trkpt>
      <trkpt lat="44.60506" lon="3.47975">
        <ele>1148.1196</ele>
        <time>2022-01-19T18:14:48Z</time>
      </trkpt>
      <trkpt lat="44.60506" lon="3.47977">
        <ele>1148.1882</ele>
        <time>2022-01-19T18:14:49Z</time>
      </trkpt>
      <trkpt lat="44.60505" lon="3.47977">
        <ele>1148.2834</ele>
        <time>2022-01-19T18:14:50Z</time>
      </trkpt>
      <trkpt lat="44.60504" lon="3.47978">
        <ele>1148.3997</ele>
        <time>2022-01-19T18:14:51Z</time>
      </trkpt>
      <trkpt lat="44.60503" lon="3.47979">
        <ele>1148.4103</ele>
        <time>2022-01-19T18:14:52Z</time>
      </trkpt>
      <trkpt lat="44.60502" lon="3.4798">
        <ele>1148.4948</ele>
        <time>2022-01-19T18:14:53Z</time>
      </trkpt>
      <trkpt lat="44.60501" lon="3.47982">
        <ele>1148.5846</ele>
        <time>2022-01-19T18:14:54Z</time>
      </trkpt>
      <trkpt lat="44.605" lon="3.47983">
        <ele>1148.516</ele>
        <time>2022-01-19T18:14:55Z</time>
      </trkpt>
      <trkpt lat="44.60499" lon="3.47985">
        <ele>1148.5952</ele>
        <time>2022-01-19T18:14:56Z</time>
      </trkpt>
      <trkpt lat="44.60499" lon="3.47985">
        <ele>1148.5952</ele>
        <time>2022-01-19T18:14:56Z</time>
      </trkpt>
      <trkpt lat="44.60498" lon="3.47988">
        <ele>1148.7114</ele>
        <time>2022-01-19T18:14:58Z</time>
      </trkpt>
      <trkpt lat="44.60497" lon="3.4799">
        <ele>1148.8014</ele>
        <time>2022-01-19T18:14:59Z</time>
      </trkpt>
      <trkpt lat="44.60497" lon="3.47991">
        <ele>1148.8066</ele>
        <time>2022-01-19T18:15:00Z</time>
      </trkpt>
      <trkpt lat="44.60496" lon="3.47992">
        <ele>1148.8436</ele>
        <time>2022-01-19T18:15:01Z</time>
      </trkpt>
      <trkpt lat="44.60495" lon="3.47993">
        <ele>1148.8436</ele>
        <time>2022-01-19T18:15:02Z</time>
      </trkpt>
      <trkpt lat="44.60494" lon="3.47994">
        <ele>1148.8647</ele>
        <time>2022-01-19T18:15:03Z</time>
      </trkpt>
      <trkpt lat="44.60493" lon="3.47994">
        <ele>1148.9598</ele>
        <time>2022-01-19T18:15:04Z</time>
      </trkpt>
      <trkpt lat="44.60492" lon="3.47994">
        <ele>1148.9175</ele>
        <time>2022-01-19T18:15:05Z</time>
      </trkpt>
      <trkpt lat="44.60491" lon="3.47996">
        <ele>1148.9916</ele>
        <time>2022-01-19T18:15:06Z</time>
      </trkpt>
      <trkpt lat="44.6049" lon="3.47997">
        <ele>1149.0656</ele>
        <time>2022-01-19T18:15:07Z</time>
      </trkpt>
      <trkpt lat="44.60489" lon="3.47998">
        <ele>1149.1132</ele>
        <time>2022-01-19T18:15:08Z</time>
      </trkpt>
      <trkpt lat="44.60488" lon="3.48">
        <ele>1149.2664</ele>
        <time>2022-01-19T18:15:09Z</time>
      </trkpt>
      <trkpt lat="44.60488" lon="3.48002">
        <ele>1149.3616</ele>
        <time>2022-01-19T18:15:10Z</time>
      </trkpt>
      <trkpt lat="44.60487" lon="3.48003">
        <ele>1149.3351</ele>
        <time>2022-01-19T18:15:11Z</time>
      </trkpt>
      <trkpt lat="44.60486" lon="3.48004">
        <ele>1149.2981</ele>
        <time>2022-01-19T18:15:12Z</time>
      </trkpt>
      <trkpt lat="44.60485" lon="3.48006">
        <ele>1149.4724</ele>
        <time>2022-01-19T18:15:13Z</time>
      </trkpt>
      <trkpt lat="44.60484" lon="3.48006">
        <ele>1149.446</ele>
        <time>2022-01-19T18:15:14Z</time>
      </trkpt>
      <trkpt lat="44.60483" lon="3.48007">
        <ele>1149.5253</ele>
        <time>2022-01-19T18:15:15Z</time>
      </trkpt>
      <trkpt lat="44.60482" lon="3.48008">
        <ele>1149.6257</ele>
        <time>2022-01-19T18:15:16Z</time>
      </trkpt>
      <trkpt lat="44.60482" lon="3.4801">
        <ele>1149.5992</ele>
        <time>2022-01-19T18:15:17Z</time>
      </trkpt>
      <trkpt lat="44.60481" lon="3.48011">
        <ele>1149.6997</ele>
        <time>2022-01-19T18:15:18Z</time>
      </trkpt>
      <trkpt lat="44.60481" lon="3.48013">
        <ele>1149.6997</ele>
        <time>2022-01-19T18:15:19Z</time>
      </trkpt>
      <trkpt lat="44.6048" lon="3.48014">
        <ele>1149.6891</ele>
        <time>2022-01-19T18:15:20Z</time>
      </trkpt>
      <trkpt lat="44.60479" lon="3.48015">
        <ele>1149.8002</ele>
        <time>2022-01-19T18:15:21Z</time>
      </trkpt>
      <trkpt lat="44.60479" lon="3.48017">
        <ele>1149.6997</ele>
        <time>2022-01-19T18:15:22Z</time>
      </trkpt>
      <trkpt lat="44.60478" lon="3.48019">
        <ele>1149.7314</ele>
        <time>2022-01-19T18:15:23Z</time>
      </trkpt>
      <trkpt lat="44.60477" lon="3.48021">
        <ele>1149.8213</ele>
        <time>2022-01-19T18:15:24Z</time>
      </trkpt>
      <trkpt lat="44.60477" lon="3.48022">
        <ele>1149.874</ele>
        <time>2022-01-19T18:15:25Z</time>
      </trkpt>
      <trkpt lat="44.60476" lon="3.48024">
        <ele>1149.9956</ele>
        <time>2022-01-19T18:15:26Z</time>
      </trkpt>
      <trkpt lat="44.60476" lon="3.48026">
        <ele>1149.8846</ele>
        <time>2022-01-19T18:15:27Z</time>
      </trkpt>
      <trkpt lat="44.60475" lon="3.48027">
        <ele>1150.0009</ele>
        <time>2022-01-19T18:15:28Z</time>
      </trkpt>
      <trkpt lat="44.60475" lon="3.48028">
        <ele>1149.927</ele>
        <time>2022-01-19T18:15:29Z</time>
      </trkpt>
      <trkpt lat="44.60474" lon="3.4803">
        <ele>1150.0854</ele>
        <time>2022-01-19T18:15:30Z</time>
      </trkpt>
      <trkpt lat="44.60473" lon="3.48031">
        <ele>1150.075</ele>
        <time>2022-01-19T18:15:31Z</time>
      </trkpt>
      <trkpt lat="44.60473" lon="3.48033">
        <ele>1149.9586</ele>
        <time>2022-01-19T18:15:32Z</time>
      </trkpt>
      <trkpt lat="44.60472" lon="3.48034">
        <ele>1149.9481</ele>
        <time>2022-01-19T18:15:33Z</time>
      </trkpt>
      <trkpt lat="44.60471" lon="3.48036">
        <ele>1149.964</ele>
        <time>2022-01-19T18:15:34Z</time>
      </trkpt>
      <trkpt lat="44.6047" lon="3.48037">
        <ele>1150.0908</ele>
        <time>2022-01-19T18:15:35Z</time>
      </trkpt>
      <trkpt lat="44.60469" lon="3.48039">
        <ele>1150.1859</ele>
        <time>2022-01-19T18:15:36Z</time>
      </trkpt>
      <trkpt lat="44.60469" lon="3.4804">
        <ele>1150.0643</ele>
        <time>2022-01-19T18:15:37Z</time>
      </trkpt>
      <trkpt lat="44.60469" lon="3.48042">
        <ele>1150.2969</ele>
        <time>2022-01-19T18:15:38Z</time>
      </trkpt>
      <trkpt lat="44.60468" lon="3.48043">
        <ele>1150.2493</ele>
        <time>2022-01-19T18:15:39Z</time>
      </trkpt>
      <trkpt lat="44.60468" lon="3.48044">
        <ele>1150.2018</ele>
        <time>2022-01-19T18:15:40Z</time>
      </trkpt>
      <trkpt lat="44.60467" lon="3.48046">
        <ele>1150.3127</ele>
        <time>2022-01-19T18:15:41Z</time>
      </trkpt>
      <trkpt lat="44.60466" lon="3.48047">
        <ele>1150.244</ele>
        <time>2022-01-19T18:15:42Z</time>
      </trkpt>
      <trkpt lat="44.60466" lon="3.48048">
        <ele>1150.2493</ele>
        <time>2022-01-19T18:15:43Z</time>
      </trkpt>
      <trkpt lat="44.60466" lon="3.4805">
        <ele>1150.3392</ele>
        <time>2022-01-19T18:15:44Z</time>
      </trkpt>
      <trkpt lat="44.60465" lon="3.48052">
        <ele>1150.4872</ele>
        <time>2022-01-19T18:15:45Z</time>
      </trkpt>
      <trkpt lat="44.60465" lon="3.48053">
        <ele>1150.3604</ele>
        <time>2022-01-19T18:15:46Z</time>
      </trkpt>
      <trkpt lat="44.60464" lon="3.48055">
        <ele>1150.3339</ele>
        <time>2022-01-19T18:15:47Z</time>
      </trkpt>
      <trkpt lat="44.60463" lon="3.48056">
        <ele>1150.3656</ele>
        <time>2022-01-19T18:15:48Z</time>
      </trkpt>
      <trkpt lat="44.60463" lon="3.48058">
        <ele>1150.3815</ele>
        <time>2022-01-19T18:15:49Z</time>
      </trkpt>
      <trkpt lat="44.60462" lon="3.48059">
        <ele>1150.3497</ele>
        <time>2022-01-19T18:15:50Z</time>
      </trkpt>
      <trkpt lat="44.60461" lon="3.4806">
        <ele>1150.3604</ele>
        <time>2022-01-19T18:15:51Z</time>
      </trkpt>
      <trkpt lat="44.60461" lon="3.48061">
        <ele>1150.3815</ele>
        <time>2022-01-19T18:15:52Z</time>
      </trkpt>
      <trkpt lat="44.6046" lon="3.48063">
        <ele>1150.3761</ele>
        <time>2022-01-19T18:15:53Z</time>
      </trkpt>
      <trkpt lat="44.6046" lon="3.48064">
        <ele>1150.4342</ele>
        <time>2022-01-19T18:15:54Z</time>
      </trkpt>
      <trkpt lat="44.60459" lon="3.48066">
        <ele>1150.4026</ele>
        <time>2022-01-19T18:15:55Z</time>
      </trkpt>
      <trkpt lat="44.60458" lon="3.48068">
        <ele>1150.4553</ele>
        <time>2022-01-19T18:15:56Z</time>
      </trkpt>
      <trkpt lat="44.60458" lon="3.48069">
        <ele>1150.3656</ele>
        <time>2022-01-19T18:15:57Z</time>
      </trkpt>
      <trkpt lat="44.60458" lon="3.4807">
        <ele>1150.4872</ele>
        <time>2022-01-19T18:15:58Z</time>
      </trkpt>
      <trkpt lat="44.60457" lon="3.48071">
        <ele>1150.3656</ele>
        <time>2022-01-19T18:15:59Z</time>
      </trkpt>
      <trkpt lat="44.60457" lon="3.48073">
        <ele>1150.4185</ele>
        <time>2022-01-19T18:16:00Z</time>
      </trkpt>
      <trkpt lat="44.60456" lon="3.48074">
        <ele>1150.6932</ele>
        <time>2022-01-19T18:16:01Z</time>
      </trkpt>
      <trkpt lat="44.60456" lon="3.48075">
        <ele>1150.3127</ele>
        <time>2022-01-19T18:16:02Z</time>
      </trkpt>
      <trkpt lat="44.60456" lon="3.48077">
        <ele>1150.318</ele>
        <time>2022-01-19T18:16:03Z</time>
      </trkpt>
      <trkpt lat="44.60455" lon="3.48079">
        <ele>1150.2335</ele>
        <time>2022-01-19T18:16:04Z</time>
      </trkpt>
      <trkpt lat="44.60455" lon="3.48081">
        <ele>1150.2651</ele>
        <time>2022-01-19T18:16:05Z</time>
      </trkpt>
      <trkpt lat="44.60455" lon="3.48083">
        <ele>1150.2018</ele>
        <time>2022-01-19T18:16:06Z</time>
      </trkpt>
      <trkpt lat="44.60454" lon="3.48084">
        <ele>1150.207</ele>
        <time>2022-01-19T18:16:07Z</time>
      </trkpt>
      <trkpt lat="44.60454" lon="3.48086">
        <ele>1150.1172</ele>
        <time>2022-01-19T18:16:08Z</time>
      </trkpt>
      <trkpt lat="44.60454" lon="3.48088">
        <ele>1150.133</ele>
        <time>2022-01-19T18:16:09Z</time>
      </trkpt>
      <trkpt lat="44.60454" lon="3.4809">
        <ele>1150.1172</ele>
        <time>2022-01-19T18:16:10Z</time>
      </trkpt>
      <trkpt lat="44.60453" lon="3.48092">
        <ele>1150.0591</ele>
        <time>2022-01-19T18:16:11Z</time>
      </trkpt>
      <trkpt lat="44.60454" lon="3.48094">
        <ele>1150.1172</ele>
        <time>2022-01-19T18:16:12Z</time>
      </trkpt>
      <trkpt lat="44.60453" lon="3.48096">
        <ele>1150.1013</ele>
        <time>2022-01-19T18:16:13Z</time>
      </trkpt>
      <trkpt lat="44.60454" lon="3.48098">
        <ele>1150.1224</ele>
        <time>2022-01-19T18:16:14Z</time>
      </trkpt>
      <trkpt lat="44.60454" lon="3.481">
        <ele>1150.1594</ele>
        <time>2022-01-19T18:16:15Z</time>
      </trkpt>
      <trkpt lat="44.60454" lon="3.48102">
        <ele>1150.1489</ele>
        <time>2022-01-19T18:16:16Z</time>
      </trkpt>
      <trkpt lat="44.60454" lon="3.48104">
        <ele>1150.1912</ele>
        <time>2022-01-19T18:16:17Z</time>
      </trkpt>
      <trkpt lat="44.60454" lon="3.48106">
        <ele>1150.1224</ele>
        <time>2022-01-19T18:16:18Z</time>
      </trkpt>
      <trkpt lat="44.60454" lon="3.48108">
        <ele>1149.9375</ele>
        <time>2022-01-19T18:16:19Z</time>
      </trkpt>
      <trkpt lat="44.60454" lon="3.4811">
        <ele>1149.8477</ele>
        <time>2022-01-19T18:16:20Z</time>
      </trkpt>
      <trkpt lat="44.60454" lon="3.48111">
        <ele>1149.9164</ele>
        <time>2022-01-19T18:16:21Z</time>
      </trkpt>
      <trkpt lat="44.60454" lon="3.48111">
        <ele>1149.9216</ele>
        <time>2022-01-19T18:16:22Z</time>
      </trkpt>
      <trkpt lat="44.60454" lon="3.4811">
        <ele>1149.927</ele>
        <time>2022-01-19T18:16:23Z</time>
      </trkpt>
      <trkpt lat="44.60454" lon="3.48109">
        <ele>1149.927</ele>
        <time>2022-01-19T18:16:24Z</time>
      </trkpt>
      <trkpt lat="44.60454" lon="3.48107">
        <ele>1149.9851</ele>
        <time>2022-01-19T18:16:25Z</time>
      </trkpt>
      <trkpt lat="44.60454" lon="3.48105">
        <ele>1149.9904</ele>
        <time>2022-01-19T18:16:26Z</time>
      </trkpt>
      <trkpt lat="44.60454" lon="3.48103">
        <ele>1150.0326</ele>
        <time>2022-01-19T18:16:27Z</time>
      </trkpt>
      <trkpt lat="44.60453" lon="3.48101">
        <ele>1150.0908</ele>
        <time>2022-01-19T18:16:28Z</time>
      </trkpt>
      <trkpt lat="44.60454" lon="3.48099">
        <ele>1150.075</ele>
        <time>2022-01-19T18:16:29Z</time>
      </trkpt>
      <trkpt lat="44.60453" lon="3.48097">
        <ele>1150.1278</ele>
        <time>2022-01-19T18:16:30Z</time>
      </trkpt>
      <trkpt lat="44.60453" lon="3.48095">
        <ele>1150.0908</ele>
        <time>2022-01-19T18:16:31Z</time>
      </trkpt>
      <trkpt lat="44.60453" lon="3.48094">
        <ele>1150.0537</ele>
        <time>2022-01-19T18:16:32Z</time>
      </trkpt>
      <trkpt lat="44.60454" lon="3.48092">
        <ele>1150.1489</ele>
        <time>2022-01-19T18:16:33Z</time>
      </trkpt>
      <trkpt lat="44.60454" lon="3.4809">
        <ele>1150.1489</ele>
        <time>2022-01-19T18:16:34Z</time>
      </trkpt>
      <trkpt lat="44.60454" lon="3.48089">
        <ele>1150.1172</ele>
        <time>2022-01-19T18:16:35Z</time>
      </trkpt>
      <trkpt lat="44.60455" lon="3.48088">
        <ele>1150.1119</ele>
        <time>2022-01-19T18:16:36Z</time>
      </trkpt>
      <trkpt lat="44.60455" lon="3.48087">
        <ele>1150.1278</ele>
        <time>2022-01-19T18:16:37Z</time>
      </trkpt>
      <trkpt lat="44.60456" lon="3.48085">
        <ele>1150.1172</ele>
        <time>2022-01-19T18:16:38Z</time>
      </trkpt>
      <trkpt lat="44.60456" lon="3.48083">
        <ele>1150.1436</ele>
        <time>2022-01-19T18:16:39Z</time>
      </trkpt>
      <trkpt lat="44.60456" lon="3.48081">
        <ele>1150.0908</ele>
        <time>2022-01-19T18:16:40Z</time>
      </trkpt>
      <trkpt lat="44.60456" lon="3.48079">
        <ele>1150.1753</ele>
        <time>2022-01-19T18:16:41Z</time>
      </trkpt>
      <trkpt lat="44.60457" lon="3.48078">
        <ele>1150.2863</ele>
        <time>2022-01-19T18:16:42Z</time>
      </trkpt>
      <trkpt lat="44.60457" lon="3.48077">
        <ele>1150.2281</ele>
        <time>2022-01-19T18:16:43Z</time>
      </trkpt>
      <trkpt lat="44.60457" lon="3.48075">
        <ele>1150.207</ele>
        <time>2022-01-19T18:16:44Z</time>
      </trkpt>
      <trkpt lat="44.60458" lon="3.48074">
        <ele>1150.2281</ele>
        <time>2022-01-19T18:16:45Z</time>
      </trkpt>
      <trkpt lat="44.60458" lon="3.48073">
        <ele>1150.2546</ele>
        <time>2022-01-19T18:16:46Z</time>
      </trkpt>
      <trkpt lat="44.60459" lon="3.48071">
        <ele>1150.2018</ele>
        <time>2022-01-19T18:16:47Z</time>
      </trkpt>
      <trkpt lat="44.60459" lon="3.48069">
        <ele>1150.3074</ele>
        <time>2022-01-19T18:16:48Z</time>
      </trkpt>
      <trkpt lat="44.6046" lon="3.48067">
        <ele>1150.244</ele>
        <time>2022-01-19T18:16:49Z</time>
      </trkpt>
      <trkpt lat="44.6046" lon="3.48066">
        <ele>1150.2493</ele>
        <time>2022-01-19T18:16:50Z</time>
      </trkpt>
      <trkpt lat="44.60461" lon="3.48064">
        <ele>1150.1594</ele>
        <time>2022-01-19T18:16:51Z</time>
      </trkpt>
      <trkpt lat="44.60461" lon="3.48062">
        <ele>1150.2493</ele>
        <time>2022-01-19T18:16:52Z</time>
      </trkpt>
      <trkpt lat="44.60462" lon="3.48061">
        <ele>1150.2177</ele>
        <time>2022-01-19T18:16:53Z</time>
      </trkpt>
      <trkpt lat="44.60463" lon="3.4806">
        <ele>1150.2018</ele>
        <time>2022-01-19T18:16:54Z</time>
      </trkpt>
      <trkpt lat="44.60463" lon="3.48059">
        <ele>1150.2704</ele>
        <time>2022-01-19T18:16:55Z</time>
      </trkpt>
      <trkpt lat="44.60464" lon="3.48058">
        <ele>1150.2281</ele>
        <time>2022-01-19T18:16:56Z</time>
      </trkpt>
      <trkpt lat="44.60465" lon="3.48056">
        <ele>1150.1489</ele>
        <time>2022-01-19T18:16:57Z</time>
      </trkpt>
      <trkpt lat="44.60465" lon="3.48055">
        <ele>1150.1594</ele>
        <time>2022-01-19T18:16:58Z</time>
      </trkpt>
      <trkpt lat="44.60466" lon="3.48054">
        <ele>1150.1224</ele>
        <time>2022-01-19T18:16:59Z</time>
      </trkpt>
      <trkpt lat="44.60466" lon="3.48053">
        <ele>1150.1647</ele>
        <time>2022-01-19T18:17:00Z</time>
      </trkpt>
      <trkpt lat="44.60466" lon="3.48051">
        <ele>1150.2123</ele>
        <time>2022-01-19T18:17:01Z</time>
      </trkpt>
      <trkpt lat="44.60467" lon="3.4805">
        <ele>1150.1753</ele>
        <time>2022-01-19T18:17:02Z</time>
      </trkpt>
      <trkpt lat="44.60468" lon="3.48048">
        <ele>1150.1119</ele>
        <time>2022-01-19T18:17:03Z</time>
      </trkpt>
      <trkpt lat="44.60468" lon="3.48046">
        <ele>1150.075</ele>
        <time>2022-01-19T18:17:04Z</time>
      </trkpt>
      <trkpt lat="44.60468" lon="3.48044">
        <ele>1149.9956</ele>
        <time>2022-01-19T18:17:05Z</time>
      </trkpt>
      <trkpt lat="44.60469" lon="3.48043">
        <ele>1149.964</ele>
        <time>2022-01-19T18:17:06Z</time>
      </trkpt>
      <trkpt lat="44.6047" lon="3.48042">
        <ele>1149.9904</ele>
        <time>2022-01-19T18:17:07Z</time>
      </trkpt>
      <trkpt lat="44.60471" lon="3.48041">
        <ele>1149.8899</ele>
        <time>2022-01-19T18:17:08Z</time>
      </trkpt>
      <trkpt lat="44.60472" lon="3.48039">
        <ele>1149.9586</ele>
        <time>2022-01-19T18:17:09Z</time>
      </trkpt>
      <trkpt lat="44.60473" lon="3.48038">
        <ele>1149.9164</ele>
        <time>2022-01-19T18:17:10Z</time>
      </trkpt>
      <trkpt lat="44.60473" lon="3.48036">
        <ele>1149.9375</ele>
        <time>2022-01-19T18:17:11Z</time>
      </trkpt>
      <trkpt lat="44.60473" lon="3.48035">
        <ele>1149.9164</ele>
        <time>2022-01-19T18:17:12Z</time>
      </trkpt>
      <trkpt lat="44.60473" lon="3.48033">
        <ele>1149.8529</ele>
        <time>2022-01-19T18:17:13Z</time>
      </trkpt>
      <trkpt lat="44.60474" lon="3.48032">
        <ele>1149.8477</ele>
        <time>2022-01-19T18:17:14Z</time>
      </trkpt>
      <trkpt lat="44.60475" lon="3.48031">
        <ele>1149.742</ele>
        <time>2022-01-19T18:17:15Z</time>
      </trkpt>
      <trkpt lat="44.60476" lon="3.48029">
        <ele>1149.8318</ele>
        <time>2022-01-19T18:17:16Z</time>
      </trkpt>
      <trkpt lat="44.60477" lon="3.48029">
        <ele>1149.7208</ele>
        <time>2022-01-19T18:17:17Z</time>
      </trkpt>
      <trkpt lat="44.60477" lon="3.48027">
        <ele>1149.8002</ele>
        <time>2022-01-19T18:17:18Z</time>
      </trkpt>
      <trkpt lat="44.60478" lon="3.48026">
        <ele>1149.7208</ele>
        <time>2022-01-19T18:17:19Z</time>
      </trkpt>
      <trkpt lat="44.60479" lon="3.48024">
        <ele>1149.5781</ele>
        <time>2022-01-19T18:17:20Z</time>
      </trkpt>
      <trkpt lat="44.6048" lon="3.48022">
        <ele>1149.5306</ele>
        <time>2022-01-19T18:17:21Z</time>
      </trkpt>
      <trkpt lat="44.60481" lon="3.48021">
        <ele>1149.5148</ele>
        <time>2022-01-19T18:17:22Z</time>
      </trkpt>
      <trkpt lat="44.60482" lon="3.48019">
        <ele>1149.4354</ele>
        <time>2022-01-19T18:17:23Z</time>
      </trkpt>
      <trkpt lat="44.60482" lon="3.48018">
        <ele>1149.388</ele>
        <time>2022-01-19T18:17:24Z</time>
      </trkpt>
      <trkpt lat="44.60483" lon="3.48017">
        <ele>1149.388</ele>
        <time>2022-01-19T18:17:25Z</time>
      </trkpt>
      <trkpt lat="44.60484" lon="3.48015">
        <ele>1149.4249</ele>
        <time>2022-01-19T18:17:26Z</time>
      </trkpt>
      <trkpt lat="44.60484" lon="3.48014">
        <ele>1149.1501</ele>
        <time>2022-01-19T18:17:27Z</time>
      </trkpt>
      <trkpt lat="44.60485" lon="3.48012">
        <ele>1149.2241</ele>
        <time>2022-01-19T18:17:28Z</time>
      </trkpt>
      <trkpt lat="44.60486" lon="3.4801">
        <ele>1149.1025</ele>
        <time>2022-01-19T18:17:29Z</time>
      </trkpt>
      <trkpt lat="44.60487" lon="3.48008">
        <ele>1149.2029</ele>
        <time>2022-01-19T18:17:30Z</time>
      </trkpt>
      <trkpt lat="44.60488" lon="3.48007">
        <ele>1149.0867</ele>
        <time>2022-01-19T18:17:31Z</time>
      </trkpt>
      <trkpt lat="44.60488" lon="3.48007">
        <ele>1149.1395</ele>
        <time>2022-01-19T18:17:32Z</time>
      </trkpt>
      <trkpt lat="44.60488" lon="3.48006">
        <ele>1149.187</ele>
        <time>2022-01-19T18:17:33Z</time>
      </trkpt>
      <trkpt lat="44.60489" lon="3.48007">
        <ele>1149.1659</ele>
        <time>2022-01-19T18:17:34Z</time>
      </trkpt>
      <trkpt lat="44.60489" lon="3.48007">
        <ele>1149.0127</ele>
        <time>2022-01-19T18:17:35Z</time>
      </trkpt>
      <trkpt lat="44.60489" lon="3.48006">
        <ele>1149.092</ele>
        <time>2022-01-19T18:17:36Z</time>
      </trkpt>
      <trkpt lat="44.60488" lon="3.48006">
        <ele>1149.1184</ele>
        <time>2022-01-19T18:17:37Z</time>
      </trkpt>
      <trkpt lat="44.60488" lon="3.48006">
        <ele>1149.1448</ele>
        <time>2022-01-19T18:17:38Z</time>
      </trkpt>
      <trkpt lat="44.60488" lon="3.48006">
        <ele>1149.0973</ele>
        <time>2022-01-19T18:17:39Z</time>
      </trkpt>
      <trkpt lat="44.60488" lon="3.48006">
        <ele>1149.0973</ele>
        <time>2022-01-19T18:17:39Z</time>
      </trkpt>
      <trkpt lat="44.60488" lon="3.48006">
        <ele>1149.0973</ele>
        <time>2022-01-19T18:17:39Z</time>
      </trkpt>
      <trkpt lat="44.60488" lon="3.48006">
        <ele>1149.0973</ele>
        <time>2022-01-19T18:17:39Z</time>
      </trkpt>
      <trkpt lat="44.6049" lon="3.47991">
        <ele>1148.6057</ele>
        <time>2022-01-19T18:19:02Z</time>
      </trkpt>
      <trkpt lat="44.6049" lon="3.4799">
        <ele>1148.5476</ele>
        <time>2022-01-19T18:19:03Z</time>
      </trkpt>
      <trkpt lat="44.6049" lon="3.4799">
        <ele>1148.5582</ele>
        <time>2022-01-19T18:19:04Z</time>
      </trkpt>
      <trkpt lat="44.60491" lon="3.4799">
        <ele>1148.6375</ele>
        <time>2022-01-19T18:19:05Z</time>
      </trkpt>
      <trkpt lat="44.60491" lon="3.4799">
        <ele>1148.6533</ele>
        <time>2022-01-19T18:19:06Z</time>
      </trkpt>
      <trkpt lat="44.60491" lon="3.4799">
        <ele>1148.4631</ele>
        <time>2022-01-19T18:19:07Z</time>
      </trkpt>
      <trkpt lat="44.60491" lon="3.4799">
        <ele>1148.4631</ele>
        <time>2022-01-19T18:19:07Z</time>
      </trkpt>
      <trkpt lat="44.60491" lon="3.4799">
        <ele>1148.4631</ele>
        <time>2022-01-19T18:19:07Z</time>
      </trkpt>
      <trkpt lat="44.60491" lon="3.4799">
        <ele>1148.4631</ele>
        <time>2022-01-19T18:19:07Z</time>
      </trkpt>
      <trkpt lat="44.60495" lon="3.47984">
        <ele>1148.0509</ele>
        <time>2022-01-19T18:19:26Z</time>
      </trkpt>
      <trkpt lat="44.60496" lon="3.47983">
        <ele>1148.0879</ele>
        <time>2022-01-19T18:19:27Z</time>
      </trkpt>
      <trkpt lat="44.60496" lon="3.47982">
        <ele>1148.1355</ele>
        <time>2022-01-19T18:19:28Z</time>
      </trkpt>
      <trkpt lat="44.60497" lon="3.4798">
        <ele>1147.998</ele>
        <time>2022-01-19T18:19:29Z</time>
      </trkpt>
      <trkpt lat="44.60497" lon="3.4798">
        <ele>1148.0455</ele>
        <time>2022-01-19T18:19:30Z</time>
      </trkpt>
      <trkpt lat="44.60498" lon="3.4798">
        <ele>1147.9928</ele>
        <time>2022-01-19T18:19:31Z</time>
      </trkpt>
      <trkpt lat="44.60498" lon="3.47979">
        <ele>1148.0509</ele>
        <time>2022-01-19T18:19:32Z</time>
      </trkpt>
      <trkpt lat="44.60498" lon="3.4798">
        <ele>1148.0879</ele>
        <time>2022-01-19T18:19:33Z</time>
      </trkpt>
      <trkpt lat="44.60499" lon="3.4798">
        <ele>1148.072</ele>
        <time>2022-01-19T18:19:34Z</time>
      </trkpt>
      <trkpt lat="44.605" lon="3.4798">
        <ele>1148.1355</ele>
        <time>2022-01-19T18:19:35Z</time>
      </trkpt>
      <trkpt lat="44.60501" lon="3.47981">
        <ele>1148.0985</ele>
        <time>2022-01-19T18:19:36Z</time>
      </trkpt>
      <trkpt lat="44.60502" lon="3.47981">
        <ele>1148.0614</ele>
        <time>2022-01-19T18:19:37Z</time>
      </trkpt>
      <trkpt lat="44.60502" lon="3.47981">
        <ele>1148.0614</ele>
        <time>2022-01-19T18:19:38Z</time>
      </trkpt>
      <trkpt lat="44.60502" lon="3.47981">
        <ele>1148.072</ele>
        <time>2022-01-19T18:19:39Z</time>
      </trkpt>
      <trkpt lat="44.60502" lon="3.47981">
        <ele>1148.2147</ele>
        <time>2022-01-19T18:19:40Z</time>
      </trkpt>
      <trkpt lat="44.60502" lon="3.47981">
        <ele>1148.2041</ele>
        <time>2022-01-19T18:19:41Z</time>
      </trkpt>
      <trkpt lat="44.60502" lon="3.47981">
        <ele>1148.2041</ele>
        <time>2022-01-19T18:19:41Z</time>
      </trkpt>
      <trkpt lat="44.60502" lon="3.47981">
        <ele>1148.2041</ele>
        <time>2022-01-19T18:19:41Z</time>
      </trkpt>
      <trkpt lat="44.60498" lon="3.47987">
        <ele>1148.4736</ele>
        <time>2022-01-19T18:20:08Z</time>
      </trkpt>
      <trkpt lat="44.60497" lon="3.47987">
        <ele>1148.4419</ele>
        <time>2022-01-19T18:20:09Z</time>
      </trkpt>
      <trkpt lat="44.60497" lon="3.47988">
        <ele>1148.5265</ele>
        <time>2022-01-19T18:20:10Z</time>
      </trkpt>
      <trkpt lat="44.60497" lon="3.47987">
        <ele>1148.3997</ele>
        <time>2022-01-19T18:20:11Z</time>
      </trkpt>
      <trkpt lat="44.60497" lon="3.47987">
        <ele>1148.3627</ele>
        <time>2022-01-19T18:20:12Z</time>
      </trkpt>
      <trkpt lat="44.60497" lon="3.47987">
        <ele>1148.5265</ele>
        <time>2022-01-19T18:20:13Z</time>
      </trkpt>
      <trkpt lat="44.60497" lon="3.47987">
        <ele>1148.4684</ele>
        <time>2022-01-19T18:20:14Z</time>
      </trkpt>
      <trkpt lat="44.60497" lon="3.47987">
        <ele>1148.4684</ele>
        <time>2022-01-19T18:20:14Z</time>
      </trkpt>
      <trkpt lat="44.60497" lon="3.47987">
        <ele>1148.4684</ele>
        <time>2022-01-19T18:20:14Z</time>
      </trkpt>
      <trkpt lat="44.60494" lon="3.47989">
        <ele>1148.907</ele>
        <time>2022-01-19T18:23:03Z</time>
      </trkpt>
      <trkpt lat="44.60495" lon="3.47989">
        <ele>1148.833</ele>
        <time>2022-01-19T18:23:04Z</time>
      </trkpt>
      <trkpt lat="44.60495" lon="3.47989">
        <ele>1148.8647</ele>
        <time>2022-01-19T18:23:05Z</time>
      </trkpt>
      <trkpt lat="44.60495" lon="3.47989">
        <ele>1148.8752</ele>
        <time>2022-01-19T18:23:06Z</time>
      </trkpt>
      <trkpt lat="44.60495" lon="3.47989">
        <ele>1148.8752</ele>
        <time>2022-01-19T18:23:06Z</time>
      </trkpt>
      <trkpt lat="44.60495" lon="3.47989">
        <ele>1148.8752</ele>
        <time>2022-01-19T18:23:06Z</time>
      </trkpt>
      <trkpt lat="44.60495" lon="3.47989">
        <ele>1148.8752</ele>
        <time>2022-01-19T18:23:06Z</time>
      </trkpt>
      <trkpt lat="44.60493" lon="3.47994">
        <ele>1149.2294</ele>
        <time>2022-01-19T18:23:42Z</time>
      </trkpt>
      <trkpt lat="44.60492" lon="3.47995">
        <ele>1149.24</ele>
        <time>2022-01-19T18:23:43Z</time>
      </trkpt>
      <trkpt lat="44.60492" lon="3.47996">
        <ele>1149.2241</ele>
        <time>2022-01-19T18:23:44Z</time>
      </trkpt>
      <trkpt lat="44.6049" lon="3.47997">
        <ele>1149.3721</ele>
        <time>2022-01-19T18:23:45Z</time>
      </trkpt>
      <trkpt lat="44.6049" lon="3.47999">
        <ele>1149.4038</ele>
        <time>2022-01-19T18:23:46Z</time>
      </trkpt>
      <trkpt lat="44.60489" lon="3.48">
        <ele>1149.4513</ele>
        <time>2022-01-19T18:23:47Z</time>
      </trkpt>
      <trkpt lat="44.60487" lon="3.48001">
        <ele>1149.483</ele>
        <time>2022-01-19T18:23:48Z</time>
      </trkpt>
      <trkpt lat="44.60487" lon="3.48002">
        <ele>1149.5042</ele>
        <time>2022-01-19T18:23:49Z</time>
      </trkpt>
      <trkpt lat="44.60486" lon="3.48003">
        <ele>1149.5729</ele>
        <time>2022-01-19T18:23:50Z</time>
      </trkpt>
      <trkpt lat="44.60485" lon="3.48004">
        <ele>1149.7102</ele>
        <time>2022-01-19T18:23:51Z</time>
      </trkpt>
      <trkpt lat="44.60485" lon="3.48005">
        <ele>1149.705</ele>
        <time>2022-01-19T18:23:52Z</time>
      </trkpt>
      <trkpt lat="44.60484" lon="3.48007">
        <ele>1149.7683</ele>
        <time>2022-01-19T18:23:53Z</time>
      </trkpt>
      <trkpt lat="44.60483" lon="3.48009">
        <ele>1149.9164</ele>
        <time>2022-01-19T18:23:54Z</time>
      </trkpt>
      <trkpt lat="44.60483" lon="3.4801">
        <ele>1149.9058</ele>
        <time>2022-01-19T18:23:55Z</time>
      </trkpt>
      <trkpt lat="44.60482" lon="3.48011">
        <ele>1149.9323</ele>
        <time>2022-01-19T18:23:56Z</time>
      </trkpt>
      <trkpt lat="44.60481" lon="3.48012">
        <ele>1149.964</ele>
        <time>2022-01-19T18:23:57Z</time>
      </trkpt>
      <trkpt lat="44.60481" lon="3.48013">
        <ele>1150.0326</ele>
        <time>2022-01-19T18:23:58Z</time>
      </trkpt>
      <trkpt lat="44.6048" lon="3.48014">
        <ele>1150.1436</ele>
        <time>2022-01-19T18:23:59Z</time>
      </trkpt>
      <trkpt lat="44.60479" lon="3.48016">
        <ele>1150.1278</ele>
        <time>2022-01-19T18:24:00Z</time>
      </trkpt>
      <trkpt lat="44.60479" lon="3.48017">
        <ele>1150.1647</ele>
        <time>2022-01-19T18:24:01Z</time>
      </trkpt>
      <trkpt lat="44.60477" lon="3.48019">
        <ele>1150.0432</ele>
        <time>2022-01-19T18:24:02Z</time>
      </trkpt>
      <trkpt lat="44.60477" lon="3.4802">
        <ele>1150.0432</ele>
        <time>2022-01-19T18:24:03Z</time>
      </trkpt>
      <trkpt lat="44.60476" lon="3.48022">
        <ele>1150.2177</ele>
        <time>2022-01-19T18:24:04Z</time>
      </trkpt>
      <trkpt lat="44.60476" lon="3.48023">
        <ele>1150.3392</ele>
        <time>2022-01-19T18:24:05Z</time>
      </trkpt>
      <trkpt lat="44.60474" lon="3.48024">
        <ele>1151.3168</ele>
        <time>2022-01-19T18:24:06Z</time>
      </trkpt>
      <trkpt lat="44.60474" lon="3.48025">
        <ele>1150.598</ele>
        <time>2022-01-19T18:24:07Z</time>
      </trkpt>
      <trkpt lat="44.60473" lon="3.48027">
        <ele>1150.4237</ele>
        <time>2022-01-19T18:24:08Z</time>
      </trkpt>
      <trkpt lat="44.60471" lon="3.48028">
        <ele>1150.2704</ele>
        <time>2022-01-19T18:24:09Z</time>
      </trkpt>
      <trkpt lat="44.6047" lon="3.48029">
        <ele>1150.3074</ele>
        <time>2022-01-19T18:24:10Z</time>
      </trkpt>
      <trkpt lat="44.60469" lon="3.4803">
        <ele>1150.4712</ele>
        <time>2022-01-19T18:24:11Z</time>
      </trkpt>
      <trkpt lat="44.60468" lon="3.48031">
        <ele>1150.4342</ele>
        <time>2022-01-19T18:24:12Z</time>
      </trkpt>
      <trkpt lat="44.60468" lon="3.48032">
        <ele>1150.4237</ele>
        <time>2022-01-19T18:24:13Z</time>
      </trkpt>
      <trkpt lat="44.60467" lon="3.48033">
        <ele>1150.5928</ele>
        <time>2022-01-19T18:24:14Z</time>
      </trkpt>
      <trkpt lat="44.60466" lon="3.48035">
        <ele>1150.6615</ele>
        <time>2022-01-19T18:24:15Z</time>
      </trkpt>
      <trkpt lat="44.60465" lon="3.48037">
        <ele>1150.6456</ele>
        <time>2022-01-19T18:24:16Z</time>
      </trkpt>
      <trkpt lat="44.60465" lon="3.48039">
        <ele>1150.6351</ele>
        <time>2022-01-19T18:24:17Z</time>
      </trkpt>
      <trkpt lat="44.60464" lon="3.48041">
        <ele>1150.6193</ele>
        <time>2022-01-19T18:24:18Z</time>
      </trkpt>
      <trkpt lat="44.60463" lon="3.48042">
        <ele>1150.6667</ele>
        <time>2022-01-19T18:24:19Z</time>
      </trkpt>
      <trkpt lat="44.60463" lon="3.48044">
        <ele>1150.7566</ele>
        <time>2022-01-19T18:24:20Z</time>
      </trkpt>
      <trkpt lat="44.60462" lon="3.48046">
        <ele>1150.762</ele>
        <time>2022-01-19T18:24:21Z</time>
      </trkpt>
      <trkpt lat="44.60462" lon="3.48049">
        <ele>1150.8201</ele>
        <time>2022-01-19T18:24:22Z</time>
      </trkpt>
      <trkpt lat="44.60462" lon="3.48051">
        <ele>1150.9099</ele>
        <time>2022-01-19T18:24:23Z</time>
      </trkpt>
      <trkpt lat="44.60461" lon="3.48053">
        <ele>1150.968</ele>
        <time>2022-01-19T18:24:24Z</time>
      </trkpt>
      <trkpt lat="44.6046" lon="3.48055">
        <ele>1150.9628</ele>
        <time>2022-01-19T18:24:25Z</time>
      </trkpt>
      <trkpt lat="44.6046" lon="3.48057">
        <ele>1151.0579</ele>
        <time>2022-01-19T18:24:26Z</time>
      </trkpt>
      <trkpt lat="44.60459" lon="3.48059">
        <ele>1151.0474</ele>
        <time>2022-01-19T18:24:27Z</time>
      </trkpt>
      <trkpt lat="44.60459" lon="3.4806">
        <ele>1151.0155</ele>
        <time>2022-01-19T18:24:28Z</time>
      </trkpt>
      <trkpt lat="44.60459" lon="3.48062">
        <ele>1151.005</ele>
        <time>2022-01-19T18:24:29Z</time>
      </trkpt>
      <trkpt lat="44.60458" lon="3.48063">
        <ele>1150.9944</ele>
        <time>2022-01-19T18:24:30Z</time>
      </trkpt>
      <trkpt lat="44.60458" lon="3.48065">
        <ele>1150.894</ele>
        <time>2022-01-19T18:24:31Z</time>
      </trkpt>
      <trkpt lat="44.60457" lon="3.48067">
        <ele>1150.8729</ele>
        <time>2022-01-19T18:24:32Z</time>
      </trkpt>
      <trkpt lat="44.60457" lon="3.48068">
        <ele>1150.8676</ele>
        <time>2022-01-19T18:24:33Z</time>
      </trkpt>
      <trkpt lat="44.60457" lon="3.48069">
        <ele>1150.7725</ele>
        <time>2022-01-19T18:24:34Z</time>
      </trkpt>
      <trkpt lat="44.60456" lon="3.4807">
        <ele>1150.7883</ele>
        <time>2022-01-19T18:24:35Z</time>
      </trkpt>
      <trkpt lat="44.60455" lon="3.48072">
        <ele>1150.8729</ele>
        <time>2022-01-19T18:24:36Z</time>
      </trkpt>
      <trkpt lat="44.60455" lon="3.48074">
        <ele>1150.8517</ele>
        <time>2022-01-19T18:24:37Z</time>
      </trkpt>
      <trkpt lat="44.60455" lon="3.48076">
        <ele>1150.9099</ele>
        <time>2022-01-19T18:24:38Z</time>
      </trkpt>
      <trkpt lat="44.60455" lon="3.48078">
        <ele>1150.8887</ele>
        <time>2022-01-19T18:24:39Z</time>
      </trkpt>
      <trkpt lat="44.60455" lon="3.4808">
        <ele>1150.8993</ele>
        <time>2022-01-19T18:24:40Z</time>
      </trkpt>
      <trkpt lat="44.60455" lon="3.48081">
        <ele>1151.042</ele>
        <time>2022-01-19T18:24:41Z</time>
      </trkpt>
      <trkpt lat="44.60455" lon="3.48083">
        <ele>1150.894</ele>
        <time>2022-01-19T18:24:42Z</time>
      </trkpt>
      <trkpt lat="44.60455" lon="3.48084">
        <ele>1150.9628</ele>
        <time>2022-01-19T18:24:43Z</time>
      </trkpt>
      <trkpt lat="44.60455" lon="3.48086">
        <ele>1150.9099</ele>
        <time>2022-01-19T18:24:44Z</time>
      </trkpt>
      <trkpt lat="44.60455" lon="3.48088">
        <ele>1150.9628</ele>
        <time>2022-01-19T18:24:45Z</time>
      </trkpt>
      <trkpt lat="44.60455" lon="3.48089">
        <ele>1150.9047</ele>
        <time>2022-01-19T18:24:46Z</time>
      </trkpt>
      <trkpt lat="44.60455" lon="3.48091">
        <ele>1150.8782</ele>
        <time>2022-01-19T18:24:47Z</time>
      </trkpt>
      <trkpt lat="44.60454" lon="3.48093">
        <ele>1150.9258</ele>
        <time>2022-01-19T18:24:48Z</time>
      </trkpt>
      <trkpt lat="44.60454" lon="3.48095">
        <ele>1150.7144</ele>
        <time>2022-01-19T18:24:49Z</time>
      </trkpt>
      <trkpt lat="44.60453" lon="3.48096">
        <ele>1150.6667</ele>
        <time>2022-01-19T18:24:50Z</time>
      </trkpt>
      <trkpt lat="44.60453" lon="3.48098">
        <ele>1150.6774</ele>
        <time>2022-01-19T18:24:51Z</time>
      </trkpt>
      <trkpt lat="44.60454" lon="3.481">
        <ele>1150.6193</ele>
        <time>2022-01-19T18:24:52Z</time>
      </trkpt>
      <trkpt lat="44.60454" lon="3.48102">
        <ele>1150.6086</ele>
        <time>2022-01-19T18:24:53Z</time>
      </trkpt>
      <trkpt lat="44.60455" lon="3.48103">
        <ele>1150.6299</ele>
        <time>2022-01-19T18:24:54Z</time>
      </trkpt>
      <trkpt lat="44.60455" lon="3.48106">
        <ele>1150.4924</ele>
        <time>2022-01-19T18:24:55Z</time>
      </trkpt>
      <trkpt lat="44.60455" lon="3.48108">
        <ele>1150.429</ele>
        <time>2022-01-19T18:24:56Z</time>
      </trkpt>
      <trkpt lat="44.60455" lon="3.4811">
        <ele>1150.3708</ele>
        <time>2022-01-19T18:24:57Z</time>
      </trkpt>
      <trkpt lat="44.60456" lon="3.48113">
        <ele>1150.2281</ele>
        <time>2022-01-19T18:24:58Z</time>
      </trkpt>
      <trkpt lat="44.60456" lon="3.48115">
        <ele>1150.1013</ele>
        <time>2022-01-19T18:24:59Z</time>
      </trkpt>
      <trkpt lat="44.60457" lon="3.48117">
        <ele>1150.0221</ele>
        <time>2022-01-19T18:25:00Z</time>
      </trkpt>
      <trkpt lat="44.60457" lon="3.48119">
        <ele>1149.9534</ele>
        <time>2022-01-19T18:25:01Z</time>
      </trkpt>
      <trkpt lat="44.60457" lon="3.48121">
        <ele>1149.7896</ele>
        <time>2022-01-19T18:25:02Z</time>
      </trkpt>
      <trkpt lat="44.60457" lon="3.48123">
        <ele>1149.5834</ele>
        <time>2022-01-19T18:25:03Z</time>
      </trkpt>
      <trkpt lat="44.60458" lon="3.48125">
        <ele>1149.4565</ele>
        <time>2022-01-19T18:25:04Z</time>
      </trkpt>
      <trkpt lat="44.60458" lon="3.48127">
        <ele>1149.4513</ele>
        <time>2022-01-19T18:25:05Z</time>
      </trkpt>
      <trkpt lat="44.60459" lon="3.48129">
        <ele>1149.2611</ele>
        <time>2022-01-19T18:25:06Z</time>
      </trkpt>
      <trkpt lat="44.6046" lon="3.48131">
        <ele>1149.2559</ele>
        <time>2022-01-19T18:25:07Z</time>
      </trkpt>
      <trkpt lat="44.6046" lon="3.48134">
        <ele>1149.018</ele>
        <time>2022-01-19T18:25:08Z</time>
      </trkpt>
      <trkpt lat="44.60461" lon="3.48135">
        <ele>1148.7908</ele>
        <time>2022-01-19T18:25:09Z</time>
      </trkpt>
      <trkpt lat="44.60461" lon="3.48137">
        <ele>1148.8171</ele>
        <time>2022-01-19T18:25:10Z</time>
      </trkpt>
      <trkpt lat="44.60462" lon="3.48139">
        <ele>1148.7749</ele>
        <time>2022-01-19T18:25:11Z</time>
      </trkpt>
      <trkpt lat="44.60462" lon="3.48141">
        <ele>1148.7062</ele>
        <time>2022-01-19T18:25:12Z</time>
      </trkpt>
      <trkpt lat="44.60463" lon="3.48143">
        <ele>1148.6533</ele>
        <time>2022-01-19T18:25:13Z</time>
      </trkpt>
      <trkpt lat="44.60463" lon="3.48145">
        <ele>1148.5</ele>
        <time>2022-01-19T18:25:14Z</time>
      </trkpt>
      <trkpt lat="44.60463" lon="3.48147">
        <ele>1148.368</ele>
        <time>2022-01-19T18:25:15Z</time>
      </trkpt>
      <trkpt lat="44.60464" lon="3.48148">
        <ele>1148.4314</ele>
        <time>2022-01-19T18:25:16Z</time>
      </trkpt>
      <trkpt lat="44.60465" lon="3.4815">
        <ele>1148.4155</ele>
        <time>2022-01-19T18:25:17Z</time>
      </trkpt>
      <trkpt lat="44.60465" lon="3.48152">
        <ele>1148.3839</ele>
        <time>2022-01-19T18:25:18Z</time>
      </trkpt>
      <trkpt lat="44.60465" lon="3.48153">
        <ele>1148.3046</ele>
        <time>2022-01-19T18:25:19Z</time>
      </trkpt>
      <trkpt lat="44.60466" lon="3.48155">
        <ele>1148.2517</ele>
        <time>2022-01-19T18:25:20Z</time>
      </trkpt>
      <trkpt lat="44.60466" lon="3.48157">
        <ele>1148.2253</ele>
        <time>2022-01-19T18:25:21Z</time>
      </trkpt>
      <trkpt lat="44.60467" lon="3.48159">
        <ele>1148.2465</ele>
        <time>2022-01-19T18:25:22Z</time>
      </trkpt>
      <trkpt lat="44.60467" lon="3.48161">
        <ele>1148.183</ele>
        <time>2022-01-19T18:25:23Z</time>
      </trkpt>
      <trkpt lat="44.60468" lon="3.48162">
        <ele>1148.146</ele>
        <time>2022-01-19T18:25:24Z</time>
      </trkpt>
      <trkpt lat="44.60468" lon="3.48164">
        <ele>1148.0826</ele>
        <time>2022-01-19T18:25:25Z</time>
      </trkpt>
      <trkpt lat="44.60469" lon="3.48165">
        <ele>1148.072</ele>
        <time>2022-01-19T18:25:26Z</time>
      </trkpt>
      <trkpt lat="44.6047" lon="3.48167">
        <ele>1148.0087</ele>
        <time>2022-01-19T18:25:27Z</time>
      </trkpt>
      <trkpt lat="44.6047" lon="3.48168">
        <ele>1148.0931</ele>
        <time>2022-01-19T18:25:28Z</time>
      </trkpt>
      <trkpt lat="44.60471" lon="3.4817">
        <ele>1148.0192</ele>
        <time>2022-01-19T18:25:29Z</time>
      </trkpt>
      <trkpt lat="44.60471" lon="3.48171">
        <ele>1147.9398</ele>
        <time>2022-01-19T18:25:30Z</time>
      </trkpt>
      <trkpt lat="44.60472" lon="3.48173">
        <ele>1147.7919</ele>
        <time>2022-01-19T18:25:31Z</time>
      </trkpt>
      <trkpt lat="44.60473" lon="3.48175">
        <ele>1147.9663</ele>
        <time>2022-01-19T18:25:32Z</time>
      </trkpt>
      <trkpt lat="44.60473" lon="3.48177">
        <ele>1148.0509</ele>
        <time>2022-01-19T18:25:33Z</time>
      </trkpt>
      <trkpt lat="44.60474" lon="3.48179">
        <ele>1148.0033</ele>
        <time>2022-01-19T18:25:34Z</time>
      </trkpt>
      <trkpt lat="44.60474" lon="3.48181">
        <ele>1148.0562</ele>
        <time>2022-01-19T18:25:35Z</time>
      </trkpt>
      <trkpt lat="44.60474" lon="3.48184">
        <ele>1147.8606</ele>
        <time>2022-01-19T18:25:36Z</time>
      </trkpt>
      <trkpt lat="44.60475" lon="3.48186">
        <ele>1147.866</ele>
        <time>2022-01-19T18:25:37Z</time>
      </trkpt>
      <trkpt lat="44.60476" lon="3.48187">
        <ele>1147.7866</ele>
        <time>2022-01-19T18:25:38Z</time>
      </trkpt>
      <trkpt lat="44.60476" lon="3.48189">
        <ele>1147.7496</ele>
        <time>2022-01-19T18:25:39Z</time>
      </trkpt>
      <trkpt lat="44.60476" lon="3.48191">
        <ele>1147.6863</ele>
        <time>2022-01-19T18:25:40Z</time>
      </trkpt>
      <trkpt lat="44.60476" lon="3.48193">
        <ele>1147.6968</ele>
        <time>2022-01-19T18:25:41Z</time>
      </trkpt>
      <trkpt lat="44.60477" lon="3.48195">
        <ele>1147.628</ele>
        <time>2022-01-19T18:25:42Z</time>
      </trkpt>
      <trkpt lat="44.60477" lon="3.48197">
        <ele>1147.7285</ele>
        <time>2022-01-19T18:25:43Z</time>
      </trkpt>
      <trkpt lat="44.60477" lon="3.48199">
        <ele>1147.6757</ele>
        <time>2022-01-19T18:25:44Z</time>
      </trkpt>
      <trkpt lat="44.60477" lon="3.48201">
        <ele>1147.6228</ele>
        <time>2022-01-19T18:25:45Z</time>
      </trkpt>
      <trkpt lat="44.60478" lon="3.48203">
        <ele>1147.6492</ele>
        <time>2022-01-19T18:25:46Z</time>
      </trkpt>
      <trkpt lat="44.60479" lon="3.48205">
        <ele>1147.6439</ele>
        <time>2022-01-19T18:25:47Z</time>
      </trkpt>
      <trkpt lat="44.60479" lon="3.48207">
        <ele>1147.6387</ele>
        <time>2022-01-19T18:25:48Z</time>
      </trkpt>
      <trkpt lat="44.6048" lon="3.48209">
        <ele>1147.5858</ele>
        <time>2022-01-19T18:25:49Z</time>
      </trkpt>
      <trkpt lat="44.6048" lon="3.48211">
        <ele>1147.5436</ele>
        <time>2022-01-19T18:25:50Z</time>
      </trkpt>
      <trkpt lat="44.60481" lon="3.48213">
        <ele>1147.4749</ele>
        <time>2022-01-19T18:25:51Z</time>
      </trkpt>
      <trkpt lat="44.60481" lon="3.48214">
        <ele>1147.5066</ele>
        <time>2022-01-19T18:25:52Z</time>
      </trkpt>
      <trkpt lat="44.60481" lon="3.48217">
        <ele>1147.5488</ele>
        <time>2022-01-19T18:25:53Z</time>
      </trkpt>
      <trkpt lat="44.60482" lon="3.48219">
        <ele>1147.459</ele>
        <time>2022-01-19T18:25:54Z</time>
      </trkpt>
      <trkpt lat="44.60482" lon="3.48221">
        <ele>1147.4061</ele>
        <time>2022-01-19T18:25:55Z</time>
      </trkpt>
      <trkpt lat="44.60483" lon="3.48223">
        <ele>1147.4115</ele>
        <time>2022-01-19T18:25:56Z</time>
      </trkpt>
      <trkpt lat="44.60483" lon="3.48225">
        <ele>1147.459</ele>
        <time>2022-01-19T18:25:57Z</time>
      </trkpt>
      <trkpt lat="44.60484" lon="3.48227">
        <ele>1147.5647</ele>
        <time>2022-01-19T18:25:58Z</time>
      </trkpt>
      <trkpt lat="44.60484" lon="3.48229">
        <ele>1147.5012</ele>
        <time>2022-01-19T18:25:59Z</time>
      </trkpt>
      <trkpt lat="44.60485" lon="3.48231">
        <ele>1147.6069</ele>
        <time>2022-01-19T18:26:00Z</time>
      </trkpt>
      <trkpt lat="44.60486" lon="3.48232">
        <ele>1147.5331</ele>
        <time>2022-01-19T18:26:01Z</time>
      </trkpt>
      <trkpt lat="44.60486" lon="3.48234">
        <ele>1147.5118</ele>
        <time>2022-01-19T18:26:02Z</time>
      </trkpt>
      <trkpt lat="44.60486" lon="3.48236">
        <ele>1147.5594</ele>
        <time>2022-01-19T18:26:03Z</time>
      </trkpt>
      <trkpt lat="44.60487" lon="3.48237">
        <ele>1147.5225</ele>
        <time>2022-01-19T18:26:04Z</time>
      </trkpt>
      <trkpt lat="44.60487" lon="3.48239">
        <ele>1147.5331</ele>
        <time>2022-01-19T18:26:05Z</time>
      </trkpt>
      <trkpt lat="44.60488" lon="3.48241">
        <ele>1147.6757</ele>
        <time>2022-01-19T18:26:06Z</time>
      </trkpt>
      <trkpt lat="44.60488" lon="3.48242">
        <ele>1148.9705</ele>
        <time>2022-01-19T18:26:07Z</time>
      </trkpt>
      <trkpt lat="44.60489" lon="3.48244">
        <ele>1147.8025</ele>
        <time>2022-01-19T18:26:08Z</time>
      </trkpt>
      <trkpt lat="44.60489" lon="3.48246">
        <ele>1147.5383</ele>
        <time>2022-01-19T18:26:09Z</time>
      </trkpt>
      <trkpt lat="44.60489" lon="3.48247">
        <ele>1147.5806</ele>
        <time>2022-01-19T18:26:10Z</time>
      </trkpt>
      <trkpt lat="44.6049" lon="3.48249">
        <ele>1147.5542</ele>
        <time>2022-01-19T18:26:11Z</time>
      </trkpt>
      <trkpt lat="44.6049" lon="3.4825">
        <ele>1147.6228</ele>
        <time>2022-01-19T18:26:12Z</time>
      </trkpt>
      <trkpt lat="44.60491" lon="3.48252">
        <ele>1147.5383</ele>
        <time>2022-01-19T18:26:13Z</time>
      </trkpt>
      <trkpt lat="44.60491" lon="3.48254">
        <ele>1147.459</ele>
        <time>2022-01-19T18:26:14Z</time>
      </trkpt>
      <trkpt lat="44.60491" lon="3.48256">
        <ele>1147.6123</ele>
        <time>2022-01-19T18:26:15Z</time>
      </trkpt>
      <trkpt lat="44.60492" lon="3.48257">
        <ele>1147.6439</ele>
        <time>2022-01-19T18:26:16Z</time>
      </trkpt>
      <trkpt lat="44.60492" lon="3.48259">
        <ele>1147.5436</ele>
        <time>2022-01-19T18:26:17Z</time>
      </trkpt>
      <trkpt lat="44.60493" lon="3.4826">
        <ele>1147.5912</ele>
        <time>2022-01-19T18:26:18Z</time>
      </trkpt>
      <trkpt lat="44.60494" lon="3.48262">
        <ele>1147.718</ele>
        <time>2022-01-19T18:26:19Z</time>
      </trkpt>
      <trkpt lat="44.60494" lon="3.48264">
        <ele>1147.5912</ele>
        <time>2022-01-19T18:26:20Z</time>
      </trkpt>
      <trkpt lat="44.60495" lon="3.48266">
        <ele>1147.5436</ele>
        <time>2022-01-19T18:26:21Z</time>
      </trkpt>
      <trkpt lat="44.60495" lon="3.48268">
        <ele>1147.4696</ele>
        <time>2022-01-19T18:26:22Z</time>
      </trkpt>
      <trkpt lat="44.60496" lon="3.48269">
        <ele>1147.4801</ele>
        <time>2022-01-19T18:26:23Z</time>
      </trkpt>
      <trkpt lat="44.60497" lon="3.48271">
        <ele>1147.5225</ele>
        <time>2022-01-19T18:26:24Z</time>
      </trkpt>
      <trkpt lat="44.60497" lon="3.48273">
        <ele>1147.5012</ele>
        <time>2022-01-19T18:26:25Z</time>
      </trkpt>
      <trkpt lat="44.60497" lon="3.48275">
        <ele>1147.4801</ele>
        <time>2022-01-19T18:26:26Z</time>
      </trkpt>
      <trkpt lat="44.60498" lon="3.48277">
        <ele>1147.4167</ele>
        <time>2022-01-19T18:26:27Z</time>
      </trkpt>
      <trkpt lat="44.60498" lon="3.48277">
        <ele>1147.5331</ele>
        <time>2022-01-19T18:26:28Z</time>
      </trkpt>
      <trkpt lat="44.60499" lon="3.48279">
        <ele>1147.3691</ele>
        <time>2022-01-19T18:26:29Z</time>
      </trkpt>
      <trkpt lat="44.605" lon="3.4828">
        <ele>1147.4431</ele>
        <time>2022-01-19T18:26:30Z</time>
      </trkpt>
      <trkpt lat="44.605" lon="3.48282">
        <ele>1147.5594</ele>
        <time>2022-01-19T18:26:31Z</time>
      </trkpt>
      <trkpt lat="44.60501" lon="3.48283">
        <ele>1147.4696</ele>
        <time>2022-01-19T18:26:32Z</time>
      </trkpt>
      <trkpt lat="44.60501" lon="3.48285">
        <ele>1147.4379</ele>
        <time>2022-01-19T18:26:33Z</time>
      </trkpt>
      <trkpt lat="44.60502" lon="3.48287">
        <ele>1147.4696</ele>
        <time>2022-01-19T18:26:34Z</time>
      </trkpt>
      <trkpt lat="44.60502" lon="3.48289">
        <ele>1147.3798</ele>
        <time>2022-01-19T18:26:35Z</time>
      </trkpt>
      <trkpt lat="44.60502" lon="3.4829">
        <ele>1147.4274</ele>
        <time>2022-01-19T18:26:36Z</time>
      </trkpt>
      <trkpt lat="44.60503" lon="3.48293">
        <ele>1147.4642</ele>
        <time>2022-01-19T18:26:37Z</time>
      </trkpt>
      <trkpt lat="44.60504" lon="3.48295">
        <ele>1147.4379</ele>
        <time>2022-01-19T18:26:38Z</time>
      </trkpt>
      <trkpt lat="44.60505" lon="3.48297">
        <ele>1147.2952</ele>
        <time>2022-01-19T18:26:39Z</time>
      </trkpt>
      <trkpt lat="44.60505" lon="3.48299">
        <ele>1147.3374</ele>
        <time>2022-01-19T18:26:40Z</time>
      </trkpt>
      <trkpt lat="44.60506" lon="3.48301">
        <ele>1147.3585</ele>
        <time>2022-01-19T18:26:41Z</time>
      </trkpt>
      <trkpt lat="44.60507" lon="3.48303">
        <ele>1147.3744</ele>
        <time>2022-01-19T18:26:42Z</time>
      </trkpt>
      <trkpt lat="44.60508" lon="3.48305">
        <ele>1147.3428</ele>
        <time>2022-01-19T18:26:43Z</time>
      </trkpt>
      <trkpt lat="44.60509" lon="3.48307">
        <ele>1147.2793</ele>
        <time>2022-01-19T18:26:44Z</time>
      </trkpt>
      <trkpt lat="44.60509" lon="3.48309">
        <ele>1147.348</ele>
        <time>2022-01-19T18:26:45Z</time>
      </trkpt>
      <trkpt lat="44.6051" lon="3.48311">
        <ele>1147.3217</ele>
        <time>2022-01-19T18:26:46Z</time>
      </trkpt>
      <trkpt lat="44.6051" lon="3.48313">
        <ele>1147.3533</ele>
        <time>2022-01-19T18:26:47Z</time>
      </trkpt>
      <trkpt lat="44.60511" lon="3.48315">
        <ele>1147.237</ele>
        <time>2022-01-19T18:26:48Z</time>
      </trkpt>
      <trkpt lat="44.60512" lon="3.48317">
        <ele>1147.2529</ele>
        <time>2022-01-19T18:26:49Z</time>
      </trkpt>
      <trkpt lat="44.60513" lon="3.48319">
        <ele>1147.3163</ele>
        <time>2022-01-19T18:26:50Z</time>
      </trkpt>
      <trkpt lat="44.60513" lon="3.48321">
        <ele>1147.2264</ele>
        <time>2022-01-19T18:26:51Z</time>
      </trkpt>
      <trkpt lat="44.60514" lon="3.48323">
        <ele>1147.274</ele>
        <time>2022-01-19T18:26:52Z</time>
      </trkpt>
      <trkpt lat="44.60515" lon="3.48324">
        <ele>1147.1736</ele>
        <time>2022-01-19T18:26:53Z</time>
      </trkpt>
      <trkpt lat="44.60515" lon="3.48326">
        <ele>1147.1683</ele>
        <time>2022-01-19T18:26:54Z</time>
      </trkpt>
      <trkpt lat="44.60516" lon="3.48328">
        <ele>1147.1155</ele>
        <time>2022-01-19T18:26:55Z</time>
      </trkpt>
      <trkpt lat="44.60516" lon="3.4833">
        <ele>1146.9993</ele>
        <time>2022-01-19T18:26:56Z</time>
      </trkpt>
      <trkpt lat="44.60517" lon="3.48332">
        <ele>1147.1102</ele>
        <time>2022-01-19T18:26:57Z</time>
      </trkpt>
      <trkpt lat="44.60518" lon="3.48334">
        <ele>1147.0679</ele>
        <time>2022-01-19T18:26:58Z</time>
      </trkpt>
      <trkpt lat="44.60519" lon="3.48336">
        <ele>1147.0151</ele>
        <time>2022-01-19T18:26:59Z</time>
      </trkpt>
      <trkpt lat="44.60519" lon="3.48338">
        <ele>1147.0997</ele>
        <time>2022-01-19T18:27:00Z</time>
      </trkpt>
      <trkpt lat="44.6052" lon="3.48339">
        <ele>1146.9729</ele>
        <time>2022-01-19T18:27:01Z</time>
      </trkpt>
      <trkpt lat="44.60521" lon="3.48341">
        <ele>1147.1102</ele>
        <time>2022-01-19T18:27:02Z</time>
      </trkpt>
      <trkpt lat="44.60521" lon="3.48343">
        <ele>1146.9623</ele>
        <time>2022-01-19T18:27:03Z</time>
      </trkpt>
      <trkpt lat="44.60522" lon="3.48345">
        <ele>1146.9993</ele>
        <time>2022-01-19T18:27:04Z</time>
      </trkpt>
      <trkpt lat="44.60523" lon="3.48347">
        <ele>1147.0045</ele>
        <time>2022-01-19T18:27:05Z</time>
      </trkpt>
      <trkpt lat="44.60523" lon="3.48349">
        <ele>1147.1155</ele>
        <time>2022-01-19T18:27:06Z</time>
      </trkpt>
      <trkpt lat="44.60524" lon="3.48351">
        <ele>1147.031</ele>
        <time>2022-01-19T18:27:07Z</time>
      </trkpt>
      <trkpt lat="44.60524" lon="3.48353">
        <ele>1147.0045</ele>
        <time>2022-01-19T18:27:08Z</time>
      </trkpt>
      <trkpt lat="44.60524" lon="3.48354">
        <ele>1146.9729</ele>
        <time>2022-01-19T18:27:09Z</time>
      </trkpt>
      <trkpt lat="44.60525" lon="3.48356">
        <ele>1147.0045</ele>
        <time>2022-01-19T18:27:10Z</time>
      </trkpt>
      <trkpt lat="44.60526" lon="3.48358">
        <ele>1147.0837</ele>
        <time>2022-01-19T18:27:11Z</time>
      </trkpt>
      <trkpt lat="44.60526" lon="3.4836">
        <ele>1147.0944</ele>
        <time>2022-01-19T18:27:12Z</time>
      </trkpt>
      <trkpt lat="44.60527" lon="3.48362">
        <ele>1147.0204</ele>
        <time>2022-01-19T18:27:13Z</time>
      </trkpt>
      <trkpt lat="44.60527" lon="3.48364">
        <ele>1147.031</ele>
        <time>2022-01-19T18:27:14Z</time>
      </trkpt>
      <trkpt lat="44.60528" lon="3.48366">
        <ele>1147.0045</ele>
        <time>2022-01-19T18:27:15Z</time>
      </trkpt>
      <trkpt lat="44.60528" lon="3.48367">
        <ele>1146.8883</ele>
        <time>2022-01-19T18:27:16Z</time>
      </trkpt>
      <trkpt lat="44.60529" lon="3.48369">
        <ele>1146.9147</ele>
        <time>2022-01-19T18:27:17Z</time>
      </trkpt>
      <trkpt lat="44.60529" lon="3.4837">
        <ele>1147.1208</ele>
        <time>2022-01-19T18:27:18Z</time>
      </trkpt>
      <trkpt lat="44.6053" lon="3.48372">
        <ele>1147.0415</ele>
        <time>2022-01-19T18:27:19Z</time>
      </trkpt>
      <trkpt lat="44.60531" lon="3.48374">
        <ele>1147.0837</ele>
        <time>2022-01-19T18:27:20Z</time>
      </trkpt>
      <trkpt lat="44.60531" lon="3.48376">
        <ele>1147.1525</ele>
        <time>2022-01-19T18:27:21Z</time>
      </trkpt>
      <trkpt lat="44.60532" lon="3.48378">
        <ele>1147.0468</ele>
        <time>2022-01-19T18:27:22Z</time>
      </trkpt>
      <trkpt lat="44.60533" lon="3.4838">
        <ele>1147.1102</ele>
        <time>2022-01-19T18:27:23Z</time>
      </trkpt>
      <trkpt lat="44.60533" lon="3.48381">
        <ele>1147.2001</ele>
        <time>2022-01-19T18:27:24Z</time>
      </trkpt>
      <trkpt lat="44.60534" lon="3.48382">
        <ele>1147.142</ele>
        <time>2022-01-19T18:27:25Z</time>
      </trkpt>
      <trkpt lat="44.60535" lon="3.48384">
        <ele>1147.2212</ele>
        <time>2022-01-19T18:27:26Z</time>
      </trkpt>
      <trkpt lat="44.60535" lon="3.48386">
        <ele>1147.2317</ele>
        <time>2022-01-19T18:27:27Z</time>
      </trkpt>
      <trkpt lat="44.60535" lon="3.48388">
        <ele>1147.3217</ele>
        <time>2022-01-19T18:27:28Z</time>
      </trkpt>
      <trkpt lat="44.60536" lon="3.4839">
        <ele>1147.348</ele>
        <time>2022-01-19T18:27:29Z</time>
      </trkpt>
      <trkpt lat="44.60537" lon="3.48392">
        <ele>1147.3904</ele>
        <time>2022-01-19T18:27:30Z</time>
      </trkpt>
      <trkpt lat="44.60538" lon="3.48394">
        <ele>1147.3956</ele>
        <time>2022-01-19T18:27:31Z</time>
      </trkpt>
      <trkpt lat="44.60539" lon="3.48395">
        <ele>1147.4801</ele>
        <time>2022-01-19T18:27:32Z</time>
      </trkpt>
      <trkpt lat="44.60539" lon="3.48397">
        <ele>1147.5383</ele>
        <time>2022-01-19T18:27:33Z</time>
      </trkpt>
      <trkpt lat="44.6054" lon="3.48398">
        <ele>1147.6228</ele>
        <time>2022-01-19T18:27:34Z</time>
      </trkpt>
      <trkpt lat="44.6054" lon="3.484">
        <ele>1147.6757</ele>
        <time>2022-01-19T18:27:35Z</time>
      </trkpt>
      <trkpt lat="44.60541" lon="3.48401">
        <ele>1147.5964</ele>
        <time>2022-01-19T18:27:36Z</time>
      </trkpt>
      <trkpt lat="44.60541" lon="3.48403">
        <ele>1147.6968</ele>
        <time>2022-01-19T18:27:37Z</time>
      </trkpt>
      <trkpt lat="44.60542" lon="3.48404">
        <ele>1147.7391</ele>
        <time>2022-01-19T18:27:38Z</time>
      </trkpt>
      <trkpt lat="44.60543" lon="3.48406">
        <ele>1147.7126</ele>
        <time>2022-01-19T18:27:39Z</time>
      </trkpt>
      <trkpt lat="44.60544" lon="3.48408">
        <ele>1147.8712</ele>
        <time>2022-01-19T18:27:40Z</time>
      </trkpt>
      <trkpt lat="44.60545" lon="3.48409">
        <ele>1147.8871</ele>
        <time>2022-01-19T18:27:41Z</time>
      </trkpt>
      <trkpt lat="44.60546" lon="3.4841">
        <ele>1147.8025</ele>
        <time>2022-01-19T18:27:42Z</time>
      </trkpt>
      <trkpt lat="44.60547" lon="3.48412">
        <ele>1147.9135</ele>
        <time>2022-01-19T18:27:43Z</time>
      </trkpt>
      <trkpt lat="44.60547" lon="3.48413">
        <ele>1147.8818</ele>
        <time>2022-01-19T18:27:44Z</time>
      </trkpt>
      <trkpt lat="44.60548" lon="3.48415">
        <ele>1147.9346</ele>
        <time>2022-01-19T18:27:45Z</time>
      </trkpt>
      <trkpt lat="44.60548" lon="3.48416">
        <ele>1147.9187</ele>
        <time>2022-01-19T18:27:46Z</time>
      </trkpt>
      <trkpt lat="44.60549" lon="3.48417">
        <ele>1147.8501</ele>
        <time>2022-01-19T18:27:47Z</time>
      </trkpt>
      <trkpt lat="44.60549" lon="3.48418">
        <ele>1148.035</ele>
        <time>2022-01-19T18:27:48Z</time>
      </trkpt>
      <trkpt lat="44.6055" lon="3.4842">
        <ele>1148.0668</ele>
        <time>2022-01-19T18:27:49Z</time>
      </trkpt>
      <trkpt lat="44.60551" lon="3.48421">
        <ele>1148.0826</ele>
        <time>2022-01-19T18:27:50Z</time>
      </trkpt>
      <trkpt lat="44.60551" lon="3.48422">
        <ele>1148.1619</ele>
        <time>2022-01-19T18:27:51Z</time>
      </trkpt>
      <trkpt lat="44.60552" lon="3.48423">
        <ele>1148.257</ele>
        <time>2022-01-19T18:27:52Z</time>
      </trkpt>
      <trkpt lat="44.60553" lon="3.48425">
        <ele>1148.2993</ele>
        <time>2022-01-19T18:27:53Z</time>
      </trkpt>
      <trkpt lat="44.60554" lon="3.48427">
        <ele>1148.2517</ele>
        <time>2022-01-19T18:27:54Z</time>
      </trkpt>
      <trkpt lat="44.60555" lon="3.48428">
        <ele>1148.3362</ele>
        <time>2022-01-19T18:27:55Z</time>
      </trkpt>
      <trkpt lat="44.60556" lon="3.48429">
        <ele>1148.4103</ele>
        <time>2022-01-19T18:27:56Z</time>
      </trkpt>
      <trkpt lat="44.60556" lon="3.48431">
        <ele>1148.4631</ele>
        <time>2022-01-19T18:27:57Z</time>
      </trkpt>
      <trkpt lat="44.60556" lon="3.48432">
        <ele>1148.5319</ele>
        <time>2022-01-19T18:27:58Z</time>
      </trkpt>
      <trkpt lat="44.60557" lon="3.48434">
        <ele>1148.6057</ele>
        <time>2022-01-19T18:27:59Z</time>
      </trkpt>
      <trkpt lat="44.60557" lon="3.48435">
        <ele>1148.6216</ele>
        <time>2022-01-19T18:28:00Z</time>
      </trkpt>
      <trkpt lat="44.60558" lon="3.48437">
        <ele>1148.6533</ele>
        <time>2022-01-19T18:28:01Z</time>
      </trkpt>
      <trkpt lat="44.60558" lon="3.48438">
        <ele>1148.8119</ele>
        <time>2022-01-19T18:28:02Z</time>
      </trkpt>
      <trkpt lat="44.60559" lon="3.4844">
        <ele>1148.8541</ele>
        <time>2022-01-19T18:28:03Z</time>
      </trkpt>
      <trkpt lat="44.6056" lon="3.48441">
        <ele>1148.9387</ele>
        <time>2022-01-19T18:28:04Z</time>
      </trkpt>
      <trkpt lat="44.6056" lon="3.48442">
        <ele>1149.1025</ele>
        <time>2022-01-19T18:28:05Z</time>
      </trkpt>
      <trkpt lat="44.6056" lon="3.48444">
        <ele>1149.3245</ele>
        <time>2022-01-19T18:28:06Z</time>
      </trkpt>
      <trkpt lat="44.6056" lon="3.48445">
        <ele>1149.7896</ele>
        <time>2022-01-19T18:28:07Z</time>
      </trkpt>
      <trkpt lat="44.6056" lon="3.48447">
        <ele>1150.688</ele>
        <time>2022-01-19T18:28:08Z</time>
      </trkpt>
      <trkpt lat="44.6056" lon="3.48448">
        <ele>1149.6469</ele>
        <time>2022-01-19T18:28:09Z</time>
      </trkpt>
      <trkpt lat="44.6056" lon="3.4845">
        <ele>1149.52</ele>
        <time>2022-01-19T18:28:10Z</time>
      </trkpt>
      <trkpt lat="44.6056" lon="3.48451">
        <ele>1149.779</ele>
        <time>2022-01-19T18:28:11Z</time>
      </trkpt>
      <trkpt lat="44.6056" lon="3.48452">
        <ele>1149.7683</ele>
        <time>2022-01-19T18:28:12Z</time>
      </trkpt>
      <trkpt lat="44.6056" lon="3.48453">
        <ele>1149.8002</ele>
        <time>2022-01-19T18:28:13Z</time>
      </trkpt>
      <trkpt lat="44.60559" lon="3.48455">
        <ele>1149.7578</ele>
        <time>2022-01-19T18:28:14Z</time>
      </trkpt>
      <trkpt lat="44.60559" lon="3.48457">
        <ele>1149.964</ele>
        <time>2022-01-19T18:28:15Z</time>
      </trkpt>
      <trkpt lat="44.60558" lon="3.48458">
        <ele>1150.0643</ele>
        <time>2022-01-19T18:28:16Z</time>
      </trkpt>
      <trkpt lat="44.60558" lon="3.4846">
        <ele>1149.8846</ele>
        <time>2022-01-19T18:28:17Z</time>
      </trkpt>
      <trkpt lat="44.60557" lon="3.48461">
        <ele>1149.9058</ele>
        <time>2022-01-19T18:28:18Z</time>
      </trkpt>
      <trkpt lat="44.60556" lon="3.48463">
        <ele>1149.9797</ele>
        <time>2022-01-19T18:28:19Z</time>
      </trkpt>
      <trkpt lat="44.60555" lon="3.48464">
        <ele>1149.9904</ele>
        <time>2022-01-19T18:28:20Z</time>
      </trkpt>
      <trkpt lat="44.60555" lon="3.48465">
        <ele>1149.9745</ele>
        <time>2022-01-19T18:28:21Z</time>
      </trkpt>
      <trkpt lat="44.60554" lon="3.48466">
        <ele>1149.8846</ele>
        <time>2022-01-19T18:28:22Z</time>
      </trkpt>
      <trkpt lat="44.60553" lon="3.48467">
        <ele>1149.9745</ele>
        <time>2022-01-19T18:28:23Z</time>
      </trkpt>
      <trkpt lat="44.60553" lon="3.48468">
        <ele>1149.9534</ele>
        <time>2022-01-19T18:28:24Z</time>
      </trkpt>
      <trkpt lat="44.60552" lon="3.48469">
        <ele>1150.0378</ele>
        <time>2022-01-19T18:28:25Z</time>
      </trkpt>
      <trkpt lat="44.60552" lon="3.48469">
        <ele>1150.1013</ele>
        <time>2022-01-19T18:28:26Z</time>
      </trkpt>
      <trkpt lat="44.60552" lon="3.48469">
        <ele>1150.075</ele>
        <time>2022-01-19T18:28:27Z</time>
      </trkpt>
      <trkpt lat="44.60551" lon="3.48469">
        <ele>1150.0697</ele>
        <time>2022-01-19T18:28:28Z</time>
      </trkpt>
      <trkpt lat="44.60551" lon="3.48469">
        <ele>1150.0062</ele>
        <time>2022-01-19T18:28:29Z</time>
      </trkpt>
      <trkpt lat="44.60551" lon="3.48469">
        <ele>1150.0062</ele>
        <time>2022-01-19T18:28:29Z</time>
      </trkpt>
      <trkpt lat="44.60551" lon="3.48469">
        <ele>1150.0062</ele>
        <time>2022-01-19T18:28:29Z</time>
      </trkpt>
      <trkpt lat="44.60543" lon="3.48469">
        <ele>1150.0537</ele>
        <time>2022-01-19T18:28:45Z</time>
      </trkpt>
      <trkpt lat="44.60542" lon="3.48469">
        <ele>1150.0908</ele>
        <time>2022-01-19T18:28:46Z</time>
      </trkpt>
      <trkpt lat="44.60541" lon="3.48469">
        <ele>1150.1013</ele>
        <time>2022-01-19T18:28:47Z</time>
      </trkpt>
      <trkpt lat="44.60539" lon="3.4847">
        <ele>1150.1965</ele>
        <time>2022-01-19T18:28:48Z</time>
      </trkpt>
      <trkpt lat="44.60538" lon="3.4847">
        <ele>1150.318</ele>
        <time>2022-01-19T18:28:49Z</time>
      </trkpt>
      <trkpt lat="44.60537" lon="3.4847">
        <ele>1150.3656</ele>
        <time>2022-01-19T18:28:50Z</time>
      </trkpt>
      <trkpt lat="44.60536" lon="3.48471">
        <ele>1150.3708</ele>
        <time>2022-01-19T18:28:51Z</time>
      </trkpt>
      <trkpt lat="44.60535" lon="3.48471">
        <ele>1150.4396</ele>
        <time>2022-01-19T18:28:52Z</time>
      </trkpt>
      <trkpt lat="44.60533" lon="3.48471">
        <ele>1150.561</ele>
        <time>2022-01-19T18:28:53Z</time>
      </trkpt>
      <trkpt lat="44.60532" lon="3.48471">
        <ele>1150.4712</ele>
        <time>2022-01-19T18:28:54Z</time>
      </trkpt>
      <trkpt lat="44.6053" lon="3.48471">
        <ele>1150.5083</ele>
        <time>2022-01-19T18:28:55Z</time>
      </trkpt>
      <trkpt lat="44.60529" lon="3.48471">
        <ele>1150.5823</ele>
        <time>2022-01-19T18:28:56Z</time>
      </trkpt>
      <trkpt lat="44.60527" lon="3.48471">
        <ele>1150.4553</ele>
        <time>2022-01-19T18:28:57Z</time>
      </trkpt>
      <trkpt lat="44.60526" lon="3.48471">
        <ele>1150.5664</ele>
        <time>2022-01-19T18:28:58Z</time>
      </trkpt>
      <trkpt lat="44.60525" lon="3.48472">
        <ele>1150.8042</ele>
        <time>2022-01-19T18:28:59Z</time>
      </trkpt>
      <trkpt lat="44.60524" lon="3.48472">
        <ele>1150.746</ele>
        <time>2022-01-19T18:29:00Z</time>
      </trkpt>
      <trkpt lat="44.60522" lon="3.48472">
        <ele>1150.8464</ele>
        <time>2022-01-19T18:29:01Z</time>
      </trkpt>
      <trkpt lat="44.60521" lon="3.48473">
        <ele>1150.7831</ele>
        <time>2022-01-19T18:29:02Z</time>
      </trkpt>
      <trkpt lat="44.6052" lon="3.48473">
        <ele>1150.8094</ele>
        <time>2022-01-19T18:29:03Z</time>
      </trkpt>
      <trkpt lat="44.60518" lon="3.48473">
        <ele>1150.8359</ele>
        <time>2022-01-19T18:29:04Z</time>
      </trkpt>
      <trkpt lat="44.60517" lon="3.48473">
        <ele>1150.8676</ele>
        <time>2022-01-19T18:29:05Z</time>
      </trkpt>
      <trkpt lat="44.60515" lon="3.48473">
        <ele>1150.8834</ele>
        <time>2022-01-19T18:29:06Z</time>
      </trkpt>
      <trkpt lat="44.60514" lon="3.48474">
        <ele>1151.0526</ele>
        <time>2022-01-19T18:29:07Z</time>
      </trkpt>
      <trkpt lat="44.60512" lon="3.48473">
        <ele>1150.9733</ele>
        <time>2022-01-19T18:29:08Z</time>
      </trkpt>
      <trkpt lat="44.60511" lon="3.48474">
        <ele>1151.0103</ele>
        <time>2022-01-19T18:29:09Z</time>
      </trkpt>
      <trkpt lat="44.60509" lon="3.48474">
        <ele>1151.1582</ele>
        <time>2022-01-19T18:29:10Z</time>
      </trkpt>
      <trkpt lat="44.60508" lon="3.48474">
        <ele>1151.2957</ele>
        <time>2022-01-19T18:29:11Z</time>
      </trkpt>
      <trkpt lat="44.60506" lon="3.48475">
        <ele>1151.2217</ele>
        <time>2022-01-19T18:29:12Z</time>
      </trkpt>
      <trkpt lat="44.60505" lon="3.48475">
        <ele>1151.2006</ele>
        <time>2022-01-19T18:29:13Z</time>
      </trkpt>
      <trkpt lat="44.60503" lon="3.48476">
        <ele>1151.3009</ele>
        <time>2022-01-19T18:29:14Z</time>
      </trkpt>
      <trkpt lat="44.60502" lon="3.48476">
        <ele>1151.4384</ele>
        <time>2022-01-19T18:29:15Z</time>
      </trkpt>
      <trkpt lat="44.60501" lon="3.48476">
        <ele>1151.6022</ele>
        <time>2022-01-19T18:29:16Z</time>
      </trkpt>
      <trkpt lat="44.605" lon="3.48477">
        <ele>1151.4701</ele>
        <time>2022-01-19T18:29:17Z</time>
      </trkpt>
      <trkpt lat="44.60498" lon="3.48477">
        <ele>1151.6814</ele>
        <time>2022-01-19T18:29:18Z</time>
      </trkpt>
      <trkpt lat="44.60497" lon="3.48477">
        <ele>1151.7131</ele>
        <time>2022-01-19T18:29:19Z</time>
      </trkpt>
      <trkpt lat="44.60496" lon="3.48478">
        <ele>1151.7449</ele>
        <time>2022-01-19T18:29:20Z</time>
      </trkpt>
      <trkpt lat="44.60495" lon="3.48478">
        <ele>1151.7343</ele>
        <time>2022-01-19T18:29:21Z</time>
      </trkpt>
      <trkpt lat="44.60493" lon="3.48478">
        <ele>1151.7607</ele>
        <time>2022-01-19T18:29:22Z</time>
      </trkpt>
      <trkpt lat="44.60492" lon="3.48478">
        <ele>1151.8876</ele>
        <time>2022-01-19T18:29:23Z</time>
      </trkpt>
      <trkpt lat="44.60491" lon="3.48478">
        <ele>1151.8558</ele>
        <time>2022-01-19T18:29:24Z</time>
      </trkpt>
      <trkpt lat="44.6049" lon="3.48478">
        <ele>1151.9932</ele>
        <time>2022-01-19T18:29:25Z</time>
      </trkpt>
      <trkpt lat="44.60489" lon="3.48478">
        <ele>1152.0143</ele>
        <time>2022-01-19T18:29:26Z</time>
      </trkpt>
      <trkpt lat="44.60487" lon="3.48478">
        <ele>1152.1095</ele>
        <time>2022-01-19T18:29:27Z</time>
      </trkpt>
      <trkpt lat="44.60486" lon="3.48478">
        <ele>1152.0673</ele>
        <time>2022-01-19T18:29:28Z</time>
      </trkpt>
      <trkpt lat="44.60484" lon="3.48479">
        <ele>1152.1517</ele>
        <time>2022-01-19T18:29:29Z</time>
      </trkpt>
      <trkpt lat="44.60483" lon="3.48479">
        <ele>1152.1517</ele>
        <time>2022-01-19T18:29:30Z</time>
      </trkpt>
      <trkpt lat="44.60482" lon="3.48478">
        <ele>1152.1676</ele>
        <time>2022-01-19T18:29:31Z</time>
      </trkpt>
      <trkpt lat="44.6048" lon="3.48478">
        <ele>1152.247</ele>
        <time>2022-01-19T18:29:32Z</time>
      </trkpt>
      <trkpt lat="44.60479" lon="3.48478">
        <ele>1152.2152</ele>
        <time>2022-01-19T18:29:33Z</time>
      </trkpt>
      <trkpt lat="44.60477" lon="3.48478">
        <ele>1152.2205</ele>
        <time>2022-01-19T18:29:34Z</time>
      </trkpt>
      <trkpt lat="44.60476" lon="3.48478">
        <ele>1152.3157</ele>
        <time>2022-01-19T18:29:35Z</time>
      </trkpt>
      <trkpt lat="44.60474" lon="3.48478">
        <ele>1152.453</ele>
        <time>2022-01-19T18:29:36Z</time>
      </trkpt>
      <trkpt lat="44.60473" lon="3.48479">
        <ele>1152.564</ele>
        <time>2022-01-19T18:29:37Z</time>
      </trkpt>
      <trkpt lat="44.60471" lon="3.48479">
        <ele>1152.6802</ele>
        <time>2022-01-19T18:29:38Z</time>
      </trkpt>
      <trkpt lat="44.60469" lon="3.48479">
        <ele>1152.659</ele>
        <time>2022-01-19T18:29:39Z</time>
      </trkpt>
      <trkpt lat="44.60468" lon="3.48479">
        <ele>1152.696</ele>
        <time>2022-01-19T18:29:40Z</time>
      </trkpt>
      <trkpt lat="44.60467" lon="3.4848">
        <ele>1152.7437</ele>
        <time>2022-01-19T18:29:41Z</time>
      </trkpt>
      <trkpt lat="44.60466" lon="3.4848">
        <ele>1152.8705</ele>
        <time>2022-01-19T18:29:42Z</time>
      </trkpt>
      <trkpt lat="44.60465" lon="3.4848">
        <ele>1152.8387</ele>
        <time>2022-01-19T18:29:43Z</time>
      </trkpt>
      <trkpt lat="44.60463" lon="3.4848">
        <ele>1152.897</ele>
        <time>2022-01-19T18:29:44Z</time>
      </trkpt>
      <trkpt lat="44.60461" lon="3.4848">
        <ele>1152.9233</ele>
        <time>2022-01-19T18:29:45Z</time>
      </trkpt>
      <trkpt lat="44.6046" lon="3.4848">
        <ele>1153.0608</ele>
        <time>2022-01-19T18:29:46Z</time>
      </trkpt>
      <trkpt lat="44.60459" lon="3.4848">
        <ele>1153.0554</ele>
        <time>2022-01-19T18:29:47Z</time>
      </trkpt>
      <trkpt lat="44.60458" lon="3.4848">
        <ele>1153.1718</ele>
        <time>2022-01-19T18:29:48Z</time>
      </trkpt>
      <trkpt lat="44.60456" lon="3.4848">
        <ele>1153.2192</ele>
        <time>2022-01-19T18:29:49Z</time>
      </trkpt>
      <trkpt lat="44.60454" lon="3.4848">
        <ele>1153.3567</ele>
        <time>2022-01-19T18:29:50Z</time>
      </trkpt>
      <trkpt lat="44.60453" lon="3.4848">
        <ele>1153.3038</ele>
        <time>2022-01-19T18:29:51Z</time>
      </trkpt>
      <trkpt lat="44.60451" lon="3.48481">
        <ele>1153.4307</ele>
        <time>2022-01-19T18:29:52Z</time>
      </trkpt>
      <trkpt lat="44.6045" lon="3.48481">
        <ele>1153.4042</ele>
        <time>2022-01-19T18:29:53Z</time>
      </trkpt>
      <trkpt lat="44.60449" lon="3.48481">
        <ele>1153.621</ele>
        <time>2022-01-19T18:29:54Z</time>
      </trkpt>
      <trkpt lat="44.60448" lon="3.48481">
        <ele>1153.531</ele>
        <time>2022-01-19T18:29:55Z</time>
      </trkpt>
      <trkpt lat="44.60447" lon="3.48482">
        <ele>1153.5046</ele>
        <time>2022-01-19T18:29:56Z</time>
      </trkpt>
      <trkpt lat="44.60445" lon="3.48483">
        <ele>1153.7054</ele>
        <time>2022-01-19T18:29:57Z</time>
      </trkpt>
      <trkpt lat="44.60444" lon="3.48484">
        <ele>1153.7583</ele>
        <time>2022-01-19T18:29:58Z</time>
      </trkpt>
      <trkpt lat="44.60442" lon="3.48484">
        <ele>1153.7372</ele>
        <time>2022-01-19T18:29:59Z</time>
      </trkpt>
      <trkpt lat="44.60441" lon="3.48484">
        <ele>1153.827</ele>
        <time>2022-01-19T18:30:00Z</time>
      </trkpt>
      <trkpt lat="44.60439" lon="3.48484">
        <ele>1153.9116</ele>
        <time>2022-01-19T18:30:01Z</time>
      </trkpt>
      <trkpt lat="44.60438" lon="3.48485">
        <ele>1154.0542</ele>
        <time>2022-01-19T18:30:02Z</time>
      </trkpt>
      <trkpt lat="44.60436" lon="3.48485">
        <ele>1154.0807</ele>
        <time>2022-01-19T18:30:03Z</time>
      </trkpt>
      <trkpt lat="44.60435" lon="3.48486">
        <ele>1154.1018</ele>
        <time>2022-01-19T18:30:04Z</time>
      </trkpt>
      <trkpt lat="44.60434" lon="3.48486">
        <ele>1154.2498</ele>
        <time>2022-01-19T18:30:05Z</time>
      </trkpt>
      <trkpt lat="44.60432" lon="3.48486">
        <ele>1154.1177</ele>
        <time>2022-01-19T18:30:06Z</time>
      </trkpt>
      <trkpt lat="44.60431" lon="3.48486">
        <ele>1154.2023</ele>
        <time>2022-01-19T18:30:07Z</time>
      </trkpt>
      <trkpt lat="44.6043" lon="3.48486">
        <ele>1154.2974</ele>
        <time>2022-01-19T18:30:08Z</time>
      </trkpt>
      <trkpt lat="44.60428" lon="3.48486">
        <ele>1154.4136</ele>
        <time>2022-01-19T18:30:09Z</time>
      </trkpt>
      <trkpt lat="44.60427" lon="3.48487">
        <ele>1154.5986</ele>
        <time>2022-01-19T18:30:10Z</time>
      </trkpt>
      <trkpt lat="44.60425" lon="3.48487">
        <ele>1155.629</ele>
        <time>2022-01-19T18:30:11Z</time>
      </trkpt>
      <trkpt lat="44.60424" lon="3.48488">
        <ele>1154.6355</ele>
        <time>2022-01-19T18:30:12Z</time>
      </trkpt>
      <trkpt lat="44.60422" lon="3.48487">
        <ele>1154.4664</ele>
        <time>2022-01-19T18:30:13Z</time>
      </trkpt>
      <trkpt lat="44.60421" lon="3.48488">
        <ele>1154.5721</ele>
        <time>2022-01-19T18:30:14Z</time>
      </trkpt>
      <trkpt lat="44.6042" lon="3.48488">
        <ele>1154.6144</ele>
        <time>2022-01-19T18:30:15Z</time>
      </trkpt>
      <trkpt lat="44.60418" lon="3.48488">
        <ele>1154.6409</ele>
        <time>2022-01-19T18:30:16Z</time>
      </trkpt>
      <trkpt lat="44.60416" lon="3.48489">
        <ele>1154.6461</ele>
        <time>2022-01-19T18:30:17Z</time>
      </trkpt>
      <trkpt lat="44.60415" lon="3.48489">
        <ele>1154.6198</ele>
        <time>2022-01-19T18:30:18Z</time>
      </trkpt>
      <trkpt lat="44.60413" lon="3.48489">
        <ele>1154.7096</ele>
        <time>2022-01-19T18:30:19Z</time>
      </trkpt>
      <trkpt lat="44.60412" lon="3.48489">
        <ele>1154.7571</ele>
        <time>2022-01-19T18:30:20Z</time>
      </trkpt>
      <trkpt lat="44.60411" lon="3.4849">
        <ele>1154.8417</ele>
        <time>2022-01-19T18:30:21Z</time>
      </trkpt>
      <trkpt lat="44.6041" lon="3.4849">
        <ele>1154.7625</ele>
        <time>2022-01-19T18:30:22Z</time>
      </trkpt>
      <trkpt lat="44.60408" lon="3.4849">
        <ele>1154.7042</ele>
        <time>2022-01-19T18:30:23Z</time>
      </trkpt>
      <trkpt lat="44.60407" lon="3.48491">
        <ele>1154.8469</ele>
        <time>2022-01-19T18:30:24Z</time>
      </trkpt>
      <trkpt lat="44.60405" lon="3.48491">
        <ele>1154.9685</ele>
        <time>2022-01-19T18:30:25Z</time>
      </trkpt>
      <trkpt lat="44.60403" lon="3.48491">
        <ele>1154.9896</ele>
        <time>2022-01-19T18:30:26Z</time>
      </trkpt>
      <trkpt lat="44.60402" lon="3.48491">
        <ele>1154.995</ele>
        <time>2022-01-19T18:30:27Z</time>
      </trkpt>
      <trkpt lat="44.604" lon="3.48491">
        <ele>1154.9526</ele>
        <time>2022-01-19T18:30:28Z</time>
      </trkpt>
      <trkpt lat="44.60398" lon="3.48492">
        <ele>1155.0107</ele>
        <time>2022-01-19T18:30:29Z</time>
      </trkpt>
      <trkpt lat="44.60397" lon="3.48493">
        <ele>1155.127</ele>
        <time>2022-01-19T18:30:30Z</time>
      </trkpt>
      <trkpt lat="44.60395" lon="3.48493">
        <ele>1155.1111</ele>
        <time>2022-01-19T18:30:31Z</time>
      </trkpt>
      <trkpt lat="44.60393" lon="3.48493">
        <ele>1155.1799</ele>
        <time>2022-01-19T18:30:32Z</time>
      </trkpt>
      <trkpt lat="44.60392" lon="3.48494">
        <ele>1155.3331</ele>
        <time>2022-01-19T18:30:33Z</time>
      </trkpt>
      <trkpt lat="44.60391" lon="3.48494">
        <ele>1155.1693</ele>
        <time>2022-01-19T18:30:34Z</time>
      </trkpt>
      <trkpt lat="44.60389" lon="3.48495">
        <ele>1155.0953</ele>
        <time>2022-01-19T18:30:35Z</time>
      </trkpt>
      <trkpt lat="44.60387" lon="3.48495">
        <ele>1155.1323</ele>
        <time>2022-01-19T18:30:36Z</time>
      </trkpt>
      <trkpt lat="44.60386" lon="3.48496">
        <ele>1155.0636</ele>
        <time>2022-01-19T18:30:37Z</time>
      </trkpt>
      <trkpt lat="44.60384" lon="3.48496">
        <ele>1155.2644</ele>
        <time>2022-01-19T18:30:38Z</time>
      </trkpt>
      <trkpt lat="44.60383" lon="3.48496">
        <ele>1155.3225</ele>
        <time>2022-01-19T18:30:39Z</time>
      </trkpt>
      <trkpt lat="44.60381" lon="3.48497">
        <ele>1155.2592</ele>
        <time>2022-01-19T18:30:40Z</time>
      </trkpt>
      <trkpt lat="44.6038" lon="3.48497">
        <ele>1155.2115</ele>
        <time>2022-01-19T18:30:41Z</time>
      </trkpt>
      <trkpt lat="44.60379" lon="3.48498">
        <ele>1155.2803</ele>
        <time>2022-01-19T18:30:42Z</time>
      </trkpt>
      <trkpt lat="44.60377" lon="3.48498">
        <ele>1155.3542</ele>
        <time>2022-01-19T18:30:43Z</time>
      </trkpt>
      <trkpt lat="44.60376" lon="3.48499">
        <ele>1155.4125</ele>
        <time>2022-01-19T18:30:44Z</time>
      </trkpt>
      <trkpt lat="44.60375" lon="3.485">
        <ele>1155.3438</ele>
        <time>2022-01-19T18:30:45Z</time>
      </trkpt>
      <trkpt lat="44.60373" lon="3.485">
        <ele>1155.4706</ele>
        <time>2022-01-19T18:30:46Z</time>
      </trkpt>
      <trkpt lat="44.60371" lon="3.485">
        <ele>1155.3331</ele>
        <time>2022-01-19T18:30:47Z</time>
      </trkpt>
      <trkpt lat="44.6037" lon="3.48501">
        <ele>1155.3595</ele>
        <time>2022-01-19T18:30:48Z</time>
      </trkpt>
      <trkpt lat="44.60368" lon="3.48502">
        <ele>1155.4863</ele>
        <time>2022-01-19T18:30:49Z</time>
      </trkpt>
      <trkpt lat="44.60366" lon="3.48503">
        <ele>1155.5339</ele>
        <time>2022-01-19T18:30:50Z</time>
      </trkpt>
      <trkpt lat="44.60365" lon="3.48504">
        <ele>1155.3595</ele>
        <time>2022-01-19T18:30:51Z</time>
      </trkpt>
      <trkpt lat="44.60363" lon="3.48505">
        <ele>1155.3806</ele>
        <time>2022-01-19T18:30:52Z</time>
      </trkpt>
      <trkpt lat="44.60362" lon="3.48505">
        <ele>1155.4017</ele>
        <time>2022-01-19T18:30:53Z</time>
      </trkpt>
      <trkpt lat="44.6036" lon="3.48506">
        <ele>1155.4071</ele>
        <time>2022-01-19T18:30:54Z</time>
      </trkpt>
      <trkpt lat="44.60359" lon="3.48507">
        <ele>1155.4811</ele>
        <time>2022-01-19T18:30:55Z</time>
      </trkpt>
      <trkpt lat="44.60358" lon="3.48507">
        <ele>1155.4177</ele>
        <time>2022-01-19T18:30:56Z</time>
      </trkpt>
      <trkpt lat="44.60356" lon="3.48508">
        <ele>1155.2168</ele>
        <time>2022-01-19T18:30:57Z</time>
      </trkpt>
      <trkpt lat="44.60355" lon="3.48509">
        <ele>1155.2909</ele>
        <time>2022-01-19T18:30:58Z</time>
      </trkpt>
      <trkpt lat="44.60353" lon="3.4851">
        <ele>1155.4017</ele>
        <time>2022-01-19T18:30:59Z</time>
      </trkpt>
      <trkpt lat="44.60352" lon="3.48511">
        <ele>1155.4811</ele>
        <time>2022-01-19T18:31:00Z</time>
      </trkpt>
      <trkpt lat="44.6035" lon="3.48511">
        <ele>1155.46</ele>
        <time>2022-01-19T18:31:01Z</time>
      </trkpt>
      <trkpt lat="44.60349" lon="3.48512">
        <ele>1155.4336</ele>
        <time>2022-01-19T18:31:02Z</time>
      </trkpt>
      <trkpt lat="44.60348" lon="3.48513">
        <ele>1155.4652</ele>
        <time>2022-01-19T18:31:03Z</time>
      </trkpt>
      <trkpt lat="44.60347" lon="3.48513">
        <ele>1155.4706</ele>
        <time>2022-01-19T18:31:04Z</time>
      </trkpt>
      <trkpt lat="44.60346" lon="3.48514">
        <ele>1155.4863</ele>
        <time>2022-01-19T18:31:05Z</time>
      </trkpt>
      <trkpt lat="44.60344" lon="3.48514">
        <ele>1155.4495</ele>
        <time>2022-01-19T18:31:06Z</time>
      </trkpt>
      <trkpt lat="44.60343" lon="3.48515">
        <ele>1155.4282</ele>
        <time>2022-01-19T18:31:07Z</time>
      </trkpt>
      <trkpt lat="44.60342" lon="3.48516">
        <ele>1155.4652</ele>
        <time>2022-01-19T18:31:08Z</time>
      </trkpt>
      <trkpt lat="44.6034" lon="3.48517">
        <ele>1155.497</ele>
        <time>2022-01-19T18:31:09Z</time>
      </trkpt>
      <trkpt lat="44.60339" lon="3.48517">
        <ele>1155.5022</ele>
        <time>2022-01-19T18:31:10Z</time>
      </trkpt>
      <trkpt lat="44.60337" lon="3.48517">
        <ele>1155.4336</ele>
        <time>2022-01-19T18:31:11Z</time>
      </trkpt>
      <trkpt lat="44.60336" lon="3.48518">
        <ele>1155.3595</ele>
        <time>2022-01-19T18:31:12Z</time>
      </trkpt>
      <trkpt lat="44.60335" lon="3.48519">
        <ele>1155.4336</ele>
        <time>2022-01-19T18:31:13Z</time>
      </trkpt>
      <trkpt lat="44.60333" lon="3.4852">
        <ele>1155.3649</ele>
        <time>2022-01-19T18:31:14Z</time>
      </trkpt>
      <trkpt lat="44.60332" lon="3.48521">
        <ele>1155.3806</ele>
        <time>2022-01-19T18:31:15Z</time>
      </trkpt>
      <trkpt lat="44.60331" lon="3.48522">
        <ele>1155.1217</ele>
        <time>2022-01-19T18:31:16Z</time>
      </trkpt>
      <trkpt lat="44.60329" lon="3.48523">
        <ele>1155.2485</ele>
        <time>2022-01-19T18:31:17Z</time>
      </trkpt>
      <trkpt lat="44.60328" lon="3.48524">
        <ele>1155.2803</ele>
        <time>2022-01-19T18:31:18Z</time>
      </trkpt>
      <trkpt lat="44.60326" lon="3.48525">
        <ele>1155.2909</ele>
        <time>2022-01-19T18:31:19Z</time>
      </trkpt>
      <trkpt lat="44.60325" lon="3.48525">
        <ele>1155.1641</ele>
        <time>2022-01-19T18:31:20Z</time>
      </trkpt>
      <trkpt lat="44.60323" lon="3.48525">
        <ele>1155.127</ele>
        <time>2022-01-19T18:31:21Z</time>
      </trkpt>
      <trkpt lat="44.60321" lon="3.48526">
        <ele>1155.2274</ele>
        <time>2022-01-19T18:31:22Z</time>
      </trkpt>
      <trkpt lat="44.6032" lon="3.48527">
        <ele>1155.1957</ele>
        <time>2022-01-19T18:31:23Z</time>
      </trkpt>
      <trkpt lat="44.60319" lon="3.48528">
        <ele>1155.1111</ele>
        <time>2022-01-19T18:31:24Z</time>
      </trkpt>
      <trkpt lat="44.60317" lon="3.48529">
        <ele>1155.0847</ele>
        <time>2022-01-19T18:31:25Z</time>
      </trkpt>
      <trkpt lat="44.60316" lon="3.48529">
        <ele>1155.1323</ele>
        <time>2022-01-19T18:31:26Z</time>
      </trkpt>
      <trkpt lat="44.60315" lon="3.48529">
        <ele>1154.8998</ele>
        <time>2022-01-19T18:31:27Z</time>
      </trkpt>
      <trkpt lat="44.60313" lon="3.4853">
        <ele>1154.8893</ele>
        <time>2022-01-19T18:31:28Z</time>
      </trkpt>
      <trkpt lat="44.60311" lon="3.48531">
        <ele>1154.9843</ele>
        <time>2022-01-19T18:31:29Z</time>
      </trkpt>
      <trkpt lat="44.6031" lon="3.48532">
        <ele>1154.9104</ele>
        <time>2022-01-19T18:31:30Z</time>
      </trkpt>
      <trkpt lat="44.60309" lon="3.48534">
        <ele>1154.868</ele>
        <time>2022-01-19T18:31:31Z</time>
      </trkpt>
      <trkpt lat="44.60307" lon="3.48535">
        <ele>1154.831</ele>
        <time>2022-01-19T18:31:32Z</time>
      </trkpt>
      <trkpt lat="44.60306" lon="3.48536">
        <ele>1154.7941</ele>
        <time>2022-01-19T18:31:33Z</time>
      </trkpt>
      <trkpt lat="44.60305" lon="3.48537">
        <ele>1154.7782</ele>
        <time>2022-01-19T18:31:34Z</time>
      </trkpt>
      <trkpt lat="44.60303" lon="3.48538">
        <ele>1154.6884</ele>
        <time>2022-01-19T18:31:35Z</time>
      </trkpt>
      <trkpt lat="44.60302" lon="3.4854">
        <ele>1154.6725</ele>
        <time>2022-01-19T18:31:36Z</time>
      </trkpt>
      <trkpt lat="44.603" lon="3.48541">
        <ele>1154.5986</ele>
        <time>2022-01-19T18:31:37Z</time>
      </trkpt>
      <trkpt lat="44.60299" lon="3.48542">
        <ele>1154.5245</ele>
        <time>2022-01-19T18:31:38Z</time>
      </trkpt>
      <trkpt lat="44.60299" lon="3.48543">
        <ele>1154.625</ele>
        <time>2022-01-19T18:31:40Z</time>
      </trkpt>
      <trkpt lat="44.60297" lon="3.48544">
        <ele>1154.5457</ele>
        <time>2022-01-19T18:31:41Z</time>
      </trkpt>
      <trkpt lat="44.60296" lon="3.48545">
        <ele>1154.4823</ele>
        <time>2022-01-19T18:31:42Z</time>
      </trkpt>
      <trkpt lat="44.60295" lon="3.48546">
        <ele>1154.4664</ele>
        <time>2022-01-19T18:31:43Z</time>
      </trkpt>
      <trkpt lat="44.60294" lon="3.48547">
        <ele>1154.4664</ele>
        <time>2022-01-19T18:31:44Z</time>
      </trkpt>
      <trkpt lat="44.60292" lon="3.48547">
        <ele>1154.3502</ele>
        <time>2022-01-19T18:31:45Z</time>
      </trkpt>
      <trkpt lat="44.60291" lon="3.48548">
        <ele>1154.3185</ele>
        <time>2022-01-19T18:31:46Z</time>
      </trkpt>
      <trkpt lat="44.6029" lon="3.48548">
        <ele>1154.2921</ele>
        <time>2022-01-19T18:31:47Z</time>
      </trkpt>
      <trkpt lat="44.60289" lon="3.4855">
        <ele>1154.2391</ele>
        <time>2022-01-19T18:31:48Z</time>
      </trkpt>
      <trkpt lat="44.60288" lon="3.4855">
        <ele>1154.0807</ele>
        <time>2022-01-19T18:31:49Z</time>
      </trkpt>
      <trkpt lat="44.60286" lon="3.48551">
        <ele>1153.9961</ele>
        <time>2022-01-19T18:31:50Z</time>
      </trkpt>
      <trkpt lat="44.60285" lon="3.48552">
        <ele>1153.975</ele>
        <time>2022-01-19T18:31:51Z</time>
      </trkpt>
      <trkpt lat="44.60284" lon="3.48553">
        <ele>1153.9539</ele>
        <time>2022-01-19T18:31:52Z</time>
      </trkpt>
      <trkpt lat="44.60282" lon="3.48554">
        <ele>1153.975</ele>
        <time>2022-01-19T18:31:53Z</time>
      </trkpt>
      <trkpt lat="44.60281" lon="3.48556">
        <ele>1154.0331</ele>
        <time>2022-01-19T18:31:54Z</time>
      </trkpt>
      <trkpt lat="44.60279" lon="3.48556">
        <ele>1153.9802</ele>
        <time>2022-01-19T18:31:55Z</time>
      </trkpt>
      <trkpt lat="44.60278" lon="3.48557">
        <ele>1153.716</ele>
        <time>2022-01-19T18:31:56Z</time>
      </trkpt>
      <trkpt lat="44.60276" lon="3.48558">
        <ele>1153.716</ele>
        <time>2022-01-19T18:31:57Z</time>
      </trkpt>
      <trkpt lat="44.60275" lon="3.48559">
        <ele>1153.6632</ele>
        <time>2022-01-19T18:31:58Z</time>
      </trkpt>
      <trkpt lat="44.60274" lon="3.48561">
        <ele>1153.6791</ele>
        <time>2022-01-19T18:31:59Z</time>
      </trkpt>
      <trkpt lat="44.60272" lon="3.48562">
        <ele>1153.5945</ele>
        <time>2022-01-19T18:32:00Z</time>
      </trkpt>
      <trkpt lat="44.60271" lon="3.48563">
        <ele>1153.494</ele>
        <time>2022-01-19T18:32:01Z</time>
      </trkpt>
      <trkpt lat="44.6027" lon="3.48564">
        <ele>1153.4677</ele>
        <time>2022-01-19T18:32:02Z</time>
      </trkpt>
      <trkpt lat="44.60268" lon="3.48566">
        <ele>1153.3937</ele>
        <time>2022-01-19T18:32:03Z</time>
      </trkpt>
      <trkpt lat="44.60267" lon="3.48567">
        <ele>1153.3989</ele>
        <time>2022-01-19T18:32:04Z</time>
      </trkpt>
      <trkpt lat="44.60266" lon="3.48567">
        <ele>1153.3408</ele>
        <time>2022-01-19T18:32:05Z</time>
      </trkpt>
      <trkpt lat="44.60265" lon="3.48568">
        <ele>1153.1929</ele>
        <time>2022-01-19T18:32:06Z</time>
      </trkpt>
      <trkpt lat="44.60263" lon="3.48569">
        <ele>1153.2246</ele>
        <time>2022-01-19T18:32:07Z</time>
      </trkpt>
      <trkpt lat="44.60262" lon="3.48571">
        <ele>1153.0502</ele>
        <time>2022-01-19T18:32:08Z</time>
      </trkpt>
      <trkpt lat="44.60261" lon="3.48572">
        <ele>1152.9392</ele>
        <time>2022-01-19T18:32:09Z</time>
      </trkpt>
      <trkpt lat="44.60259" lon="3.48573">
        <ele>1152.8282</ele>
        <time>2022-01-19T18:32:10Z</time>
      </trkpt>
      <trkpt lat="44.60258" lon="3.48575">
        <ele>1152.9867</ele>
        <time>2022-01-19T18:32:11Z</time>
      </trkpt>
      <trkpt lat="44.60257" lon="3.48576">
        <ele>1152.9708</ele>
        <time>2022-01-19T18:32:12Z</time>
      </trkpt>
      <trkpt lat="44.60256" lon="3.48577">
        <ele>1154.1282</ele>
        <time>2022-01-19T18:32:13Z</time>
      </trkpt>
      <trkpt lat="44.60255" lon="3.48578">
        <ele>1153.0765</ele>
        <time>2022-01-19T18:32:14Z</time>
      </trkpt>
      <trkpt lat="44.60254" lon="3.48579">
        <ele>1152.7806</ele>
        <time>2022-01-19T18:32:15Z</time>
      </trkpt>
      <trkpt lat="44.60253" lon="3.48581">
        <ele>1152.6327</ele>
        <time>2022-01-19T18:32:16Z</time>
      </trkpt>
      <trkpt lat="44.60252" lon="3.48582">
        <ele>1152.601</ele>
        <time>2022-01-19T18:32:17Z</time>
      </trkpt>
      <trkpt lat="44.60251" lon="3.48583">
        <ele>1152.416</ele>
        <time>2022-01-19T18:32:18Z</time>
      </trkpt>
      <trkpt lat="44.6025" lon="3.48583">
        <ele>1152.4106</ele>
        <time>2022-01-19T18:32:19Z</time>
      </trkpt>
      <trkpt lat="44.60249" lon="3.48584">
        <ele>1152.3738</ele>
        <time>2022-01-19T18:32:20Z</time>
      </trkpt>
      <trkpt lat="44.60248" lon="3.48585">
        <ele>1152.2838</ele>
        <time>2022-01-19T18:32:21Z</time>
      </trkpt>
      <trkpt lat="44.60247" lon="3.48587">
        <ele>1152.2627</ele>
        <time>2022-01-19T18:32:22Z</time>
      </trkpt>
      <trkpt lat="44.60247" lon="3.48588">
        <ele>1152.2627</ele>
        <time>2022-01-19T18:32:23Z</time>
      </trkpt>
      <trkpt lat="44.60246" lon="3.48589">
        <ele>1152.0936</ele>
        <time>2022-01-19T18:32:24Z</time>
      </trkpt>
      <trkpt lat="44.60246" lon="3.4859">
        <ele>1152.0143</ele>
        <time>2022-01-19T18:32:25Z</time>
      </trkpt>
      <trkpt lat="44.60246" lon="3.48591">
        <ele>1151.9563</ele>
        <time>2022-01-19T18:32:26Z</time>
      </trkpt>
      <trkpt lat="44.60246" lon="3.48592">
        <ele>1151.9404</ele>
        <time>2022-01-19T18:32:27Z</time>
      </trkpt>
      <trkpt lat="44.60245" lon="3.48593">
        <ele>1151.8982</ele>
        <time>2022-01-19T18:32:28Z</time>
      </trkpt>
      <trkpt lat="44.60245" lon="3.48594">
        <ele>1151.9404</ele>
        <time>2022-01-19T18:32:29Z</time>
      </trkpt>
      <trkpt lat="44.60245" lon="3.48594">
        <ele>1151.9615</ele>
        <time>2022-01-19T18:32:30Z</time>
      </trkpt>
      <trkpt lat="44.60245" lon="3.48594">
        <ele>1151.9034</ele>
        <time>2022-01-19T18:32:31Z</time>
      </trkpt>
      <trkpt lat="44.60245" lon="3.48594">
        <ele>1152.0038</ele>
        <time>2022-01-19T18:32:32Z</time>
      </trkpt>
      <trkpt lat="44.60245" lon="3.48594">
        <ele>1151.972</ele>
        <time>2022-01-19T18:32:33Z</time>
      </trkpt>
      <trkpt lat="44.60245" lon="3.48594">
        <ele>1151.9457</ele>
        <time>2022-01-19T18:32:34Z</time>
      </trkpt>
      <trkpt lat="44.60245" lon="3.48598">
        <ele>1151.9827</ele>
        <time>2022-01-19T18:32:35Z</time>
      </trkpt>
      <trkpt lat="44.60245" lon="3.486">
        <ele>1152.0038</ele>
        <time>2022-01-19T18:32:36Z</time>
      </trkpt>
      <trkpt lat="44.60244" lon="3.48601">
        <ele>1152.0461</ele>
        <time>2022-01-19T18:32:37Z</time>
      </trkpt>
      <trkpt lat="44.60244" lon="3.48603">
        <ele>1152.0143</ele>
        <time>2022-01-19T18:32:38Z</time>
      </trkpt>
      <trkpt lat="44.60244" lon="3.48604">
        <ele>1152.1042</ele>
        <time>2022-01-19T18:32:39Z</time>
      </trkpt>
      <trkpt lat="44.60244" lon="3.48605">
        <ele>1152.1412</ele>
        <time>2022-01-19T18:32:40Z</time>
      </trkpt>
      <trkpt lat="44.60243" lon="3.48605">
        <ele>1152.1676</ele>
        <time>2022-01-19T18:32:41Z</time>
      </trkpt>
      <trkpt lat="44.60243" lon="3.48605">
        <ele>1152.2311</ele>
        <time>2022-01-19T18:32:42Z</time>
      </trkpt>
      <trkpt lat="44.60243" lon="3.48605">
        <ele>1152.2311</ele>
        <time>2022-01-19T18:32:42Z</time>
      </trkpt>
      <trkpt lat="44.60243" lon="3.48605">
        <ele>1152.2311</ele>
        <time>2022-01-19T18:32:42Z</time>
      </trkpt>
      <trkpt lat="44.60243" lon="3.48615">
        <ele>1152.4424</ele>
        <time>2022-01-19T18:32:58Z</time>
      </trkpt>
      <trkpt lat="44.60243" lon="3.48617">
        <ele>1152.4952</ele>
        <time>2022-01-19T18:32:59Z</time>
      </trkpt>
      <trkpt lat="44.60243" lon="3.48618">
        <ele>1152.749</ele>
        <time>2022-01-19T18:33:00Z</time>
      </trkpt>
      <trkpt lat="44.60243" lon="3.4862">
        <ele>1152.8599</ele>
        <time>2022-01-19T18:33:01Z</time>
      </trkpt>
      <trkpt lat="44.60243" lon="3.48622">
        <ele>1152.9392</ele>
        <time>2022-01-19T18:33:02Z</time>
      </trkpt>
      <trkpt lat="44.60243" lon="3.48624">
        <ele>1153.0397</ele>
        <time>2022-01-19T18:33:03Z</time>
      </trkpt>
      <trkpt lat="44.60242" lon="3.48625">
        <ele>1153.2562</ele>
        <time>2022-01-19T18:33:04Z</time>
      </trkpt>
      <trkpt lat="44.60242" lon="3.48627">
        <ele>1153.3038</ele>
        <time>2022-01-19T18:33:05Z</time>
      </trkpt>
      <trkpt lat="44.60243" lon="3.48628">
        <ele>1153.4572</ele>
        <time>2022-01-19T18:33:06Z</time>
      </trkpt>
      <trkpt lat="44.60243" lon="3.4863">
        <ele>1153.6526</ele>
        <time>2022-01-19T18:33:07Z</time>
      </trkpt>
      <trkpt lat="44.60243" lon="3.48631">
        <ele>1153.7002</ele>
        <time>2022-01-19T18:33:08Z</time>
      </trkpt>
      <trkpt lat="44.60243" lon="3.48633">
        <ele>1153.7794</ele>
        <time>2022-01-19T18:33:09Z</time>
      </trkpt>
      <trkpt lat="44.60243" lon="3.48635">
        <ele>1153.9644</ele>
        <time>2022-01-19T18:33:10Z</time>
      </trkpt>
      <trkpt lat="44.60242" lon="3.48637">
        <ele>1153.9855</ele>
        <time>2022-01-19T18:33:11Z</time>
      </trkpt>
      <trkpt lat="44.60242" lon="3.48638">
        <ele>1153.9485</ele>
        <time>2022-01-19T18:33:12Z</time>
      </trkpt>
      <trkpt lat="44.60242" lon="3.4864">
        <ele>1154.1864</ele>
        <time>2022-01-19T18:33:13Z</time>
      </trkpt>
      <trkpt lat="44.60242" lon="3.48641">
        <ele>1154.2867</ele>
        <time>2022-01-19T18:33:14Z</time>
      </trkpt>
      <trkpt lat="44.60241" lon="3.48643">
        <ele>1154.2867</ele>
        <time>2022-01-19T18:33:15Z</time>
      </trkpt>
      <trkpt lat="44.60241" lon="3.48645">
        <ele>1154.3661</ele>
        <time>2022-01-19T18:33:16Z</time>
      </trkpt>
      <trkpt lat="44.60241" lon="3.48646">
        <ele>1154.4664</ele>
        <time>2022-01-19T18:33:17Z</time>
      </trkpt>
      <trkpt lat="44.6024" lon="3.48648">
        <ele>1154.5352</ele>
        <time>2022-01-19T18:33:18Z</time>
      </trkpt>
      <trkpt lat="44.6024" lon="3.48649">
        <ele>1154.5774</ele>
        <time>2022-01-19T18:33:19Z</time>
      </trkpt>
      <trkpt lat="44.60239" lon="3.48653">
        <ele>1154.625</ele>
        <time>2022-01-19T18:33:20Z</time>
      </trkpt>
      <trkpt lat="44.60239" lon="3.48655">
        <ele>1154.6672</ele>
        <time>2022-01-19T18:33:21Z</time>
      </trkpt>
      <trkpt lat="44.60238" lon="3.48657">
        <ele>1154.7042</ele>
        <time>2022-01-19T18:33:22Z</time>
      </trkpt>
      <trkpt lat="44.60238" lon="3.48659">
        <ele>1154.7042</ele>
        <time>2022-01-19T18:33:23Z</time>
      </trkpt>
      <trkpt lat="44.60238" lon="3.48659">
        <ele>1154.7042</ele>
        <time>2022-01-19T18:33:23Z</time>
      </trkpt>
      <trkpt lat="44.60236" lon="3.48662">
        <ele>1154.736</ele>
        <time>2022-01-19T18:33:25Z</time>
      </trkpt>
      <trkpt lat="44.60236" lon="3.48664">
        <ele>1154.7412</ele>
        <time>2022-01-19T18:33:26Z</time>
      </trkpt>
      <trkpt lat="44.60235" lon="3.48665">
        <ele>1154.9104</ele>
        <time>2022-01-19T18:33:27Z</time>
      </trkpt>
      <trkpt lat="44.60235" lon="3.48667">
        <ele>1154.9261</ele>
        <time>2022-01-19T18:33:28Z</time>
      </trkpt>
      <trkpt lat="44.60235" lon="3.48669">
        <ele>1154.8893</ele>
        <time>2022-01-19T18:33:29Z</time>
      </trkpt>
      <trkpt lat="44.60234" lon="3.48671">
        <ele>1154.8363</ele>
        <time>2022-01-19T18:33:30Z</time>
      </trkpt>
      <trkpt lat="44.60234" lon="3.48673">
        <ele>1154.8152</ele>
        <time>2022-01-19T18:33:31Z</time>
      </trkpt>
      <trkpt lat="44.60234" lon="3.48673">
        <ele>1154.9368</ele>
        <time>2022-01-19T18:33:32Z</time>
      </trkpt>
      <trkpt lat="44.60234" lon="3.48673">
        <ele>1154.8839</ele>
        <time>2022-01-19T18:33:33Z</time>
      </trkpt>
      <trkpt lat="44.60233" lon="3.48674">
        <ele>1154.9209</ele>
        <time>2022-01-19T18:33:34Z</time>
      </trkpt>
      <trkpt lat="44.60233" lon="3.48674">
        <ele>1154.9209</ele>
        <time>2022-01-19T18:33:34Z</time>
      </trkpt>
      <trkpt lat="44.60231" lon="3.48677">
        <ele>1154.942</ele>
        <time>2022-01-19T18:33:36Z</time>
      </trkpt>
      <trkpt lat="44.60231" lon="3.48677">
        <ele>1154.942</ele>
        <time>2022-01-19T18:33:36Z</time>
      </trkpt>
      <trkpt lat="44.6023" lon="3.4868">
        <ele>1154.868</ele>
        <time>2022-01-19T18:33:38Z</time>
      </trkpt>
      <trkpt lat="44.6023" lon="3.4868">
        <ele>1154.868</ele>
        <time>2022-01-19T18:33:38Z</time>
      </trkpt>
      <trkpt lat="44.60229" lon="3.48681">
        <ele>1154.8945</ele>
        <time>2022-01-19T18:33:40Z</time>
      </trkpt>
      <trkpt lat="44.60228" lon="3.48684">
        <ele>1154.9209</ele>
        <time>2022-01-19T18:33:41Z</time>
      </trkpt>
      <trkpt lat="44.60227" lon="3.48686">
        <ele>1154.8628</ele>
        <time>2022-01-19T18:33:42Z</time>
      </trkpt>
      <trkpt lat="44.60226" lon="3.48687">
        <ele>1154.9315</ele>
        <time>2022-01-19T18:33:43Z</time>
      </trkpt>
      <trkpt lat="44.60226" lon="3.48689">
        <ele>1154.9156</ele>
        <time>2022-01-19T18:33:44Z</time>
      </trkpt>
      <trkpt lat="44.60225" lon="3.48691">
        <ele>1154.8998</ele>
        <time>2022-01-19T18:33:45Z</time>
      </trkpt>
      <trkpt lat="44.60225" lon="3.48693">
        <ele>1154.8787</ele>
        <time>2022-01-19T18:33:46Z</time>
      </trkpt>
      <trkpt lat="44.60224" lon="3.48694">
        <ele>1154.995</ele>
        <time>2022-01-19T18:33:47Z</time>
      </trkpt>
      <trkpt lat="44.60223" lon="3.48696">
        <ele>1154.9104</ele>
        <time>2022-01-19T18:33:48Z</time>
      </trkpt>
      <trkpt lat="44.60222" lon="3.48698">
        <ele>1154.9579</ele>
        <time>2022-01-19T18:33:49Z</time>
      </trkpt>
      <trkpt lat="44.60222" lon="3.48699">
        <ele>1154.979</ele>
        <time>2022-01-19T18:33:50Z</time>
      </trkpt>
      <trkpt lat="44.60221" lon="3.48702">
        <ele>1155.0688</ele>
        <time>2022-01-19T18:33:51Z</time>
      </trkpt>
      <trkpt lat="44.6022" lon="3.48704">
        <ele>1155.0688</ele>
        <time>2022-01-19T18:33:52Z</time>
      </trkpt>
      <trkpt lat="44.6022" lon="3.48706">
        <ele>1155.0214</ele>
        <time>2022-01-19T18:33:53Z</time>
      </trkpt>
      <trkpt lat="44.60219" lon="3.48707">
        <ele>1154.8839</ele>
        <time>2022-01-19T18:33:54Z</time>
      </trkpt>
      <trkpt lat="44.60218" lon="3.48709">
        <ele>1155.0161</ele>
        <time>2022-01-19T18:33:55Z</time>
      </trkpt>
      <trkpt lat="44.60217" lon="3.48711">
        <ele>1155.0372</ele>
        <time>2022-01-19T18:33:56Z</time>
      </trkpt>
      <trkpt lat="44.60217" lon="3.48712">
        <ele>1155.0531</ele>
        <time>2022-01-19T18:33:57Z</time>
      </trkpt>
      <trkpt lat="44.60216" lon="3.48714">
        <ele>1154.995</ele>
        <time>2022-01-19T18:33:58Z</time>
      </trkpt>
      <trkpt lat="44.60215" lon="3.48716">
        <ele>1155.0531</ele>
        <time>2022-01-19T18:33:59Z</time>
      </trkpt>
      <trkpt lat="44.60214" lon="3.48718">
        <ele>1155.0425</ele>
        <time>2022-01-19T18:34:00Z</time>
      </trkpt>
      <trkpt lat="44.60214" lon="3.48718">
        <ele>1155.0425</ele>
        <time>2022-01-19T18:34:00Z</time>
      </trkpt>
      <trkpt lat="44.60213" lon="3.48719">
        <ele>1155.2274</ele>
        <time>2022-01-19T18:34:02Z</time>
      </trkpt>
      <trkpt lat="44.60211" lon="3.48723">
        <ele>1155.2063</ele>
        <time>2022-01-19T18:34:03Z</time>
      </trkpt>
      <trkpt lat="44.6021" lon="3.48724">
        <ele>1155.0688</ele>
        <time>2022-01-19T18:34:04Z</time>
      </trkpt>
      <trkpt lat="44.60209" lon="3.48726">
        <ele>1155.0795</ele>
        <time>2022-01-19T18:34:05Z</time>
      </trkpt>
      <trkpt lat="44.60208" lon="3.48727">
        <ele>1155.1482</ele>
        <time>2022-01-19T18:34:06Z</time>
      </trkpt>
      <trkpt lat="44.60208" lon="3.48727">
        <ele>1155.1482</ele>
        <time>2022-01-19T18:34:06Z</time>
      </trkpt>
      <trkpt lat="44.60206" lon="3.48731">
        <ele>1155.2538</ele>
        <time>2022-01-19T18:34:08Z</time>
      </trkpt>
      <trkpt lat="44.60204" lon="3.48732">
        <ele>1155.1376</ele>
        <time>2022-01-19T18:34:09Z</time>
      </trkpt>
      <trkpt lat="44.60203" lon="3.48734">
        <ele>1155.275</ele>
        <time>2022-01-19T18:34:10Z</time>
      </trkpt>
      <trkpt lat="44.60202" lon="3.48735">
        <ele>1155.2909</ele>
        <time>2022-01-19T18:34:11Z</time>
      </trkpt>
      <trkpt lat="44.60201" lon="3.48737">
        <ele>1155.2909</ele>
        <time>2022-01-19T18:34:12Z</time>
      </trkpt>
      <trkpt lat="44.60199" lon="3.48738">
        <ele>1155.0688</ele>
        <time>2022-01-19T18:34:13Z</time>
      </trkpt>
      <trkpt lat="44.60198" lon="3.48739">
        <ele>1157.4893</ele>
        <time>2022-01-19T18:34:14Z</time>
      </trkpt>
      <trkpt lat="44.60197" lon="3.4874">
        <ele>1155.4177</ele>
        <time>2022-01-19T18:34:15Z</time>
      </trkpt>
      <trkpt lat="44.60196" lon="3.48742">
        <ele>1155.1165</ele>
        <time>2022-01-19T18:34:16Z</time>
      </trkpt>
      <trkpt lat="44.60195" lon="3.48744">
        <ele>1155.1323</ele>
        <time>2022-01-19T18:34:17Z</time>
      </trkpt>
      <trkpt lat="44.60194" lon="3.48745">
        <ele>1155.1534</ele>
        <time>2022-01-19T18:34:18Z</time>
      </trkpt>
      <trkpt lat="44.60193" lon="3.48747">
        <ele>1155.2115</ele>
        <time>2022-01-19T18:34:19Z</time>
      </trkpt>
      <trkpt lat="44.60192" lon="3.48748">
        <ele>1155.1641</ele>
        <time>2022-01-19T18:34:20Z</time>
      </trkpt>
      <trkpt lat="44.60191" lon="3.48749">
        <ele>1154.9896</ele>
        <time>2022-01-19T18:34:21Z</time>
      </trkpt>
      <trkpt lat="44.60189" lon="3.4875">
        <ele>1155.0531</ele>
        <time>2022-01-19T18:34:22Z</time>
      </trkpt>
      <trkpt lat="44.60189" lon="3.48752">
        <ele>1155.1799</ele>
        <time>2022-01-19T18:34:23Z</time>
      </trkpt>
      <trkpt lat="44.60188" lon="3.48754">
        <ele>1155.09</ele>
        <time>2022-01-19T18:34:24Z</time>
      </trkpt>
      <trkpt lat="44.60187" lon="3.48756">
        <ele>1155.0477</ele>
        <time>2022-01-19T18:34:25Z</time>
      </trkpt>
      <trkpt lat="44.60187" lon="3.48756">
        <ele>1155.0477</ele>
        <time>2022-01-19T18:34:25Z</time>
      </trkpt>
      <trkpt lat="44.60185" lon="3.48759">
        <ele>1155.0742</ele>
        <time>2022-01-19T18:34:27Z</time>
      </trkpt>
      <trkpt lat="44.60184" lon="3.4876">
        <ele>1155.0847</ele>
        <time>2022-01-19T18:34:28Z</time>
      </trkpt>
      <trkpt lat="44.60183" lon="3.48761">
        <ele>1155.0795</ele>
        <time>2022-01-19T18:34:29Z</time>
      </trkpt>
      <trkpt lat="44.60183" lon="3.48761">
        <ele>1155.0795</ele>
        <time>2022-01-19T18:34:29Z</time>
      </trkpt>
      <trkpt lat="44.60181" lon="3.48764">
        <ele>1154.9843</ele>
        <time>2022-01-19T18:34:31Z</time>
      </trkpt>
      <trkpt lat="44.6018" lon="3.48765">
        <ele>1155.0002</ele>
        <time>2022-01-19T18:34:32Z</time>
      </trkpt>
      <trkpt lat="44.60178" lon="3.48766">
        <ele>1154.9156</ele>
        <time>2022-01-19T18:34:33Z</time>
      </trkpt>
      <trkpt lat="44.60178" lon="3.48766">
        <ele>1154.9156</ele>
        <time>2022-01-19T18:34:33Z</time>
      </trkpt>
      <trkpt lat="44.60176" lon="3.48769">
        <ele>1154.9104</ele>
        <time>2022-01-19T18:34:35Z</time>
      </trkpt>
      <trkpt lat="44.60174" lon="3.48771">
        <ele>1154.8998</ele>
        <time>2022-01-19T18:34:36Z</time>
      </trkpt>
      <trkpt lat="44.60173" lon="3.48772">
        <ele>1154.9526</ele>
        <time>2022-01-19T18:34:37Z</time>
      </trkpt>
      <trkpt lat="44.60171" lon="3.48774">
        <ele>1154.8839</ele>
        <time>2022-01-19T18:34:38Z</time>
      </trkpt>
      <trkpt lat="44.6017" lon="3.48775">
        <ele>1154.7993</ele>
        <time>2022-01-19T18:34:39Z</time>
      </trkpt>
      <trkpt lat="44.60169" lon="3.48777">
        <ele>1154.9209</ele>
        <time>2022-01-19T18:34:40Z</time>
      </trkpt>
      <trkpt lat="44.60169" lon="3.48778">
        <ele>1154.9315</ele>
        <time>2022-01-19T18:34:41Z</time>
      </trkpt>
      <trkpt lat="44.60168" lon="3.4878">
        <ele>1154.8998</ele>
        <time>2022-01-19T18:34:42Z</time>
      </trkpt>
      <trkpt lat="44.60167" lon="3.48782">
        <ele>1154.8152</ele>
        <time>2022-01-19T18:34:43Z</time>
      </trkpt>
      <trkpt lat="44.60166" lon="3.48783">
        <ele>1154.7255</ele>
        <time>2022-01-19T18:34:44Z</time>
      </trkpt>
      <trkpt lat="44.60165" lon="3.48785">
        <ele>1154.7412</ele>
        <time>2022-01-19T18:34:45Z</time>
      </trkpt>
      <trkpt lat="44.60163" lon="3.48786">
        <ele>1154.6936</ele>
        <time>2022-01-19T18:34:46Z</time>
      </trkpt>
      <trkpt lat="44.60162" lon="3.48788">
        <ele>1154.6567</ele>
        <time>2022-01-19T18:34:47Z</time>
      </trkpt>
      <trkpt lat="44.60161" lon="3.48789">
        <ele>1154.6779</ele>
        <time>2022-01-19T18:34:48Z</time>
      </trkpt>
      <trkpt lat="44.6016" lon="3.48791">
        <ele>1154.662</ele>
        <time>2022-01-19T18:34:49Z</time>
      </trkpt>
      <trkpt lat="44.60159" lon="3.48792">
        <ele>1154.6725</ele>
        <time>2022-01-19T18:34:50Z</time>
      </trkpt>
      <trkpt lat="44.60158" lon="3.48794">
        <ele>1154.6461</ele>
        <time>2022-01-19T18:34:51Z</time>
      </trkpt>
      <trkpt lat="44.60156" lon="3.48795">
        <ele>1154.6831</ele>
        <time>2022-01-19T18:34:52Z</time>
      </trkpt>
      <trkpt lat="44.60155" lon="3.48796">
        <ele>1154.6779</ele>
        <time>2022-01-19T18:34:53Z</time>
      </trkpt>
      <trkpt lat="44.60154" lon="3.48798">
        <ele>1154.5721</ele>
        <time>2022-01-19T18:34:54Z</time>
      </trkpt>
      <trkpt lat="44.60152" lon="3.488">
        <ele>1154.5352</ele>
        <time>2022-01-19T18:34:55Z</time>
      </trkpt>
      <trkpt lat="44.60152" lon="3.48801">
        <ele>1154.6144</ele>
        <time>2022-01-19T18:34:56Z</time>
      </trkpt>
      <trkpt lat="44.60151" lon="3.48803">
        <ele>1154.5563</ele>
        <time>2022-01-19T18:34:57Z</time>
      </trkpt>
      <trkpt lat="44.60151" lon="3.48804">
        <ele>1154.5034</ele>
        <time>2022-01-19T18:34:58Z</time>
      </trkpt>
      <trkpt lat="44.60149" lon="3.48805">
        <ele>1154.5669</ele>
        <time>2022-01-19T18:34:59Z</time>
      </trkpt>
      <trkpt lat="44.60149" lon="3.48806">
        <ele>1154.5087</ele>
        <time>2022-01-19T18:35:00Z</time>
      </trkpt>
      <trkpt lat="44.60148" lon="3.48807">
        <ele>1154.4506</ele>
        <time>2022-01-19T18:35:01Z</time>
      </trkpt>
      <trkpt lat="44.60147" lon="3.48808">
        <ele>1154.3713</ele>
        <time>2022-01-19T18:35:02Z</time>
      </trkpt>
      <trkpt lat="44.60146" lon="3.4881">
        <ele>1154.3766</ele>
        <time>2022-01-19T18:35:03Z</time>
      </trkpt>
      <trkpt lat="44.60144" lon="3.48812">
        <ele>1154.514</ele>
        <time>2022-01-19T18:35:04Z</time>
      </trkpt>
      <trkpt lat="44.60143" lon="3.48813">
        <ele>1154.3766</ele>
        <time>2022-01-19T18:35:05Z</time>
      </trkpt>
      <trkpt lat="44.60142" lon="3.48815">
        <ele>1154.3026</ele>
        <time>2022-01-19T18:35:06Z</time>
      </trkpt>
      <trkpt lat="44.60141" lon="3.48816">
        <ele>1154.2974</ele>
        <time>2022-01-19T18:35:07Z</time>
      </trkpt>
      <trkpt lat="44.6014" lon="3.48817">
        <ele>1154.3185</ele>
        <time>2022-01-19T18:35:08Z</time>
      </trkpt>
      <trkpt lat="44.60139" lon="3.48819">
        <ele>1154.2867</ele>
        <time>2022-01-19T18:35:09Z</time>
      </trkpt>
      <trkpt lat="44.60138" lon="3.4882">
        <ele>1154.4188</ele>
        <time>2022-01-19T18:35:10Z</time>
      </trkpt>
      <trkpt lat="44.60137" lon="3.4882">
        <ele>1154.4188</ele>
        <time>2022-01-19T18:35:11Z</time>
      </trkpt>
      <trkpt lat="44.60136" lon="3.48821">
        <ele>1154.255</ele>
        <time>2022-01-19T18:35:12Z</time>
      </trkpt>
      <trkpt lat="44.60135" lon="3.48822">
        <ele>1154.2339</ele>
        <time>2022-01-19T18:35:13Z</time>
      </trkpt>
      <trkpt lat="44.60135" lon="3.48824">
        <ele>1154.181</ele>
        <time>2022-01-19T18:35:14Z</time>
      </trkpt>
      <trkpt lat="44.60134" lon="3.48826">
        <ele>1154.2391</ele>
        <time>2022-01-19T18:35:15Z</time>
      </trkpt>
      <trkpt lat="44.60133" lon="3.48827">
        <ele>1154.1282</ele>
        <time>2022-01-19T18:35:16Z</time>
      </trkpt>
      <trkpt lat="44.60132" lon="3.48828">
        <ele>1154.0015</ele>
        <time>2022-01-19T18:35:17Z</time>
      </trkpt>
      <trkpt lat="44.60131" lon="3.4883">
        <ele>1154.1282</ele>
        <time>2022-01-19T18:35:18Z</time>
      </trkpt>
      <trkpt lat="44.6013" lon="3.48831">
        <ele>1154.1758</ele>
        <time>2022-01-19T18:35:19Z</time>
      </trkpt>
      <trkpt lat="44.60129" lon="3.48832">
        <ele>1154.0966</ele>
        <time>2022-01-19T18:35:20Z</time>
      </trkpt>
      <trkpt lat="44.60128" lon="3.48834">
        <ele>1154.1229</ele>
        <time>2022-01-19T18:35:21Z</time>
      </trkpt>
      <trkpt lat="44.60127" lon="3.48835">
        <ele>1154.0542</ele>
        <time>2022-01-19T18:35:22Z</time>
      </trkpt>
      <trkpt lat="44.60127" lon="3.48837">
        <ele>1154.255</ele>
        <time>2022-01-19T18:35:23Z</time>
      </trkpt>
      <trkpt lat="44.60126" lon="3.48838">
        <ele>1154.2286</ele>
        <time>2022-01-19T18:35:24Z</time>
      </trkpt>
      <trkpt lat="44.60125" lon="3.48839">
        <ele>1154.1177</ele>
        <time>2022-01-19T18:35:25Z</time>
      </trkpt>
      <trkpt lat="44.60124" lon="3.4884">
        <ele>1154.0754</ele>
        <time>2022-01-19T18:35:26Z</time>
      </trkpt>
      <trkpt lat="44.60123" lon="3.48841">
        <ele>1154.1177</ele>
        <time>2022-01-19T18:35:27Z</time>
      </trkpt>
      <trkpt lat="44.60122" lon="3.48842">
        <ele>1153.9591</ele>
        <time>2022-01-19T18:35:28Z</time>
      </trkpt>
      <trkpt lat="44.60121" lon="3.48843">
        <ele>1154.0015</ele>
        <time>2022-01-19T18:35:29Z</time>
      </trkpt>
      <trkpt lat="44.6012" lon="3.48844">
        <ele>1154.0701</ele>
        <time>2022-01-19T18:35:30Z</time>
      </trkpt>
      <trkpt lat="44.60119" lon="3.48845">
        <ele>1153.9591</ele>
        <time>2022-01-19T18:35:31Z</time>
      </trkpt>
      <trkpt lat="44.60118" lon="3.48846">
        <ele>1153.9432</ele>
        <time>2022-01-19T18:35:32Z</time>
      </trkpt>
      <trkpt lat="44.60117" lon="3.48848">
        <ele>1154.0173</ele>
        <time>2022-01-19T18:35:33Z</time>
      </trkpt>
      <trkpt lat="44.60116" lon="3.48849">
        <ele>1153.9644</ele>
        <time>2022-01-19T18:35:34Z</time>
      </trkpt>
      <trkpt lat="44.60114" lon="3.4885">
        <ele>1153.975</ele>
        <time>2022-01-19T18:35:35Z</time>
      </trkpt>
      <trkpt lat="44.60113" lon="3.48852">
        <ele>1153.9116</ele>
        <time>2022-01-19T18:35:36Z</time>
      </trkpt>
      <trkpt lat="44.60112" lon="3.48854">
        <ele>1153.9539</ele>
        <time>2022-01-19T18:35:37Z</time>
      </trkpt>
      <trkpt lat="44.60112" lon="3.48855">
        <ele>1153.901</ele>
        <time>2022-01-19T18:35:38Z</time>
      </trkpt>
      <trkpt lat="44.60111" lon="3.48855">
        <ele>1153.864</ele>
        <time>2022-01-19T18:35:39Z</time>
      </trkpt>
      <trkpt lat="44.6011" lon="3.48856">
        <ele>1153.975</ele>
        <time>2022-01-19T18:35:40Z</time>
      </trkpt>
      <trkpt lat="44.60109" lon="3.48857">
        <ele>1153.79</ele>
        <time>2022-01-19T18:35:41Z</time>
      </trkpt>
      <trkpt lat="44.60108" lon="3.48859">
        <ele>1153.8375</ele>
        <time>2022-01-19T18:35:42Z</time>
      </trkpt>
      <trkpt lat="44.60107" lon="3.4886">
        <ele>1153.7847</ele>
        <time>2022-01-19T18:35:43Z</time>
      </trkpt>
      <trkpt lat="44.60106" lon="3.48861">
        <ele>1153.79</ele>
        <time>2022-01-19T18:35:44Z</time>
      </trkpt>
      <trkpt lat="44.60104" lon="3.48863">
        <ele>1153.8323</ele>
        <time>2022-01-19T18:35:45Z</time>
      </trkpt>
      <trkpt lat="44.60103" lon="3.48864">
        <ele>1153.753</ele>
        <time>2022-01-19T18:35:46Z</time>
      </trkpt>
      <trkpt lat="44.60103" lon="3.48865">
        <ele>1153.7847</ele>
        <time>2022-01-19T18:35:47Z</time>
      </trkpt>
      <trkpt lat="44.60102" lon="3.48866">
        <ele>1153.901</ele>
        <time>2022-01-19T18:35:48Z</time>
      </trkpt>
      <trkpt lat="44.60101" lon="3.48867">
        <ele>1153.9539</ele>
        <time>2022-01-19T18:35:49Z</time>
      </trkpt>
      <trkpt lat="44.601" lon="3.48869">
        <ele>1153.7002</ele>
        <time>2022-01-19T18:35:50Z</time>
      </trkpt>
      <trkpt lat="44.60099" lon="3.4887">
        <ele>1153.7689</ele>
        <time>2022-01-19T18:35:51Z</time>
      </trkpt>
      <trkpt lat="44.60098" lon="3.48871">
        <ele>1153.7635</ele>
        <time>2022-01-19T18:35:52Z</time>
      </trkpt>
      <trkpt lat="44.60097" lon="3.48872">
        <ele>1153.8851</ele>
        <time>2022-01-19T18:35:53Z</time>
      </trkpt>
      <trkpt lat="44.60096" lon="3.48873">
        <ele>1153.7213</ele>
        <time>2022-01-19T18:35:54Z</time>
      </trkpt>
      <trkpt lat="44.60095" lon="3.48875">
        <ele>1153.6896</ele>
        <time>2022-01-19T18:35:55Z</time>
      </trkpt>
      <trkpt lat="44.60094" lon="3.48876">
        <ele>1153.753</ele>
        <time>2022-01-19T18:35:56Z</time>
      </trkpt>
      <trkpt lat="44.60093" lon="3.48877">
        <ele>1153.7583</ele>
        <time>2022-01-19T18:35:57Z</time>
      </trkpt>
      <trkpt lat="44.60092" lon="3.48878">
        <ele>1153.8323</ele>
        <time>2022-01-19T18:35:58Z</time>
      </trkpt>
      <trkpt lat="44.60091" lon="3.48879">
        <ele>1153.7213</ele>
        <time>2022-01-19T18:35:59Z</time>
      </trkpt>
      <trkpt lat="44.6009" lon="3.4888">
        <ele>1153.827</ele>
        <time>2022-01-19T18:36:00Z</time>
      </trkpt>
      <trkpt lat="44.60089" lon="3.48881">
        <ele>1153.79</ele>
        <time>2022-01-19T18:36:01Z</time>
      </trkpt>
      <trkpt lat="44.60088" lon="3.48883">
        <ele>1153.8323</ele>
        <time>2022-01-19T18:36:02Z</time>
      </trkpt>
      <trkpt lat="44.60086" lon="3.48884">
        <ele>1153.8217</ele>
        <time>2022-01-19T18:36:03Z</time>
      </trkpt>
      <trkpt lat="44.60086" lon="3.48886">
        <ele>1153.8059</ele>
        <time>2022-01-19T18:36:04Z</time>
      </trkpt>
      <trkpt lat="44.60085" lon="3.48887">
        <ele>1153.7847</ele>
        <time>2022-01-19T18:36:05Z</time>
      </trkpt>
      <trkpt lat="44.60083" lon="3.48888">
        <ele>1153.8958</ele>
        <time>2022-01-19T18:36:06Z</time>
      </trkpt>
      <trkpt lat="44.60083" lon="3.4889">
        <ele>1153.975</ele>
        <time>2022-01-19T18:36:07Z</time>
      </trkpt>
      <trkpt lat="44.60081" lon="3.48891">
        <ele>1153.901</ele>
        <time>2022-01-19T18:36:08Z</time>
      </trkpt>
      <trkpt lat="44.6008" lon="3.48892">
        <ele>1153.8799</ele>
        <time>2022-01-19T18:36:09Z</time>
      </trkpt>
      <trkpt lat="44.6008" lon="3.48893">
        <ele>1153.9327</ele>
        <time>2022-01-19T18:36:10Z</time>
      </trkpt>
      <trkpt lat="44.60078" lon="3.48895">
        <ele>1154.0754</ele>
        <time>2022-01-19T18:36:11Z</time>
      </trkpt>
      <trkpt lat="44.60078" lon="3.48896">
        <ele>1153.9802</ele>
        <time>2022-01-19T18:36:12Z</time>
      </trkpt>
      <trkpt lat="44.60077" lon="3.48897">
        <ele>1153.8746</ele>
        <time>2022-01-19T18:36:13Z</time>
      </trkpt>
      <trkpt lat="44.60077" lon="3.48898">
        <ele>1153.8746</ele>
        <time>2022-01-19T18:36:14Z</time>
      </trkpt>
      <trkpt lat="44.60075" lon="3.489">
        <ele>1154.5615</ele>
        <time>2022-01-19T18:36:15Z</time>
      </trkpt>
      <trkpt lat="44.60075" lon="3.48901">
        <ele>1154.2339</ele>
        <time>2022-01-19T18:36:16Z</time>
      </trkpt>
      <trkpt lat="44.60074" lon="3.48902">
        <ele>1154.1177</ele>
        <time>2022-01-19T18:36:17Z</time>
      </trkpt>
      <trkpt lat="44.60072" lon="3.48903">
        <ele>1154.1494</ele>
        <time>2022-01-19T18:36:18Z</time>
      </trkpt>
      <trkpt lat="44.60072" lon="3.48904">
        <ele>1154.1705</ele>
        <time>2022-01-19T18:36:19Z</time>
      </trkpt>
      <trkpt lat="44.60071" lon="3.48905">
        <ele>1154.1282</ele>
        <time>2022-01-19T18:36:20Z</time>
      </trkpt>
      <trkpt lat="44.6007" lon="3.48906">
        <ele>1154.2023</ele>
        <time>2022-01-19T18:36:21Z</time>
      </trkpt>
      <trkpt lat="44.60069" lon="3.48907">
        <ele>1154.181</ele>
        <time>2022-01-19T18:36:22Z</time>
      </trkpt>
      <trkpt lat="44.60068" lon="3.48908">
        <ele>1154.2075</ele>
        <time>2022-01-19T18:36:23Z</time>
      </trkpt>
      <trkpt lat="44.60067" lon="3.48909">
        <ele>1154.2498</ele>
        <time>2022-01-19T18:36:24Z</time>
      </trkpt>
      <trkpt lat="44.60066" lon="3.48909">
        <ele>1154.2075</ele>
        <time>2022-01-19T18:36:25Z</time>
      </trkpt>
      <trkpt lat="44.60065" lon="3.48909">
        <ele>1154.1758</ele>
        <time>2022-01-19T18:36:26Z</time>
      </trkpt>
      <trkpt lat="44.60064" lon="3.48908">
        <ele>1154.1282</ele>
        <time>2022-01-19T18:36:27Z</time>
      </trkpt>
      <trkpt lat="44.60063" lon="3.48909">
        <ele>1154.0859</ele>
        <time>2022-01-19T18:36:28Z</time>
      </trkpt>
      <trkpt lat="44.60061" lon="3.48909">
        <ele>1154.0385</ele>
        <time>2022-01-19T18:36:29Z</time>
      </trkpt>
      <trkpt lat="44.6006" lon="3.4891">
        <ele>1154.1599</ele>
        <time>2022-01-19T18:36:30Z</time>
      </trkpt>
      <trkpt lat="44.60059" lon="3.4891">
        <ele>1154.1177</ele>
        <time>2022-01-19T18:36:31Z</time>
      </trkpt>
      <trkpt lat="44.60057" lon="3.4891">
        <ele>1154.0912</ele>
        <time>2022-01-19T18:36:32Z</time>
      </trkpt>
      <trkpt lat="44.60056" lon="3.48911">
        <ele>1154.0912</ele>
        <time>2022-01-19T18:36:33Z</time>
      </trkpt>
      <trkpt lat="44.60055" lon="3.48912">
        <ele>1154.181</ele>
        <time>2022-01-19T18:36:34Z</time>
      </trkpt>
      <trkpt lat="44.60053" lon="3.48913">
        <ele>1154.2656</ele>
        <time>2022-01-19T18:36:35Z</time>
      </trkpt>
      <trkpt lat="44.60052" lon="3.48914">
        <ele>1154.2656</ele>
        <time>2022-01-19T18:36:36Z</time>
      </trkpt>
      <trkpt lat="44.60051" lon="3.48914">
        <ele>1154.2604</ele>
        <time>2022-01-19T18:36:37Z</time>
      </trkpt>
      <trkpt lat="44.6005" lon="3.48915">
        <ele>1154.1969</ele>
        <time>2022-01-19T18:36:38Z</time>
      </trkpt>
      <trkpt lat="44.60049" lon="3.48916">
        <ele>1154.2656</ele>
        <time>2022-01-19T18:36:39Z</time>
      </trkpt>
      <trkpt lat="44.60048" lon="3.48917">
        <ele>1154.2075</ele>
        <time>2022-01-19T18:36:40Z</time>
      </trkpt>
      <trkpt lat="44.60047" lon="3.48917">
        <ele>1154.2023</ele>
        <time>2022-01-19T18:36:41Z</time>
      </trkpt>
      <trkpt lat="44.60045" lon="3.48918">
        <ele>1154.2498</ele>
        <time>2022-01-19T18:36:42Z</time>
      </trkpt>
      <trkpt lat="44.60044" lon="3.48919">
        <ele>1154.3713</ele>
        <time>2022-01-19T18:36:43Z</time>
      </trkpt>
      <trkpt lat="44.60043" lon="3.48919">
        <ele>1154.3396</ele>
        <time>2022-01-19T18:36:44Z</time>
      </trkpt>
      <trkpt lat="44.60041" lon="3.4892">
        <ele>1154.477</ele>
        <time>2022-01-19T18:36:45Z</time>
      </trkpt>
      <trkpt lat="44.6004" lon="3.48921">
        <ele>1154.5034</ele>
        <time>2022-01-19T18:36:46Z</time>
      </trkpt>
      <trkpt lat="44.60038" lon="3.48922">
        <ele>1154.4875</ele>
        <time>2022-01-19T18:36:47Z</time>
      </trkpt>
      <trkpt lat="44.60037" lon="3.48922">
        <ele>1154.5563</ele>
        <time>2022-01-19T18:36:48Z</time>
      </trkpt>
      <trkpt lat="44.60036" lon="3.48923">
        <ele>1154.5721</ele>
        <time>2022-01-19T18:36:49Z</time>
      </trkpt>
      <trkpt lat="44.60035" lon="3.48923">
        <ele>1154.7042</ele>
        <time>2022-01-19T18:36:50Z</time>
      </trkpt>
      <trkpt lat="44.60033" lon="3.48924">
        <ele>1154.8099</ele>
        <time>2022-01-19T18:36:51Z</time>
      </trkpt>
      <trkpt lat="44.60032" lon="3.48925">
        <ele>1154.7466</ele>
        <time>2022-01-19T18:36:52Z</time>
      </trkpt>
      <trkpt lat="44.60031" lon="3.48925">
        <ele>1154.8945</ele>
        <time>2022-01-19T18:36:53Z</time>
      </trkpt>
      <trkpt lat="44.60029" lon="3.48925">
        <ele>1154.8734</ele>
        <time>2022-01-19T18:36:54Z</time>
      </trkpt>
      <trkpt lat="44.60028" lon="3.48925">
        <ele>1155.0953</ele>
        <time>2022-01-19T18:36:55Z</time>
      </trkpt>
      <trkpt lat="44.60026" lon="3.48926">
        <ele>1155.1217</ele>
        <time>2022-01-19T18:36:56Z</time>
      </trkpt>
      <trkpt lat="44.60025" lon="3.48927">
        <ele>1155.1588</ele>
        <time>2022-01-19T18:36:57Z</time>
      </trkpt>
      <trkpt lat="44.60024" lon="3.48927">
        <ele>1155.2063</ele>
        <time>2022-01-19T18:36:58Z</time>
      </trkpt>
      <trkpt lat="44.60023" lon="3.48928">
        <ele>1155.3068</ele>
        <time>2022-01-19T18:36:59Z</time>
      </trkpt>
      <trkpt lat="44.60021" lon="3.48929">
        <ele>1155.3438</ele>
        <time>2022-01-19T18:37:00Z</time>
      </trkpt>
      <trkpt lat="44.6002" lon="3.48929">
        <ele>1155.4706</ele>
        <time>2022-01-19T18:37:01Z</time>
      </trkpt>
      <trkpt lat="44.60019" lon="3.4893">
        <ele>1155.3649</ele>
        <time>2022-01-19T18:37:02Z</time>
      </trkpt>
      <trkpt lat="44.60018" lon="3.48931">
        <ele>1155.423</ele>
        <time>2022-01-19T18:37:03Z</time>
      </trkpt>
      <trkpt lat="44.60016" lon="3.48931">
        <ele>1155.4177</ele>
        <time>2022-01-19T18:37:04Z</time>
      </trkpt>
      <trkpt lat="44.60015" lon="3.48932">
        <ele>1155.5074</ele>
        <time>2022-01-19T18:37:05Z</time>
      </trkpt>
      <trkpt lat="44.60014" lon="3.48933">
        <ele>1155.6185</ele>
        <time>2022-01-19T18:37:06Z</time>
      </trkpt>
      <trkpt lat="44.60013" lon="3.48934">
        <ele>1155.666</ele>
        <time>2022-01-19T18:37:07Z</time>
      </trkpt>
      <trkpt lat="44.60012" lon="3.48934">
        <ele>1155.8298</ele>
        <time>2022-01-19T18:37:08Z</time>
      </trkpt>
      <trkpt lat="44.60011" lon="3.48935">
        <ele>1155.8298</ele>
        <time>2022-01-19T18:37:09Z</time>
      </trkpt>
      <trkpt lat="44.6001" lon="3.48936">
        <ele>1155.8827</ele>
        <time>2022-01-19T18:37:10Z</time>
      </trkpt>
      <trkpt lat="44.60009" lon="3.48936">
        <ele>1155.9779</ele>
        <time>2022-01-19T18:37:11Z</time>
      </trkpt>
      <trkpt lat="44.60008" lon="3.48937">
        <ele>1156.0782</ele>
        <time>2022-01-19T18:37:12Z</time>
      </trkpt>
      <trkpt lat="44.60006" lon="3.48938">
        <ele>1156.2421</ele>
        <time>2022-01-19T18:37:13Z</time>
      </trkpt>
      <trkpt lat="44.60005" lon="3.48939">
        <ele>1156.2633</ele>
        <time>2022-01-19T18:37:14Z</time>
      </trkpt>
      <trkpt lat="44.60004" lon="3.4894">
        <ele>1156.2579</ele>
        <time>2022-01-19T18:37:15Z</time>
      </trkpt>
      <trkpt lat="44.60003" lon="3.4894">
        <ele>1156.4535</ele>
        <time>2022-01-19T18:37:16Z</time>
      </trkpt>
      <trkpt lat="44.60001" lon="3.48942">
        <ele>1156.5697</ele>
        <time>2022-01-19T18:37:17Z</time>
      </trkpt>
      <trkpt lat="44.60001" lon="3.48943">
        <ele>1156.7494</ele>
        <time>2022-01-19T18:37:18Z</time>
      </trkpt>
      <trkpt lat="44.6" lon="3.48944">
        <ele>1156.834</ele>
        <time>2022-01-19T18:37:19Z</time>
      </trkpt>
      <trkpt lat="44.6" lon="3.48946">
        <ele>1156.9926</ele>
        <time>2022-01-19T18:37:20Z</time>
      </trkpt>
      <trkpt lat="44.6" lon="3.48947">
        <ele>1157.0348</ele>
        <time>2022-01-19T18:37:21Z</time>
      </trkpt>
      <trkpt lat="44.59999" lon="3.48949">
        <ele>1157.2991</ele>
        <time>2022-01-19T18:37:22Z</time>
      </trkpt>
      <trkpt lat="44.59998" lon="3.4895">
        <ele>1157.4998</ele>
        <time>2022-01-19T18:37:23Z</time>
      </trkpt>
      <trkpt lat="44.59997" lon="3.48951">
        <ele>1157.6531</ele>
        <time>2022-01-19T18:37:24Z</time>
      </trkpt>
      <trkpt lat="44.59996" lon="3.48952">
        <ele>1157.8169</ele>
        <time>2022-01-19T18:37:25Z</time>
      </trkpt>
      <trkpt lat="44.59995" lon="3.48953">
        <ele>1157.9226</ele>
        <time>2022-01-19T18:37:26Z</time>
      </trkpt>
      <trkpt lat="44.59994" lon="3.48954">
        <ele>1158.0653</ele>
        <time>2022-01-19T18:37:27Z</time>
      </trkpt>
      <trkpt lat="44.59994" lon="3.48955">
        <ele>1158.2661</ele>
        <time>2022-01-19T18:37:28Z</time>
      </trkpt>
      <trkpt lat="44.59993" lon="3.48956">
        <ele>1158.3083</ele>
        <time>2022-01-19T18:37:29Z</time>
      </trkpt>
      <trkpt lat="44.59993" lon="3.48957">
        <ele>1158.5885</ele>
        <time>2022-01-19T18:37:30Z</time>
      </trkpt>
      <trkpt lat="44.59992" lon="3.48958">
        <ele>1158.7258</ele>
        <time>2022-01-19T18:37:31Z</time>
      </trkpt>
      <trkpt lat="44.59992" lon="3.4896">
        <ele>1158.8369</ele>
        <time>2022-01-19T18:37:32Z</time>
      </trkpt>
      <trkpt lat="44.59991" lon="3.48962">
        <ele>1158.9161</ele>
        <time>2022-01-19T18:37:33Z</time>
      </trkpt>
      <trkpt lat="44.5999" lon="3.48963">
        <ele>1159.1909</ele>
        <time>2022-01-19T18:37:34Z</time>
      </trkpt>
      <trkpt lat="44.5999" lon="3.48965">
        <ele>1159.3282</ele>
        <time>2022-01-19T18:37:35Z</time>
      </trkpt>
      <trkpt lat="44.59989" lon="3.48967">
        <ele>1159.323</ele>
        <time>2022-01-19T18:37:36Z</time>
      </trkpt>
      <trkpt lat="44.59988" lon="3.48969">
        <ele>1159.3494</ele>
        <time>2022-01-19T18:37:37Z</time>
      </trkpt>
      <trkpt lat="44.59987" lon="3.4897">
        <ele>1159.4287</ele>
        <time>2022-01-19T18:37:38Z</time>
      </trkpt>
      <trkpt lat="44.59987" lon="3.48972">
        <ele>1159.4657</ele>
        <time>2022-01-19T18:37:39Z</time>
      </trkpt>
      <trkpt lat="44.59986" lon="3.48973">
        <ele>1159.6876</ele>
        <time>2022-01-19T18:37:40Z</time>
      </trkpt>
      <trkpt lat="44.59986" lon="3.48974">
        <ele>1159.5819</ele>
        <time>2022-01-19T18:37:41Z</time>
      </trkpt>
      <trkpt lat="44.59985" lon="3.48976">
        <ele>1159.6189</ele>
        <time>2022-01-19T18:37:42Z</time>
      </trkpt>
      <trkpt lat="44.59985" lon="3.48977">
        <ele>1159.6982</ele>
        <time>2022-01-19T18:37:43Z</time>
      </trkpt>
      <trkpt lat="44.59984" lon="3.48979">
        <ele>1159.841</ele>
        <time>2022-01-19T18:37:44Z</time>
      </trkpt>
      <trkpt lat="44.59983" lon="3.4898">
        <ele>1159.9572</ele>
        <time>2022-01-19T18:37:45Z</time>
      </trkpt>
      <trkpt lat="44.59983" lon="3.48981">
        <ele>1160.0417</ele>
        <time>2022-01-19T18:37:46Z</time>
      </trkpt>
      <trkpt lat="44.59982" lon="3.48982">
        <ele>1160.121</ele>
        <time>2022-01-19T18:37:47Z</time>
      </trkpt>
      <trkpt lat="44.59982" lon="3.48983">
        <ele>1160.1632</ele>
        <time>2022-01-19T18:37:48Z</time>
      </trkpt>
      <trkpt lat="44.5998" lon="3.48984">
        <ele>1160.2532</ele>
        <time>2022-01-19T18:37:49Z</time>
      </trkpt>
      <trkpt lat="44.5998" lon="3.48985">
        <ele>1160.343</ele>
        <time>2022-01-19T18:37:50Z</time>
      </trkpt>
      <trkpt lat="44.59979" lon="3.48987">
        <ele>1160.2637</ele>
        <time>2022-01-19T18:37:51Z</time>
      </trkpt>
      <trkpt lat="44.59978" lon="3.48987">
        <ele>1160.3059</ele>
        <time>2022-01-19T18:37:52Z</time>
      </trkpt>
      <trkpt lat="44.59977" lon="3.48989">
        <ele>1160.3376</ele>
        <time>2022-01-19T18:37:53Z</time>
      </trkpt>
      <trkpt lat="44.59977" lon="3.4899">
        <ele>1160.4697</ele>
        <time>2022-01-19T18:37:54Z</time>
      </trkpt>
      <trkpt lat="44.59976" lon="3.48992">
        <ele>1160.4751</ele>
        <time>2022-01-19T18:37:55Z</time>
      </trkpt>
      <trkpt lat="44.59975" lon="3.48993">
        <ele>1160.5068</ele>
        <time>2022-01-19T18:37:56Z</time>
      </trkpt>
      <trkpt lat="44.59974" lon="3.48995">
        <ele>1160.5438</ele>
        <time>2022-01-19T18:37:57Z</time>
      </trkpt>
      <trkpt lat="44.59974" lon="3.48997">
        <ele>1160.5438</ele>
        <time>2022-01-19T18:37:58Z</time>
      </trkpt>
      <trkpt lat="44.59973" lon="3.48998">
        <ele>1160.586</ele>
        <time>2022-01-19T18:37:59Z</time>
      </trkpt>
      <trkpt lat="44.59972" lon="3.49">
        <ele>1160.6072</ele>
        <time>2022-01-19T18:38:00Z</time>
      </trkpt>
      <trkpt lat="44.59971" lon="3.49001">
        <ele>1160.6177</ele>
        <time>2022-01-19T18:38:01Z</time>
      </trkpt>
      <trkpt lat="44.5997" lon="3.49003">
        <ele>1160.7922</ele>
        <time>2022-01-19T18:38:02Z</time>
      </trkpt>
      <trkpt lat="44.59969" lon="3.49004">
        <ele>1160.7816</ele>
        <time>2022-01-19T18:38:03Z</time>
      </trkpt>
      <trkpt lat="44.59969" lon="3.49005">
        <ele>1160.8556</ele>
        <time>2022-01-19T18:38:04Z</time>
      </trkpt>
      <trkpt lat="44.59968" lon="3.49007">
        <ele>1160.9507</ele>
        <time>2022-01-19T18:38:05Z</time>
      </trkpt>
      <trkpt lat="44.59967" lon="3.49008">
        <ele>1160.9191</ele>
        <time>2022-01-19T18:38:06Z</time>
      </trkpt>
      <trkpt lat="44.59967" lon="3.4901">
        <ele>1160.9929</ele>
        <time>2022-01-19T18:38:07Z</time>
      </trkpt>
      <trkpt lat="44.59966" lon="3.49011">
        <ele>1161.0458</ele>
        <time>2022-01-19T18:38:08Z</time>
      </trkpt>
      <trkpt lat="44.59966" lon="3.49012">
        <ele>1161.0353</ele>
        <time>2022-01-19T18:38:09Z</time>
      </trkpt>
      <trkpt lat="44.59965" lon="3.49014">
        <ele>1161.0616</ele>
        <time>2022-01-19T18:38:10Z</time>
      </trkpt>
      <trkpt lat="44.59964" lon="3.49015">
        <ele>1161.0405</ele>
        <time>2022-01-19T18:38:11Z</time>
      </trkpt>
      <trkpt lat="44.59964" lon="3.49017">
        <ele>1161.1726</ele>
        <time>2022-01-19T18:38:12Z</time>
      </trkpt>
      <trkpt lat="44.59963" lon="3.49018">
        <ele>1161.2255</ele>
        <time>2022-01-19T18:38:13Z</time>
      </trkpt>
      <trkpt lat="44.59962" lon="3.4902">
        <ele>1161.1886</ele>
        <time>2022-01-19T18:38:14Z</time>
      </trkpt>
      <trkpt lat="44.59961" lon="3.49021">
        <ele>1161.31</ele>
        <time>2022-01-19T18:38:15Z</time>
      </trkpt>
      <trkpt lat="44.59961" lon="3.49022">
        <ele>1161.6272</ele>
        <time>2022-01-19T18:38:16Z</time>
      </trkpt>
      <trkpt lat="44.59961" lon="3.49024">
        <ele>1161.5215</ele>
        <time>2022-01-19T18:38:17Z</time>
      </trkpt>
      <trkpt lat="44.5996" lon="3.49025">
        <ele>1161.4528</ele>
        <time>2022-01-19T18:38:18Z</time>
      </trkpt>
      <trkpt lat="44.59959" lon="3.49027">
        <ele>1161.5585</ele>
        <time>2022-01-19T18:38:19Z</time>
      </trkpt>
      <trkpt lat="44.59958" lon="3.49027">
        <ele>1161.5953</ele>
        <time>2022-01-19T18:38:20Z</time>
      </trkpt>
      <trkpt lat="44.59957" lon="3.49028">
        <ele>1161.6377</ele>
        <time>2022-01-19T18:38:21Z</time>
      </trkpt>
      <trkpt lat="44.59956" lon="3.49029">
        <ele>1161.6166</ele>
        <time>2022-01-19T18:38:22Z</time>
      </trkpt>
      <trkpt lat="44.59955" lon="3.49029">
        <ele>1161.6377</ele>
        <time>2022-01-19T18:38:23Z</time>
      </trkpt>
      <trkpt lat="44.59955" lon="3.4903">
        <ele>1161.701</ele>
        <time>2022-01-19T18:38:24Z</time>
      </trkpt>
      <trkpt lat="44.59954" lon="3.49031">
        <ele>1161.6958</ele>
        <time>2022-01-19T18:38:25Z</time>
      </trkpt>
      <trkpt lat="44.59953" lon="3.49031">
        <ele>1161.7328</ele>
        <time>2022-01-19T18:38:26Z</time>
      </trkpt>
      <trkpt lat="44.59953" lon="3.49031">
        <ele>1161.7804</ele>
        <time>2022-01-19T18:38:27Z</time>
      </trkpt>
      <trkpt lat="44.59951" lon="3.49031">
        <ele>1161.7963</ele>
        <time>2022-01-19T18:38:28Z</time>
      </trkpt>
      <trkpt lat="44.5995" lon="3.49032">
        <ele>1161.7275</ele>
        <time>2022-01-19T18:38:29Z</time>
      </trkpt>
      <trkpt lat="44.5995" lon="3.49032">
        <ele>1161.701</ele>
        <time>2022-01-19T18:38:30Z</time>
      </trkpt>
      <trkpt lat="44.59948" lon="3.49031">
        <ele>1161.5901</ele>
        <time>2022-01-19T18:38:31Z</time>
      </trkpt>
      <trkpt lat="44.59948" lon="3.49031">
        <ele>1161.5004</ele>
        <time>2022-01-19T18:38:32Z</time>
      </trkpt>
      <trkpt lat="44.59946" lon="3.4903">
        <ele>1161.3365</ele>
        <time>2022-01-19T18:38:33Z</time>
      </trkpt>
      <trkpt lat="44.59946" lon="3.49029">
        <ele>1161.1832</ele>
        <time>2022-01-19T18:38:34Z</time>
      </trkpt>
      <trkpt lat="44.59945" lon="3.49028">
        <ele>1161.1462</ele>
        <time>2022-01-19T18:38:35Z</time>
      </trkpt>
      <trkpt lat="44.59944" lon="3.49026">
        <ele>1161.0829</ele>
        <time>2022-01-19T18:38:36Z</time>
      </trkpt>
      <trkpt lat="44.59944" lon="3.49024">
        <ele>1160.9348</ele>
        <time>2022-01-19T18:38:37Z</time>
      </trkpt>
      <trkpt lat="44.59943" lon="3.49022">
        <ele>1160.8556</ele>
        <time>2022-01-19T18:38:38Z</time>
      </trkpt>
      <trkpt lat="44.59943" lon="3.49021">
        <ele>1160.5966</ele>
        <time>2022-01-19T18:38:39Z</time>
      </trkpt>
      <trkpt lat="44.59942" lon="3.49019">
        <ele>1160.6177</ele>
        <time>2022-01-19T18:38:40Z</time>
      </trkpt>
      <trkpt lat="44.59941" lon="3.49017">
        <ele>1160.528</ele>
        <time>2022-01-19T18:38:41Z</time>
      </trkpt>
      <trkpt lat="44.59941" lon="3.49016">
        <ele>1160.3113</ele>
        <time>2022-01-19T18:38:42Z</time>
      </trkpt>
      <trkpt lat="44.5994" lon="3.49015">
        <ele>1160.2478</ele>
        <time>2022-01-19T18:38:43Z</time>
      </trkpt>
      <trkpt lat="44.59939" lon="3.49014">
        <ele>1160.158</ele>
        <time>2022-01-19T18:38:44Z</time>
      </trkpt>
      <trkpt lat="44.59938" lon="3.49012">
        <ele>1160.2478</ele>
        <time>2022-01-19T18:38:45Z</time>
      </trkpt>
      <trkpt lat="44.59938" lon="3.49011">
        <ele>1160.1686</ele>
        <time>2022-01-19T18:38:46Z</time>
      </trkpt>
      <trkpt lat="44.59937" lon="3.4901">
        <ele>1160.0682</ele>
        <time>2022-01-19T18:38:47Z</time>
      </trkpt>
      <trkpt lat="44.59935" lon="3.49008">
        <ele>1159.973</ele>
        <time>2022-01-19T18:38:48Z</time>
      </trkpt>
      <trkpt lat="44.59934" lon="3.49007">
        <ele>1159.9149</ele>
        <time>2022-01-19T18:38:49Z</time>
      </trkpt>
      <trkpt lat="44.59932" lon="3.49006">
        <ele>1159.862</ele>
        <time>2022-01-19T18:38:50Z</time>
      </trkpt>
      <trkpt lat="44.59931" lon="3.49004">
        <ele>1159.8198</ele>
        <time>2022-01-19T18:38:51Z</time>
      </trkpt>
      <trkpt lat="44.5993" lon="3.49003">
        <ele>1159.6665</ele>
        <time>2022-01-19T18:38:52Z</time>
      </trkpt>
      <trkpt lat="44.5993" lon="3.49002">
        <ele>1159.7194</ele>
        <time>2022-01-19T18:38:53Z</time>
      </trkpt>
      <trkpt lat="44.59929" lon="3.49001">
        <ele>1159.5662</ele>
        <time>2022-01-19T18:38:54Z</time>
      </trkpt>
      <trkpt lat="44.59928" lon="3.49001">
        <ele>1159.5873</ele>
        <time>2022-01-19T18:38:55Z</time>
      </trkpt>
      <trkpt lat="44.59927" lon="3.49">
        <ele>1159.6189</ele>
        <time>2022-01-19T18:38:56Z</time>
      </trkpt>
      <trkpt lat="44.59926" lon="3.48999">
        <ele>1159.4868</ele>
        <time>2022-01-19T18:38:57Z</time>
      </trkpt>
      <trkpt lat="44.59924" lon="3.48999">
        <ele>1159.3654</ele>
        <time>2022-01-19T18:38:58Z</time>
      </trkpt>
      <trkpt lat="44.59923" lon="3.48997">
        <ele>1159.4076</ele>
        <time>2022-01-19T18:38:59Z</time>
      </trkpt>
      <trkpt lat="44.59922" lon="3.48997">
        <ele>1159.212</ele>
        <time>2022-01-19T18:39:00Z</time>
      </trkpt>
      <trkpt lat="44.59921" lon="3.48996">
        <ele>1159.2174</ele>
        <time>2022-01-19T18:39:01Z</time>
      </trkpt>
      <trkpt lat="44.5992" lon="3.48995">
        <ele>1159.0958</ele>
        <time>2022-01-19T18:39:02Z</time>
      </trkpt>
      <trkpt lat="44.59919" lon="3.48994">
        <ele>1158.9742</ele>
        <time>2022-01-19T18:39:03Z</time>
      </trkpt>
      <trkpt lat="44.59917" lon="3.48993">
        <ele>1159.0323</ele>
        <time>2022-01-19T18:39:04Z</time>
      </trkpt>
      <trkpt lat="44.59917" lon="3.48992">
        <ele>1158.969</ele>
        <time>2022-01-19T18:39:05Z</time>
      </trkpt>
      <trkpt lat="44.59916" lon="3.48991">
        <ele>1158.9373</ele>
        <time>2022-01-19T18:39:06Z</time>
      </trkpt>
      <trkpt lat="44.59915" lon="3.4899">
        <ele>1158.9637</ele>
        <time>2022-01-19T18:39:07Z</time>
      </trkpt>
      <trkpt lat="44.59914" lon="3.48989">
        <ele>1158.8157</ele>
        <time>2022-01-19T18:39:08Z</time>
      </trkpt>
      <trkpt lat="44.59913" lon="3.48987">
        <ele>1158.7628</ele>
        <time>2022-01-19T18:39:09Z</time>
      </trkpt>
      <trkpt lat="44.59912" lon="3.48986">
        <ele>1158.7839</ele>
        <time>2022-01-19T18:39:10Z</time>
      </trkpt>
      <trkpt lat="44.59911" lon="3.48985">
        <ele>1158.8104</ele>
        <time>2022-01-19T18:39:11Z</time>
      </trkpt>
      <trkpt lat="44.5991" lon="3.48984">
        <ele>1158.7576</ele>
        <time>2022-01-19T18:39:12Z</time>
      </trkpt>
      <trkpt lat="44.59909" lon="3.48983">
        <ele>1158.5726</ele>
        <time>2022-01-19T18:39:13Z</time>
      </trkpt>
      <trkpt lat="44.59908" lon="3.48982">
        <ele>1158.5463</ele>
        <time>2022-01-19T18:39:14Z</time>
      </trkpt>
      <trkpt lat="44.59907" lon="3.48981">
        <ele>1158.5568</ele>
        <time>2022-01-19T18:39:15Z</time>
      </trkpt>
      <trkpt lat="44.59906" lon="3.4898">
        <ele>1158.4563</ele>
        <time>2022-01-19T18:39:16Z</time>
      </trkpt>
      <trkpt lat="44.59905" lon="3.4898">
        <ele>1158.4617</ele>
        <time>2022-01-19T18:39:17Z</time>
      </trkpt>
      <trkpt lat="44.59904" lon="3.48979">
        <ele>1158.3771</ele>
        <time>2022-01-19T18:39:18Z</time>
      </trkpt>
      <trkpt lat="44.59903" lon="3.48978">
        <ele>1158.2555</ele>
        <time>2022-01-19T18:39:19Z</time>
      </trkpt>
      <trkpt lat="44.59902" lon="3.48977">
        <ele>1158.4036</ele>
        <time>2022-01-19T18:39:20Z</time>
      </trkpt>
      <trkpt lat="44.59901" lon="3.48976">
        <ele>1158.3295</ele>
        <time>2022-01-19T18:39:21Z</time>
      </trkpt>
      <trkpt lat="44.599" lon="3.48975">
        <ele>1158.2185</ele>
        <time>2022-01-19T18:39:22Z</time>
      </trkpt>
      <trkpt lat="44.59898" lon="3.48974">
        <ele>1158.2344</ele>
        <time>2022-01-19T18:39:23Z</time>
      </trkpt>
      <trkpt lat="44.59897" lon="3.48972">
        <ele>1158.1604</ele>
        <time>2022-01-19T18:39:24Z</time>
      </trkpt>
      <trkpt lat="44.59897" lon="3.48971">
        <ele>1158.0125</ele>
        <time>2022-01-19T18:39:25Z</time>
      </trkpt>
      <trkpt lat="44.59896" lon="3.48971">
        <ele>1157.9226</ele>
        <time>2022-01-19T18:39:26Z</time>
      </trkpt>
      <trkpt lat="44.59894" lon="3.48969">
        <ele>1157.9385</ele>
        <time>2022-01-19T18:39:27Z</time>
      </trkpt>
      <trkpt lat="44.59893" lon="3.48968">
        <ele>1157.8645</ele>
        <time>2022-01-19T18:39:28Z</time>
      </trkpt>
      <trkpt lat="44.59892" lon="3.48967">
        <ele>1157.6742</ele>
        <time>2022-01-19T18:39:29Z</time>
      </trkpt>
      <trkpt lat="44.59891" lon="3.48965">
        <ele>1157.8591</ele>
        <time>2022-01-19T18:39:30Z</time>
      </trkpt>
      <trkpt lat="44.5989" lon="3.48964">
        <ele>1157.7852</ele>
        <time>2022-01-19T18:39:31Z</time>
      </trkpt>
      <trkpt lat="44.59889" lon="3.48963">
        <ele>1157.7429</ele>
        <time>2022-01-19T18:39:32Z</time>
      </trkpt>
      <trkpt lat="44.59888" lon="3.48963">
        <ele>1157.8328</ele>
        <time>2022-01-19T18:39:33Z</time>
      </trkpt>
      <trkpt lat="44.59887" lon="3.48962">
        <ele>1157.6531</ele>
        <time>2022-01-19T18:39:34Z</time>
      </trkpt>
      <trkpt lat="44.59886" lon="3.4896">
        <ele>1157.6002</ele>
        <time>2022-01-19T18:39:35Z</time>
      </trkpt>
      <trkpt lat="44.59885" lon="3.48959">
        <ele>1157.4629</ele>
        <time>2022-01-19T18:39:36Z</time>
      </trkpt>
      <trkpt lat="44.59884" lon="3.48958">
        <ele>1157.3994</ele>
        <time>2022-01-19T18:39:37Z</time>
      </trkpt>
      <trkpt lat="44.59883" lon="3.48957">
        <ele>1157.3729</ele>
        <time>2022-01-19T18:39:38Z</time>
      </trkpt>
      <trkpt lat="44.59882" lon="3.48956">
        <ele>1157.3835</ele>
        <time>2022-01-19T18:39:39Z</time>
      </trkpt>
      <trkpt lat="44.59882" lon="3.48955">
        <ele>1157.3043</ele>
        <time>2022-01-19T18:39:40Z</time>
      </trkpt>
      <trkpt lat="44.59881" lon="3.48954">
        <ele>1157.2991</ele>
        <time>2022-01-19T18:39:41Z</time>
      </trkpt>
      <trkpt lat="44.5988" lon="3.48953">
        <ele>1157.3096</ele>
        <time>2022-01-19T18:39:42Z</time>
      </trkpt>
      <trkpt lat="44.5988" lon="3.48951">
        <ele>1157.2462</ele>
        <time>2022-01-19T18:39:43Z</time>
      </trkpt>
      <trkpt lat="44.59879" lon="3.4895">
        <ele>1157.1564</ele>
        <time>2022-01-19T18:39:44Z</time>
      </trkpt>
      <trkpt lat="44.59878" lon="3.48948">
        <ele>1157.0718</ele>
        <time>2022-01-19T18:39:45Z</time>
      </trkpt>
      <trkpt lat="44.59877" lon="3.48947">
        <ele>1157.2039</ele>
        <time>2022-01-19T18:39:46Z</time>
      </trkpt>
      <trkpt lat="44.59877" lon="3.48946">
        <ele>1157.0929</ele>
        <time>2022-01-19T18:39:47Z</time>
      </trkpt>
      <trkpt lat="44.59876" lon="3.48945">
        <ele>1157.2462</ele>
        <time>2022-01-19T18:39:48Z</time>
      </trkpt>
      <trkpt lat="44.59875" lon="3.48944">
        <ele>1157.0929</ele>
        <time>2022-01-19T18:39:49Z</time>
      </trkpt>
      <trkpt lat="44.59874" lon="3.48942">
        <ele>1156.7494</ele>
        <time>2022-01-19T18:39:50Z</time>
      </trkpt>
      <trkpt lat="44.59873" lon="3.48941">
        <ele>1156.9343</ele>
        <time>2022-01-19T18:39:51Z</time>
      </trkpt>
      <trkpt lat="44.59872" lon="3.4894">
        <ele>1156.7072</ele>
        <time>2022-01-19T18:39:52Z</time>
      </trkpt>
      <trkpt lat="44.59871" lon="3.48939">
        <ele>1156.7811</ele>
        <time>2022-01-19T18:39:53Z</time>
      </trkpt>
      <trkpt lat="44.59871" lon="3.48938">
        <ele>1156.8392</ele>
        <time>2022-01-19T18:39:54Z</time>
      </trkpt>
      <trkpt lat="44.5987" lon="3.48937">
        <ele>1156.7019</ele>
        <time>2022-01-19T18:39:55Z</time>
      </trkpt>
      <trkpt lat="44.59869" lon="3.48935">
        <ele>1156.6808</ele>
        <time>2022-01-19T18:39:56Z</time>
      </trkpt>
      <trkpt lat="44.59868" lon="3.48933">
        <ele>1156.6808</ele>
        <time>2022-01-19T18:39:57Z</time>
      </trkpt>
      <trkpt lat="44.59867" lon="3.48932">
        <ele>1156.5908</ele>
        <time>2022-01-19T18:39:58Z</time>
      </trkpt>
      <trkpt lat="44.59866" lon="3.4893">
        <ele>1156.7441</ele>
        <time>2022-01-19T18:39:59Z</time>
      </trkpt>
      <trkpt lat="44.59865" lon="3.48928">
        <ele>1156.5856</ele>
        <time>2022-01-19T18:40:00Z</time>
      </trkpt>
      <trkpt lat="44.59864" lon="3.48927">
        <ele>1156.5751</ele>
        <time>2022-01-19T18:40:01Z</time>
      </trkpt>
      <trkpt lat="44.59864" lon="3.48925">
        <ele>1156.4799</ele>
        <time>2022-01-19T18:40:02Z</time>
      </trkpt>
      <trkpt lat="44.59864" lon="3.48924">
        <ele>1156.3002</ele>
        <time>2022-01-19T18:40:03Z</time>
      </trkpt>
      <trkpt lat="44.59863" lon="3.48923">
        <ele>1156.2949</ele>
        <time>2022-01-19T18:40:04Z</time>
      </trkpt>
      <trkpt lat="44.59863" lon="3.48922">
        <ele>1156.279</ele>
        <time>2022-01-19T18:40:05Z</time>
      </trkpt>
      <trkpt lat="44.59862" lon="3.4892">
        <ele>1156.1152</ele>
        <time>2022-01-19T18:40:06Z</time>
      </trkpt>
      <trkpt lat="44.59861" lon="3.48918">
        <ele>1156.221</ele>
        <time>2022-01-19T18:40:07Z</time>
      </trkpt>
      <trkpt lat="44.5986" lon="3.48916">
        <ele>1155.999</ele>
        <time>2022-01-19T18:40:08Z</time>
      </trkpt>
      <trkpt lat="44.59859" lon="3.48915">
        <ele>1156.0571</ele>
        <time>2022-01-19T18:40:09Z</time>
      </trkpt>
      <trkpt lat="44.59858" lon="3.48913">
        <ele>1155.9144</ele>
        <time>2022-01-19T18:40:10Z</time>
      </trkpt>
      <trkpt lat="44.59857" lon="3.48912">
        <ele>1155.8246</ele>
        <time>2022-01-19T18:40:11Z</time>
      </trkpt>
      <trkpt lat="44.59856" lon="3.48911">
        <ele>1155.8458</ele>
        <time>2022-01-19T18:40:12Z</time>
      </trkpt>
      <trkpt lat="44.59855" lon="3.48909">
        <ele>1155.6132</ele>
        <time>2022-01-19T18:40:13Z</time>
      </trkpt>
      <trkpt lat="44.59855" lon="3.48908">
        <ele>1155.6185</ele>
        <time>2022-01-19T18:40:14Z</time>
      </trkpt>
      <trkpt lat="44.59853" lon="3.48906">
        <ele>1155.7136</ele>
        <time>2022-01-19T18:40:15Z</time>
      </trkpt>
      <trkpt lat="44.59853" lon="3.48904">
        <ele>1155.666</ele>
        <time>2022-01-19T18:40:16Z</time>
      </trkpt>
      <trkpt lat="44.59851" lon="3.48902">
        <ele>1155.666</ele>
        <time>2022-01-19T18:40:17Z</time>
      </trkpt>
      <trkpt lat="44.5985" lon="3.489">
        <ele>1155.5604</ele>
        <time>2022-01-19T18:40:18Z</time>
      </trkpt>
      <trkpt lat="44.59849" lon="3.48898">
        <ele>1155.3438</ele>
        <time>2022-01-19T18:40:19Z</time>
      </trkpt>
      <trkpt lat="44.59848" lon="3.48896">
        <ele>1155.0742</ele>
        <time>2022-01-19T18:40:20Z</time>
      </trkpt>
      <trkpt lat="44.59847" lon="3.48894">
        <ele>1155.0847</ele>
        <time>2022-01-19T18:40:21Z</time>
      </trkpt>
      <trkpt lat="44.59846" lon="3.48892">
        <ele>1154.9315</ele>
        <time>2022-01-19T18:40:22Z</time>
      </trkpt>
      <trkpt lat="44.59845" lon="3.48891">
        <ele>1154.8417</ele>
        <time>2022-01-19T18:40:23Z</time>
      </trkpt>
      <trkpt lat="44.59844" lon="3.4889">
        <ele>1154.6936</ele>
        <time>2022-01-19T18:40:24Z</time>
      </trkpt>
      <trkpt lat="44.59843" lon="3.48889">
        <ele>1154.6355</ele>
        <time>2022-01-19T18:40:25Z</time>
      </trkpt>
      <trkpt lat="44.59842" lon="3.48887">
        <ele>1154.5298</ele>
        <time>2022-01-19T18:40:26Z</time>
      </trkpt>
      <trkpt lat="44.59841" lon="3.48886">
        <ele>1154.5404</ele>
        <time>2022-01-19T18:40:27Z</time>
      </trkpt>
      <trkpt lat="44.5984" lon="3.48884">
        <ele>1154.403</ele>
        <time>2022-01-19T18:40:28Z</time>
      </trkpt>
      <trkpt lat="44.5984" lon="3.48883">
        <ele>1154.2656</ele>
        <time>2022-01-19T18:40:29Z</time>
      </trkpt>
      <trkpt lat="44.59839" lon="3.48881">
        <ele>1154.1864</ele>
        <time>2022-01-19T18:40:30Z</time>
      </trkpt>
      <trkpt lat="44.59839" lon="3.48881">
        <ele>1153.9644</ele>
        <time>2022-01-19T18:40:31Z</time>
      </trkpt>
      <trkpt lat="44.59839" lon="3.4888">
        <ele>1153.8481</ele>
        <time>2022-01-19T18:40:32Z</time>
      </trkpt>
      <trkpt lat="44.59837" lon="3.48878">
        <ele>1153.7478</ele>
        <time>2022-01-19T18:40:33Z</time>
      </trkpt>
      <trkpt lat="44.59837" lon="3.48876">
        <ele>1153.7372</ele>
        <time>2022-01-19T18:40:34Z</time>
      </trkpt>
      <trkpt lat="44.59835" lon="3.48874">
        <ele>1153.6262</ele>
        <time>2022-01-19T18:40:35Z</time>
      </trkpt>
      <trkpt lat="44.59834" lon="3.48873">
        <ele>1153.4888</ele>
        <time>2022-01-19T18:40:36Z</time>
      </trkpt>
      <trkpt lat="44.59833" lon="3.48871">
        <ele>1153.3672</ele>
        <time>2022-01-19T18:40:37Z</time>
      </trkpt>
      <trkpt lat="44.59832" lon="3.4887">
        <ele>1153.4148</ele>
        <time>2022-01-19T18:40:38Z</time>
      </trkpt>
      <trkpt lat="44.59831" lon="3.48868">
        <ele>1153.2773</ele>
        <time>2022-01-19T18:40:39Z</time>
      </trkpt>
      <trkpt lat="44.59831" lon="3.48866">
        <ele>1153.1823</ele>
        <time>2022-01-19T18:40:40Z</time>
      </trkpt>
      <trkpt lat="44.5983" lon="3.48865">
        <ele>1153.066</ele>
        <time>2022-01-19T18:40:41Z</time>
      </trkpt>
      <trkpt lat="44.59829" lon="3.48863">
        <ele>1153.0184</ele>
        <time>2022-01-19T18:40:42Z</time>
      </trkpt>
      <trkpt lat="44.59828" lon="3.48862">
        <ele>1152.8229</ele>
        <time>2022-01-19T18:40:43Z</time>
      </trkpt>
      <trkpt lat="44.59827" lon="3.48861">
        <ele>1152.7595</ele>
        <time>2022-01-19T18:40:44Z</time>
      </trkpt>
      <trkpt lat="44.59826" lon="3.4886">
        <ele>1152.696</ele>
        <time>2022-01-19T18:40:45Z</time>
      </trkpt>
      <trkpt lat="44.59824" lon="3.48858">
        <ele>1152.5111</ele>
        <time>2022-01-19T18:40:46Z</time>
      </trkpt>
      <trkpt lat="44.59823" lon="3.48857">
        <ele>1152.3895</ele>
        <time>2022-01-19T18:40:47Z</time>
      </trkpt>
      <trkpt lat="44.59823" lon="3.48856">
        <ele>1152.3895</ele>
        <time>2022-01-19T18:40:48Z</time>
      </trkpt>
      <trkpt lat="44.59822" lon="3.48854">
        <ele>1152.3527</ele>
        <time>2022-01-19T18:40:49Z</time>
      </trkpt>
      <trkpt lat="44.59821" lon="3.48852">
        <ele>1151.9457</ele>
        <time>2022-01-19T18:40:50Z</time>
      </trkpt>
      <trkpt lat="44.5982" lon="3.4885">
        <ele>1151.9404</ele>
        <time>2022-01-19T18:40:51Z</time>
      </trkpt>
      <trkpt lat="44.59819" lon="3.48848">
        <ele>1151.8347</ele>
        <time>2022-01-19T18:40:52Z</time>
      </trkpt>
      <trkpt lat="44.59818" lon="3.48846">
        <ele>1151.972</ele>
        <time>2022-01-19T18:40:53Z</time>
      </trkpt>
      <trkpt lat="44.59816" lon="3.48844">
        <ele>1151.729</ele>
        <time>2022-01-19T18:40:54Z</time>
      </trkpt>
      <trkpt lat="44.59815" lon="3.48843">
        <ele>1151.7449</ele>
        <time>2022-01-19T18:40:55Z</time>
      </trkpt>
      <trkpt lat="44.59814" lon="3.48841">
        <ele>1151.5863</ele>
        <time>2022-01-19T18:40:56Z</time>
      </trkpt>
      <trkpt lat="44.59813" lon="3.4884">
        <ele>1151.5018</ele>
        <time>2022-01-19T18:40:57Z</time>
      </trkpt>
      <trkpt lat="44.59812" lon="3.48839">
        <ele>1151.3538</ele>
        <time>2022-01-19T18:40:58Z</time>
      </trkpt>
      <trkpt lat="44.59811" lon="3.48837">
        <ele>1151.3115</ele>
        <time>2022-01-19T18:40:59Z</time>
      </trkpt>
      <trkpt lat="44.5981" lon="3.48836">
        <ele>1151.248</ele>
        <time>2022-01-19T18:41:00Z</time>
      </trkpt>
      <trkpt lat="44.59809" lon="3.48834">
        <ele>1151.1318</ele>
        <time>2022-01-19T18:41:01Z</time>
      </trkpt>
      <trkpt lat="44.59808" lon="3.48832">
        <ele>1151.0103</ele>
        <time>2022-01-19T18:41:02Z</time>
      </trkpt>
      <trkpt lat="44.59807" lon="3.4883">
        <ele>1150.9521</ele>
        <time>2022-01-19T18:41:03Z</time>
      </trkpt>
      <trkpt lat="44.59806" lon="3.48828">
        <ele>1150.8148</ele>
        <time>2022-01-19T18:41:04Z</time>
      </trkpt>
      <trkpt lat="44.59805" lon="3.48826">
        <ele>1150.7249</ele>
        <time>2022-01-19T18:41:05Z</time>
      </trkpt>
      <trkpt lat="44.59804" lon="3.48824">
        <ele>1150.5083</ele>
        <time>2022-01-19T18:41:06Z</time>
      </trkpt>
      <trkpt lat="44.59803" lon="3.48823">
        <ele>1150.355</ele>
        <time>2022-01-19T18:41:07Z</time>
      </trkpt>
      <trkpt lat="44.59802" lon="3.48821">
        <ele>1150.3497</ele>
        <time>2022-01-19T18:41:08Z</time>
      </trkpt>
      <trkpt lat="44.59801" lon="3.4882">
        <ele>1150.3972</ele>
        <time>2022-01-19T18:41:09Z</time>
      </trkpt>
      <trkpt lat="44.59798" lon="3.48817">
        <ele>1150.3656</ele>
        <time>2022-01-19T18:41:11Z</time>
      </trkpt>
      <trkpt lat="44.59797" lon="3.48815">
        <ele>1150.3232</ele>
        <time>2022-01-19T18:41:12Z</time>
      </trkpt>
      <trkpt lat="44.59797" lon="3.48813">
        <ele>1150.0854</ele>
        <time>2022-01-19T18:41:13Z</time>
      </trkpt>
      <trkpt lat="44.59796" lon="3.48812">
        <ele>1150.1278</ele>
        <time>2022-01-19T18:41:14Z</time>
      </trkpt>
      <trkpt lat="44.59795" lon="3.4881">
        <ele>1150.1542</ele>
        <time>2022-01-19T18:41:15Z</time>
      </trkpt>
      <trkpt lat="44.59794" lon="3.48808">
        <ele>1150.1224</ele>
        <time>2022-01-19T18:41:16Z</time>
      </trkpt>
      <trkpt lat="44.59793" lon="3.48806">
        <ele>1149.9904</ele>
        <time>2022-01-19T18:41:17Z</time>
      </trkpt>
      <trkpt lat="44.59792" lon="3.48804">
        <ele>1149.8107</ele>
        <time>2022-01-19T18:41:18Z</time>
      </trkpt>
      <trkpt lat="44.59792" lon="3.48803">
        <ele>1149.8424</ele>
        <time>2022-01-19T18:41:19Z</time>
      </trkpt>
      <trkpt lat="44.59791" lon="3.48802">
        <ele>1149.8477</ele>
        <time>2022-01-19T18:41:20Z</time>
      </trkpt>
      <trkpt lat="44.5979" lon="3.488">
        <ele>1149.5729</ele>
        <time>2022-01-19T18:41:21Z</time>
      </trkpt>
      <trkpt lat="44.59789" lon="3.48798">
        <ele>1149.6575</ele>
        <time>2022-01-19T18:41:22Z</time>
      </trkpt>
      <trkpt lat="44.59789" lon="3.48797">
        <ele>1149.6627</ele>
        <time>2022-01-19T18:41:23Z</time>
      </trkpt>
      <trkpt lat="44.59788" lon="3.48795">
        <ele>1149.6204</ele>
        <time>2022-01-19T18:41:24Z</time>
      </trkpt>
      <trkpt lat="44.59787" lon="3.48793">
        <ele>1149.631</ele>
        <time>2022-01-19T18:41:25Z</time>
      </trkpt>
      <trkpt lat="44.59787" lon="3.48791">
        <ele>1149.4672</ele>
        <time>2022-01-19T18:41:26Z</time>
      </trkpt>
      <trkpt lat="44.59786" lon="3.4879">
        <ele>1149.2927</ele>
        <time>2022-01-19T18:41:27Z</time>
      </trkpt>
      <trkpt lat="44.59785" lon="3.48788">
        <ele>1149.0549</ele>
        <time>2022-01-19T18:41:28Z</time>
      </trkpt>
      <trkpt lat="44.59784" lon="3.48786">
        <ele>1148.8964</ele>
        <time>2022-01-19T18:41:29Z</time>
      </trkpt>
      <trkpt lat="44.59782" lon="3.48784">
        <ele>1148.8066</ele>
        <time>2022-01-19T18:41:30Z</time>
      </trkpt>
      <trkpt lat="44.59781" lon="3.48782">
        <ele>1148.5319</ele>
        <time>2022-01-19T18:41:31Z</time>
      </trkpt>
      <trkpt lat="44.59781" lon="3.4878">
        <ele>1148.4261</ele>
        <time>2022-01-19T18:41:32Z</time>
      </trkpt>
      <trkpt lat="44.5978" lon="3.48778">
        <ele>1148.2358</ele>
        <time>2022-01-19T18:41:33Z</time>
      </trkpt>
      <trkpt lat="44.5978" lon="3.48776">
        <ele>1148.109</ele>
        <time>2022-01-19T18:41:34Z</time>
      </trkpt>
      <trkpt lat="44.59779" lon="3.48775">
        <ele>1147.8976</ele>
        <time>2022-01-19T18:41:35Z</time>
      </trkpt>
      <trkpt lat="44.59778" lon="3.48774">
        <ele>1147.7655</ele>
        <time>2022-01-19T18:41:36Z</time>
      </trkpt>
      <trkpt lat="44.59778" lon="3.48773">
        <ele>1147.6439</ele>
        <time>2022-01-19T18:41:37Z</time>
      </trkpt>
      <trkpt lat="44.59777" lon="3.48773">
        <ele>1147.5594</ele>
        <time>2022-01-19T18:41:38Z</time>
      </trkpt>
      <trkpt lat="44.59777" lon="3.48773">
        <ele>1147.4115</ele>
        <time>2022-01-19T18:41:39Z</time>
      </trkpt>
      <trkpt lat="44.59776" lon="3.48772">
        <ele>1147.0574</ele>
        <time>2022-01-19T18:41:40Z</time>
      </trkpt>
      <trkpt lat="44.59775" lon="3.4877">
        <ele>1146.8302</ele>
        <time>2022-01-19T18:41:41Z</time>
      </trkpt>
      <trkpt lat="44.59774" lon="3.48769">
        <ele>1146.6293</ele>
        <time>2022-01-19T18:41:42Z</time>
      </trkpt>
      <trkpt lat="44.59774" lon="3.48768">
        <ele>1146.3545</ele>
        <time>2022-01-19T18:41:43Z</time>
      </trkpt>
      <trkpt lat="44.59773" lon="3.48767">
        <ele>1146.2329</ele>
        <time>2022-01-19T18:41:44Z</time>
      </trkpt>
      <trkpt lat="44.59772" lon="3.48765">
        <ele>1146.1167</ele>
        <time>2022-01-19T18:41:45Z</time>
      </trkpt>
      <trkpt lat="44.59771" lon="3.48765">
        <ele>1145.9318</ele>
        <time>2022-01-19T18:41:46Z</time>
      </trkpt>
      <trkpt lat="44.5977" lon="3.48764">
        <ele>1145.7521</ele>
        <time>2022-01-19T18:41:47Z</time>
      </trkpt>
      <trkpt lat="44.59769" lon="3.48763">
        <ele>1145.5565</ele>
        <time>2022-01-19T18:41:48Z</time>
      </trkpt>
      <trkpt lat="44.59768" lon="3.48763">
        <ele>1145.6146</ele>
        <time>2022-01-19T18:41:49Z</time>
      </trkpt>
      <trkpt lat="44.59767" lon="3.48762">
        <ele>1145.2236</ele>
        <time>2022-01-19T18:41:50Z</time>
      </trkpt>
      <trkpt lat="44.59766" lon="3.48761">
        <ele>1145.0333</ele>
        <time>2022-01-19T18:41:51Z</time>
      </trkpt>
      <trkpt lat="44.59765" lon="3.4876">
        <ele>1144.7797</ele>
        <time>2022-01-19T18:41:52Z</time>
      </trkpt>
      <trkpt lat="44.59764" lon="3.48759">
        <ele>1144.6528</ele>
        <time>2022-01-19T18:41:53Z</time>
      </trkpt>
      <trkpt lat="44.59763" lon="3.48757">
        <ele>1144.4679</ele>
        <time>2022-01-19T18:41:54Z</time>
      </trkpt>
      <trkpt lat="44.59761" lon="3.48756">
        <ele>1144.2249</ele>
        <time>2022-01-19T18:41:55Z</time>
      </trkpt>
      <trkpt lat="44.5976" lon="3.48755">
        <ele>1143.9288</ele>
        <time>2022-01-19T18:41:56Z</time>
      </trkpt>
      <trkpt lat="44.59759" lon="3.48754">
        <ele>1143.7228</ele>
        <time>2022-01-19T18:41:57Z</time>
      </trkpt>
      <trkpt lat="44.59758" lon="3.48753">
        <ele>1143.4532</ele>
        <time>2022-01-19T18:41:58Z</time>
      </trkpt>
      <trkpt lat="44.59758" lon="3.48753">
        <ele>1143.3105</ele>
        <time>2022-01-19T18:41:59Z</time>
      </trkpt>
      <trkpt lat="44.59757" lon="3.48752">
        <ele>1143.0094</ele>
        <time>2022-01-19T18:42:00Z</time>
      </trkpt>
      <trkpt lat="44.59755" lon="3.48751">
        <ele>1142.9037</ele>
        <time>2022-01-19T18:42:01Z</time>
      </trkpt>
      <trkpt lat="44.59754" lon="3.4875">
        <ele>1142.8297</ele>
        <time>2022-01-19T18:42:02Z</time>
      </trkpt>
      <trkpt lat="44.59752" lon="3.4875">
        <ele>1142.6711</ele>
        <time>2022-01-19T18:42:03Z</time>
      </trkpt>
      <trkpt lat="44.59751" lon="3.4875">
        <ele>1142.5178</ele>
        <time>2022-01-19T18:42:04Z</time>
      </trkpt>
      <trkpt lat="44.5975" lon="3.48749">
        <ele>1142.481</ele>
        <time>2022-01-19T18:42:05Z</time>
      </trkpt>
      <trkpt lat="44.59748" lon="3.4875">
        <ele>1142.28</ele>
        <time>2022-01-19T18:42:06Z</time>
      </trkpt>
      <trkpt lat="44.59747" lon="3.4875">
        <ele>1142.1584</ele>
        <time>2022-01-19T18:42:07Z</time>
      </trkpt>
      <trkpt lat="44.59745" lon="3.4875">
        <ele>1142.1584</ele>
        <time>2022-01-19T18:42:08Z</time>
      </trkpt>
      <trkpt lat="44.59744" lon="3.4875">
        <ele>1142.0529</ele>
        <time>2022-01-19T18:42:09Z</time>
      </trkpt>
      <trkpt lat="44.59743" lon="3.4875">
        <ele>1141.9894</ele>
        <time>2022-01-19T18:42:10Z</time>
      </trkpt>
      <trkpt lat="44.59741" lon="3.4875">
        <ele>1141.9471</ele>
        <time>2022-01-19T18:42:11Z</time>
      </trkpt>
      <trkpt lat="44.5974" lon="3.4875">
        <ele>1141.9419</ele>
        <time>2022-01-19T18:42:12Z</time>
      </trkpt>
      <trkpt lat="44.59739" lon="3.4875">
        <ele>1141.7886</ele>
        <time>2022-01-19T18:42:13Z</time>
      </trkpt>
      <trkpt lat="44.59739" lon="3.4875">
        <ele>1141.7516</ele>
        <time>2022-01-19T18:42:14Z</time>
      </trkpt>
      <trkpt lat="44.59738" lon="3.4875">
        <ele>1141.7833</ele>
        <time>2022-01-19T18:42:15Z</time>
      </trkpt>
      <trkpt lat="44.59738" lon="3.4875">
        <ele>1141.8678</ele>
        <time>2022-01-19T18:42:16Z</time>
      </trkpt>
      <trkpt lat="44.59738" lon="3.4875">
        <ele>1142.206</ele>
        <time>2022-01-19T18:42:17Z</time>
      </trkpt>
      <trkpt lat="44.59738" lon="3.4875">
        <ele>1143.0675</ele>
        <time>2022-01-19T18:42:18Z</time>
      </trkpt>
      <trkpt lat="44.59737" lon="3.48749">
        <ele>1142.0157</ele>
        <time>2022-01-19T18:42:19Z</time>
      </trkpt>
      <trkpt lat="44.59737" lon="3.4875">
        <ele>1141.7357</ele>
        <time>2022-01-19T18:42:20Z</time>
      </trkpt>
      <trkpt lat="44.59737" lon="3.48749">
        <ele>1141.6882</ele>
        <time>2022-01-19T18:42:21Z</time>
      </trkpt>
      <trkpt lat="44.59737" lon="3.48749">
        <ele>1141.6935</ele>
        <time>2022-01-19T18:42:22Z</time>
      </trkpt>
      <trkpt lat="44.59736" lon="3.48749">
        <ele>1141.6512</ele>
        <time>2022-01-19T18:42:23Z</time>
      </trkpt>
      <trkpt lat="44.59736" lon="3.48749">
        <ele>1141.6987</ele>
        <time>2022-01-19T18:42:24Z</time>
      </trkpt>
      <trkpt lat="44.59735" lon="3.4875">
        <ele>1141.7094</ele>
        <time>2022-01-19T18:42:25Z</time>
      </trkpt>
      <trkpt lat="44.59733" lon="3.4875">
        <ele>1141.5771</ele>
        <time>2022-01-19T18:42:26Z</time>
      </trkpt>
      <trkpt lat="44.59732" lon="3.48751">
        <ele>1141.6565</ele>
        <time>2022-01-19T18:42:27Z</time>
      </trkpt>
      <trkpt lat="44.59731" lon="3.48752">
        <ele>1141.704</ele>
        <time>2022-01-19T18:42:28Z</time>
      </trkpt>
      <trkpt lat="44.5973" lon="3.48752">
        <ele>1141.5825</ele>
        <time>2022-01-19T18:42:29Z</time>
      </trkpt>
      <trkpt lat="44.59729" lon="3.48753">
        <ele>1141.4398</ele>
        <time>2022-01-19T18:42:30Z</time>
      </trkpt>
      <trkpt lat="44.59728" lon="3.48754">
        <ele>1141.3182</ele>
        <time>2022-01-19T18:42:31Z</time>
      </trkpt>
      <trkpt lat="44.59726" lon="3.48755">
        <ele>1141.4187</ele>
        <time>2022-01-19T18:42:32Z</time>
      </trkpt>
      <trkpt lat="44.59725" lon="3.48756">
        <ele>1141.3447</ele>
        <time>2022-01-19T18:42:33Z</time>
      </trkpt>
      <trkpt lat="44.59724" lon="3.48756">
        <ele>1141.1597</ele>
        <time>2022-01-19T18:42:34Z</time>
      </trkpt>
      <trkpt lat="44.59723" lon="3.48757">
        <ele>1141.1597</ele>
        <time>2022-01-19T18:42:35Z</time>
      </trkpt>
      <trkpt lat="44.59721" lon="3.48758">
        <ele>1141.1016</ele>
        <time>2022-01-19T18:42:36Z</time>
      </trkpt>
      <trkpt lat="44.5972" lon="3.48759">
        <ele>1141.0752</ele>
        <time>2022-01-19T18:42:37Z</time>
      </trkpt>
      <trkpt lat="44.59718" lon="3.48759">
        <ele>1141.07</ele>
        <time>2022-01-19T18:42:38Z</time>
      </trkpt>
      <trkpt lat="44.59717" lon="3.4876">
        <ele>1140.9589</ele>
        <time>2022-01-19T18:42:39Z</time>
      </trkpt>
      <trkpt lat="44.59716" lon="3.4876">
        <ele>1140.7474</ele>
        <time>2022-01-19T18:42:40Z</time>
      </trkpt>
      <trkpt lat="44.59715" lon="3.48761">
        <ele>1140.8268</ele>
        <time>2022-01-19T18:42:41Z</time>
      </trkpt>
      <trkpt lat="44.59713" lon="3.48761">
        <ele>1140.8901</ele>
        <time>2022-01-19T18:42:42Z</time>
      </trkpt>
      <trkpt lat="44.59712" lon="3.48762">
        <ele>1140.6947</ele>
        <time>2022-01-19T18:42:43Z</time>
      </trkpt>
      <trkpt lat="44.5971" lon="3.48763">
        <ele>1140.5414</ele>
        <time>2022-01-19T18:42:44Z</time>
      </trkpt>
      <trkpt lat="44.59709" lon="3.48764">
        <ele>1140.5256</ele>
        <time>2022-01-19T18:42:45Z</time>
      </trkpt>
      <trkpt lat="44.59707" lon="3.48764">
        <ele>1140.4146</ele>
        <time>2022-01-19T18:42:46Z</time>
      </trkpt>
      <trkpt lat="44.59706" lon="3.48766">
        <ele>1140.1873</ele>
        <time>2022-01-19T18:42:47Z</time>
      </trkpt>
      <trkpt lat="44.59704" lon="3.48766">
        <ele>1140.198</ele>
        <time>2022-01-19T18:42:48Z</time>
      </trkpt>
      <trkpt lat="44.59703" lon="3.48767">
        <ele>1140.1661</ele>
        <time>2022-01-19T18:42:49Z</time>
      </trkpt>
      <trkpt lat="44.59702" lon="3.48768">
        <ele>1140.0182</ele>
        <time>2022-01-19T18:42:50Z</time>
      </trkpt>
      <trkpt lat="44.597" lon="3.48769">
        <ele>1139.8861</ele>
        <time>2022-01-19T18:42:51Z</time>
      </trkpt>
      <trkpt lat="44.59699" lon="3.4877">
        <ele>1139.7963</ele>
        <time>2022-01-19T18:42:52Z</time>
      </trkpt>
      <trkpt lat="44.59698" lon="3.48771">
        <ele>1139.6218</ele>
        <time>2022-01-19T18:42:53Z</time>
      </trkpt>
      <trkpt lat="44.59697" lon="3.48772">
        <ele>1139.3842</ele>
        <time>2022-01-19T18:42:54Z</time>
      </trkpt>
      <trkpt lat="44.59696" lon="3.48773">
        <ele>1139.3048</ele>
        <time>2022-01-19T18:42:55Z</time>
      </trkpt>
      <trkpt lat="44.59695" lon="3.48773">
        <ele>1139.141</ele>
        <time>2022-01-19T18:42:56Z</time>
      </trkpt>
      <trkpt lat="44.59694" lon="3.48774">
        <ele>1138.9084</ele>
        <time>2022-01-19T18:42:57Z</time>
      </trkpt>
      <trkpt lat="44.59693" lon="3.48775">
        <ele>1138.734</ele>
        <time>2022-01-19T18:42:58Z</time>
      </trkpt>
      <trkpt lat="44.59692" lon="3.48776">
        <ele>1138.6865</ele>
        <time>2022-01-19T18:42:59Z</time>
      </trkpt>
      <trkpt lat="44.5969" lon="3.48777">
        <ele>1138.5597</ele>
        <time>2022-01-19T18:43:00Z</time>
      </trkpt>
      <trkpt lat="44.59689" lon="3.48778">
        <ele>1138.4329</ele>
        <time>2022-01-19T18:43:01Z</time>
      </trkpt>
      <trkpt lat="44.59688" lon="3.4878">
        <ele>1138.4381</ele>
        <time>2022-01-19T18:43:02Z</time>
      </trkpt>
      <trkpt lat="44.59687" lon="3.48781">
        <ele>1138.3324</ele>
        <time>2022-01-19T18:43:03Z</time>
      </trkpt>
      <trkpt lat="44.59686" lon="3.48781">
        <ele>1138.1951</ele>
        <time>2022-01-19T18:43:04Z</time>
      </trkpt>
      <trkpt lat="44.59685" lon="3.48782">
        <ele>1137.9836</ele>
        <time>2022-01-19T18:43:05Z</time>
      </trkpt>
      <trkpt lat="44.59684" lon="3.48784">
        <ele>1137.8252</ele>
        <time>2022-01-19T18:43:06Z</time>
      </trkpt>
      <trkpt lat="44.59683" lon="3.48784">
        <ele>1137.5662</ele>
        <time>2022-01-19T18:43:07Z</time>
      </trkpt>
      <trkpt lat="44.59682" lon="3.48785">
        <ele>1137.5768</ele>
        <time>2022-01-19T18:43:08Z</time>
      </trkpt>
      <trkpt lat="44.59681" lon="3.48787">
        <ele>1137.4235</ele>
        <time>2022-01-19T18:43:09Z</time>
      </trkpt>
      <trkpt lat="44.59679" lon="3.48788">
        <ele>1137.2703</ele>
        <time>2022-01-19T18:43:10Z</time>
      </trkpt>
      <trkpt lat="44.59678" lon="3.48789">
        <ele>1137.0852</ele>
        <time>2022-01-19T18:43:11Z</time>
      </trkpt>
      <trkpt lat="44.59677" lon="3.48789">
        <ele>1136.7523</ele>
        <time>2022-01-19T18:43:12Z</time>
      </trkpt>
      <trkpt lat="44.59676" lon="3.4879">
        <ele>1136.5092</ele>
        <time>2022-01-19T18:43:13Z</time>
      </trkpt>
      <trkpt lat="44.59675" lon="3.48791">
        <ele>1136.356</ele>
        <time>2022-01-19T18:43:14Z</time>
      </trkpt>
      <trkpt lat="44.59673" lon="3.48792">
        <ele>1136.1921</ele>
        <time>2022-01-19T18:43:15Z</time>
      </trkpt>
      <trkpt lat="44.59672" lon="3.48793">
        <ele>1136.0812</ele>
        <time>2022-01-19T18:43:16Z</time>
      </trkpt>
      <trkpt lat="44.59671" lon="3.48794">
        <ele>1135.9121</ele>
        <time>2022-01-19T18:43:17Z</time>
      </trkpt>
      <trkpt lat="44.5967" lon="3.48795">
        <ele>1135.7007</ele>
        <time>2022-01-19T18:43:18Z</time>
      </trkpt>
      <trkpt lat="44.59669" lon="3.48796">
        <ele>1135.4946</ele>
        <time>2022-01-19T18:43:19Z</time>
      </trkpt>
      <trkpt lat="44.59668" lon="3.48797">
        <ele>1135.336</ele>
        <time>2022-01-19T18:43:20Z</time>
      </trkpt>
      <trkpt lat="44.59668" lon="3.48798">
        <ele>1135.2832</ele>
        <time>2022-01-19T18:43:21Z</time>
      </trkpt>
      <trkpt lat="44.59666" lon="3.48799">
        <ele>1135.0876</ele>
        <time>2022-01-19T18:43:22Z</time>
      </trkpt>
      <trkpt lat="44.59665" lon="3.48799">
        <ele>1134.982</ele>
        <time>2022-01-19T18:43:23Z</time>
      </trkpt>
      <trkpt lat="44.59665" lon="3.488">
        <ele>1134.8975</ele>
        <time>2022-01-19T18:43:24Z</time>
      </trkpt>
      <trkpt lat="44.59663" lon="3.48801">
        <ele>1134.7548</ele>
        <time>2022-01-19T18:43:25Z</time>
      </trkpt>
      <trkpt lat="44.59662" lon="3.48802">
        <ele>1134.723</ele>
        <time>2022-01-19T18:43:26Z</time>
      </trkpt>
      <trkpt lat="44.59661" lon="3.48803">
        <ele>1134.5751</ele>
        <time>2022-01-19T18:43:27Z</time>
      </trkpt>
      <trkpt lat="44.5966" lon="3.48804">
        <ele>1134.517</ele>
        <time>2022-01-19T18:43:28Z</time>
      </trkpt>
      <trkpt lat="44.59659" lon="3.48805">
        <ele>1134.3584</ele>
        <time>2022-01-19T18:43:29Z</time>
      </trkpt>
      <trkpt lat="44.59657" lon="3.48807">
        <ele>1134.0255</ele>
        <time>2022-01-19T18:43:30Z</time>
      </trkpt>
      <trkpt lat="44.59656" lon="3.48808">
        <ele>1134.0466</ele>
        <time>2022-01-19T18:43:31Z</time>
      </trkpt>
      <trkpt lat="44.59655" lon="3.48809">
        <ele>1134.0466</ele>
        <time>2022-01-19T18:43:32Z</time>
      </trkpt>
      <trkpt lat="44.59654" lon="3.4881">
        <ele>1133.9357</ele>
        <time>2022-01-19T18:43:33Z</time>
      </trkpt>
      <trkpt lat="44.59653" lon="3.48811">
        <ele>1133.8246</ele>
        <time>2022-01-19T18:43:34Z</time>
      </trkpt>
      <trkpt lat="44.59652" lon="3.48813">
        <ele>1133.645</ele>
        <time>2022-01-19T18:43:35Z</time>
      </trkpt>
      <trkpt lat="44.59651" lon="3.48814">
        <ele>1133.5498</ele>
        <time>2022-01-19T18:43:36Z</time>
      </trkpt>
      <trkpt lat="44.5965" lon="3.48815">
        <ele>1133.3807</ele>
        <time>2022-01-19T18:43:37Z</time>
      </trkpt>
      <trkpt lat="44.59649" lon="3.48816">
        <ele>1133.275</ele>
        <time>2022-01-19T18:43:38Z</time>
      </trkpt>
      <trkpt lat="44.59648" lon="3.48816">
        <ele>1133.0795</ele>
        <time>2022-01-19T18:43:39Z</time>
      </trkpt>
      <trkpt lat="44.59647" lon="3.48817">
        <ele>1133.032</ele>
        <time>2022-01-19T18:43:40Z</time>
      </trkpt>
      <trkpt lat="44.59646" lon="3.48818">
        <ele>1132.9156</ele>
        <time>2022-01-19T18:43:41Z</time>
      </trkpt>
      <trkpt lat="44.59645" lon="3.48819">
        <ele>1132.7625</ele>
        <time>2022-01-19T18:43:42Z</time>
      </trkpt>
      <trkpt lat="44.59644" lon="3.4882">
        <ele>1132.4242</ele>
        <time>2022-01-19T18:43:43Z</time>
      </trkpt>
      <trkpt lat="44.59643" lon="3.48821">
        <ele>1132.144</ele>
        <time>2022-01-19T18:43:44Z</time>
      </trkpt>
      <trkpt lat="44.59642" lon="3.48822">
        <ele>1131.7108</ele>
        <time>2022-01-19T18:43:45Z</time>
      </trkpt>
      <trkpt lat="44.59641" lon="3.48822">
        <ele>1131.5681</ele>
        <time>2022-01-19T18:43:46Z</time>
      </trkpt>
      <trkpt lat="44.5964" lon="3.48823">
        <ele>1131.3303</ele>
        <time>2022-01-19T18:43:47Z</time>
      </trkpt>
      <trkpt lat="44.59639" lon="3.48825">
        <ele>1130.9921</ele>
        <time>2022-01-19T18:43:48Z</time>
      </trkpt>
      <trkpt lat="44.59638" lon="3.48825">
        <ele>1130.7332</ele>
        <time>2022-01-19T18:43:49Z</time>
      </trkpt>
      <trkpt lat="44.59637" lon="3.48826">
        <ele>1130.617</ele>
        <time>2022-01-19T18:43:50Z</time>
      </trkpt>
      <trkpt lat="44.59636" lon="3.48827">
        <ele>1130.4954</ele>
        <time>2022-01-19T18:43:51Z</time>
      </trkpt>
      <trkpt lat="44.59634" lon="3.48827">
        <ele>1130.4055</ele>
        <time>2022-01-19T18:43:52Z</time>
      </trkpt>
      <trkpt lat="44.59633" lon="3.48828">
        <ele>1130.2733</ele>
        <time>2022-01-19T18:43:53Z</time>
      </trkpt>
      <trkpt lat="44.59632" lon="3.48829">
        <ele>1130.1201</ele>
        <time>2022-01-19T18:43:54Z</time>
      </trkpt>
      <trkpt lat="44.59631" lon="3.4883">
        <ele>1129.9457</ele>
        <time>2022-01-19T18:43:55Z</time>
      </trkpt>
      <trkpt lat="44.5963" lon="3.48831">
        <ele>1129.8295</ele>
        <time>2022-01-19T18:43:56Z</time>
      </trkpt>
      <trkpt lat="44.59629" lon="3.48832">
        <ele>1129.7977</ele>
        <time>2022-01-19T18:43:57Z</time>
      </trkpt>
      <trkpt lat="44.59628" lon="3.48832">
        <ele>1129.7555</ele>
        <time>2022-01-19T18:43:58Z</time>
      </trkpt>
      <trkpt lat="44.59628" lon="3.48832">
        <ele>1129.7925</ele>
        <time>2022-01-19T18:43:59Z</time>
      </trkpt>
      <trkpt lat="44.59627" lon="3.48833">
        <ele>1129.7607</ele>
        <time>2022-01-19T18:44:00Z</time>
      </trkpt>
      <trkpt lat="44.59626" lon="3.48835">
        <ele>1129.618</ele>
        <time>2022-01-19T18:44:01Z</time>
      </trkpt>
      <trkpt lat="44.59625" lon="3.48836">
        <ele>1129.692</ele>
        <time>2022-01-19T18:44:02Z</time>
      </trkpt>
      <trkpt lat="44.59624" lon="3.48837">
        <ele>1129.729</ele>
        <time>2022-01-19T18:44:03Z</time>
      </trkpt>
      <trkpt lat="44.59623" lon="3.48838">
        <ele>1129.6445</ele>
        <time>2022-01-19T18:44:04Z</time>
      </trkpt>
      <trkpt lat="44.59621" lon="3.48838">
        <ele>1129.692</ele>
        <time>2022-01-19T18:44:05Z</time>
      </trkpt>
      <trkpt lat="44.5962" lon="3.48839">
        <ele>1129.7501</ele>
        <time>2022-01-19T18:44:06Z</time>
      </trkpt>
      <trkpt lat="44.59619" lon="3.4884">
        <ele>1129.7766</ele>
        <time>2022-01-19T18:44:07Z</time>
      </trkpt>
      <trkpt lat="44.59618" lon="3.48841">
        <ele>1129.8876</ele>
        <time>2022-01-19T18:44:08Z</time>
      </trkpt>
      <trkpt lat="44.59616" lon="3.48841">
        <ele>1129.9722</ele>
        <time>2022-01-19T18:44:09Z</time>
      </trkpt>
      <trkpt lat="44.59615" lon="3.48842">
        <ele>1129.951</ele>
        <time>2022-01-19T18:44:10Z</time>
      </trkpt>
      <trkpt lat="44.59614" lon="3.48843">
        <ele>1130.0038</ele>
        <time>2022-01-19T18:44:11Z</time>
      </trkpt>
      <trkpt lat="44.59612" lon="3.48843">
        <ele>1129.9722</ele>
        <time>2022-01-19T18:44:12Z</time>
      </trkpt>
      <trkpt lat="44.59611" lon="3.48844">
        <ele>1129.9722</ele>
        <time>2022-01-19T18:44:13Z</time>
      </trkpt>
      <trkpt lat="44.5961" lon="3.48845">
        <ele>1129.9404</ele>
        <time>2022-01-19T18:44:14Z</time>
      </trkpt>
      <trkpt lat="44.59609" lon="3.48846">
        <ele>1129.9985</ele>
        <time>2022-01-19T18:44:15Z</time>
      </trkpt>
      <trkpt lat="44.59607" lon="3.48846">
        <ele>1130.0092</ele>
        <time>2022-01-19T18:44:16Z</time>
      </trkpt>
      <trkpt lat="44.59606" lon="3.48847">
        <ele>1130.0092</ele>
        <time>2022-01-19T18:44:17Z</time>
      </trkpt>
      <trkpt lat="44.59605" lon="3.48847">
        <ele>1129.9722</ele>
        <time>2022-01-19T18:44:18Z</time>
      </trkpt>
      <trkpt lat="44.59604" lon="3.48847">
        <ele>1131.3356</ele>
        <time>2022-01-19T18:44:19Z</time>
      </trkpt>
      <trkpt lat="44.59603" lon="3.48848">
        <ele>1130.0884</ele>
        <time>2022-01-19T18:44:20Z</time>
      </trkpt>
      <trkpt lat="44.59602" lon="3.48849">
        <ele>1129.8558</ele>
        <time>2022-01-19T18:44:21Z</time>
      </trkpt>
      <trkpt lat="44.596" lon="3.48848">
        <ele>1129.7872</ele>
        <time>2022-01-19T18:44:22Z</time>
      </trkpt>
      <trkpt lat="44.59599" lon="3.48849">
        <ele>1129.7714</ele>
        <time>2022-01-19T18:44:23Z</time>
      </trkpt>
      <trkpt lat="44.59598" lon="3.48849">
        <ele>1129.6074</ele>
        <time>2022-01-19T18:44:24Z</time>
      </trkpt>
      <trkpt lat="44.59597" lon="3.48849">
        <ele>1129.5336</ele>
        <time>2022-01-19T18:44:25Z</time>
      </trkpt>
      <trkpt lat="44.59596" lon="3.48849">
        <ele>1129.6498</ele>
        <time>2022-01-19T18:44:26Z</time>
      </trkpt>
      <trkpt lat="44.59594" lon="3.48849">
        <ele>1129.4912</ele>
        <time>2022-01-19T18:44:27Z</time>
      </trkpt>
      <trkpt lat="44.59593" lon="3.48849">
        <ele>1129.3591</ele>
        <time>2022-01-19T18:44:28Z</time>
      </trkpt>
      <trkpt lat="44.59592" lon="3.48849">
        <ele>1129.3855</ele>
        <time>2022-01-19T18:44:29Z</time>
      </trkpt>
      <trkpt lat="44.59591" lon="3.48849">
        <ele>1129.2745</ele>
        <time>2022-01-19T18:44:30Z</time>
      </trkpt>
      <trkpt lat="44.59591" lon="3.48848">
        <ele>1129.2006</ele>
        <time>2022-01-19T18:44:31Z</time>
      </trkpt>
      <trkpt lat="44.59592" lon="3.48847">
        <ele>1129.1477</ele>
        <time>2022-01-19T18:44:32Z</time>
      </trkpt>
      <trkpt lat="44.59592" lon="3.48847">
        <ele>1129.1477</ele>
        <time>2022-01-19T18:44:32Z</time>
      </trkpt>
      <trkpt lat="44.59592" lon="3.48847">
        <ele>1129.1477</ele>
        <time>2022-01-19T18:44:32Z</time>
      </trkpt>
      <trkpt lat="44.59592" lon="3.48847">
        <ele>1129.1477</ele>
        <time>2022-01-19T18:44:32Z</time>
      </trkpt>
      <trkpt lat="44.59584" lon="3.48849">
        <ele>1127.2241</ele>
        <time>2022-01-19T18:46:45Z</time>
      </trkpt>
      <trkpt lat="44.59584" lon="3.48843">
        <ele>1127.1976</ele>
        <time>2022-01-19T18:46:46Z</time>
      </trkpt>
      <trkpt lat="44.59583" lon="3.48829">
        <ele>1127.3298</ele>
        <time>2022-01-19T18:46:47Z</time>
      </trkpt>
      <trkpt lat="44.59583" lon="3.48822">
        <ele>1127.3562</ele>
        <time>2022-01-19T18:46:48Z</time>
      </trkpt>
      <trkpt lat="44.59583" lon="3.48822">
        <ele>1127.3827</ele>
        <time>2022-01-19T18:46:49Z</time>
      </trkpt>
      <trkpt lat="44.59583" lon="3.48822">
        <ele>1127.446</ele>
        <time>2022-01-19T18:46:50Z</time>
      </trkpt>
      <trkpt lat="44.59584" lon="3.48819">
        <ele>1127.3933</ele>
        <time>2022-01-19T18:46:51Z</time>
      </trkpt>
      <trkpt lat="44.59585" lon="3.48817">
        <ele>1127.3774</ele>
        <time>2022-01-19T18:46:52Z</time>
      </trkpt>
      <trkpt lat="44.59587" lon="3.48815">
        <ele>1127.5676</ele>
        <time>2022-01-19T18:46:53Z</time>
      </trkpt>
      <trkpt lat="44.59589" lon="3.48814">
        <ele>1127.5729</ele>
        <time>2022-01-19T18:46:54Z</time>
      </trkpt>
      <trkpt lat="44.5959" lon="3.48813">
        <ele>1127.6522</ele>
        <time>2022-01-19T18:46:55Z</time>
      </trkpt>
      <trkpt lat="44.59591" lon="3.48811">
        <ele>1127.6892</ele>
        <time>2022-01-19T18:46:56Z</time>
      </trkpt>
      <trkpt lat="44.59592" lon="3.4881">
        <ele>1127.7526</ele>
        <time>2022-01-19T18:46:57Z</time>
      </trkpt>
      <trkpt lat="44.59594" lon="3.48808">
        <ele>1127.9216</ele>
        <time>2022-01-19T18:46:58Z</time>
      </trkpt>
      <trkpt lat="44.59595" lon="3.48807">
        <ele>1127.8794</ele>
        <time>2022-01-19T18:46:59Z</time>
      </trkpt>
      <trkpt lat="44.59596" lon="3.48807">
        <ele>1127.964</ele>
        <time>2022-01-19T18:47:00Z</time>
      </trkpt>
      <trkpt lat="44.59597" lon="3.48806">
        <ele>1127.8794</ele>
        <time>2022-01-19T18:47:01Z</time>
      </trkpt>
      <trkpt lat="44.59598" lon="3.48805">
        <ele>1127.9904</ele>
        <time>2022-01-19T18:47:02Z</time>
      </trkpt>
      <trkpt lat="44.59599" lon="3.48804">
        <ele>1128.0062</ele>
        <time>2022-01-19T18:47:03Z</time>
      </trkpt>
      <trkpt lat="44.596" lon="3.48803">
        <ele>1128.0273</ele>
        <time>2022-01-19T18:47:04Z</time>
      </trkpt>
      <trkpt lat="44.59601" lon="3.48801">
        <ele>1127.9429</ele>
        <time>2022-01-19T18:47:05Z</time>
      </trkpt>
      <trkpt lat="44.59601" lon="3.48801">
        <ele>1127.9429</ele>
        <time>2022-01-19T18:47:05Z</time>
      </trkpt>
      <trkpt lat="44.59604" lon="3.48799">
        <ele>1128.0221</ele>
        <time>2022-01-19T18:47:07Z</time>
      </trkpt>
      <trkpt lat="44.59605" lon="3.48798">
        <ele>1127.9111</ele>
        <time>2022-01-19T18:47:08Z</time>
      </trkpt>
      <trkpt lat="44.59606" lon="3.48797">
        <ele>1127.7737</ele>
        <time>2022-01-19T18:47:09Z</time>
      </trkpt>
      <trkpt lat="44.59607" lon="3.48796">
        <ele>1127.7314</ele>
        <time>2022-01-19T18:47:10Z</time>
      </trkpt>
      <trkpt lat="44.59609" lon="3.48794">
        <ele>1127.8846</ele>
        <time>2022-01-19T18:47:11Z</time>
      </trkpt>
      <trkpt lat="44.5961" lon="3.48793">
        <ele>1128.0803</ele>
        <time>2022-01-19T18:47:12Z</time>
      </trkpt>
      <trkpt lat="44.5961" lon="3.48792">
        <ele>1128.1912</ele>
        <time>2022-01-19T18:47:13Z</time>
      </trkpt>
      <trkpt lat="44.59612" lon="3.48791">
        <ele>1128.3497</ele>
        <time>2022-01-19T18:47:14Z</time>
      </trkpt>
      <trkpt lat="44.59613" lon="3.4879">
        <ele>1128.5083</ele>
        <time>2022-01-19T18:47:15Z</time>
      </trkpt>
      <trkpt lat="44.59614" lon="3.48789">
        <ele>1128.7725</ele>
        <time>2022-01-19T18:47:16Z</time>
      </trkpt>
      <trkpt lat="44.59615" lon="3.48788">
        <ele>1128.894</ele>
        <time>2022-01-19T18:47:17Z</time>
      </trkpt>
      <trkpt lat="44.59617" lon="3.48787">
        <ele>1129.1372</ele>
        <time>2022-01-19T18:47:18Z</time>
      </trkpt>
      <trkpt lat="44.59617" lon="3.48786">
        <ele>1129.4331</ele>
        <time>2022-01-19T18:47:19Z</time>
      </trkpt>
      <trkpt lat="44.59617" lon="3.48785">
        <ele>1129.6974</ele>
        <time>2022-01-19T18:47:20Z</time>
      </trkpt>
      <trkpt lat="44.59618" lon="3.48785">
        <ele>1130.0092</ele>
        <time>2022-01-19T18:47:21Z</time>
      </trkpt>
      <trkpt lat="44.59618" lon="3.48785">
        <ele>1130.2733</ele>
        <time>2022-01-19T18:47:22Z</time>
      </trkpt>
      <trkpt lat="44.59618" lon="3.48785">
        <ele>1130.6592</ele>
        <time>2022-01-19T18:47:23Z</time>
      </trkpt>
      <trkpt lat="44.59618" lon="3.48785">
        <ele>1130.7384</ele>
        <time>2022-01-19T18:47:24Z</time>
      </trkpt>
      <trkpt lat="44.59618" lon="3.48785">
        <ele>1130.971</ele>
        <time>2022-01-19T18:47:25Z</time>
      </trkpt>
      <trkpt lat="44.59618" lon="3.48785">
        <ele>1131.2668</ele>
        <time>2022-01-19T18:47:26Z</time>
      </trkpt>
      <trkpt lat="44.59618" lon="3.48785">
        <ele>1131.4043</ele>
        <time>2022-01-19T18:47:27Z</time>
      </trkpt>
      <trkpt lat="44.59619" lon="3.48784">
        <ele>1131.5627</ele>
        <time>2022-01-19T18:47:28Z</time>
      </trkpt>
      <trkpt lat="44.59621" lon="3.48783">
        <ele>1131.8323</ele>
        <time>2022-01-19T18:47:29Z</time>
      </trkpt>
      <trkpt lat="44.59622" lon="3.48782">
        <ele>1131.9645</ele>
        <time>2022-01-19T18:47:30Z</time>
      </trkpt>
      <trkpt lat="44.59623" lon="3.48781">
        <ele>1132.0226</ele>
        <time>2022-01-19T18:47:31Z</time>
      </trkpt>
      <trkpt lat="44.59625" lon="3.4878">
        <ele>1132.2286</ele>
        <time>2022-01-19T18:47:32Z</time>
      </trkpt>
      <trkpt lat="44.59626" lon="3.48779">
        <ele>1132.4083</ele>
        <time>2022-01-19T18:47:33Z</time>
      </trkpt>
      <trkpt lat="44.59628" lon="3.48778">
        <ele>1132.5774</ele>
        <time>2022-01-19T18:47:34Z</time>
      </trkpt>
      <trkpt lat="44.59629" lon="3.48777">
        <ele>1132.7413</ele>
        <time>2022-01-19T18:47:35Z</time>
      </trkpt>
      <trkpt lat="44.59631" lon="3.48776">
        <ele>1132.8945</ele>
        <time>2022-01-19T18:47:36Z</time>
      </trkpt>
      <trkpt lat="44.59631" lon="3.48775">
        <ele>1133.032</ele>
        <time>2022-01-19T18:47:37Z</time>
      </trkpt>
      <trkpt lat="44.59633" lon="3.48775">
        <ele>1133.1165</ele>
        <time>2022-01-19T18:47:38Z</time>
      </trkpt>
      <trkpt lat="44.59634" lon="3.48774">
        <ele>1133.2222</ele>
        <time>2022-01-19T18:47:39Z</time>
      </trkpt>
      <trkpt lat="44.59636" lon="3.48774">
        <ele>1133.3279</ele>
        <time>2022-01-19T18:47:40Z</time>
      </trkpt>
      <trkpt lat="44.59637" lon="3.48773">
        <ele>1133.423</ele>
        <time>2022-01-19T18:47:41Z</time>
      </trkpt>
      <trkpt lat="44.59638" lon="3.48772">
        <ele>1133.7084</ele>
        <time>2022-01-19T18:47:42Z</time>
      </trkpt>
      <trkpt lat="44.59639" lon="3.48771">
        <ele>1133.756</ele>
        <time>2022-01-19T18:47:43Z</time>
      </trkpt>
      <trkpt lat="44.5964" lon="3.4877">
        <ele>1133.8617</ele>
        <time>2022-01-19T18:47:44Z</time>
      </trkpt>
      <trkpt lat="44.59641" lon="3.48769">
        <ele>1133.9725</ele>
        <time>2022-01-19T18:47:45Z</time>
      </trkpt>
      <trkpt lat="44.59643" lon="3.48768">
        <ele>1134.0941</ele>
        <time>2022-01-19T18:47:46Z</time>
      </trkpt>
      <trkpt lat="44.59644" lon="3.48767">
        <ele>1134.1893</ele>
        <time>2022-01-19T18:47:47Z</time>
      </trkpt>
      <trkpt lat="44.59645" lon="3.48766">
        <ele>1134.2421</ele>
        <time>2022-01-19T18:47:48Z</time>
      </trkpt>
      <trkpt lat="44.59646" lon="3.48765">
        <ele>1134.5063</ele>
        <time>2022-01-19T18:47:49Z</time>
      </trkpt>
      <trkpt lat="44.59647" lon="3.48764">
        <ele>1134.6649</ele>
        <time>2022-01-19T18:47:50Z</time>
      </trkpt>
      <trkpt lat="44.59649" lon="3.48764">
        <ele>1134.723</ele>
        <time>2022-01-19T18:47:51Z</time>
      </trkpt>
      <trkpt lat="44.5965" lon="3.48763">
        <ele>1134.7917</ele>
        <time>2022-01-19T18:47:52Z</time>
      </trkpt>
      <trkpt lat="44.59651" lon="3.48763">
        <ele>1134.8975</ele>
        <time>2022-01-19T18:47:53Z</time>
      </trkpt>
      <trkpt lat="44.59652" lon="3.48762">
        <ele>1135.1564</ele>
        <time>2022-01-19T18:47:54Z</time>
      </trkpt>
      <trkpt lat="44.59654" lon="3.48761">
        <ele>1135.1459</ele>
        <time>2022-01-19T18:47:55Z</time>
      </trkpt>
      <trkpt lat="44.59655" lon="3.4876">
        <ele>1135.2621</ele>
        <time>2022-01-19T18:47:56Z</time>
      </trkpt>
      <trkpt lat="44.59656" lon="3.4876">
        <ele>1135.3519</ele>
        <time>2022-01-19T18:47:57Z</time>
      </trkpt>
      <trkpt lat="44.59657" lon="3.4876">
        <ele>1135.3519</ele>
        <time>2022-01-19T18:47:58Z</time>
      </trkpt>
      <trkpt lat="44.59658" lon="3.48759">
        <ele>1135.5262</ele>
        <time>2022-01-19T18:47:59Z</time>
      </trkpt>
      <trkpt lat="44.59659" lon="3.48758">
        <ele>1135.6637</ele>
        <time>2022-01-19T18:48:00Z</time>
      </trkpt>
      <trkpt lat="44.5966" lon="3.48757">
        <ele>1135.8856</ele>
        <time>2022-01-19T18:48:01Z</time>
      </trkpt>
      <trkpt lat="44.59661" lon="3.48756">
        <ele>1135.9015</ele>
        <time>2022-01-19T18:48:02Z</time>
      </trkpt>
      <trkpt lat="44.59662" lon="3.48755">
        <ele>1136.097</ele>
        <time>2022-01-19T18:48:03Z</time>
      </trkpt>
      <trkpt lat="44.59663" lon="3.48754">
        <ele>1136.1974</ele>
        <time>2022-01-19T18:48:04Z</time>
      </trkpt>
      <trkpt lat="44.59664" lon="3.48754">
        <ele>1136.2609</ele>
        <time>2022-01-19T18:48:05Z</time>
      </trkpt>
      <trkpt lat="44.59665" lon="3.48752">
        <ele>1136.5568</ele>
        <time>2022-01-19T18:48:06Z</time>
      </trkpt>
      <trkpt lat="44.59666" lon="3.48751">
        <ele>1136.5304</ele>
        <time>2022-01-19T18:48:07Z</time>
      </trkpt>
      <trkpt lat="44.59668" lon="3.4875">
        <ele>1136.578</ele>
        <time>2022-01-19T18:48:08Z</time>
      </trkpt>
      <trkpt lat="44.59669" lon="3.4875">
        <ele>1136.9055</ele>
        <time>2022-01-19T18:48:09Z</time>
      </trkpt>
      <trkpt lat="44.5967" lon="3.48749">
        <ele>1136.9109</ele>
        <time>2022-01-19T18:48:10Z</time>
      </trkpt>
      <trkpt lat="44.59671" lon="3.48748">
        <ele>1136.932</ele>
        <time>2022-01-19T18:48:11Z</time>
      </trkpt>
      <trkpt lat="44.59673" lon="3.48748">
        <ele>1137.175</ele>
        <time>2022-01-19T18:48:12Z</time>
      </trkpt>
      <trkpt lat="44.59674" lon="3.48747">
        <ele>1137.3971</ele>
        <time>2022-01-19T18:48:13Z</time>
      </trkpt>
      <trkpt lat="44.59675" lon="3.48747">
        <ele>1137.3865</ele>
        <time>2022-01-19T18:48:14Z</time>
      </trkpt>
      <trkpt lat="44.59677" lon="3.48746">
        <ele>1137.5503</ele>
        <time>2022-01-19T18:48:15Z</time>
      </trkpt>
      <trkpt lat="44.59678" lon="3.48745">
        <ele>1137.582</ele>
        <time>2022-01-19T18:48:16Z</time>
      </trkpt>
      <trkpt lat="44.59678" lon="3.48745">
        <ele>1137.804</ele>
        <time>2022-01-19T18:48:17Z</time>
      </trkpt>
      <trkpt lat="44.59679" lon="3.48745">
        <ele>1138.047</ele>
        <time>2022-01-19T18:48:18Z</time>
      </trkpt>
      <trkpt lat="44.59681" lon="3.48744">
        <ele>1138.2373</ele>
        <time>2022-01-19T18:48:19Z</time>
      </trkpt>
      <trkpt lat="44.59682" lon="3.48743">
        <ele>1138.2532</ele>
        <time>2022-01-19T18:48:20Z</time>
      </trkpt>
      <trkpt lat="44.59683" lon="3.48742">
        <ele>1138.4803</ele>
        <time>2022-01-19T18:48:21Z</time>
      </trkpt>
      <trkpt lat="44.59684" lon="3.48741">
        <ele>1138.4962</ele>
        <time>2022-01-19T18:48:22Z</time>
      </trkpt>
      <trkpt lat="44.59686" lon="3.4874">
        <ele>1138.5967</ele>
        <time>2022-01-19T18:48:23Z</time>
      </trkpt>
      <trkpt lat="44.59687" lon="3.48739">
        <ele>1138.6443</ele>
        <time>2022-01-19T18:48:24Z</time>
      </trkpt>
      <trkpt lat="44.59689" lon="3.48738">
        <ele>1138.8292</ele>
        <time>2022-01-19T18:48:25Z</time>
      </trkpt>
      <trkpt lat="44.5969" lon="3.48737">
        <ele>1139.03</ele>
        <time>2022-01-19T18:48:26Z</time>
      </trkpt>
      <trkpt lat="44.59691" lon="3.48736">
        <ele>1139.0616</ele>
        <time>2022-01-19T18:48:27Z</time>
      </trkpt>
      <trkpt lat="44.59692" lon="3.48735">
        <ele>1140.1028</ele>
        <time>2022-01-19T18:48:28Z</time>
      </trkpt>
      <trkpt lat="44.59694" lon="3.48735">
        <ele>1139.9971</ele>
        <time>2022-01-19T18:48:29Z</time>
      </trkpt>
      <trkpt lat="44.59695" lon="3.48734">
        <ele>1139.5267</ele>
        <time>2022-01-19T18:48:30Z</time>
      </trkpt>
      <trkpt lat="44.59697" lon="3.48733">
        <ele>1139.511</ele>
        <time>2022-01-19T18:48:31Z</time>
      </trkpt>
      <trkpt lat="44.59698" lon="3.48732">
        <ele>1139.4739</ele>
        <time>2022-01-19T18:48:32Z</time>
      </trkpt>
      <trkpt lat="44.59699" lon="3.48732">
        <ele>1139.5743</ele>
        <time>2022-01-19T18:48:33Z</time>
      </trkpt>
      <trkpt lat="44.597" lon="3.48731">
        <ele>1139.7858</ele>
        <time>2022-01-19T18:48:34Z</time>
      </trkpt>
      <trkpt lat="44.59702" lon="3.48731">
        <ele>1139.8809</ele>
        <time>2022-01-19T18:48:35Z</time>
      </trkpt>
      <trkpt lat="44.59703" lon="3.4873">
        <ele>1139.8333</ele>
        <time>2022-01-19T18:48:36Z</time>
      </trkpt>
      <trkpt lat="44.59704" lon="3.48729">
        <ele>1139.9126</ele>
        <time>2022-01-19T18:48:37Z</time>
      </trkpt>
      <trkpt lat="44.59705" lon="3.48729">
        <ele>1140.0288</ele>
        <time>2022-01-19T18:48:38Z</time>
      </trkpt>
      <trkpt lat="44.59707" lon="3.48728">
        <ele>1140.2402</ele>
        <time>2022-01-19T18:48:39Z</time>
      </trkpt>
      <trkpt lat="44.59708" lon="3.48728">
        <ele>1140.3142</ele>
        <time>2022-01-19T18:48:40Z</time>
      </trkpt>
      <trkpt lat="44.59709" lon="3.48727">
        <ele>1140.4728</ele>
        <time>2022-01-19T18:48:41Z</time>
      </trkpt>
      <trkpt lat="44.5971" lon="3.48726">
        <ele>1140.441</ele>
        <time>2022-01-19T18:48:42Z</time>
      </trkpt>
      <trkpt lat="44.59712" lon="3.48725">
        <ele>1140.5203</ele>
        <time>2022-01-19T18:48:43Z</time>
      </trkpt>
      <trkpt lat="44.59713" lon="3.48724">
        <ele>1140.5679</ele>
        <time>2022-01-19T18:48:44Z</time>
      </trkpt>
      <trkpt lat="44.59714" lon="3.48723">
        <ele>1140.6418</ele>
        <time>2022-01-19T18:48:45Z</time>
      </trkpt>
      <trkpt lat="44.59715" lon="3.48722">
        <ele>1140.6841</ele>
        <time>2022-01-19T18:48:46Z</time>
      </trkpt>
      <trkpt lat="44.59716" lon="3.48722">
        <ele>1140.8743</ele>
        <time>2022-01-19T18:48:47Z</time>
      </trkpt>
      <trkpt lat="44.59717" lon="3.48721">
        <ele>1140.8849</ele>
        <time>2022-01-19T18:48:48Z</time>
      </trkpt>
      <trkpt lat="44.59718" lon="3.4872">
        <ele>1141.0065</ele>
        <time>2022-01-19T18:48:49Z</time>
      </trkpt>
      <trkpt lat="44.5972" lon="3.48719">
        <ele>1141.0646</ele>
        <time>2022-01-19T18:48:50Z</time>
      </trkpt>
      <trkpt lat="44.59721" lon="3.48719">
        <ele>1141.1862</ele>
        <time>2022-01-19T18:48:51Z</time>
      </trkpt>
      <trkpt lat="44.59722" lon="3.48718">
        <ele>1141.2549</ele>
        <time>2022-01-19T18:48:52Z</time>
      </trkpt>
      <trkpt lat="44.59723" lon="3.48717">
        <ele>1141.276</ele>
        <time>2022-01-19T18:48:53Z</time>
      </trkpt>
      <trkpt lat="44.59724" lon="3.48716">
        <ele>1141.3763</ele>
        <time>2022-01-19T18:48:54Z</time>
      </trkpt>
      <trkpt lat="44.59726" lon="3.48715">
        <ele>1141.3711</ele>
        <time>2022-01-19T18:48:55Z</time>
      </trkpt>
      <trkpt lat="44.59727" lon="3.48715">
        <ele>1141.4503</ele>
        <time>2022-01-19T18:48:56Z</time>
      </trkpt>
      <trkpt lat="44.59728" lon="3.48714">
        <ele>1141.3976</ele>
        <time>2022-01-19T18:48:57Z</time>
      </trkpt>
      <trkpt lat="44.59729" lon="3.48714">
        <ele>1141.5402</ele>
        <time>2022-01-19T18:48:58Z</time>
      </trkpt>
      <trkpt lat="44.59731" lon="3.48713">
        <ele>1141.8097</ele>
        <time>2022-01-19T18:48:59Z</time>
      </trkpt>
      <trkpt lat="44.59732" lon="3.48712">
        <ele>1141.6987</ele>
        <time>2022-01-19T18:49:00Z</time>
      </trkpt>
      <trkpt lat="44.59733" lon="3.48711">
        <ele>1141.794</ele>
        <time>2022-01-19T18:49:01Z</time>
      </trkpt>
      <trkpt lat="44.59734" lon="3.48711">
        <ele>1141.9102</ele>
        <time>2022-01-19T18:49:02Z</time>
      </trkpt>
      <trkpt lat="44.59735" lon="3.4871">
        <ele>1141.9208</ele>
        <time>2022-01-19T18:49:03Z</time>
      </trkpt>
      <trkpt lat="44.59737" lon="3.48709">
        <ele>1142.0529</ele>
        <time>2022-01-19T18:49:04Z</time>
      </trkpt>
      <trkpt lat="44.59738" lon="3.48708">
        <ele>1142.1373</ele>
        <time>2022-01-19T18:49:05Z</time>
      </trkpt>
      <trkpt lat="44.5974" lon="3.48708">
        <ele>1142</ele>
        <time>2022-01-19T18:49:06Z</time>
      </trkpt>
      <trkpt lat="44.59741" lon="3.48707">
        <ele>1142.1691</ele>
        <time>2022-01-19T18:49:07Z</time>
      </trkpt>
      <trkpt lat="44.59742" lon="3.48706">
        <ele>1142.3224</ele>
        <time>2022-01-19T18:49:08Z</time>
      </trkpt>
      <trkpt lat="44.59744" lon="3.48705">
        <ele>1142.2589</ele>
        <time>2022-01-19T18:49:09Z</time>
      </trkpt>
      <trkpt lat="44.59745" lon="3.48704">
        <ele>1142.4862</ele>
        <time>2022-01-19T18:49:10Z</time>
      </trkpt>
      <trkpt lat="44.59746" lon="3.48704">
        <ele>1142.6235</ele>
        <time>2022-01-19T18:49:11Z</time>
      </trkpt>
      <trkpt lat="44.59747" lon="3.48703">
        <ele>1142.6289</ele>
        <time>2022-01-19T18:49:12Z</time>
      </trkpt>
      <trkpt lat="44.59749" lon="3.48702">
        <ele>1142.6342</ele>
        <time>2022-01-19T18:49:13Z</time>
      </trkpt>
      <trkpt lat="44.5975" lon="3.48701">
        <ele>1142.9037</ele>
        <time>2022-01-19T18:49:14Z</time>
      </trkpt>
      <trkpt lat="44.59752" lon="3.487">
        <ele>1142.872</ele>
        <time>2022-01-19T18:49:15Z</time>
      </trkpt>
      <trkpt lat="44.59753" lon="3.487">
        <ele>1142.9142</ele>
        <time>2022-01-19T18:49:16Z</time>
      </trkpt>
      <trkpt lat="44.59754" lon="3.48699">
        <ele>1142.9142</ele>
        <time>2022-01-19T18:49:17Z</time>
      </trkpt>
      <trkpt lat="44.59756" lon="3.48699">
        <ele>1142.9512</ele>
        <time>2022-01-19T18:49:18Z</time>
      </trkpt>
      <trkpt lat="44.59757" lon="3.48699">
        <ele>1143.0569</ele>
        <time>2022-01-19T18:49:19Z</time>
      </trkpt>
      <trkpt lat="44.59759" lon="3.48699">
        <ele>1143.0358</ele>
        <time>2022-01-19T18:49:20Z</time>
      </trkpt>
      <trkpt lat="44.5976" lon="3.48699">
        <ele>1143.0516</ele>
        <time>2022-01-19T18:49:21Z</time>
      </trkpt>
      <trkpt lat="44.59761" lon="3.48699">
        <ele>1143.1309</ele>
        <time>2022-01-19T18:49:22Z</time>
      </trkpt>
      <trkpt lat="44.59763" lon="3.48698">
        <ele>1143.0728</ele>
        <time>2022-01-19T18:49:23Z</time>
      </trkpt>
      <trkpt lat="44.59764" lon="3.48698">
        <ele>1143.1732</ele>
        <time>2022-01-19T18:49:24Z</time>
      </trkpt>
      <trkpt lat="44.59765" lon="3.48698">
        <ele>1143.1573</ele>
        <time>2022-01-19T18:49:25Z</time>
      </trkpt>
      <trkpt lat="44.59766" lon="3.48699">
        <ele>1143.2472</ele>
        <time>2022-01-19T18:49:26Z</time>
      </trkpt>
      <trkpt lat="44.59768" lon="3.48698">
        <ele>1143.3053</ele>
        <time>2022-01-19T18:49:27Z</time>
      </trkpt>
      <trkpt lat="44.5977" lon="3.48698">
        <ele>1143.3582</ele>
        <time>2022-01-19T18:49:28Z</time>
      </trkpt>
      <trkpt lat="44.59771" lon="3.48698">
        <ele>1143.3053</ele>
        <time>2022-01-19T18:49:29Z</time>
      </trkpt>
      <trkpt lat="44.59773" lon="3.48697">
        <ele>1143.374</ele>
        <time>2022-01-19T18:49:30Z</time>
      </trkpt>
      <trkpt lat="44.59773" lon="3.48697">
        <ele>1143.5483</ele>
        <time>2022-01-19T18:49:31Z</time>
      </trkpt>
      <trkpt lat="44.59774" lon="3.48696">
        <ele>1143.4797</ele>
        <time>2022-01-19T18:49:32Z</time>
      </trkpt>
      <trkpt lat="44.59776" lon="3.48696">
        <ele>1143.6382</ele>
        <time>2022-01-19T18:49:33Z</time>
      </trkpt>
      <trkpt lat="44.59777" lon="3.48696">
        <ele>1143.7017</ele>
        <time>2022-01-19T18:49:34Z</time>
      </trkpt>
      <trkpt lat="44.59779" lon="3.48695">
        <ele>1143.5431</ele>
        <time>2022-01-19T18:49:35Z</time>
      </trkpt>
      <trkpt lat="44.5978" lon="3.48694">
        <ele>1143.6066</ele>
        <time>2022-01-19T18:49:36Z</time>
      </trkpt>
      <trkpt lat="44.59782" lon="3.48694">
        <ele>1143.728</ele>
        <time>2022-01-19T18:49:37Z</time>
      </trkpt>
      <trkpt lat="44.59783" lon="3.48694">
        <ele>1143.7386</ele>
        <time>2022-01-19T18:49:38Z</time>
      </trkpt>
      <trkpt lat="44.59784" lon="3.48693">
        <ele>1143.765</ele>
        <time>2022-01-19T18:49:39Z</time>
      </trkpt>
      <trkpt lat="44.59786" lon="3.48693">
        <ele>1143.8655</ele>
        <time>2022-01-19T18:49:40Z</time>
      </trkpt>
      <trkpt lat="44.59787" lon="3.48692">
        <ele>1143.8866</ele>
        <time>2022-01-19T18:49:41Z</time>
      </trkpt>
      <trkpt lat="44.59788" lon="3.48692">
        <ele>1143.8707</ele>
        <time>2022-01-19T18:49:42Z</time>
      </trkpt>
      <trkpt lat="44.5979" lon="3.48691">
        <ele>1144.0029</ele>
        <time>2022-01-19T18:49:43Z</time>
      </trkpt>
      <trkpt lat="44.59791" lon="3.48691">
        <ele>1144.1456</ele>
        <time>2022-01-19T18:49:44Z</time>
      </trkpt>
      <trkpt lat="44.59792" lon="3.4869">
        <ele>1144.024</ele>
        <time>2022-01-19T18:49:45Z</time>
      </trkpt>
      <trkpt lat="44.59794" lon="3.4869">
        <ele>1144.0504</ele>
        <time>2022-01-19T18:49:46Z</time>
      </trkpt>
      <trkpt lat="44.59795" lon="3.48689">
        <ele>1144.1296</ele>
        <time>2022-01-19T18:49:47Z</time>
      </trkpt>
      <trkpt lat="44.59797" lon="3.48689">
        <ele>1144.2037</ele>
        <time>2022-01-19T18:49:48Z</time>
      </trkpt>
      <trkpt lat="44.59799" lon="3.48689">
        <ele>1144.2406</ele>
        <time>2022-01-19T18:49:49Z</time>
      </trkpt>
      <trkpt lat="44.598" lon="3.48689">
        <ele>1144.3411</ele>
        <time>2022-01-19T18:49:50Z</time>
      </trkpt>
      <trkpt lat="44.59802" lon="3.48688">
        <ele>1144.2301</ele>
        <time>2022-01-19T18:49:51Z</time>
      </trkpt>
      <trkpt lat="44.59803" lon="3.48688">
        <ele>1144.2671</ele>
        <time>2022-01-19T18:49:52Z</time>
      </trkpt>
      <trkpt lat="44.59805" lon="3.48688">
        <ele>1144.3833</ele>
        <time>2022-01-19T18:49:53Z</time>
      </trkpt>
      <trkpt lat="44.59806" lon="3.48688">
        <ele>1144.4574</ele>
        <time>2022-01-19T18:49:54Z</time>
      </trkpt>
      <trkpt lat="44.59808" lon="3.48688">
        <ele>1144.3674</ele>
        <time>2022-01-19T18:49:55Z</time>
      </trkpt>
      <trkpt lat="44.59809" lon="3.48688">
        <ele>1144.4415</ele>
        <time>2022-01-19T18:49:56Z</time>
      </trkpt>
      <trkpt lat="44.59811" lon="3.48688">
        <ele>1144.5419</ele>
        <time>2022-01-19T18:49:57Z</time>
      </trkpt>
      <trkpt lat="44.59812" lon="3.48688">
        <ele>1144.5736</ele>
        <time>2022-01-19T18:49:58Z</time>
      </trkpt>
      <trkpt lat="44.59813" lon="3.48688">
        <ele>1144.5736</ele>
        <time>2022-01-19T18:49:59Z</time>
      </trkpt>
      <trkpt lat="44.59815" lon="3.48687">
        <ele>1144.6212</ele>
        <time>2022-01-19T18:50:00Z</time>
      </trkpt>
      <trkpt lat="44.59816" lon="3.48687">
        <ele>1144.7216</ele>
        <time>2022-01-19T18:50:01Z</time>
      </trkpt>
      <trkpt lat="44.59818" lon="3.48687">
        <ele>1144.6106</ele>
        <time>2022-01-19T18:50:02Z</time>
      </trkpt>
      <trkpt lat="44.59819" lon="3.48686">
        <ele>1144.859</ele>
        <time>2022-01-19T18:50:03Z</time>
      </trkpt>
      <trkpt lat="44.59821" lon="3.48686">
        <ele>1144.896</ele>
        <time>2022-01-19T18:50:04Z</time>
      </trkpt>
      <trkpt lat="44.59823" lon="3.48686">
        <ele>1144.8907</ele>
        <time>2022-01-19T18:50:05Z</time>
      </trkpt>
      <trkpt lat="44.59824" lon="3.48685">
        <ele>1144.9224</ele>
        <time>2022-01-19T18:50:06Z</time>
      </trkpt>
      <trkpt lat="44.59826" lon="3.48686">
        <ele>1144.8801</ele>
        <time>2022-01-19T18:50:07Z</time>
      </trkpt>
      <trkpt lat="44.59827" lon="3.48685">
        <ele>1144.9382</ele>
        <time>2022-01-19T18:50:08Z</time>
      </trkpt>
      <trkpt lat="44.59829" lon="3.48685">
        <ele>1144.9541</ele>
        <time>2022-01-19T18:50:09Z</time>
      </trkpt>
      <trkpt lat="44.5983" lon="3.48685">
        <ele>1144.9594</ele>
        <time>2022-01-19T18:50:10Z</time>
      </trkpt>
      <trkpt lat="44.59832" lon="3.48685">
        <ele>1145.1125</ele>
        <time>2022-01-19T18:50:11Z</time>
      </trkpt>
      <trkpt lat="44.59833" lon="3.48684">
        <ele>1145.1125</ele>
        <time>2022-01-19T18:50:12Z</time>
      </trkpt>
      <trkpt lat="44.59835" lon="3.48684">
        <ele>1145.0176</ele>
        <time>2022-01-19T18:50:13Z</time>
      </trkpt>
      <trkpt lat="44.59836" lon="3.48684">
        <ele>1145.139</ele>
        <time>2022-01-19T18:50:14Z</time>
      </trkpt>
      <trkpt lat="44.59838" lon="3.48684">
        <ele>1145.1338</ele>
        <time>2022-01-19T18:50:15Z</time>
      </trkpt>
      <trkpt lat="44.59839" lon="3.48684">
        <ele>1145.1285</ele>
        <time>2022-01-19T18:50:16Z</time>
      </trkpt>
      <trkpt lat="44.5984" lon="3.48684">
        <ele>1145.1655</ele>
        <time>2022-01-19T18:50:17Z</time>
      </trkpt>
      <trkpt lat="44.59842" lon="3.48684">
        <ele>1145.4086</ele>
        <time>2022-01-19T18:50:18Z</time>
      </trkpt>
      <trkpt lat="44.59843" lon="3.48684">
        <ele>1145.4032</ele>
        <time>2022-01-19T18:50:19Z</time>
      </trkpt>
      <trkpt lat="44.59844" lon="3.48684">
        <ele>1145.3768</ele>
        <time>2022-01-19T18:50:20Z</time>
      </trkpt>
      <trkpt lat="44.59846" lon="3.48684">
        <ele>1145.5037</ele>
        <time>2022-01-19T18:50:21Z</time>
      </trkpt>
      <trkpt lat="44.59847" lon="3.48684">
        <ele>1145.3187</ele>
        <time>2022-01-19T18:50:22Z</time>
      </trkpt>
      <trkpt lat="44.59848" lon="3.48684">
        <ele>1145.3187</ele>
        <time>2022-01-19T18:50:23Z</time>
      </trkpt>
      <trkpt lat="44.5985" lon="3.48684">
        <ele>1145.3821</ele>
        <time>2022-01-19T18:50:24Z</time>
      </trkpt>
      <trkpt lat="44.59852" lon="3.48684">
        <ele>1145.4667</ele>
        <time>2022-01-19T18:50:25Z</time>
      </trkpt>
      <trkpt lat="44.59853" lon="3.48684">
        <ele>1145.4825</ele>
        <time>2022-01-19T18:50:26Z</time>
      </trkpt>
      <trkpt lat="44.59855" lon="3.48684">
        <ele>1145.4244</ele>
        <time>2022-01-19T18:50:27Z</time>
      </trkpt>
      <trkpt lat="44.59856" lon="3.48683">
        <ele>1145.5037</ele>
        <time>2022-01-19T18:50:28Z</time>
      </trkpt>
      <trkpt lat="44.59858" lon="3.48683">
        <ele>1145.6305</ele>
        <time>2022-01-19T18:50:29Z</time>
      </trkpt>
      <trkpt lat="44.5986" lon="3.48683">
        <ele>1146.2964</ele>
        <time>2022-01-19T18:50:30Z</time>
      </trkpt>
      <trkpt lat="44.59861" lon="3.48683">
        <ele>1145.826</ele>
        <time>2022-01-19T18:50:31Z</time>
      </trkpt>
      <trkpt lat="44.59863" lon="3.48683">
        <ele>1145.694</ele>
        <time>2022-01-19T18:50:32Z</time>
      </trkpt>
      <trkpt lat="44.59864" lon="3.48683">
        <ele>1145.6516</ele>
        <time>2022-01-19T18:50:33Z</time>
      </trkpt>
      <trkpt lat="44.59865" lon="3.48683">
        <ele>1145.7203</ele>
        <time>2022-01-19T18:50:34Z</time>
      </trkpt>
      <trkpt lat="44.59866" lon="3.48682">
        <ele>1145.7627</ele>
        <time>2022-01-19T18:50:35Z</time>
      </trkpt>
      <trkpt lat="44.59868" lon="3.48682">
        <ele>1145.8049</ele>
        <time>2022-01-19T18:50:36Z</time>
      </trkpt>
      <trkpt lat="44.59869" lon="3.48682">
        <ele>1145.6887</ele>
        <time>2022-01-19T18:50:37Z</time>
      </trkpt>
      <trkpt lat="44.59871" lon="3.48682">
        <ele>1145.731</ele>
        <time>2022-01-19T18:50:38Z</time>
      </trkpt>
      <trkpt lat="44.59872" lon="3.48682">
        <ele>1145.7415</ele>
        <time>2022-01-19T18:50:39Z</time>
      </trkpt>
      <trkpt lat="44.59874" lon="3.48682">
        <ele>1145.7943</ele>
        <time>2022-01-19T18:50:40Z</time>
      </trkpt>
      <trkpt lat="44.59876" lon="3.48682">
        <ele>1145.7996</ele>
        <time>2022-01-19T18:50:41Z</time>
      </trkpt>
      <trkpt lat="44.59877" lon="3.48682">
        <ele>1145.937</ele>
        <time>2022-01-19T18:50:42Z</time>
      </trkpt>
      <trkpt lat="44.59879" lon="3.48682">
        <ele>1145.9106</ele>
        <time>2022-01-19T18:50:43Z</time>
      </trkpt>
      <trkpt lat="44.5988" lon="3.48683">
        <ele>1145.8789</ele>
        <time>2022-01-19T18:50:44Z</time>
      </trkpt>
      <trkpt lat="44.59882" lon="3.48683">
        <ele>1145.8948</ele>
        <time>2022-01-19T18:50:45Z</time>
      </trkpt>
      <trkpt lat="44.59884" lon="3.48683">
        <ele>1145.9529</ele>
        <time>2022-01-19T18:50:46Z</time>
      </trkpt>
      <trkpt lat="44.59885" lon="3.48683">
        <ele>1145.8948</ele>
        <time>2022-01-19T18:50:47Z</time>
      </trkpt>
      <trkpt lat="44.59887" lon="3.48683">
        <ele>1145.9899</ele>
        <time>2022-01-19T18:50:48Z</time>
      </trkpt>
      <trkpt lat="44.59889" lon="3.48683">
        <ele>1145.9899</ele>
        <time>2022-01-19T18:50:49Z</time>
      </trkpt>
      <trkpt lat="44.5989" lon="3.48683">
        <ele>1145.9529</ele>
        <time>2022-01-19T18:50:50Z</time>
      </trkpt>
      <trkpt lat="44.59892" lon="3.48683">
        <ele>1145.9106</ele>
        <time>2022-01-19T18:50:51Z</time>
      </trkpt>
      <trkpt lat="44.59893" lon="3.48683">
        <ele>1145.8789</ele>
        <time>2022-01-19T18:50:52Z</time>
      </trkpt>
      <trkpt lat="44.59895" lon="3.48683">
        <ele>1145.7784</ele>
        <time>2022-01-19T18:50:53Z</time>
      </trkpt>
      <trkpt lat="44.59896" lon="3.48684">
        <ele>1145.9318</ele>
        <time>2022-01-19T18:50:54Z</time>
      </trkpt>
      <trkpt lat="44.59897" lon="3.48683">
        <ele>1145.9952</ele>
        <time>2022-01-19T18:50:55Z</time>
      </trkpt>
      <trkpt lat="44.59898" lon="3.48683">
        <ele>1145.9529</ele>
        <time>2022-01-19T18:50:56Z</time>
      </trkpt>
      <trkpt lat="44.599" lon="3.48683">
        <ele>1145.9106</ele>
        <time>2022-01-19T18:50:57Z</time>
      </trkpt>
      <trkpt lat="44.59901" lon="3.48683">
        <ele>1145.8472</ele>
        <time>2022-01-19T18:50:58Z</time>
      </trkpt>
      <trkpt lat="44.59903" lon="3.48684">
        <ele>1145.8684</ele>
        <time>2022-01-19T18:50:59Z</time>
      </trkpt>
      <trkpt lat="44.59905" lon="3.48684">
        <ele>1145.9318</ele>
        <time>2022-01-19T18:51:00Z</time>
      </trkpt>
      <trkpt lat="44.59906" lon="3.48684">
        <ele>1145.7943</ele>
        <time>2022-01-19T18:51:01Z</time>
      </trkpt>
      <trkpt lat="44.59907" lon="3.48684">
        <ele>1145.8208</ele>
        <time>2022-01-19T18:51:02Z</time>
      </trkpt>
      <trkpt lat="44.59908" lon="3.48684">
        <ele>1145.8525</ele>
        <time>2022-01-19T18:51:03Z</time>
      </trkpt>
      <trkpt lat="44.59909" lon="3.48684">
        <ele>1145.9</ele>
        <time>2022-01-19T18:51:04Z</time>
      </trkpt>
      <trkpt lat="44.59911" lon="3.48684">
        <ele>1145.768</ele>
        <time>2022-01-19T18:51:05Z</time>
      </trkpt>
      <trkpt lat="44.59913" lon="3.48684">
        <ele>1145.6464</ele>
        <time>2022-01-19T18:51:06Z</time>
      </trkpt>
      <trkpt lat="44.59914" lon="3.48684">
        <ele>1145.6675</ele>
        <time>2022-01-19T18:51:07Z</time>
      </trkpt>
      <trkpt lat="44.59916" lon="3.48684">
        <ele>1145.6992</ele>
        <time>2022-01-19T18:51:08Z</time>
      </trkpt>
      <trkpt lat="44.59917" lon="3.48684">
        <ele>1145.768</ele>
        <time>2022-01-19T18:51:09Z</time>
      </trkpt>
      <trkpt lat="44.59919" lon="3.48684">
        <ele>1145.731</ele>
        <time>2022-01-19T18:51:10Z</time>
      </trkpt>
      <trkpt lat="44.5992" lon="3.48684">
        <ele>1145.6833</ele>
        <time>2022-01-19T18:51:11Z</time>
      </trkpt>
      <trkpt lat="44.59922" lon="3.48684">
        <ele>1145.7098</ele>
        <time>2022-01-19T18:51:12Z</time>
      </trkpt>
      <trkpt lat="44.59923" lon="3.48684">
        <ele>1145.6411</ele>
        <time>2022-01-19T18:51:13Z</time>
      </trkpt>
      <trkpt lat="44.59924" lon="3.48685">
        <ele>1145.5671</ele>
        <time>2022-01-19T18:51:14Z</time>
      </trkpt>
      <trkpt lat="44.59926" lon="3.48684">
        <ele>1145.5195</ele>
        <time>2022-01-19T18:51:15Z</time>
      </trkpt>
      <trkpt lat="44.59928" lon="3.48684">
        <ele>1145.472</ele>
        <time>2022-01-19T18:51:16Z</time>
      </trkpt>
      <trkpt lat="44.59929" lon="3.48684">
        <ele>1145.4614</ele>
        <time>2022-01-19T18:51:17Z</time>
      </trkpt>
      <trkpt lat="44.5993" lon="3.48684">
        <ele>1145.2817</ele>
        <time>2022-01-19T18:51:18Z</time>
      </trkpt>
      <trkpt lat="44.59932" lon="3.48685">
        <ele>1145.361</ele>
        <time>2022-01-19T18:51:19Z</time>
      </trkpt>
      <trkpt lat="44.59934" lon="3.48685">
        <ele>1145.1971</ele>
        <time>2022-01-19T18:51:20Z</time>
      </trkpt>
      <trkpt lat="44.59935" lon="3.48685">
        <ele>1145.0862</ele>
        <time>2022-01-19T18:51:21Z</time>
      </trkpt>
      <trkpt lat="44.59937" lon="3.48685">
        <ele>1145.0809</ele>
        <time>2022-01-19T18:51:22Z</time>
      </trkpt>
      <trkpt lat="44.59938" lon="3.48685">
        <ele>1145.0281</ele>
        <time>2022-01-19T18:51:23Z</time>
      </trkpt>
      <trkpt lat="44.5994" lon="3.48685">
        <ele>1144.9012</ele>
        <time>2022-01-19T18:51:24Z</time>
      </trkpt>
      <trkpt lat="44.59942" lon="3.48685">
        <ele>1144.8114</ele>
        <time>2022-01-19T18:51:25Z</time>
      </trkpt>
      <trkpt lat="44.59943" lon="3.48685">
        <ele>1144.7057</ele>
        <time>2022-01-19T18:51:26Z</time>
      </trkpt>
      <trkpt lat="44.59945" lon="3.48685">
        <ele>1144.5471</ele>
        <time>2022-01-19T18:51:27Z</time>
      </trkpt>
      <trkpt lat="44.59946" lon="3.48685">
        <ele>1144.5471</ele>
        <time>2022-01-19T18:51:28Z</time>
      </trkpt>
      <trkpt lat="44.59948" lon="3.48684">
        <ele>1144.415</ele>
        <time>2022-01-19T18:51:29Z</time>
      </trkpt>
      <trkpt lat="44.59949" lon="3.48684">
        <ele>1144.3569</ele>
        <time>2022-01-19T18:51:30Z</time>
      </trkpt>
      <trkpt lat="44.59951" lon="3.48684">
        <ele>1144.1667</ele>
        <time>2022-01-19T18:51:31Z</time>
      </trkpt>
      <trkpt lat="44.59951" lon="3.48684">
        <ele>1144.1296</ele>
        <time>2022-01-19T18:51:32Z</time>
      </trkpt>
      <trkpt lat="44.59953" lon="3.48684">
        <ele>1143.9288</ele>
        <time>2022-01-19T18:51:33Z</time>
      </trkpt>
      <trkpt lat="44.59955" lon="3.48684">
        <ele>1143.7598</ele>
        <time>2022-01-19T18:51:34Z</time>
      </trkpt>
      <trkpt lat="44.59956" lon="3.48684">
        <ele>1143.7545</ele>
        <time>2022-01-19T18:51:35Z</time>
      </trkpt>
      <trkpt lat="44.59957" lon="3.48684">
        <ele>1143.7122</ele>
        <time>2022-01-19T18:51:36Z</time>
      </trkpt>
      <trkpt lat="44.59958" lon="3.48683">
        <ele>1143.5854</ele>
        <time>2022-01-19T18:51:37Z</time>
      </trkpt>
      <trkpt lat="44.5996" lon="3.48683">
        <ele>1143.5325</ele>
        <time>2022-01-19T18:51:38Z</time>
      </trkpt>
      <trkpt lat="44.59961" lon="3.48683">
        <ele>1143.3</ele>
        <time>2022-01-19T18:51:39Z</time>
      </trkpt>
      <trkpt lat="44.59963" lon="3.48684">
        <ele>1143.1097</ele>
        <time>2022-01-19T18:51:40Z</time>
      </trkpt>
      <trkpt lat="44.59964" lon="3.48684">
        <ele>1143.0834</ele>
        <time>2022-01-19T18:51:41Z</time>
      </trkpt>
      <trkpt lat="44.59966" lon="3.48684">
        <ele>1142.9407</ele>
        <time>2022-01-19T18:51:42Z</time>
      </trkpt>
      <trkpt lat="44.59968" lon="3.48684">
        <ele>1142.8666</ele>
        <time>2022-01-19T18:51:43Z</time>
      </trkpt>
      <trkpt lat="44.59969" lon="3.48683">
        <ele>1142.8455</ele>
        <time>2022-01-19T18:51:44Z</time>
      </trkpt>
      <trkpt lat="44.59971" lon="3.48683">
        <ele>1142.7927</ele>
        <time>2022-01-19T18:51:45Z</time>
      </trkpt>
      <trkpt lat="44.59973" lon="3.48683">
        <ele>1142.724</ele>
        <time>2022-01-19T18:51:46Z</time>
      </trkpt>
      <trkpt lat="44.59975" lon="3.48683">
        <ele>1142.5654</ele>
        <time>2022-01-19T18:51:47Z</time>
      </trkpt>
      <trkpt lat="44.59976" lon="3.48682">
        <ele>1142.4386</ele>
        <time>2022-01-19T18:51:48Z</time>
      </trkpt>
      <trkpt lat="44.59978" lon="3.48682">
        <ele>1142.4175</ele>
        <time>2022-01-19T18:51:49Z</time>
      </trkpt>
      <trkpt lat="44.59979" lon="3.48682">
        <ele>1142.1638</ele>
        <time>2022-01-19T18:51:50Z</time>
      </trkpt>
      <trkpt lat="44.59981" lon="3.48682">
        <ele>1141.9841</ele>
        <time>2022-01-19T18:51:51Z</time>
      </trkpt>
      <trkpt lat="44.59982" lon="3.48682">
        <ele>1141.8943</ele>
        <time>2022-01-19T18:51:52Z</time>
      </trkpt>
      <trkpt lat="44.59983" lon="3.48682">
        <ele>1141.9683</ele>
        <time>2022-01-19T18:51:53Z</time>
      </trkpt>
      <trkpt lat="44.59985" lon="3.48681">
        <ele>1141.794</ele>
        <time>2022-01-19T18:51:54Z</time>
      </trkpt>
      <trkpt lat="44.59986" lon="3.48681">
        <ele>1141.6829</ele>
        <time>2022-01-19T18:51:55Z</time>
      </trkpt>
      <trkpt lat="44.59987" lon="3.48681">
        <ele>1141.6617</ele>
        <time>2022-01-19T18:51:56Z</time>
      </trkpt>
      <trkpt lat="44.59989" lon="3.48681">
        <ele>1141.6248</ele>
        <time>2022-01-19T18:51:57Z</time>
      </trkpt>
      <trkpt lat="44.5999" lon="3.48681">
        <ele>1141.5349</ele>
        <time>2022-01-19T18:51:58Z</time>
      </trkpt>
      <trkpt lat="44.59991" lon="3.48681">
        <ele>1141.3182</ele>
        <time>2022-01-19T18:51:59Z</time>
      </trkpt>
      <trkpt lat="44.59992" lon="3.48681">
        <ele>1141.0752</ele>
        <time>2022-01-19T18:52:00Z</time>
      </trkpt>
      <trkpt lat="44.59993" lon="3.48681">
        <ele>1140.8901</ele>
        <time>2022-01-19T18:52:01Z</time>
      </trkpt>
      <trkpt lat="44.59995" lon="3.48681">
        <ele>1140.8427</ele>
        <time>2022-01-19T18:52:02Z</time>
      </trkpt>
      <trkpt lat="44.59995" lon="3.48681">
        <ele>1140.6788</ele>
        <time>2022-01-19T18:52:03Z</time>
      </trkpt>
      <trkpt lat="44.59996" lon="3.48681">
        <ele>1140.441</ele>
        <time>2022-01-19T18:52:04Z</time>
      </trkpt>
      <trkpt lat="44.59996" lon="3.48681">
        <ele>1140.1926</ele>
        <time>2022-01-19T18:52:05Z</time>
      </trkpt>
      <trkpt lat="44.59998" lon="3.4868">
        <ele>1139.8491</ele>
        <time>2022-01-19T18:52:06Z</time>
      </trkpt>
      <trkpt lat="44.59999" lon="3.48679">
        <ele>1139.6272</ele>
        <time>2022-01-19T18:52:07Z</time>
      </trkpt>
      <trkpt lat="44.6" lon="3.48679">
        <ele>1139.289</ele>
        <time>2022-01-19T18:52:08Z</time>
      </trkpt>
      <trkpt lat="44.60001" lon="3.48679">
        <ele>1139.0881</ele>
        <time>2022-01-19T18:52:09Z</time>
      </trkpt>
      <trkpt lat="44.60002" lon="3.48678">
        <ele>1138.7657</ele>
        <time>2022-01-19T18:52:10Z</time>
      </trkpt>
      <trkpt lat="44.60003" lon="3.48678">
        <ele>1138.4222</ele>
        <time>2022-01-19T18:52:11Z</time>
      </trkpt>
      <trkpt lat="44.60004" lon="3.48677">
        <ele>1138.1686</ele>
        <time>2022-01-19T18:52:12Z</time>
      </trkpt>
      <trkpt lat="44.60005" lon="3.48677">
        <ele>1138.0524</ele>
        <time>2022-01-19T18:52:13Z</time>
      </trkpt>
      <trkpt lat="44.60006" lon="3.48677">
        <ele>1137.6666</ele>
        <time>2022-01-19T18:52:14Z</time>
      </trkpt>
      <trkpt lat="44.60007" lon="3.48676">
        <ele>1137.4763</ele>
        <time>2022-01-19T18:52:15Z</time>
      </trkpt>
      <trkpt lat="44.60009" lon="3.48676">
        <ele>1137.1328</ele>
        <time>2022-01-19T18:52:16Z</time>
      </trkpt>
      <trkpt lat="44.6001" lon="3.48676">
        <ele>1136.9849</ele>
        <time>2022-01-19T18:52:17Z</time>
      </trkpt>
      <trkpt lat="44.60011" lon="3.48675">
        <ele>1136.6096</ele>
        <time>2022-01-19T18:52:18Z</time>
      </trkpt>
      <trkpt lat="44.60012" lon="3.48675">
        <ele>1136.4775</ele>
        <time>2022-01-19T18:52:19Z</time>
      </trkpt>
      <trkpt lat="44.60014" lon="3.48675">
        <ele>1136.2133</ele>
        <time>2022-01-19T18:52:20Z</time>
      </trkpt>
      <trkpt lat="44.60015" lon="3.48675">
        <ele>1136.0336</ele>
        <time>2022-01-19T18:52:21Z</time>
      </trkpt>
      <trkpt lat="44.60017" lon="3.48674">
        <ele>1135.6954</ele>
        <time>2022-01-19T18:52:22Z</time>
      </trkpt>
      <trkpt lat="44.60017" lon="3.48674">
        <ele>1135.5051</ele>
        <time>2022-01-19T18:52:23Z</time>
      </trkpt>
      <trkpt lat="44.60019" lon="3.48673">
        <ele>1135.1722</ele>
        <time>2022-01-19T18:52:24Z</time>
      </trkpt>
      <trkpt lat="44.6002" lon="3.48673">
        <ele>1135.0084</ele>
        <time>2022-01-19T18:52:25Z</time>
      </trkpt>
      <trkpt lat="44.60022" lon="3.48673">
        <ele>1134.8446</ele>
        <time>2022-01-19T18:52:26Z</time>
      </trkpt>
      <trkpt lat="44.60023" lon="3.48672">
        <ele>1134.6649</ele>
        <time>2022-01-19T18:52:27Z</time>
      </trkpt>
      <trkpt lat="44.60024" lon="3.48672">
        <ele>1134.6279</ele>
        <time>2022-01-19T18:52:28Z</time>
      </trkpt>
      <trkpt lat="44.60025" lon="3.48672">
        <ele>1134.5433</ele>
        <time>2022-01-19T18:52:29Z</time>
      </trkpt>
      <trkpt lat="44.60027" lon="3.48671">
        <ele>1134.4957</ele>
        <time>2022-01-19T18:52:30Z</time>
      </trkpt>
      <trkpt lat="44.60028" lon="3.48671">
        <ele>1135.0454</ele>
        <time>2022-01-19T18:52:31Z</time>
      </trkpt>
      <trkpt lat="44.60029" lon="3.4867">
        <ele>1134.0201</ele>
        <time>2022-01-19T18:52:32Z</time>
      </trkpt>
      <trkpt lat="44.6003" lon="3.4867">
        <ele>1133.7982</ele>
        <time>2022-01-19T18:52:33Z</time>
      </trkpt>
      <trkpt lat="44.60031" lon="3.48669">
        <ele>1133.571</ele>
        <time>2022-01-19T18:52:34Z</time>
      </trkpt>
      <trkpt lat="44.60032" lon="3.48669">
        <ele>1133.4019</ele>
        <time>2022-01-19T18:52:35Z</time>
      </trkpt>
      <trkpt lat="44.60033" lon="3.48669">
        <ele>1133.2803</ele>
        <time>2022-01-19T18:52:36Z</time>
      </trkpt>
      <trkpt lat="44.60035" lon="3.48669">
        <ele>1133.2698</ele>
        <time>2022-01-19T18:52:37Z</time>
      </trkpt>
      <trkpt lat="44.60036" lon="3.48668">
        <ele>1132.9526</ele>
        <time>2022-01-19T18:52:38Z</time>
      </trkpt>
      <trkpt lat="44.60037" lon="3.48668">
        <ele>1132.8945</ele>
        <time>2022-01-19T18:52:39Z</time>
      </trkpt>
      <trkpt lat="44.60039" lon="3.48667">
        <ele>1132.7413</ele>
        <time>2022-01-19T18:52:40Z</time>
      </trkpt>
      <trkpt lat="44.6004" lon="3.48667">
        <ele>1132.662</ele>
        <time>2022-01-19T18:52:41Z</time>
      </trkpt>
      <trkpt lat="44.60041" lon="3.48666">
        <ele>1132.4666</ele>
        <time>2022-01-19T18:52:42Z</time>
      </trkpt>
      <trkpt lat="44.60043" lon="3.48666">
        <ele>1132.3397</ele>
        <time>2022-01-19T18:52:43Z</time>
      </trkpt>
      <trkpt lat="44.60044" lon="3.48665">
        <ele>1132.197</ele>
        <time>2022-01-19T18:52:44Z</time>
      </trkpt>
      <trkpt lat="44.60045" lon="3.48664">
        <ele>1131.9169</ele>
        <time>2022-01-19T18:52:45Z</time>
      </trkpt>
      <trkpt lat="44.60047" lon="3.48663">
        <ele>1131.8218</ele>
        <time>2022-01-19T18:52:46Z</time>
      </trkpt>
      <trkpt lat="44.60048" lon="3.48663">
        <ele>1131.6262</ele>
        <time>2022-01-19T18:52:47Z</time>
      </trkpt>
      <trkpt lat="44.60049" lon="3.48662">
        <ele>1131.6316</ele>
        <time>2022-01-19T18:52:48Z</time>
      </trkpt>
      <trkpt lat="44.60051" lon="3.48661">
        <ele>1131.6104</ele>
        <time>2022-01-19T18:52:49Z</time>
      </trkpt>
      <trkpt lat="44.60052" lon="3.48661">
        <ele>1131.4465</ele>
        <time>2022-01-19T18:52:50Z</time>
      </trkpt>
      <trkpt lat="44.60053" lon="3.4866">
        <ele>1131.4307</ele>
        <time>2022-01-19T18:52:51Z</time>
      </trkpt>
      <trkpt lat="44.60055" lon="3.48659">
        <ele>1131.288</ele>
        <time>2022-01-19T18:52:52Z</time>
      </trkpt>
      <trkpt lat="44.60056" lon="3.48659">
        <ele>1131.1664</ele>
        <time>2022-01-19T18:52:53Z</time>
      </trkpt>
      <trkpt lat="44.60057" lon="3.48658">
        <ele>1131.1824</ele>
        <time>2022-01-19T18:52:54Z</time>
      </trkpt>
      <trkpt lat="44.60059" lon="3.48657">
        <ele>1131.3356</ele>
        <time>2022-01-19T18:52:55Z</time>
      </trkpt>
      <trkpt lat="44.6006" lon="3.48656">
        <ele>1131.3356</ele>
        <time>2022-01-19T18:52:56Z</time>
      </trkpt>
      <trkpt lat="44.60061" lon="3.48656">
        <ele>1131.4783</ele>
        <time>2022-01-19T18:52:57Z</time>
      </trkpt>
      <trkpt lat="44.60063" lon="3.48655">
        <ele>1131.3514</ele>
        <time>2022-01-19T18:52:58Z</time>
      </trkpt>
      <trkpt lat="44.60064" lon="3.48655">
        <ele>1131.3514</ele>
        <time>2022-01-19T18:52:59Z</time>
      </trkpt>
      <trkpt lat="44.60065" lon="3.48655">
        <ele>1131.4413</ele>
        <time>2022-01-19T18:53:00Z</time>
      </trkpt>
      <trkpt lat="44.60066" lon="3.48655">
        <ele>1131.6368</ele>
        <time>2022-01-19T18:53:01Z</time>
      </trkpt>
      <trkpt lat="44.60067" lon="3.48655">
        <ele>1131.6421</ele>
        <time>2022-01-19T18:53:02Z</time>
      </trkpt>
      <trkpt lat="44.60069" lon="3.48655">
        <ele>1131.8853</ele>
        <time>2022-01-19T18:53:03Z</time>
      </trkpt>
      <trkpt lat="44.6007" lon="3.48655">
        <ele>1131.9908</ele>
        <time>2022-01-19T18:53:04Z</time>
      </trkpt>
      <trkpt lat="44.60071" lon="3.48655">
        <ele>1132.5088</ele>
        <time>2022-01-19T18:53:05Z</time>
      </trkpt>
      <trkpt lat="44.60072" lon="3.48655">
        <ele>1132.6937</ele>
        <time>2022-01-19T18:53:06Z</time>
      </trkpt>
      <trkpt lat="44.60074" lon="3.48655">
        <ele>1132.773</ele>
        <time>2022-01-19T18:53:07Z</time>
      </trkpt>
      <trkpt lat="44.60075" lon="3.48655">
        <ele>1133.1693</ele>
        <time>2022-01-19T18:53:08Z</time>
      </trkpt>
      <trkpt lat="44.60075" lon="3.48655">
        <ele>1133.5234</ele>
        <time>2022-01-19T18:53:09Z</time>
      </trkpt>
      <trkpt lat="44.60077" lon="3.48655">
        <ele>1133.8035</ele>
        <time>2022-01-19T18:53:10Z</time>
      </trkpt>
      <trkpt lat="44.60078" lon="3.48656">
        <ele>1134.036</ele>
        <time>2022-01-19T18:53:11Z</time>
      </trkpt>
      <trkpt lat="44.60078" lon="3.48656">
        <ele>1134.3003</ele>
        <time>2022-01-19T18:53:12Z</time>
      </trkpt>
      <trkpt lat="44.60079" lon="3.48656">
        <ele>1134.443</ele>
        <time>2022-01-19T18:53:13Z</time>
      </trkpt>
      <trkpt lat="44.6008" lon="3.48656">
        <ele>1134.5433</ele>
        <time>2022-01-19T18:53:14Z</time>
      </trkpt>
      <trkpt lat="44.60081" lon="3.48657">
        <ele>1134.7284</ele>
        <time>2022-01-19T18:53:15Z</time>
      </trkpt>
      <trkpt lat="44.60082" lon="3.48657">
        <ele>1134.8129</ele>
        <time>2022-01-19T18:53:16Z</time>
      </trkpt>
      <trkpt lat="44.60083" lon="3.48657">
        <ele>1135.0507</ele>
        <time>2022-01-19T18:53:17Z</time>
      </trkpt>
      <trkpt lat="44.60084" lon="3.48657">
        <ele>1135.1616</ele>
        <time>2022-01-19T18:53:18Z</time>
      </trkpt>
      <trkpt lat="44.60085" lon="3.48657">
        <ele>1135.1934</ele>
        <time>2022-01-19T18:53:19Z</time>
      </trkpt>
      <trkpt lat="44.60086" lon="3.48657">
        <ele>1135.2356</ele>
        <time>2022-01-19T18:53:20Z</time>
      </trkpt>
      <trkpt lat="44.60087" lon="3.48657">
        <ele>1135.2356</ele>
        <time>2022-01-19T18:53:21Z</time>
      </trkpt>
      <trkpt lat="44.60089" lon="3.48657">
        <ele>1135.3783</ele>
        <time>2022-01-19T18:53:22Z</time>
      </trkpt>
      <trkpt lat="44.6009" lon="3.48657">
        <ele>1135.521</ele>
        <time>2022-01-19T18:53:23Z</time>
      </trkpt>
      <trkpt lat="44.60092" lon="3.48657">
        <ele>1135.5315</ele>
        <time>2022-01-19T18:53:24Z</time>
      </trkpt>
      <trkpt lat="44.60093" lon="3.48656">
        <ele>1135.6056</ele>
        <time>2022-01-19T18:53:25Z</time>
      </trkpt>
      <trkpt lat="44.60095" lon="3.48656">
        <ele>1135.5422</ele>
        <time>2022-01-19T18:53:26Z</time>
      </trkpt>
      <trkpt lat="44.60096" lon="3.48655">
        <ele>1135.6531</ele>
        <time>2022-01-19T18:53:27Z</time>
      </trkpt>
      <trkpt lat="44.60098" lon="3.48655">
        <ele>1135.7377</ele>
        <time>2022-01-19T18:53:28Z</time>
      </trkpt>
      <trkpt lat="44.60099" lon="3.48654">
        <ele>1135.6742</ele>
        <time>2022-01-19T18:53:29Z</time>
      </trkpt>
      <trkpt lat="44.60101" lon="3.48653">
        <ele>1135.7483</ele>
        <time>2022-01-19T18:53:30Z</time>
      </trkpt>
      <trkpt lat="44.60103" lon="3.48653">
        <ele>1135.8486</ele>
        <time>2022-01-19T18:53:31Z</time>
      </trkpt>
      <trkpt lat="44.60104" lon="3.48653">
        <ele>1135.8223</ele>
        <time>2022-01-19T18:53:32Z</time>
      </trkpt>
      <trkpt lat="44.60105" lon="3.48652">
        <ele>1135.891</ele>
        <time>2022-01-19T18:53:33Z</time>
      </trkpt>
      <trkpt lat="44.60106" lon="3.48652">
        <ele>1135.9808</ele>
        <time>2022-01-19T18:53:34Z</time>
      </trkpt>
      <trkpt lat="44.60107" lon="3.48651">
        <ele>1136.0178</ele>
        <time>2022-01-19T18:53:35Z</time>
      </trkpt>
      <trkpt lat="44.60108" lon="3.48651">
        <ele>1136.097</ele>
        <time>2022-01-19T18:53:36Z</time>
      </trkpt>
      <trkpt lat="44.6011" lon="3.4865">
        <ele>1136.2133</ele>
        <time>2022-01-19T18:53:37Z</time>
      </trkpt>
      <trkpt lat="44.60111" lon="3.48649">
        <ele>1136.1816</ele>
        <time>2022-01-19T18:53:38Z</time>
      </trkpt>
      <trkpt lat="44.60112" lon="3.48649">
        <ele>1136.1393</ele>
        <time>2022-01-19T18:53:39Z</time>
      </trkpt>
      <trkpt lat="44.60113" lon="3.48648">
        <ele>1136.171</ele>
        <time>2022-01-19T18:53:40Z</time>
      </trkpt>
      <trkpt lat="44.60115" lon="3.48648">
        <ele>1136.356</ele>
        <time>2022-01-19T18:53:41Z</time>
      </trkpt>
      <trkpt lat="44.60115" lon="3.48647">
        <ele>1136.4512</ele>
        <time>2022-01-19T18:53:42Z</time>
      </trkpt>
      <trkpt lat="44.60116" lon="3.48647">
        <ele>1136.5833</ele>
        <time>2022-01-19T18:53:43Z</time>
      </trkpt>
      <trkpt lat="44.60117" lon="3.48646">
        <ele>1136.7312</ele>
        <time>2022-01-19T18:53:44Z</time>
      </trkpt>
      <trkpt lat="44.60119" lon="3.48646">
        <ele>1136.784</ele>
        <time>2022-01-19T18:53:45Z</time>
      </trkpt>
      <trkpt lat="44.6012" lon="3.48645">
        <ele>1136.8792</ele>
        <time>2022-01-19T18:53:46Z</time>
      </trkpt>
      <trkpt lat="44.60122" lon="3.48645">
        <ele>1136.9901</ele>
        <time>2022-01-19T18:53:47Z</time>
      </trkpt>
      <trkpt lat="44.60123" lon="3.48644">
        <ele>1137.1962</ele>
        <time>2022-01-19T18:53:48Z</time>
      </trkpt>
      <trkpt lat="44.60125" lon="3.48644">
        <ele>1137.2438</ele>
        <time>2022-01-19T18:53:49Z</time>
      </trkpt>
      <trkpt lat="44.60126" lon="3.48643">
        <ele>1137.2703</ele>
        <time>2022-01-19T18:53:50Z</time>
      </trkpt>
      <trkpt lat="44.60128" lon="3.48643">
        <ele>1137.3073</ele>
        <time>2022-01-19T18:53:51Z</time>
      </trkpt>
      <trkpt lat="44.60129" lon="3.48643">
        <ele>1137.2966</ele>
        <time>2022-01-19T18:53:52Z</time>
      </trkpt>
      <trkpt lat="44.6013" lon="3.48642">
        <ele>1137.5345</ele>
        <time>2022-01-19T18:53:53Z</time>
      </trkpt>
      <trkpt lat="44.60132" lon="3.48642">
        <ele>1137.6982</ele>
        <time>2022-01-19T18:53:54Z</time>
      </trkpt>
      <trkpt lat="44.60133" lon="3.48641">
        <ele>1137.7563</ele>
        <time>2022-01-19T18:53:55Z</time>
      </trkpt>
      <trkpt lat="44.60134" lon="3.48641">
        <ele>1137.862</ele>
        <time>2022-01-19T18:53:56Z</time>
      </trkpt>
      <trkpt lat="44.60136" lon="3.4864">
        <ele>1138.0681</ele>
        <time>2022-01-19T18:53:57Z</time>
      </trkpt>
      <trkpt lat="44.60137" lon="3.4864">
        <ele>1138.3165</ele>
        <time>2022-01-19T18:53:58Z</time>
      </trkpt>
      <trkpt lat="44.60138" lon="3.48639">
        <ele>1138.5016</ele>
        <time>2022-01-19T18:53:59Z</time>
      </trkpt>
      <trkpt lat="44.60139" lon="3.48639">
        <ele>1138.771</ele>
        <time>2022-01-19T18:54:00Z</time>
      </trkpt>
      <trkpt lat="44.6014" lon="3.48639">
        <ele>1138.8873</ele>
        <time>2022-01-19T18:54:01Z</time>
      </trkpt>
      <trkpt lat="44.60141" lon="3.48639">
        <ele>1139.0988</ele>
        <time>2022-01-19T18:54:02Z</time>
      </trkpt>
      <trkpt lat="44.60142" lon="3.48638">
        <ele>1139.1938</ele>
        <time>2022-01-19T18:54:03Z</time>
      </trkpt>
      <trkpt lat="44.60143" lon="3.48638">
        <ele>1139.2942</ele>
        <time>2022-01-19T18:54:04Z</time>
      </trkpt>
      <trkpt lat="44.60144" lon="3.48637">
        <ele>1139.6431</ele>
        <time>2022-01-19T18:54:05Z</time>
      </trkpt>
      <trkpt lat="44.60146" lon="3.48637">
        <ele>1139.7117</ele>
        <time>2022-01-19T18:54:06Z</time>
      </trkpt>
      <trkpt lat="44.60147" lon="3.48637">
        <ele>1140.0023</ele>
        <time>2022-01-19T18:54:07Z</time>
      </trkpt>
      <trkpt lat="44.60148" lon="3.48637">
        <ele>1140.3195</ele>
        <time>2022-01-19T18:54:08Z</time>
      </trkpt>
      <trkpt lat="44.60149" lon="3.48636">
        <ele>1140.4833</ele>
        <time>2022-01-19T18:54:09Z</time>
      </trkpt>
      <trkpt lat="44.6015" lon="3.48636">
        <ele>1140.6841</ele>
        <time>2022-01-19T18:54:10Z</time>
      </trkpt>
      <trkpt lat="44.60151" lon="3.48635">
        <ele>1141.0117</ele>
        <time>2022-01-19T18:54:11Z</time>
      </trkpt>
      <trkpt lat="44.60152" lon="3.48634">
        <ele>1141.2338</ele>
        <time>2022-01-19T18:54:12Z</time>
      </trkpt>
      <trkpt lat="44.60153" lon="3.48634">
        <ele>1141.4503</ele>
        <time>2022-01-19T18:54:13Z</time>
      </trkpt>
      <trkpt lat="44.60154" lon="3.48633">
        <ele>1141.6829</ele>
        <time>2022-01-19T18:54:14Z</time>
      </trkpt>
      <trkpt lat="44.60155" lon="3.48632">
        <ele>1141.8308</ele>
        <time>2022-01-19T18:54:15Z</time>
      </trkpt>
      <trkpt lat="44.60156" lon="3.48632">
        <ele>1142.1691</ele>
        <time>2022-01-19T18:54:16Z</time>
      </trkpt>
      <trkpt lat="44.60157" lon="3.48631">
        <ele>1142.1956</ele>
        <time>2022-01-19T18:54:17Z</time>
      </trkpt>
      <trkpt lat="44.60157" lon="3.48631">
        <ele>1142.5548</ele>
        <time>2022-01-19T18:54:18Z</time>
      </trkpt>
      <trkpt lat="44.60158" lon="3.4863">
        <ele>1142.835</ele>
        <time>2022-01-19T18:54:19Z</time>
      </trkpt>
      <trkpt lat="44.60159" lon="3.48629">
        <ele>1143.041</ele>
        <time>2022-01-19T18:54:20Z</time>
      </trkpt>
      <trkpt lat="44.6016" lon="3.48629">
        <ele>1143.1891</ele>
        <time>2022-01-19T18:54:21Z</time>
      </trkpt>
      <trkpt lat="44.60161" lon="3.48629">
        <ele>1143.3793</ele>
        <time>2022-01-19T18:54:22Z</time>
      </trkpt>
      <trkpt lat="44.60162" lon="3.48628">
        <ele>1143.5114</ele>
        <time>2022-01-19T18:54:23Z</time>
      </trkpt>
      <trkpt lat="44.60163" lon="3.48628">
        <ele>1143.7228</ele>
        <time>2022-01-19T18:54:24Z</time>
      </trkpt>
      <trkpt lat="44.60164" lon="3.48627">
        <ele>1143.855</ele>
        <time>2022-01-19T18:54:25Z</time>
      </trkpt>
      <trkpt lat="44.60165" lon="3.48626">
        <ele>1144.0663</ele>
        <time>2022-01-19T18:54:26Z</time>
      </trkpt>
      <trkpt lat="44.60166" lon="3.48626">
        <ele>1144.2406</ele>
        <time>2022-01-19T18:54:27Z</time>
      </trkpt>
      <trkpt lat="44.60167" lon="3.48625">
        <ele>1144.2988</ele>
        <time>2022-01-19T18:54:28Z</time>
      </trkpt>
      <trkpt lat="44.60167" lon="3.48625">
        <ele>1144.378</ele>
        <time>2022-01-19T18:54:29Z</time>
      </trkpt>
      <trkpt lat="44.60169" lon="3.48624">
        <ele>1144.6106</ele>
        <time>2022-01-19T18:54:30Z</time>
      </trkpt>
      <trkpt lat="44.6017" lon="3.48623">
        <ele>1144.6846</ele>
        <time>2022-01-19T18:54:31Z</time>
      </trkpt>
      <trkpt lat="44.60171" lon="3.48622">
        <ele>1144.8219</ele>
        <time>2022-01-19T18:54:32Z</time>
      </trkpt>
      <trkpt lat="44.60172" lon="3.4862">
        <ele>1144.9487</ele>
        <time>2022-01-19T18:54:33Z</time>
      </trkpt>
      <trkpt lat="44.60173" lon="3.48619">
        <ele>1145.1338</ele>
        <time>2022-01-19T18:54:34Z</time>
      </trkpt>
      <trkpt lat="44.60174" lon="3.48619">
        <ele>1145.2871</ele>
        <time>2022-01-19T18:54:35Z</time>
      </trkpt>
      <trkpt lat="44.60175" lon="3.48618">
        <ele>1145.7891</ele>
        <time>2022-01-19T18:54:36Z</time>
      </trkpt>
      <trkpt lat="44.60177" lon="3.48617">
        <ele>1146.0586</ele>
        <time>2022-01-19T18:54:37Z</time>
      </trkpt>
      <trkpt lat="44.60177" lon="3.48617">
        <ele>1145.6675</ele>
        <time>2022-01-19T18:54:38Z</time>
      </trkpt>
      <trkpt lat="44.60178" lon="3.48616">
        <ele>1145.768</ele>
        <time>2022-01-19T18:54:39Z</time>
      </trkpt>
      <trkpt lat="44.6018" lon="3.48615">
        <ele>1145.8684</ele>
        <time>2022-01-19T18:54:40Z</time>
      </trkpt>
      <trkpt lat="44.6018" lon="3.48615">
        <ele>1146.1326</ele>
        <time>2022-01-19T18:54:41Z</time>
      </trkpt>
      <trkpt lat="44.60181" lon="3.48614">
        <ele>1146.2435</ele>
        <time>2022-01-19T18:54:42Z</time>
      </trkpt>
      <trkpt lat="44.60183" lon="3.48614">
        <ele>1146.2859</ele>
        <time>2022-01-19T18:54:43Z</time>
      </trkpt>
      <trkpt lat="44.60184" lon="3.48613">
        <ele>1146.4761</ele>
        <time>2022-01-19T18:54:44Z</time>
      </trkpt>
      <trkpt lat="44.60185" lon="3.48612">
        <ele>1146.4443</ele>
        <time>2022-01-19T18:54:45Z</time>
      </trkpt>
      <trkpt lat="44.60186" lon="3.48612">
        <ele>1146.6558</ele>
        <time>2022-01-19T18:54:46Z</time>
      </trkpt>
      <trkpt lat="44.60187" lon="3.48611">
        <ele>1146.772</ele>
        <time>2022-01-19T18:54:47Z</time>
      </trkpt>
      <trkpt lat="44.60188" lon="3.4861">
        <ele>1146.7985</ele>
        <time>2022-01-19T18:54:48Z</time>
      </trkpt>
      <trkpt lat="44.60189" lon="3.48609">
        <ele>1147.1102</ele>
        <time>2022-01-19T18:54:49Z</time>
      </trkpt>
      <trkpt lat="44.6019" lon="3.48608">
        <ele>1147.2635</ele>
        <time>2022-01-19T18:54:50Z</time>
      </trkpt>
      <trkpt lat="44.60191" lon="3.48608">
        <ele>1147.3005</ele>
        <time>2022-01-19T18:54:51Z</time>
      </trkpt>
      <trkpt lat="44.60192" lon="3.48607">
        <ele>1147.4485</ele>
        <time>2022-01-19T18:54:52Z</time>
      </trkpt>
      <trkpt lat="44.60193" lon="3.48606">
        <ele>1147.6069</ele>
        <time>2022-01-19T18:54:53Z</time>
      </trkpt>
      <trkpt lat="44.60194" lon="3.48605">
        <ele>1147.7285</ele>
        <time>2022-01-19T18:54:54Z</time>
      </trkpt>
      <trkpt lat="44.60195" lon="3.48604">
        <ele>1147.8765</ele>
        <time>2022-01-19T18:54:55Z</time>
      </trkpt>
      <trkpt lat="44.60196" lon="3.48603">
        <ele>1148.109</ele>
        <time>2022-01-19T18:54:56Z</time>
      </trkpt>
      <trkpt lat="44.60197" lon="3.48602">
        <ele>1148.3257</ele>
        <time>2022-01-19T18:54:57Z</time>
      </trkpt>
      <trkpt lat="44.60198" lon="3.48601">
        <ele>1148.4789</ele>
        <time>2022-01-19T18:54:58Z</time>
      </trkpt>
      <trkpt lat="44.60199" lon="3.486">
        <ele>1148.5582</ele>
        <time>2022-01-19T18:54:59Z</time>
      </trkpt>
      <trkpt lat="44.602" lon="3.48599">
        <ele>1148.6903</ele>
        <time>2022-01-19T18:55:00Z</time>
      </trkpt>
      <trkpt lat="44.60201" lon="3.48598">
        <ele>1148.8806</ele>
        <time>2022-01-19T18:55:01Z</time>
      </trkpt>
      <trkpt lat="44.60202" lon="3.48597">
        <ele>1149.0338</ele>
        <time>2022-01-19T18:55:02Z</time>
      </trkpt>
      <trkpt lat="44.60203" lon="3.48596">
        <ele>1148.9546</ele>
        <time>2022-01-19T18:55:03Z</time>
      </trkpt>
      <trkpt lat="44.60204" lon="3.48596">
        <ele>1149.1765</ele>
        <time>2022-01-19T18:55:04Z</time>
      </trkpt>
      <trkpt lat="44.60206" lon="3.48595">
        <ele>1149.4565</ele>
        <time>2022-01-19T18:55:05Z</time>
      </trkpt>
      <trkpt lat="44.60206" lon="3.48594">
        <ele>1149.6945</ele>
        <time>2022-01-19T18:55:06Z</time>
      </trkpt>
      <trkpt lat="44.60208" lon="3.48593">
        <ele>1149.6522</ele>
        <time>2022-01-19T18:55:07Z</time>
      </trkpt>
      <trkpt lat="44.60209" lon="3.48592">
        <ele>1149.8583</ele>
        <time>2022-01-19T18:55:08Z</time>
      </trkpt>
      <trkpt lat="44.6021" lon="3.48591">
        <ele>1150.0908</ele>
        <time>2022-01-19T18:55:09Z</time>
      </trkpt>
      <trkpt lat="44.60211" lon="3.4859">
        <ele>1150.2863</ele>
        <time>2022-01-19T18:55:10Z</time>
      </trkpt>
      <trkpt lat="44.60212" lon="3.48589">
        <ele>1150.4872</ele>
        <time>2022-01-19T18:55:11Z</time>
      </trkpt>
      <trkpt lat="44.60213" lon="3.48589">
        <ele>1150.6562</ele>
        <time>2022-01-19T18:55:12Z</time>
      </trkpt>
      <trkpt lat="44.60214" lon="3.48588">
        <ele>1150.7725</ele>
        <time>2022-01-19T18:55:13Z</time>
      </trkpt>
      <trkpt lat="44.60215" lon="3.48587">
        <ele>1150.8834</ele>
        <time>2022-01-19T18:55:14Z</time>
      </trkpt>
      <trkpt lat="44.60216" lon="3.48587">
        <ele>1150.9628</ele>
        <time>2022-01-19T18:55:15Z</time>
      </trkpt>
      <trkpt lat="44.60217" lon="3.48586">
        <ele>1151.2428</ele>
        <time>2022-01-19T18:55:16Z</time>
      </trkpt>
      <trkpt lat="44.60218" lon="3.48585">
        <ele>1151.3696</ele>
        <time>2022-01-19T18:55:17Z</time>
      </trkpt>
      <trkpt lat="44.60219" lon="3.48585">
        <ele>1151.4436</ele>
        <time>2022-01-19T18:55:18Z</time>
      </trkpt>
      <trkpt lat="44.6022" lon="3.48585">
        <ele>1151.5863</ele>
        <time>2022-01-19T18:55:19Z</time>
      </trkpt>
      <trkpt lat="44.60222" lon="3.48585">
        <ele>1151.8188</ele>
        <time>2022-01-19T18:55:20Z</time>
      </trkpt>
      <trkpt lat="44.60223" lon="3.48586">
        <ele>1152.0355</ele>
        <time>2022-01-19T18:55:21Z</time>
      </trkpt>
      <trkpt lat="44.60224" lon="3.48586">
        <ele>1152.0673</ele>
        <time>2022-01-19T18:55:22Z</time>
      </trkpt>
      <trkpt lat="44.60225" lon="3.48587">
        <ele>1152.0989</ele>
        <time>2022-01-19T18:55:23Z</time>
      </trkpt>
      <trkpt lat="44.60226" lon="3.48589">
        <ele>1152.1624</ele>
        <time>2022-01-19T18:55:24Z</time>
      </trkpt>
      <trkpt lat="44.60226" lon="3.4859">
        <ele>1152.173</ele>
        <time>2022-01-19T18:55:25Z</time>
      </trkpt>
      <trkpt lat="44.60227" lon="3.48591">
        <ele>1152.2363</ele>
        <time>2022-01-19T18:55:26Z</time>
      </trkpt>
      <trkpt lat="44.60228" lon="3.48592">
        <ele>1152.2838</ele>
        <time>2022-01-19T18:55:27Z</time>
      </trkpt>
      <trkpt lat="44.60229" lon="3.48594">
        <ele>1152.3527</ele>
        <time>2022-01-19T18:55:28Z</time>
      </trkpt>
      <trkpt lat="44.6023" lon="3.48595">
        <ele>1152.3895</ele>
        <time>2022-01-19T18:55:29Z</time>
      </trkpt>
      <trkpt lat="44.6023" lon="3.48597">
        <ele>1152.3579</ele>
        <time>2022-01-19T18:55:30Z</time>
      </trkpt>
      <trkpt lat="44.60231" lon="3.48598">
        <ele>1152.3579</ele>
        <time>2022-01-19T18:55:31Z</time>
      </trkpt>
      <trkpt lat="44.60232" lon="3.486">
        <ele>1152.3209</ele>
        <time>2022-01-19T18:55:32Z</time>
      </trkpt>
      <trkpt lat="44.60233" lon="3.48601">
        <ele>1152.3103</ele>
        <time>2022-01-19T18:55:33Z</time>
      </trkpt>
      <trkpt lat="44.60235" lon="3.48603">
        <ele>1152.3632</ele>
        <time>2022-01-19T18:55:34Z</time>
      </trkpt>
      <trkpt lat="44.60236" lon="3.48604">
        <ele>1152.527</ele>
        <time>2022-01-19T18:55:35Z</time>
      </trkpt>
      <trkpt lat="44.60236" lon="3.48605">
        <ele>1152.7013</ele>
        <time>2022-01-19T18:55:36Z</time>
      </trkpt>
      <trkpt lat="44.60237" lon="3.48607">
        <ele>1152.7332</ele>
        <time>2022-01-19T18:55:37Z</time>
      </trkpt>
      <trkpt lat="44.60238" lon="3.48608">
        <ele>1152.9656</ele>
        <time>2022-01-19T18:55:38Z</time>
      </trkpt>
      <trkpt lat="44.60238" lon="3.48609">
        <ele>1152.9445</ele>
        <time>2022-01-19T18:55:39Z</time>
      </trkpt>
      <trkpt lat="44.60239" lon="3.48611">
        <ele>1153.1718</ele>
        <time>2022-01-19T18:55:40Z</time>
      </trkpt>
      <trkpt lat="44.60239" lon="3.48613">
        <ele>1153.2773</ele>
        <time>2022-01-19T18:55:41Z</time>
      </trkpt>
      <trkpt lat="44.6024" lon="3.48615">
        <ele>1153.4095</ele>
        <time>2022-01-19T18:55:42Z</time>
      </trkpt>
      <trkpt lat="44.6024" lon="3.48616">
        <ele>1153.5786</ele>
        <time>2022-01-19T18:55:43Z</time>
      </trkpt>
      <trkpt lat="44.6024" lon="3.48617">
        <ele>1153.6315</ele>
        <time>2022-01-19T18:55:44Z</time>
      </trkpt>
      <trkpt lat="44.60241" lon="3.48618">
        <ele>1153.7742</ele>
        <time>2022-01-19T18:55:45Z</time>
      </trkpt>
      <trkpt lat="44.60241" lon="3.48619">
        <ele>1153.8534</ele>
        <time>2022-01-19T18:55:46Z</time>
      </trkpt>
      <trkpt lat="44.60242" lon="3.4862">
        <ele>1153.938</ele>
        <time>2022-01-19T18:55:47Z</time>
      </trkpt>
      <trkpt lat="44.60243" lon="3.48621">
        <ele>1154.0859</ele>
        <time>2022-01-19T18:55:48Z</time>
      </trkpt>
      <trkpt lat="44.60243" lon="3.48622">
        <ele>1154.1177</ele>
        <time>2022-01-19T18:55:49Z</time>
      </trkpt>
      <trkpt lat="44.60243" lon="3.48623">
        <ele>1154.0966</ele>
        <time>2022-01-19T18:55:50Z</time>
      </trkpt>
      <trkpt lat="44.60243" lon="3.48623">
        <ele>1154.2339</ele>
        <time>2022-01-19T18:55:51Z</time>
      </trkpt>
      <trkpt lat="44.60243" lon="3.48623">
        <ele>1154.2128</ele>
        <time>2022-01-19T18:55:52Z</time>
      </trkpt>
      <trkpt lat="44.60243" lon="3.48623">
        <ele>1154.2498</ele>
        <time>2022-01-19T18:55:53Z</time>
      </trkpt>
      <trkpt lat="44.60243" lon="3.48623">
        <ele>1154.2498</ele>
        <time>2022-01-19T18:55:53Z</time>
      </trkpt>
      <trkpt lat="44.60243" lon="3.48623">
        <ele>1154.2498</ele>
        <time>2022-01-19T18:55:53Z</time>
      </trkpt>
    </trkseg>
  </trk>
</gpx>